<?xml version="1.0" encoding="UTF-8" standalone="no" ?><gpx xmlns="http://www.topografix.com/GPX/1/1" xmlns:gpxx="http://www.garmin.com/xmlschemas/GpxExtensions/v3" xmlns:wptx1="http://www.garmin.com/xmlschemas/WaypointExtension/v1" xmlns:gpxtpx="http://www.garmin.com/xmlschemas/TrackPointExtension/v1" creator="GuideVTT.com" version="1.1" xmlns:xsi="http://www.w3.org/2001/XMLSchema-instance" xsi:schemaLocation="http://www.topografix.com/GPX/1/1 http://www.topografix.com/GPX/1/1/gpx.xsd http://www.garmin.com/xmlschemas/GpxExtensions/v3 http://www8.garmin.com/xmlschemas/GpxExtensionsv3.xsd http://www.garmin.com/xmlschemas/WaypointExtension/v1 http://www8.garmin.com/xmlschemas/WaypointExtensionv1.xsd http://www.garmin.com/xmlschemas/TrackPointExtension/v1 http://www.garmin.com/xmlschemas/TrackPointExtensionv1.xsd">
<metadata><link href="http://www.garmin.com"><text>Garmin International</text></link><time>2013-06-22T15:13:50Z</time></metadata>
<trk><name>ovronnaz1.gpx</name><extensions><gpxx:TrackExtension><gpxx:DisplayColor>Cyan</gpxx:DisplayColor></gpxx:TrackExtension></extensions><trkseg>
<trkpt lat="46.20481300" lon="7.16302000"><ele></ele><time>2014-7-4T22:23:43Z</time></trkpt>
<trkpt lat="46.20481100" lon="7.16302000"><ele></ele><time>2014-7-4T22:23:46Z</time></trkpt>
<trkpt lat="46.20483200" lon="7.16301200"><ele></ele><time>2014-7-4T22:23:49Z</time></trkpt>
<trkpt lat="46.20483700" lon="7.16300200"><ele></ele><time>2014-7-4T22:23:52Z</time></trkpt>
<trkpt lat="46.20484600" lon="7.16299500"><ele></ele><time>2014-7-4T22:23:55Z</time></trkpt>
<trkpt lat="46.20485800" lon="7.16299200"><ele></ele><time>2014-7-4T22:23:58Z</time></trkpt>
<trkpt lat="46.20487300" lon="7.16299500"><ele></ele><time>2014-7-4T22:24:1Z</time></trkpt>
<trkpt lat="46.20488600" lon="7.16299900"><ele></ele><time>2014-7-4T22:24:4Z</time></trkpt>
<trkpt lat="46.20490300" lon="7.16300600"><ele></ele><time>2014-7-4T22:24:7Z</time></trkpt>
<trkpt lat="46.20492000" lon="7.16301800"><ele></ele><time>2014-7-4T22:24:10Z</time></trkpt>
<trkpt lat="46.20493800" lon="7.16303400"><ele></ele><time>2014-7-4T22:24:13Z</time></trkpt>
<trkpt lat="46.20495400" lon="7.16305400"><ele></ele><time>2014-7-4T22:24:16Z</time></trkpt>
<trkpt lat="46.20496400" lon="7.16307800"><ele></ele><time>2014-7-4T22:24:19Z</time></trkpt>
<trkpt lat="46.20496500" lon="7.16310700"><ele></ele><time>2014-7-4T22:24:22Z</time></trkpt>
<trkpt lat="46.20496000" lon="7.16313600"><ele></ele><time>2014-7-4T22:24:25Z</time></trkpt>
<trkpt lat="46.20495600" lon="7.16316200"><ele></ele><time>2014-7-4T22:24:28Z</time></trkpt>
<trkpt lat="46.20495400" lon="7.16318000"><ele></ele><time>2014-7-4T22:24:31Z</time></trkpt>
<trkpt lat="46.20495200" lon="7.16319100"><ele></ele><time>2014-7-4T22:24:34Z</time></trkpt>
<trkpt lat="46.20495600" lon="7.16320400"><ele></ele><time>2014-7-4T22:24:37Z</time></trkpt>
<trkpt lat="46.20496400" lon="7.16321800"><ele></ele><time>2014-7-4T22:24:40Z</time></trkpt>
<trkpt lat="46.20497000" lon="7.16323400"><ele></ele><time>2014-7-4T22:24:43Z</time></trkpt>
<trkpt lat="46.20496700" lon="7.16325000"><ele></ele><time>2014-7-4T22:24:46Z</time></trkpt>
<trkpt lat="46.20495500" lon="7.16325600"><ele></ele><time>2014-7-4T22:24:49Z</time></trkpt>
<trkpt lat="46.20494200" lon="7.16324900"><ele></ele><time>2014-7-4T22:24:52Z</time></trkpt>
<trkpt lat="46.20493300" lon="7.16323200"><ele></ele><time>2014-7-4T22:24:55Z</time></trkpt>
<trkpt lat="46.20493200" lon="7.16321000"><ele></ele><time>2014-7-4T22:24:58Z</time></trkpt>
<trkpt lat="46.20494100" lon="7.16319600"><ele></ele><time>2014-7-4T22:25:1Z</time></trkpt>
<trkpt lat="46.20495400" lon="7.16319300"><ele></ele><time>2014-7-4T22:25:4Z</time></trkpt>
<trkpt lat="46.20497100" lon="7.16320000"><ele></ele><time>2014-7-4T22:25:7Z</time></trkpt>
<trkpt lat="46.20498900" lon="7.16321700"><ele></ele><time>2014-7-4T22:25:10Z</time></trkpt>
<trkpt lat="46.20500300" lon="7.16323800"><ele></ele><time>2014-7-4T22:25:13Z</time></trkpt>
<trkpt lat="46.20501300" lon="7.16326100"><ele></ele><time>2014-7-4T22:25:16Z</time></trkpt>
<trkpt lat="46.20501900" lon="7.16328400"><ele></ele><time>2014-7-4T22:25:19Z</time></trkpt>
<trkpt lat="46.20502400" lon="7.16330700"><ele></ele><time>2014-7-4T22:25:22Z</time></trkpt>
<trkpt lat="46.20502600" lon="7.16332900"><ele></ele><time>2014-7-4T22:25:25Z</time></trkpt>
<trkpt lat="46.20502700" lon="7.16334900"><ele></ele><time>2014-7-4T22:25:28Z</time></trkpt>
<trkpt lat="46.20502600" lon="7.16337000"><ele></ele><time>2014-7-4T22:25:31Z</time></trkpt>
<trkpt lat="46.20502500" lon="7.16338900"><ele></ele><time>2014-7-4T22:25:34Z</time></trkpt>
<trkpt lat="46.20502600" lon="7.16340900"><ele></ele><time>2014-7-4T22:25:37Z</time></trkpt>
<trkpt lat="46.20502600" lon="7.16342900"><ele></ele><time>2014-7-4T22:25:40Z</time></trkpt>
<trkpt lat="46.20502400" lon="7.16344900"><ele></ele><time>2014-7-4T22:25:43Z</time></trkpt>
<trkpt lat="46.20501800" lon="7.16346700"><ele></ele><time>2014-7-4T22:25:46Z</time></trkpt>
<trkpt lat="46.20501300" lon="7.16348600"><ele></ele><time>2014-7-4T22:25:49Z</time></trkpt>
<trkpt lat="46.20501300" lon="7.16350400"><ele></ele><time>2014-7-4T22:25:52Z</time></trkpt>
<trkpt lat="46.20502000" lon="7.16352000"><ele></ele><time>2014-7-4T22:25:55Z</time></trkpt>
<trkpt lat="46.20502800" lon="7.16353200"><ele></ele><time>2014-7-4T22:25:58Z</time></trkpt>
<trkpt lat="46.20503700" lon="7.16353700"><ele></ele><time>2014-7-4T22:26:1Z</time></trkpt>
<trkpt lat="46.20504700" lon="7.16353700"><ele></ele><time>2014-7-4T22:26:4Z</time></trkpt>
<trkpt lat="46.20505700" lon="7.16353600"><ele></ele><time>2014-7-4T22:26:7Z</time></trkpt>
<trkpt lat="46.20506700" lon="7.16353300"><ele></ele><time>2014-7-4T22:26:10Z</time></trkpt>
<trkpt lat="46.20507900" lon="7.16352600"><ele></ele><time>2014-7-4T22:26:13Z</time></trkpt>
<trkpt lat="46.20508900" lon="7.16351600"><ele></ele><time>2014-7-4T22:26:16Z</time></trkpt>
<trkpt lat="46.20510000" lon="7.16350800"><ele></ele><time>2014-7-4T22:26:19Z</time></trkpt>
<trkpt lat="46.20510600" lon="7.16349800"><ele></ele><time>2014-7-4T22:26:22Z</time></trkpt>
<trkpt lat="46.20511600" lon="7.16348700"><ele></ele><time>2014-7-4T22:26:25Z</time></trkpt>
<trkpt lat="46.20512800" lon="7.16347500"><ele></ele><time>2014-7-4T22:26:28Z</time></trkpt>
<trkpt lat="46.20514000" lon="7.16346400"><ele></ele><time>2014-7-4T22:26:31Z</time></trkpt>
<trkpt lat="46.20515300" lon="7.16345400"><ele></ele><time>2014-7-4T22:26:34Z</time></trkpt>
<trkpt lat="46.20516300" lon="7.16344500"><ele></ele><time>2014-7-4T22:26:37Z</time></trkpt>
<trkpt lat="46.20516900" lon="7.16343500"><ele></ele><time>2014-7-4T22:26:40Z</time></trkpt>
<trkpt lat="46.20517700" lon="7.16342700"><ele></ele><time>2014-7-4T22:26:43Z</time></trkpt>
<trkpt lat="46.20518600" lon="7.16341700"><ele></ele><time>2014-7-4T22:26:46Z</time></trkpt>
<trkpt lat="46.20519400" lon="7.16340600"><ele></ele><time>2014-7-4T22:26:49Z</time></trkpt>
<trkpt lat="46.20520300" lon="7.16339500"><ele></ele><time>2014-7-4T22:26:52Z</time></trkpt>
<trkpt lat="46.20521300" lon="7.16338700"><ele></ele><time>2014-7-4T22:26:55Z</time></trkpt>
<trkpt lat="46.20522000" lon="7.16337700"><ele></ele><time>2014-7-4T22:26:58Z</time></trkpt>
<trkpt lat="46.20523400" lon="7.16336900"><ele></ele><time>2014-7-4T22:27:1Z</time></trkpt>
<trkpt lat="46.20524500" lon="7.16335800"><ele></ele><time>2014-7-4T22:27:4Z</time></trkpt>
<trkpt lat="46.20525600" lon="7.16334800"><ele></ele><time>2014-7-4T22:27:7Z</time></trkpt>
<trkpt lat="46.20526600" lon="7.16334000"><ele></ele><time>2014-7-4T22:27:10Z</time></trkpt>
<trkpt lat="46.20527600" lon="7.16333300"><ele></ele><time>2014-7-4T22:27:13Z</time></trkpt>
<trkpt lat="46.20528600" lon="7.16332600"><ele></ele><time>2014-7-4T22:27:16Z</time></trkpt>
<trkpt lat="46.20529800" lon="7.16331900"><ele></ele><time>2014-7-4T22:27:19Z</time></trkpt>
<trkpt lat="46.20531300" lon="7.16331100"><ele></ele><time>2014-7-4T22:27:22Z</time></trkpt>
<trkpt lat="46.20532900" lon="7.16330300"><ele></ele><time>2014-7-4T22:27:25Z</time></trkpt>
<trkpt lat="46.20534000" lon="7.16329200"><ele></ele><time>2014-7-4T22:27:28Z</time></trkpt>
<trkpt lat="46.20535000" lon="7.16327900"><ele></ele><time>2014-7-4T22:27:31Z</time></trkpt>
<trkpt lat="46.20536100" lon="7.16326600"><ele></ele><time>2014-7-4T22:27:34Z</time></trkpt>
<trkpt lat="46.20536900" lon="7.16325200"><ele></ele><time>2014-7-4T22:27:37Z</time></trkpt>
<trkpt lat="46.20537300" lon="7.16323500"><ele></ele><time>2014-7-4T22:27:40Z</time></trkpt>
<trkpt lat="46.20537900" lon="7.16322000"><ele></ele><time>2014-7-4T22:27:43Z</time></trkpt>
<trkpt lat="46.20538500" lon="7.16320500"><ele></ele><time>2014-7-4T22:27:46Z</time></trkpt>
<trkpt lat="46.20539700" lon="7.16319200"><ele></ele><time>2014-7-4T22:27:49Z</time></trkpt>
<trkpt lat="46.20540400" lon="7.16318000"><ele></ele><time>2014-7-4T22:27:52Z</time></trkpt>
<trkpt lat="46.20541100" lon="7.16316800"><ele></ele><time>2014-7-4T22:27:55Z</time></trkpt>
<trkpt lat="46.20541600" lon="7.16315400"><ele></ele><time>2014-7-4T22:27:58Z</time></trkpt>
<trkpt lat="46.20542000" lon="7.16314200"><ele></ele><time>2014-7-4T22:28:1Z</time></trkpt>
<trkpt lat="46.20542500" lon="7.16313300"><ele></ele><time>2014-7-4T22:28:4Z</time></trkpt>
<trkpt lat="46.20543100" lon="7.16312100"><ele></ele><time>2014-7-4T22:28:7Z</time></trkpt>
<trkpt lat="46.20543400" lon="7.16310400"><ele></ele><time>2014-7-4T22:28:10Z</time></trkpt>
<trkpt lat="46.20543600" lon="7.16308800"><ele></ele><time>2014-7-4T22:28:13Z</time></trkpt>
<trkpt lat="46.20543700" lon="7.16307300"><ele></ele><time>2014-7-4T22:28:16Z</time></trkpt>
<trkpt lat="46.20543700" lon="7.16305800"><ele></ele><time>2014-7-4T22:28:19Z</time></trkpt>
<trkpt lat="46.20543800" lon="7.16304400"><ele></ele><time>2014-7-4T22:28:22Z</time></trkpt>
<trkpt lat="46.20543700" lon="7.16303000"><ele></ele><time>2014-7-4T22:28:25Z</time></trkpt>
<trkpt lat="46.20543600" lon="7.16301600"><ele></ele><time>2014-7-4T22:28:28Z</time></trkpt>
<trkpt lat="46.20543500" lon="7.16300300"><ele></ele><time>2014-7-4T22:28:31Z</time></trkpt>
<trkpt lat="46.20543600" lon="7.16299000"><ele></ele><time>2014-7-4T22:28:34Z</time></trkpt>
<trkpt lat="46.20543800" lon="7.16297800"><ele></ele><time>2014-7-4T22:28:37Z</time></trkpt>
<trkpt lat="46.20544100" lon="7.16296400"><ele></ele><time>2014-7-4T22:28:40Z</time></trkpt>
<trkpt lat="46.20544400" lon="7.16295100"><ele></ele><time>2014-7-4T22:28:43Z</time></trkpt>
<trkpt lat="46.20544500" lon="7.16293600"><ele></ele><time>2014-7-4T22:28:46Z</time></trkpt>
<trkpt lat="46.20544500" lon="7.16291900"><ele></ele><time>2014-7-4T22:28:49Z</time></trkpt>
<trkpt lat="46.20544600" lon="7.16290500"><ele></ele><time>2014-7-4T22:28:52Z</time></trkpt>
<trkpt lat="46.20544800" lon="7.16288900"><ele></ele><time>2014-7-4T22:28:55Z</time></trkpt>
<trkpt lat="46.20545300" lon="7.16285900"><ele></ele><time>2014-7-4T22:28:58Z</time></trkpt>
<trkpt lat="46.20545800" lon="7.16284400"><ele></ele><time>2014-7-4T22:29:1Z</time></trkpt>
<trkpt lat="46.20546000" lon="7.16282700"><ele></ele><time>2014-7-4T22:29:4Z</time></trkpt>
<trkpt lat="46.20546200" lon="7.16281100"><ele></ele><time>2014-7-4T22:29:7Z</time></trkpt>
<trkpt lat="46.20546800" lon="7.16279600"><ele></ele><time>2014-7-4T22:29:10Z</time></trkpt>
<trkpt lat="46.20547500" lon="7.16278100"><ele></ele><time>2014-7-4T22:29:13Z</time></trkpt>
<trkpt lat="46.20548300" lon="7.16276600"><ele></ele><time>2014-7-4T22:29:16Z</time></trkpt>
<trkpt lat="46.20548900" lon="7.16275200"><ele></ele><time>2014-7-4T22:29:19Z</time></trkpt>
<trkpt lat="46.20549300" lon="7.16273600"><ele></ele><time>2014-7-4T22:29:22Z</time></trkpt>
<trkpt lat="46.20550100" lon="7.16272100"><ele></ele><time>2014-7-4T22:29:25Z</time></trkpt>
<trkpt lat="46.20550300" lon="7.16270400"><ele></ele><time>2014-7-4T22:29:28Z</time></trkpt>
<trkpt lat="46.20551000" lon="7.16268900"><ele></ele><time>2014-7-4T22:29:31Z</time></trkpt>
<trkpt lat="46.20551700" lon="7.16267400"><ele></ele><time>2014-7-4T22:29:34Z</time></trkpt>
<trkpt lat="46.20552700" lon="7.16266000"><ele></ele><time>2014-7-4T22:29:37Z</time></trkpt>
<trkpt lat="46.20553500" lon="7.16264600"><ele></ele><time>2014-7-4T22:29:40Z</time></trkpt>
<trkpt lat="46.20554300" lon="7.16263300"><ele></ele><time>2014-7-4T22:29:43Z</time></trkpt>
<trkpt lat="46.20555000" lon="7.16261900"><ele></ele><time>2014-7-4T22:29:46Z</time></trkpt>
<trkpt lat="46.20555200" lon="7.16260100"><ele></ele><time>2014-7-4T22:29:49Z</time></trkpt>
<trkpt lat="46.20556300" lon="7.16258500"><ele></ele><time>2014-7-4T22:29:52Z</time></trkpt>
<trkpt lat="46.20556800" lon="7.16256400"><ele></ele><time>2014-7-4T22:29:55Z</time></trkpt>
<trkpt lat="46.20557400" lon="7.16254700"><ele></ele><time>2014-7-4T22:29:58Z</time></trkpt>
<trkpt lat="46.20558400" lon="7.16253600"><ele></ele><time>2014-7-4T22:30:1Z</time></trkpt>
<trkpt lat="46.20559600" lon="7.16253100"><ele></ele><time>2014-7-4T22:30:4Z</time></trkpt>
<trkpt lat="46.20560900" lon="7.16253100"><ele></ele><time>2014-7-4T22:30:7Z</time></trkpt>
<trkpt lat="46.20562300" lon="7.16253100"><ele></ele><time>2014-7-4T22:30:10Z</time></trkpt>
<trkpt lat="46.20563600" lon="7.16253700"><ele></ele><time>2014-7-4T22:30:13Z</time></trkpt>
<trkpt lat="46.20564700" lon="7.16255100"><ele></ele><time>2014-7-4T22:30:16Z</time></trkpt>
<trkpt lat="46.20565700" lon="7.16257000"><ele></ele><time>2014-7-4T22:30:19Z</time></trkpt>
<trkpt lat="46.20566100" lon="7.16259300"><ele></ele><time>2014-7-4T22:30:22Z</time></trkpt>
<trkpt lat="46.20566000" lon="7.16261800"><ele></ele><time>2014-7-4T22:30:25Z</time></trkpt>
<trkpt lat="46.20565300" lon="7.16264400"><ele></ele><time>2014-7-4T22:30:28Z</time></trkpt>
<trkpt lat="46.20564400" lon="7.16267100"><ele></ele><time>2014-7-4T22:30:31Z</time></trkpt>
<trkpt lat="46.20563300" lon="7.16269800"><ele></ele><time>2014-7-4T22:30:34Z</time></trkpt>
<trkpt lat="46.20562300" lon="7.16272700"><ele></ele><time>2014-7-4T22:30:37Z</time></trkpt>
<trkpt lat="46.20561300" lon="7.16275700"><ele></ele><time>2014-7-4T22:30:40Z</time></trkpt>
<trkpt lat="46.20560400" lon="7.16278800"><ele></ele><time>2014-7-4T22:30:43Z</time></trkpt>
<trkpt lat="46.20559900" lon="7.16282000"><ele></ele><time>2014-7-4T22:30:46Z</time></trkpt>
<trkpt lat="46.20559400" lon="7.16285100"><ele></ele><time>2014-7-4T22:30:49Z</time></trkpt>
<trkpt lat="46.20559300" lon="7.16288000"><ele></ele><time>2014-7-4T22:30:52Z</time></trkpt>
<trkpt lat="46.20559600" lon="7.16290900"><ele></ele><time>2014-7-4T22:30:55Z</time></trkpt>
<trkpt lat="46.20560100" lon="7.16293600"><ele></ele><time>2014-7-4T22:30:58Z</time></trkpt>
<trkpt lat="46.20560600" lon="7.16296100"><ele></ele><time>2014-7-4T22:31:1Z</time></trkpt>
<trkpt lat="46.20561200" lon="7.16298100"><ele></ele><time>2014-7-4T22:31:4Z</time></trkpt>
<trkpt lat="46.20562300" lon="7.16299800"><ele></ele><time>2014-7-4T22:31:7Z</time></trkpt>
<trkpt lat="46.20563500" lon="7.16301100"><ele></ele><time>2014-7-4T22:31:10Z</time></trkpt>
<trkpt lat="46.20564700" lon="7.16302400"><ele></ele><time>2014-7-4T22:31:13Z</time></trkpt>
<trkpt lat="46.20565900" lon="7.16303700"><ele></ele><time>2014-7-4T22:31:16Z</time></trkpt>
<trkpt lat="46.20567100" lon="7.16305000"><ele></ele><time>2014-7-4T22:31:19Z</time></trkpt>
<trkpt lat="46.20568200" lon="7.16306400"><ele></ele><time>2014-7-4T22:31:22Z</time></trkpt>
<trkpt lat="46.20569300" lon="7.16307900"><ele></ele><time>2014-7-4T22:31:25Z</time></trkpt>
<trkpt lat="46.20570500" lon="7.16309400"><ele></ele><time>2014-7-4T22:31:28Z</time></trkpt>
<trkpt lat="46.20571700" lon="7.16310800"><ele></ele><time>2014-7-4T22:31:31Z</time></trkpt>
<trkpt lat="46.20573000" lon="7.16312300"><ele></ele><time>2014-7-4T22:31:34Z</time></trkpt>
<trkpt lat="46.20574300" lon="7.16313500"><ele></ele><time>2014-7-4T22:31:37Z</time></trkpt>
<trkpt lat="46.20575600" lon="7.16314600"><ele></ele><time>2014-7-4T22:31:40Z</time></trkpt>
<trkpt lat="46.20576900" lon="7.16315700"><ele></ele><time>2014-7-4T22:31:43Z</time></trkpt>
<trkpt lat="46.20578000" lon="7.16316900"><ele></ele><time>2014-7-4T22:31:46Z</time></trkpt>
<trkpt lat="46.20579000" lon="7.16318200"><ele></ele><time>2014-7-4T22:31:49Z</time></trkpt>
<trkpt lat="46.20580100" lon="7.16319500"><ele></ele><time>2014-7-4T22:31:52Z</time></trkpt>
<trkpt lat="46.20581200" lon="7.16320800"><ele></ele><time>2014-7-4T22:31:55Z</time></trkpt>
<trkpt lat="46.20582400" lon="7.16322100"><ele></ele><time>2014-7-4T22:31:58Z</time></trkpt>
<trkpt lat="46.20583500" lon="7.16323600"><ele></ele><time>2014-7-4T22:32:1Z</time></trkpt>
<trkpt lat="46.20584400" lon="7.16325100"><ele></ele><time>2014-7-4T22:32:4Z</time></trkpt>
<trkpt lat="46.20585100" lon="7.16326700"><ele></ele><time>2014-7-4T22:32:7Z</time></trkpt>
<trkpt lat="46.20585800" lon="7.16328300"><ele></ele><time>2014-7-4T22:32:10Z</time></trkpt>
<trkpt lat="46.20586500" lon="7.16329900"><ele></ele><time>2014-7-4T22:32:13Z</time></trkpt>
<trkpt lat="46.20587100" lon="7.16331700"><ele></ele><time>2014-7-4T22:32:16Z</time></trkpt>
<trkpt lat="46.20587700" lon="7.16333700"><ele></ele><time>2014-7-4T22:32:19Z</time></trkpt>
<trkpt lat="46.20588300" lon="7.16335800"><ele></ele><time>2014-7-4T22:32:22Z</time></trkpt>
<trkpt lat="46.20589100" lon="7.16338000"><ele></ele><time>2014-7-4T22:32:25Z</time></trkpt>
<trkpt lat="46.20590000" lon="7.16340300"><ele></ele><time>2014-7-4T22:32:28Z</time></trkpt>
<trkpt lat="46.20590600" lon="7.16342600"><ele></ele><time>2014-7-4T22:32:31Z</time></trkpt>
<trkpt lat="46.20591100" lon="7.16345100"><ele></ele><time>2014-7-4T22:32:34Z</time></trkpt>
<trkpt lat="46.20591700" lon="7.16347600"><ele></ele><time>2014-7-4T22:32:37Z</time></trkpt>
<trkpt lat="46.20591800" lon="7.16349900"><ele></ele><time>2014-7-4T22:32:40Z</time></trkpt>
<trkpt lat="46.20591900" lon="7.16352100"><ele></ele><time>2014-7-4T22:32:43Z</time></trkpt>
<trkpt lat="46.20592000" lon="7.16354200"><ele></ele><time>2014-7-4T22:32:46Z</time></trkpt>
<trkpt lat="46.20591900" lon="7.16356400"><ele></ele><time>2014-7-4T22:32:49Z</time></trkpt>
<trkpt lat="46.20592300" lon="7.16358900"><ele></ele><time>2014-7-4T22:32:52Z</time></trkpt>
<trkpt lat="46.20593000" lon="7.16361300"><ele></ele><time>2014-7-4T22:32:55Z</time></trkpt>
<trkpt lat="46.20592800" lon="7.16363300"><ele></ele><time>2014-7-4T22:32:58Z</time></trkpt>
<trkpt lat="46.20592500" lon="7.16365400"><ele></ele><time>2014-7-4T22:33:1Z</time></trkpt>
<trkpt lat="46.20592800" lon="7.16367700"><ele></ele><time>2014-7-4T22:33:4Z</time></trkpt>
<trkpt lat="46.20592500" lon="7.16370000"><ele></ele><time>2014-7-4T22:33:7Z</time></trkpt>
<trkpt lat="46.20592900" lon="7.16372700"><ele></ele><time>2014-7-4T22:33:10Z</time></trkpt>
<trkpt lat="46.20592700" lon="7.16375300"><ele></ele><time>2014-7-4T22:33:13Z</time></trkpt>
<trkpt lat="46.20592400" lon="7.16378000"><ele></ele><time>2014-7-4T22:33:16Z</time></trkpt>
<trkpt lat="46.20592500" lon="7.16380600"><ele></ele><time>2014-7-4T22:33:19Z</time></trkpt>
<trkpt lat="46.20592300" lon="7.16383500"><ele></ele><time>2014-7-4T22:33:22Z</time></trkpt>
<trkpt lat="46.20591800" lon="7.16386400"><ele></ele><time>2014-7-4T22:33:25Z</time></trkpt>
<trkpt lat="46.20591400" lon="7.16389300"><ele></ele><time>2014-7-4T22:33:28Z</time></trkpt>
<trkpt lat="46.20590800" lon="7.16392100"><ele></ele><time>2014-7-4T22:33:31Z</time></trkpt>
<trkpt lat="46.20590400" lon="7.16394700"><ele></ele><time>2014-7-4T22:33:34Z</time></trkpt>
<trkpt lat="46.20590200" lon="7.16397100"><ele></ele><time>2014-7-4T22:33:37Z</time></trkpt>
<trkpt lat="46.20590000" lon="7.16399500"><ele></ele><time>2014-7-4T22:33:40Z</time></trkpt>
<trkpt lat="46.20590000" lon="7.16401900"><ele></ele><time>2014-7-4T22:33:43Z</time></trkpt>
<trkpt lat="46.20589800" lon="7.16404200"><ele></ele><time>2014-7-4T22:33:46Z</time></trkpt>
<trkpt lat="46.20589800" lon="7.16406300"><ele></ele><time>2014-7-4T22:33:49Z</time></trkpt>
<trkpt lat="46.20589600" lon="7.16408500"><ele></ele><time>2014-7-4T22:33:52Z</time></trkpt>
<trkpt lat="46.20589500" lon="7.16410800"><ele></ele><time>2014-7-4T22:33:55Z</time></trkpt>
<trkpt lat="46.20589600" lon="7.16413000"><ele></ele><time>2014-7-4T22:33:58Z</time></trkpt>
<trkpt lat="46.20589900" lon="7.16415000"><ele></ele><time>2014-7-4T22:34:1Z</time></trkpt>
<trkpt lat="46.20590200" lon="7.16417000"><ele></ele><time>2014-7-4T22:34:4Z</time></trkpt>
<trkpt lat="46.20590400" lon="7.16418900"><ele></ele><time>2014-7-4T22:34:7Z</time></trkpt>
<trkpt lat="46.20590400" lon="7.16420700"><ele></ele><time>2014-7-4T22:34:10Z</time></trkpt>
<trkpt lat="46.20590500" lon="7.16422100"><ele></ele><time>2014-7-4T22:34:13Z</time></trkpt>
<trkpt lat="46.20590600" lon="7.16423400"><ele></ele><time>2014-7-4T22:34:16Z</time></trkpt>
<trkpt lat="46.20590700" lon="7.16424800"><ele></ele><time>2014-7-4T22:34:19Z</time></trkpt>
<trkpt lat="46.20591000" lon="7.16426500"><ele></ele><time>2014-7-4T22:34:22Z</time></trkpt>
<trkpt lat="46.20591200" lon="7.16428700"><ele></ele><time>2014-7-4T22:34:25Z</time></trkpt>
<trkpt lat="46.20591300" lon="7.16431300"><ele></ele><time>2014-7-4T22:34:28Z</time></trkpt>
<trkpt lat="46.20591700" lon="7.16434000"><ele></ele><time>2014-7-4T22:34:31Z</time></trkpt>
<trkpt lat="46.20592000" lon="7.16436800"><ele></ele><time>2014-7-4T22:34:34Z</time></trkpt>
<trkpt lat="46.20592200" lon="7.16439300"><ele></ele><time>2014-7-4T22:34:37Z</time></trkpt>
<trkpt lat="46.20592400" lon="7.16441500"><ele></ele><time>2014-7-4T22:34:40Z</time></trkpt>
<trkpt lat="46.20592500" lon="7.16443600"><ele></ele><time>2014-7-4T22:34:43Z</time></trkpt>
<trkpt lat="46.20592700" lon="7.16445900"><ele></ele><time>2014-7-4T22:34:46Z</time></trkpt>
<trkpt lat="46.20592700" lon="7.16448000"><ele></ele><time>2014-7-4T22:34:49Z</time></trkpt>
<trkpt lat="46.20592600" lon="7.16450100"><ele></ele><time>2014-7-4T22:34:52Z</time></trkpt>
<trkpt lat="46.20592800" lon="7.16452400"><ele></ele><time>2014-7-4T22:34:55Z</time></trkpt>
<trkpt lat="46.20593100" lon="7.16454800"><ele></ele><time>2014-7-4T22:34:58Z</time></trkpt>
<trkpt lat="46.20593300" lon="7.16457300"><ele></ele><time>2014-7-4T22:35:1Z</time></trkpt>
<trkpt lat="46.20593300" lon="7.16459700"><ele></ele><time>2014-7-4T22:35:4Z</time></trkpt>
<trkpt lat="46.20593600" lon="7.16462000"><ele></ele><time>2014-7-4T22:35:7Z</time></trkpt>
<trkpt lat="46.20593700" lon="7.16464500"><ele></ele><time>2014-7-4T22:35:10Z</time></trkpt>
<trkpt lat="46.20593900" lon="7.16467300"><ele></ele><time>2014-7-4T22:35:13Z</time></trkpt>
<trkpt lat="46.20593800" lon="7.16470200"><ele></ele><time>2014-7-4T22:35:16Z</time></trkpt>
<trkpt lat="46.20593600" lon="7.16472800"><ele></ele><time>2014-7-4T22:35:19Z</time></trkpt>
<trkpt lat="46.20593500" lon="7.16475300"><ele></ele><time>2014-7-4T22:35:22Z</time></trkpt>
<trkpt lat="46.20594000" lon="7.16477900"><ele></ele><time>2014-7-4T22:35:25Z</time></trkpt>
<trkpt lat="46.20594600" lon="7.16480700"><ele></ele><time>2014-7-4T22:35:28Z</time></trkpt>
<trkpt lat="46.20594800" lon="7.16484200"><ele></ele><time>2014-7-4T22:35:31Z</time></trkpt>
<trkpt lat="46.20594900" lon="7.16488300"><ele></ele><time>2014-7-4T22:35:34Z</time></trkpt>
<trkpt lat="46.20594600" lon="7.16493200"><ele></ele><time>2014-7-4T22:35:37Z</time></trkpt>
<trkpt lat="46.20593900" lon="7.16498900"><ele></ele><time>2014-7-4T22:35:40Z</time></trkpt>
<trkpt lat="46.20592800" lon="7.16504800"><ele></ele><time>2014-7-4T22:35:43Z</time></trkpt>
<trkpt lat="46.20591400" lon="7.16511300"><ele></ele><time>2014-7-4T22:35:46Z</time></trkpt>
<trkpt lat="46.20589400" lon="7.16518000"><ele></ele><time>2014-7-4T22:35:49Z</time></trkpt>
<trkpt lat="46.20587000" lon="7.16525100"><ele></ele><time>2014-7-4T22:35:52Z</time></trkpt>
<trkpt lat="46.20584500" lon="7.16532700"><ele></ele><time>2014-7-4T22:35:55Z</time></trkpt>
<trkpt lat="46.20581800" lon="7.16540800"><ele></ele><time>2014-7-4T22:35:58Z</time></trkpt>
<trkpt lat="46.20579000" lon="7.16549300"><ele></ele><time>2014-7-4T22:36:1Z</time></trkpt>
<trkpt lat="46.20575900" lon="7.16558400"><ele></ele><time>2014-7-4T22:36:4Z</time></trkpt>
<trkpt lat="46.20572900" lon="7.16567600"><ele></ele><time>2014-7-4T22:36:7Z</time></trkpt>
<trkpt lat="46.20569700" lon="7.16577300"><ele></ele><time>2014-7-4T22:36:10Z</time></trkpt>
<trkpt lat="46.20566500" lon="7.16587500"><ele></ele><time>2014-7-4T22:36:13Z</time></trkpt>
<trkpt lat="46.20563200" lon="7.16598200"><ele></ele><time>2014-7-4T22:36:16Z</time></trkpt>
<trkpt lat="46.20560300" lon="7.16609300"><ele></ele><time>2014-7-4T22:36:19Z</time></trkpt>
<trkpt lat="46.20557900" lon="7.16621300"><ele></ele><time>2014-7-4T22:36:22Z</time></trkpt>
<trkpt lat="46.20555400" lon="7.16633600"><ele></ele><time>2014-7-4T22:36:25Z</time></trkpt>
<trkpt lat="46.20552800" lon="7.16646100"><ele></ele><time>2014-7-4T22:36:28Z</time></trkpt>
<trkpt lat="46.20550200" lon="7.16659100"><ele></ele><time>2014-7-4T22:36:31Z</time></trkpt>
<trkpt lat="46.20547800" lon="7.16672300"><ele></ele><time>2014-7-4T22:36:34Z</time></trkpt>
<trkpt lat="46.20546000" lon="7.16685500"><ele></ele><time>2014-7-4T22:36:37Z</time></trkpt>
<trkpt lat="46.20544000" lon="7.16699200"><ele></ele><time>2014-7-4T22:36:40Z</time></trkpt>
<trkpt lat="46.20541700" lon="7.16712800"><ele></ele><time>2014-7-4T22:36:43Z</time></trkpt>
<trkpt lat="46.20538700" lon="7.16725600"><ele></ele><time>2014-7-4T22:36:46Z</time></trkpt>
<trkpt lat="46.20535100" lon="7.16737500"><ele></ele><time>2014-7-4T22:36:49Z</time></trkpt>
<trkpt lat="46.20531800" lon="7.16748800"><ele></ele><time>2014-7-4T22:36:52Z</time></trkpt>
<trkpt lat="46.20528800" lon="7.16759700"><ele></ele><time>2014-7-4T22:36:55Z</time></trkpt>
<trkpt lat="46.20525900" lon="7.16770500"><ele></ele><time>2014-7-4T22:36:58Z</time></trkpt>
<trkpt lat="46.20522800" lon="7.16781000"><ele></ele><time>2014-7-4T22:37:1Z</time></trkpt>
<trkpt lat="46.20519900" lon="7.16791200"><ele></ele><time>2014-7-4T22:37:4Z</time></trkpt>
<trkpt lat="46.20517200" lon="7.16801300"><ele></ele><time>2014-7-4T22:37:7Z</time></trkpt>
<trkpt lat="46.20514400" lon="7.16810500"><ele></ele><time>2014-7-4T22:37:10Z</time></trkpt>
<trkpt lat="46.20511600" lon="7.16818900"><ele></ele><time>2014-7-4T22:37:13Z</time></trkpt>
<trkpt lat="46.20509000" lon="7.16826700"><ele></ele><time>2014-7-4T22:37:16Z</time></trkpt>
<trkpt lat="46.20506700" lon="7.16833600"><ele></ele><time>2014-7-4T22:37:19Z</time></trkpt>
<trkpt lat="46.20504600" lon="7.16839600"><ele></ele><time>2014-7-4T22:37:22Z</time></trkpt>
<trkpt lat="46.20502700" lon="7.16845200"><ele></ele><time>2014-7-4T22:37:25Z</time></trkpt>
<trkpt lat="46.20500400" lon="7.16850000"><ele></ele><time>2014-7-4T22:37:28Z</time></trkpt>
<trkpt lat="46.20498100" lon="7.16854100"><ele></ele><time>2014-7-4T22:37:31Z</time></trkpt>
<trkpt lat="46.20496000" lon="7.16858100"><ele></ele><time>2014-7-4T22:37:34Z</time></trkpt>
<trkpt lat="46.20493700" lon="7.16861500"><ele></ele><time>2014-7-4T22:37:37Z</time></trkpt>
<trkpt lat="46.20491700" lon="7.16864600"><ele></ele><time>2014-7-4T22:37:40Z</time></trkpt>
<trkpt lat="46.20490000" lon="7.16867400"><ele></ele><time>2014-7-4T22:37:43Z</time></trkpt>
<trkpt lat="46.20488500" lon="7.16869800"><ele></ele><time>2014-7-4T22:37:46Z</time></trkpt>
<trkpt lat="46.20487000" lon="7.16872300"><ele></ele><time>2014-7-4T22:37:49Z</time></trkpt>
<trkpt lat="46.20485900" lon="7.16875000"><ele></ele><time>2014-7-4T22:37:52Z</time></trkpt>
<trkpt lat="46.20484800" lon="7.16877900"><ele></ele><time>2014-7-4T22:37:55Z</time></trkpt>
<trkpt lat="46.20484000" lon="7.16880900"><ele></ele><time>2014-7-4T22:37:58Z</time></trkpt>
<trkpt lat="46.20483200" lon="7.16884100"><ele></ele><time>2014-7-4T22:38:1Z</time></trkpt>
<trkpt lat="46.20482500" lon="7.16887500"><ele></ele><time>2014-7-4T22:38:4Z</time></trkpt>
<trkpt lat="46.20481700" lon="7.16890700"><ele></ele><time>2014-7-4T22:38:7Z</time></trkpt>
<trkpt lat="46.20481100" lon="7.16893800"><ele></ele><time>2014-7-4T22:38:10Z</time></trkpt>
<trkpt lat="46.20480500" lon="7.16897000"><ele></ele><time>2014-7-4T22:38:13Z</time></trkpt>
<trkpt lat="46.20479900" lon="7.16900200"><ele></ele><time>2014-7-4T22:38:16Z</time></trkpt>
<trkpt lat="46.20479300" lon="7.16903300"><ele></ele><time>2014-7-4T22:38:19Z</time></trkpt>
<trkpt lat="46.20478700" lon="7.16906300"><ele></ele><time>2014-7-4T22:38:22Z</time></trkpt>
<trkpt lat="46.20478000" lon="7.16909400"><ele></ele><time>2014-7-4T22:38:25Z</time></trkpt>
<trkpt lat="46.20477400" lon="7.16912400"><ele></ele><time>2014-7-4T22:38:28Z</time></trkpt>
<trkpt lat="46.20476800" lon="7.16915600"><ele></ele><time>2014-7-4T22:38:31Z</time></trkpt>
<trkpt lat="46.20476200" lon="7.16918600"><ele></ele><time>2014-7-4T22:38:34Z</time></trkpt>
<trkpt lat="46.20475700" lon="7.16921600"><ele></ele><time>2014-7-4T22:38:37Z</time></trkpt>
<trkpt lat="46.20475400" lon="7.16924500"><ele></ele><time>2014-7-4T22:38:40Z</time></trkpt>
<trkpt lat="46.20475100" lon="7.16927600"><ele></ele><time>2014-7-4T22:38:43Z</time></trkpt>
<trkpt lat="46.20475000" lon="7.16930700"><ele></ele><time>2014-7-4T22:38:46Z</time></trkpt>
<trkpt lat="46.20475000" lon="7.16933800"><ele></ele><time>2014-7-4T22:38:49Z</time></trkpt>
<trkpt lat="46.20475600" lon="7.16936700"><ele></ele><time>2014-7-4T22:38:52Z</time></trkpt>
<trkpt lat="46.20476600" lon="7.16939800"><ele></ele><time>2014-7-4T22:38:55Z</time></trkpt>
<trkpt lat="46.20477500" lon="7.16942600"><ele></ele><time>2014-7-4T22:38:58Z</time></trkpt>
<trkpt lat="46.20478400" lon="7.16945100"><ele></ele><time>2014-7-4T22:39:1Z</time></trkpt>
<trkpt lat="46.20479500" lon="7.16947300"><ele></ele><time>2014-7-4T22:39:4Z</time></trkpt>
<trkpt lat="46.20480400" lon="7.16949400"><ele></ele><time>2014-7-4T22:39:7Z</time></trkpt>
<trkpt lat="46.20480800" lon="7.16951300"><ele></ele><time>2014-7-4T22:39:10Z</time></trkpt>
<trkpt lat="46.20481700" lon="7.16953300"><ele></ele><time>2014-7-4T22:39:13Z</time></trkpt>
<trkpt lat="46.20483300" lon="7.16955500"><ele></ele><time>2014-7-4T22:39:16Z</time></trkpt>
<trkpt lat="46.20485100" lon="7.16957700"><ele></ele><time>2014-7-4T22:39:19Z</time></trkpt>
<trkpt lat="46.20487700" lon="7.16960400"><ele></ele><time>2014-7-4T22:39:22Z</time></trkpt>
<trkpt lat="46.20490200" lon="7.16962500"><ele></ele><time>2014-7-4T22:39:25Z</time></trkpt>
<trkpt lat="46.20492500" lon="7.16964400"><ele></ele><time>2014-7-4T22:39:28Z</time></trkpt>
<trkpt lat="46.20494700" lon="7.16966100"><ele></ele><time>2014-7-4T22:39:31Z</time></trkpt>
<trkpt lat="46.20496200" lon="7.16967100"><ele></ele><time>2014-7-4T22:39:34Z</time></trkpt>
<trkpt lat="46.20497600" lon="7.16968000"><ele></ele><time>2014-7-4T22:39:37Z</time></trkpt>
<trkpt lat="46.20499200" lon="7.16968900"><ele></ele><time>2014-7-4T22:39:40Z</time></trkpt>
<trkpt lat="46.20500800" lon="7.16970000"><ele></ele><time>2014-7-4T22:39:43Z</time></trkpt>
<trkpt lat="46.20502500" lon="7.16971000"><ele></ele><time>2014-7-4T22:39:46Z</time></trkpt>
<trkpt lat="46.20504200" lon="7.16972200"><ele></ele><time>2014-7-4T22:39:49Z</time></trkpt>
<trkpt lat="46.20506100" lon="7.16973500"><ele></ele><time>2014-7-4T22:39:52Z</time></trkpt>
<trkpt lat="46.20508100" lon="7.16974800"><ele></ele><time>2014-7-4T22:39:55Z</time></trkpt>
<trkpt lat="46.20509700" lon="7.16976200"><ele></ele><time>2014-7-4T22:39:58Z</time></trkpt>
<trkpt lat="46.20510900" lon="7.16977500"><ele></ele><time>2014-7-4T22:40:1Z</time></trkpt>
<trkpt lat="46.20511200" lon="7.16978400"><ele></ele><time>2014-7-4T22:40:4Z</time></trkpt>
<trkpt lat="46.20511800" lon="7.16980400"><ele></ele><time>2014-7-4T22:40:7Z</time></trkpt>
<trkpt lat="46.20513300" lon="7.16983300"><ele></ele><time>2014-7-4T22:40:10Z</time></trkpt>
<trkpt lat="46.20515100" lon="7.16987000"><ele></ele><time>2014-7-4T22:40:13Z</time></trkpt>
<trkpt lat="46.20515600" lon="7.16990200"><ele></ele><time>2014-7-4T22:40:16Z</time></trkpt>
<trkpt lat="46.20515300" lon="7.16993500"><ele></ele><time>2014-7-4T22:40:19Z</time></trkpt>
<trkpt lat="46.20515000" lon="7.16997000"><ele></ele><time>2014-7-4T22:40:22Z</time></trkpt>
<trkpt lat="46.20514500" lon="7.17000200"><ele></ele><time>2014-7-4T22:40:25Z</time></trkpt>
<trkpt lat="46.20513200" lon="7.17003200"><ele></ele><time>2014-7-4T22:40:28Z</time></trkpt>
<trkpt lat="46.20511500" lon="7.17005900"><ele></ele><time>2014-7-4T22:40:31Z</time></trkpt>
<trkpt lat="46.20510000" lon="7.17008800"><ele></ele><time>2014-7-4T22:40:34Z</time></trkpt>
<trkpt lat="46.20508600" lon="7.17011900"><ele></ele><time>2014-7-4T22:40:37Z</time></trkpt>
<trkpt lat="46.20506900" lon="7.17014300"><ele></ele><time>2014-7-4T22:40:40Z</time></trkpt>
<trkpt lat="46.20504600" lon="7.17016300"><ele></ele><time>2014-7-4T22:40:43Z</time></trkpt>
<trkpt lat="46.20501600" lon="7.17018300"><ele></ele><time>2014-7-4T22:40:46Z</time></trkpt>
<trkpt lat="46.20498800" lon="7.17020000"><ele></ele><time>2014-7-4T22:40:49Z</time></trkpt>
<trkpt lat="46.20496200" lon="7.17021200"><ele></ele><time>2014-7-4T22:40:52Z</time></trkpt>
<trkpt lat="46.20493400" lon="7.17022300"><ele></ele><time>2014-7-4T22:40:55Z</time></trkpt>
<trkpt lat="46.20491000" lon="7.17023600"><ele></ele><time>2014-7-4T22:40:58Z</time></trkpt>
<trkpt lat="46.20489400" lon="7.17025400"><ele></ele><time>2014-7-4T22:41:1Z</time></trkpt>
<trkpt lat="46.20488400" lon="7.17028000"><ele></ele><time>2014-7-4T22:41:4Z</time></trkpt>
<trkpt lat="46.20487600" lon="7.17031500"><ele></ele><time>2014-7-4T22:41:7Z</time></trkpt>
<trkpt lat="46.20487500" lon="7.17035000"><ele></ele><time>2014-7-4T22:41:10Z</time></trkpt>
<trkpt lat="46.20488200" lon="7.17039000"><ele></ele><time>2014-7-4T22:41:13Z</time></trkpt>
<trkpt lat="46.20488900" lon="7.17043000"><ele></ele><time>2014-7-4T22:41:16Z</time></trkpt>
<trkpt lat="46.20489600" lon="7.17046900"><ele></ele><time>2014-7-4T22:41:19Z</time></trkpt>
<trkpt lat="46.20490800" lon="7.17050800"><ele></ele><time>2014-7-4T22:41:22Z</time></trkpt>
<trkpt lat="46.20492000" lon="7.17054500"><ele></ele><time>2014-7-4T22:41:25Z</time></trkpt>
<trkpt lat="46.20492700" lon="7.17058200"><ele></ele><time>2014-7-4T22:41:28Z</time></trkpt>
<trkpt lat="46.20492500" lon="7.17062300"><ele></ele><time>2014-7-4T22:41:31Z</time></trkpt>
<trkpt lat="46.20492300" lon="7.17066400"><ele></ele><time>2014-7-4T22:41:34Z</time></trkpt>
<trkpt lat="46.20492700" lon="7.17070400"><ele></ele><time>2014-7-4T22:41:37Z</time></trkpt>
<trkpt lat="46.20492600" lon="7.17073700"><ele></ele><time>2014-7-4T22:41:40Z</time></trkpt>
<trkpt lat="46.20491700" lon="7.17077200"><ele></ele><time>2014-7-4T22:41:43Z</time></trkpt>
<trkpt lat="46.20490800" lon="7.17079900"><ele></ele><time>2014-7-4T22:41:46Z</time></trkpt>
<trkpt lat="46.20490000" lon="7.17082600"><ele></ele><time>2014-7-4T22:41:49Z</time></trkpt>
<trkpt lat="46.20488900" lon="7.17085000"><ele></ele><time>2014-7-4T22:41:52Z</time></trkpt>
<trkpt lat="46.20488800" lon="7.17088300"><ele></ele><time>2014-7-4T22:41:55Z</time></trkpt>
<trkpt lat="46.20488800" lon="7.17091400"><ele></ele><time>2014-7-4T22:41:58Z</time></trkpt>
<trkpt lat="46.20487800" lon="7.17093900"><ele></ele><time>2014-7-4T22:42:1Z</time></trkpt>
<trkpt lat="46.20486300" lon="7.17096300"><ele></ele><time>2014-7-4T22:42:4Z</time></trkpt>
<trkpt lat="46.20485300" lon="7.17098900"><ele></ele><time>2014-7-4T22:42:7Z</time></trkpt>
<trkpt lat="46.20485100" lon="7.17101900"><ele></ele><time>2014-7-4T22:42:10Z</time></trkpt>
<trkpt lat="46.20484400" lon="7.17104400"><ele></ele><time>2014-7-4T22:42:13Z</time></trkpt>
<trkpt lat="46.20483200" lon="7.17106700"><ele></ele><time>2014-7-4T22:42:16Z</time></trkpt>
<trkpt lat="46.20482200" lon="7.17109200"><ele></ele><time>2014-7-4T22:42:19Z</time></trkpt>
<trkpt lat="46.20480900" lon="7.17111700"><ele></ele><time>2014-7-4T22:42:22Z</time></trkpt>
<trkpt lat="46.20479500" lon="7.17114400"><ele></ele><time>2014-7-4T22:42:25Z</time></trkpt>
<trkpt lat="46.20477800" lon="7.17116800"><ele></ele><time>2014-7-4T22:42:28Z</time></trkpt>
<trkpt lat="46.20476500" lon="7.17119300"><ele></ele><time>2014-7-4T22:42:31Z</time></trkpt>
<trkpt lat="46.20475100" lon="7.17121700"><ele></ele><time>2014-7-4T22:42:34Z</time></trkpt>
<trkpt lat="46.20473000" lon="7.17123500"><ele></ele><time>2014-7-4T22:42:37Z</time></trkpt>
<trkpt lat="46.20470800" lon="7.17124900"><ele></ele><time>2014-7-4T22:42:40Z</time></trkpt>
<trkpt lat="46.20468200" lon="7.17126100"><ele></ele><time>2014-7-4T22:42:43Z</time></trkpt>
<trkpt lat="46.20466400" lon="7.17128000"><ele></ele><time>2014-7-4T22:42:46Z</time></trkpt>
<trkpt lat="46.20464400" lon="7.17129900"><ele></ele><time>2014-7-4T22:42:49Z</time></trkpt>
<trkpt lat="46.20463500" lon="7.17133000"><ele></ele><time>2014-7-4T22:42:52Z</time></trkpt>
<trkpt lat="46.20462800" lon="7.17136400"><ele></ele><time>2014-7-4T22:42:55Z</time></trkpt>
<trkpt lat="46.20461800" lon="7.17139500"><ele></ele><time>2014-7-4T22:42:58Z</time></trkpt>
<trkpt lat="46.20460300" lon="7.17142000"><ele></ele><time>2014-7-4T22:43:1Z</time></trkpt>
<trkpt lat="46.20459600" lon="7.17145100"><ele></ele><time>2014-7-4T22:43:4Z</time></trkpt>
<trkpt lat="46.20458700" lon="7.17148000"><ele></ele><time>2014-7-4T22:43:7Z</time></trkpt>
<trkpt lat="46.20458000" lon="7.17150800"><ele></ele><time>2014-7-4T22:43:10Z</time></trkpt>
<trkpt lat="46.20457400" lon="7.17153800"><ele></ele><time>2014-7-4T22:43:13Z</time></trkpt>
<trkpt lat="46.20456600" lon="7.17156600"><ele></ele><time>2014-7-4T22:43:16Z</time></trkpt>
<trkpt lat="46.20456000" lon="7.17159500"><ele></ele><time>2014-7-4T22:43:19Z</time></trkpt>
<trkpt lat="46.20454900" lon="7.17162200"><ele></ele><time>2014-7-4T22:43:22Z</time></trkpt>
<trkpt lat="46.20455200" lon="7.17165100"><ele></ele><time>2014-7-4T22:43:25Z</time></trkpt>
<trkpt lat="46.20454200" lon="7.17167500"><ele></ele><time>2014-7-4T22:43:28Z</time></trkpt>
<trkpt lat="46.20453300" lon="7.17169700"><ele></ele><time>2014-7-4T22:43:31Z</time></trkpt>
<trkpt lat="46.20451500" lon="7.17171500"><ele></ele><time>2014-7-4T22:43:34Z</time></trkpt>
<trkpt lat="46.20450200" lon="7.17174000"><ele></ele><time>2014-7-4T22:43:37Z</time></trkpt>
<trkpt lat="46.20449000" lon="7.17176400"><ele></ele><time>2014-7-4T22:43:40Z</time></trkpt>
<trkpt lat="46.20447900" lon="7.17179000"><ele></ele><time>2014-7-4T22:43:43Z</time></trkpt>
<trkpt lat="46.20446000" lon="7.17181200"><ele></ele><time>2014-7-4T22:43:46Z</time></trkpt>
<trkpt lat="46.20444700" lon="7.17183800"><ele></ele><time>2014-7-4T22:43:49Z</time></trkpt>
<trkpt lat="46.20443600" lon="7.17186300"><ele></ele><time>2014-7-4T22:43:52Z</time></trkpt>
<trkpt lat="46.20442000" lon="7.17188700"><ele></ele><time>2014-7-4T22:43:55Z</time></trkpt>
<trkpt lat="46.20440300" lon="7.17191000"><ele></ele><time>2014-7-4T22:43:58Z</time></trkpt>
<trkpt lat="46.20438700" lon="7.17193500"><ele></ele><time>2014-7-4T22:44:1Z</time></trkpt>
<trkpt lat="46.20437100" lon="7.17196000"><ele></ele><time>2014-7-4T22:44:4Z</time></trkpt>
<trkpt lat="46.20435500" lon="7.17198100"><ele></ele><time>2014-7-4T22:44:7Z</time></trkpt>
<trkpt lat="46.20433700" lon="7.17200000"><ele></ele><time>2014-7-4T22:44:10Z</time></trkpt>
<trkpt lat="46.20431700" lon="7.17202100"><ele></ele><time>2014-7-4T22:44:13Z</time></trkpt>
<trkpt lat="46.20430200" lon="7.17204600"><ele></ele><time>2014-7-4T22:44:16Z</time></trkpt>
<trkpt lat="46.20428300" lon="7.17206600"><ele></ele><time>2014-7-4T22:44:19Z</time></trkpt>
<trkpt lat="46.20426400" lon="7.17208600"><ele></ele><time>2014-7-4T22:44:22Z</time></trkpt>
<trkpt lat="46.20424500" lon="7.17210600"><ele></ele><time>2014-7-4T22:44:25Z</time></trkpt>
<trkpt lat="46.20422900" lon="7.17212900"><ele></ele><time>2014-7-4T22:44:28Z</time></trkpt>
<trkpt lat="46.20421300" lon="7.17215200"><ele></ele><time>2014-7-4T22:44:31Z</time></trkpt>
<trkpt lat="46.20419200" lon="7.17216900"><ele></ele><time>2014-7-4T22:44:34Z</time></trkpt>
<trkpt lat="46.20416900" lon="7.17218400"><ele></ele><time>2014-7-4T22:44:37Z</time></trkpt>
<trkpt lat="46.20415000" lon="7.17219800"><ele></ele><time>2014-7-4T22:44:40Z</time></trkpt>
<trkpt lat="46.20413200" lon="7.17221200"><ele></ele><time>2014-7-4T22:44:43Z</time></trkpt>
<trkpt lat="46.20411000" lon="7.17222400"><ele></ele><time>2014-7-4T22:44:46Z</time></trkpt>
<trkpt lat="46.20408800" lon="7.17224100"><ele></ele><time>2014-7-4T22:44:49Z</time></trkpt>
<trkpt lat="46.20407400" lon="7.17226300"><ele></ele><time>2014-7-4T22:44:52Z</time></trkpt>
<trkpt lat="46.20406500" lon="7.17228300"><ele></ele><time>2014-7-4T22:44:55Z</time></trkpt>
<trkpt lat="46.20406300" lon="7.17230400"><ele></ele><time>2014-7-4T22:44:58Z</time></trkpt>
<trkpt lat="46.20406400" lon="7.17232800"><ele></ele><time>2014-7-4T22:45:1Z</time></trkpt>
<trkpt lat="46.20406300" lon="7.17234400"><ele></ele><time>2014-7-4T22:45:4Z</time></trkpt>
<trkpt lat="46.20405000" lon="7.17235500"><ele></ele><time>2014-7-4T22:45:7Z</time></trkpt>
<trkpt lat="46.20402600" lon="7.17236100"><ele></ele><time>2014-7-4T22:45:10Z</time></trkpt>
<trkpt lat="46.20400200" lon="7.17236300"><ele></ele><time>2014-7-4T22:45:13Z</time></trkpt>
<trkpt lat="46.20397700" lon="7.17237200"><ele></ele><time>2014-7-4T22:45:16Z</time></trkpt>
<trkpt lat="46.20395500" lon="7.17237700"><ele></ele><time>2014-7-4T22:45:19Z</time></trkpt>
<trkpt lat="46.20393900" lon="7.17238400"><ele></ele><time>2014-7-4T22:45:22Z</time></trkpt>
<trkpt lat="46.20392600" lon="7.17240400"><ele></ele><time>2014-7-4T22:45:25Z</time></trkpt>
<trkpt lat="46.20391500" lon="7.17243800"><ele></ele><time>2014-7-4T22:45:28Z</time></trkpt>
<trkpt lat="46.20390600" lon="7.17246900"><ele></ele><time>2014-7-4T22:45:31Z</time></trkpt>
<trkpt lat="46.20389700" lon="7.17250000"><ele></ele><time>2014-7-4T22:45:34Z</time></trkpt>
<trkpt lat="46.20389200" lon="7.17253000"><ele></ele><time>2014-7-4T22:45:37Z</time></trkpt>
<trkpt lat="46.20388500" lon="7.17255900"><ele></ele><time>2014-7-4T22:45:40Z</time></trkpt>
<trkpt lat="46.20388300" lon="7.17259100"><ele></ele><time>2014-7-4T22:45:43Z</time></trkpt>
<trkpt lat="46.20388100" lon="7.17262100"><ele></ele><time>2014-7-4T22:45:46Z</time></trkpt>
<trkpt lat="46.20387900" lon="7.17265200"><ele></ele><time>2014-7-4T22:45:49Z</time></trkpt>
<trkpt lat="46.20387400" lon="7.17268100"><ele></ele><time>2014-7-4T22:45:52Z</time></trkpt>
<trkpt lat="46.20387200" lon="7.17271200"><ele></ele><time>2014-7-4T22:45:55Z</time></trkpt>
<trkpt lat="46.20387000" lon="7.17274500"><ele></ele><time>2014-7-4T22:45:58Z</time></trkpt>
<trkpt lat="46.20387000" lon="7.17277900"><ele></ele><time>2014-7-4T22:46:1Z</time></trkpt>
<trkpt lat="46.20386700" lon="7.17281200"><ele></ele><time>2014-7-4T22:46:4Z</time></trkpt>
<trkpt lat="46.20386100" lon="7.17284200"><ele></ele><time>2014-7-4T22:46:7Z</time></trkpt>
<trkpt lat="46.20385500" lon="7.17287000"><ele></ele><time>2014-7-4T22:46:10Z</time></trkpt>
<trkpt lat="46.20384700" lon="7.17289800"><ele></ele><time>2014-7-4T22:46:13Z</time></trkpt>
<trkpt lat="46.20383500" lon="7.17292600"><ele></ele><time>2014-7-4T22:46:16Z</time></trkpt>
<trkpt lat="46.20382800" lon="7.17295300"><ele></ele><time>2014-7-4T22:46:19Z</time></trkpt>
<trkpt lat="46.20382000" lon="7.17298100"><ele></ele><time>2014-7-4T22:46:22Z</time></trkpt>
<trkpt lat="46.20380900" lon="7.17300700"><ele></ele><time>2014-7-4T22:46:25Z</time></trkpt>
<trkpt lat="46.20379600" lon="7.17303100"><ele></ele><time>2014-7-4T22:46:28Z</time></trkpt>
<trkpt lat="46.20378300" lon="7.17305500"><ele></ele><time>2014-7-4T22:46:31Z</time></trkpt>
<trkpt lat="46.20376600" lon="7.17307700"><ele></ele><time>2014-7-4T22:46:34Z</time></trkpt>
<trkpt lat="46.20375100" lon="7.17309900"><ele></ele><time>2014-7-4T22:46:37Z</time></trkpt>
<trkpt lat="46.20373800" lon="7.17312100"><ele></ele><time>2014-7-4T22:46:40Z</time></trkpt>
<trkpt lat="46.20372400" lon="7.17314300"><ele></ele><time>2014-7-4T22:46:43Z</time></trkpt>
<trkpt lat="46.20371300" lon="7.17316800"><ele></ele><time>2014-7-4T22:46:46Z</time></trkpt>
<trkpt lat="46.20370800" lon="7.17319600"><ele></ele><time>2014-7-4T22:46:49Z</time></trkpt>
<trkpt lat="46.20370400" lon="7.17322600"><ele></ele><time>2014-7-4T22:46:52Z</time></trkpt>
<trkpt lat="46.20370100" lon="7.17325700"><ele></ele><time>2014-7-4T22:46:55Z</time></trkpt>
<trkpt lat="46.20369700" lon="7.17329000"><ele></ele><time>2014-7-4T22:46:58Z</time></trkpt>
<trkpt lat="46.20369500" lon="7.17332400"><ele></ele><time>2014-7-4T22:47:1Z</time></trkpt>
<trkpt lat="46.20369600" lon="7.17336000"><ele></ele><time>2014-7-4T22:47:4Z</time></trkpt>
<trkpt lat="46.20370000" lon="7.17339700"><ele></ele><time>2014-7-4T22:47:7Z</time></trkpt>
<trkpt lat="46.20370300" lon="7.17343500"><ele></ele><time>2014-7-4T22:47:10Z</time></trkpt>
<trkpt lat="46.20370200" lon="7.17347000"><ele></ele><time>2014-7-4T22:47:13Z</time></trkpt>
<trkpt lat="46.20370500" lon="7.17350600"><ele></ele><time>2014-7-4T22:47:16Z</time></trkpt>
<trkpt lat="46.20370200" lon="7.17353800"><ele></ele><time>2014-7-4T22:47:19Z</time></trkpt>
<trkpt lat="46.20370300" lon="7.17357300"><ele></ele><time>2014-7-4T22:47:22Z</time></trkpt>
<trkpt lat="46.20369500" lon="7.17360400"><ele></ele><time>2014-7-4T22:47:25Z</time></trkpt>
<trkpt lat="46.20368300" lon="7.17363200"><ele></ele><time>2014-7-4T22:47:28Z</time></trkpt>
<trkpt lat="46.20366900" lon="7.17365900"><ele></ele><time>2014-7-4T22:47:31Z</time></trkpt>
<trkpt lat="46.20366000" lon="7.17368700"><ele></ele><time>2014-7-4T22:47:34Z</time></trkpt>
<trkpt lat="46.20365100" lon="7.17371300"><ele></ele><time>2014-7-4T22:47:37Z</time></trkpt>
<trkpt lat="46.20363500" lon="7.17373500"><ele></ele><time>2014-7-4T22:47:40Z</time></trkpt>
<trkpt lat="46.20362000" lon="7.17375700"><ele></ele><time>2014-7-4T22:47:43Z</time></trkpt>
<trkpt lat="46.20360700" lon="7.17378100"><ele></ele><time>2014-7-4T22:47:46Z</time></trkpt>
<trkpt lat="46.20359400" lon="7.17380700"><ele></ele><time>2014-7-4T22:47:49Z</time></trkpt>
<trkpt lat="46.20358000" lon="7.17383300"><ele></ele><time>2014-7-4T22:47:52Z</time></trkpt>
<trkpt lat="46.20356900" lon="7.17386200"><ele></ele><time>2014-7-4T22:47:55Z</time></trkpt>
<trkpt lat="46.20355400" lon="7.17388700"><ele></ele><time>2014-7-4T22:47:58Z</time></trkpt>
<trkpt lat="46.20353900" lon="7.17391300"><ele></ele><time>2014-7-4T22:48:1Z</time></trkpt>
<trkpt lat="46.20352300" lon="7.17393700"><ele></ele><time>2014-7-4T22:48:4Z</time></trkpt>
<trkpt lat="46.20350800" lon="7.17396100"><ele></ele><time>2014-7-4T22:48:7Z</time></trkpt>
<trkpt lat="46.20350000" lon="7.17399100"><ele></ele><time>2014-7-4T22:48:10Z</time></trkpt>
<trkpt lat="46.20348800" lon="7.17401900"><ele></ele><time>2014-7-4T22:48:13Z</time></trkpt>
<trkpt lat="46.20347600" lon="7.17404600"><ele></ele><time>2014-7-4T22:48:16Z</time></trkpt>
<trkpt lat="46.20346400" lon="7.17407300"><ele></ele><time>2014-7-4T22:48:19Z</time></trkpt>
<trkpt lat="46.20345300" lon="7.17409500"><ele></ele><time>2014-7-4T22:48:22Z</time></trkpt>
<trkpt lat="46.20344500" lon="7.17411700"><ele></ele><time>2014-7-4T22:48:25Z</time></trkpt>
<trkpt lat="46.20343400" lon="7.17413500"><ele></ele><time>2014-7-4T22:48:28Z</time></trkpt>
<trkpt lat="46.20342700" lon="7.17415800"><ele></ele><time>2014-7-4T22:48:31Z</time></trkpt>
<trkpt lat="46.20342000" lon="7.17418000"><ele></ele><time>2014-7-4T22:48:34Z</time></trkpt>
<trkpt lat="46.20342200" lon="7.17420500"><ele></ele><time>2014-7-4T22:48:37Z</time></trkpt>
<trkpt lat="46.20343100" lon="7.17423200"><ele></ele><time>2014-7-4T22:48:40Z</time></trkpt>
<trkpt lat="46.20343200" lon="7.17425800"><ele></ele><time>2014-7-4T22:48:43Z</time></trkpt>
<trkpt lat="46.20343400" lon="7.17428300"><ele></ele><time>2014-7-4T22:48:46Z</time></trkpt>
<trkpt lat="46.20342800" lon="7.17430500"><ele></ele><time>2014-7-4T22:48:49Z</time></trkpt>
<trkpt lat="46.20342100" lon="7.17432700"><ele></ele><time>2014-7-4T22:48:52Z</time></trkpt>
<trkpt lat="46.20341300" lon="7.17434600"><ele></ele><time>2014-7-4T22:48:55Z</time></trkpt>
<trkpt lat="46.20340600" lon="7.17436100"><ele></ele><time>2014-7-4T22:48:58Z</time></trkpt>
<trkpt lat="46.20339800" lon="7.17437500"><ele></ele><time>2014-7-4T22:49:1Z</time></trkpt>
<trkpt lat="46.20338900" lon="7.17439000"><ele></ele><time>2014-7-4T22:49:4Z</time></trkpt>
<trkpt lat="46.20338200" lon="7.17440600"><ele></ele><time>2014-7-4T22:49:7Z</time></trkpt>
<trkpt lat="46.20337500" lon="7.17442400"><ele></ele><time>2014-7-4T22:49:10Z</time></trkpt>
<trkpt lat="46.20336300" lon="7.17444200"><ele></ele><time>2014-7-4T22:49:13Z</time></trkpt>
<trkpt lat="46.20335100" lon="7.17445300"><ele></ele><time>2014-7-4T22:49:16Z</time></trkpt>
<trkpt lat="46.20333700" lon="7.17446300"><ele></ele><time>2014-7-4T22:49:19Z</time></trkpt>
<trkpt lat="46.20332100" lon="7.17447500"><ele></ele><time>2014-7-4T22:49:22Z</time></trkpt>
<trkpt lat="46.20330800" lon="7.17449900"><ele></ele><time>2014-7-4T22:49:25Z</time></trkpt>
<trkpt lat="46.20330200" lon="7.17452700"><ele></ele><time>2014-7-4T22:49:28Z</time></trkpt>
<trkpt lat="46.20331100" lon="7.17455700"><ele></ele><time>2014-7-4T22:49:31Z</time></trkpt>
<trkpt lat="46.20332300" lon="7.17458400"><ele></ele><time>2014-7-4T22:49:34Z</time></trkpt>
<trkpt lat="46.20333100" lon="7.17460900"><ele></ele><time>2014-7-4T22:49:37Z</time></trkpt>
<trkpt lat="46.20333400" lon="7.17463000"><ele></ele><time>2014-7-4T22:49:40Z</time></trkpt>
<trkpt lat="46.20333500" lon="7.17464500"><ele></ele><time>2014-7-4T22:49:43Z</time></trkpt>
<trkpt lat="46.20333400" lon="7.17466000"><ele></ele><time>2014-7-4T22:49:46Z</time></trkpt>
<trkpt lat="46.20333000" lon="7.17467200"><ele></ele><time>2014-7-4T22:49:49Z</time></trkpt>
<trkpt lat="46.20332700" lon="7.17468200"><ele></ele><time>2014-7-4T22:49:52Z</time></trkpt>
<trkpt lat="46.20332700" lon="7.17468500"><ele></ele><time>2014-7-4T22:49:55Z</time></trkpt>
<trkpt lat="46.20332400" lon="7.17468400"><ele></ele><time>2014-7-4T22:49:58Z</time></trkpt>
<trkpt lat="46.20334500" lon="7.17464700"><ele></ele><time>2014-7-4T22:50:1Z</time></trkpt>
<trkpt lat="46.20334700" lon="7.17463800"><ele></ele><time>2014-7-4T22:50:4Z</time></trkpt>
<trkpt lat="46.20335100" lon="7.17463300"><ele></ele><time>2014-7-4T22:50:7Z</time></trkpt>
<trkpt lat="46.20335700" lon="7.17462800"><ele></ele><time>2014-7-4T22:50:10Z</time></trkpt>
<trkpt lat="46.20336500" lon="7.17462100"><ele></ele><time>2014-7-4T22:50:13Z</time></trkpt>
<trkpt lat="46.20337600" lon="7.17461200"><ele></ele><time>2014-7-4T22:50:16Z</time></trkpt>
<trkpt lat="46.20338300" lon="7.17460000"><ele></ele><time>2014-7-4T22:50:19Z</time></trkpt>
<trkpt lat="46.20338800" lon="7.17458900"><ele></ele><time>2014-7-4T22:50:22Z</time></trkpt>
<trkpt lat="46.20339600" lon="7.17457900"><ele></ele><time>2014-7-4T22:50:25Z</time></trkpt>
<trkpt lat="46.20340200" lon="7.17456900"><ele></ele><time>2014-7-4T22:50:28Z</time></trkpt>
<trkpt lat="46.20340600" lon="7.17455800"><ele></ele><time>2014-7-4T22:50:31Z</time></trkpt>
<trkpt lat="46.20340900" lon="7.17454700"><ele></ele><time>2014-7-4T22:50:34Z</time></trkpt>
<trkpt lat="46.20341200" lon="7.17453600"><ele></ele><time>2014-7-4T22:50:37Z</time></trkpt>
<trkpt lat="46.20341400" lon="7.17452700"><ele></ele><time>2014-7-4T22:50:40Z</time></trkpt>
<trkpt lat="46.20341300" lon="7.17451900"><ele></ele><time>2014-7-4T22:50:43Z</time></trkpt>
<trkpt lat="46.20341400" lon="7.17448200"><ele></ele><time>2014-7-4T22:50:46Z</time></trkpt>
<trkpt lat="46.20341400" lon="7.17447300"><ele></ele><time>2014-7-4T22:50:49Z</time></trkpt>
<trkpt lat="46.20341300" lon="7.17446600"><ele></ele><time>2014-7-4T22:50:52Z</time></trkpt>
<trkpt lat="46.20341400" lon="7.17445800"><ele></ele><time>2014-7-4T22:50:55Z</time></trkpt>
<trkpt lat="46.20338700" lon="7.17444300"><ele></ele><time>2014-7-4T22:50:58Z</time></trkpt>
<trkpt lat="46.20338800" lon="7.17444300"><ele></ele><time>2014-7-4T22:51:1Z</time></trkpt>
<trkpt lat="46.20340200" lon="7.17441400"><ele></ele><time>2014-7-4T22:51:4Z</time></trkpt>
<trkpt lat="46.20340600" lon="7.17440400"><ele></ele><time>2014-7-4T22:51:7Z</time></trkpt>
<trkpt lat="46.20341300" lon="7.17439600"><ele></ele><time>2014-7-4T22:51:10Z</time></trkpt>
<trkpt lat="46.20342600" lon="7.17439200"><ele></ele><time>2014-7-4T22:51:13Z</time></trkpt>
<trkpt lat="46.20343800" lon="7.17438900"><ele></ele><time>2014-7-4T22:51:16Z</time></trkpt>
<trkpt lat="46.20345200" lon="7.17439100"><ele></ele><time>2014-7-4T22:51:19Z</time></trkpt>
<trkpt lat="46.20345900" lon="7.17439400"><ele></ele><time>2014-7-4T22:51:22Z</time></trkpt>
<trkpt lat="46.20346600" lon="7.17439400"><ele></ele><time>2014-7-4T22:51:25Z</time></trkpt>
<trkpt lat="46.20346800" lon="7.17438400"><ele></ele><time>2014-7-4T22:51:28Z</time></trkpt>
<trkpt lat="46.20347400" lon="7.17437500"><ele></ele><time>2014-7-4T22:51:31Z</time></trkpt>
<trkpt lat="46.20348100" lon="7.17436900"><ele></ele><time>2014-7-4T22:51:34Z</time></trkpt>
<trkpt lat="46.20348700" lon="7.17436500"><ele></ele><time>2014-7-4T22:51:37Z</time></trkpt>
<trkpt lat="46.20349000" lon="7.17435600"><ele></ele><time>2014-7-4T22:51:40Z</time></trkpt>
<trkpt lat="46.20349000" lon="7.17434300"><ele></ele><time>2014-7-4T22:51:43Z</time></trkpt>
<trkpt lat="46.20349100" lon="7.17433000"><ele></ele><time>2014-7-4T22:51:46Z</time></trkpt>
<trkpt lat="46.20349100" lon="7.17431400"><ele></ele><time>2014-7-4T22:51:49Z</time></trkpt>
<trkpt lat="46.20350500" lon="7.17430100"><ele></ele><time>2014-7-4T22:51:52Z</time></trkpt>
<trkpt lat="46.20351400" lon="7.17428200"><ele></ele><time>2014-7-4T22:51:55Z</time></trkpt>
<trkpt lat="46.20352200" lon="7.17426400"><ele></ele><time>2014-7-4T22:51:58Z</time></trkpt>
<trkpt lat="46.20353000" lon="7.17424400"><ele></ele><time>2014-7-4T22:52:1Z</time></trkpt>
<trkpt lat="46.20352400" lon="7.17421600"><ele></ele><time>2014-7-4T22:52:4Z</time></trkpt>
<trkpt lat="46.20353100" lon="7.17419400"><ele></ele><time>2014-7-4T22:52:7Z</time></trkpt>
<trkpt lat="46.20353800" lon="7.17417500"><ele></ele><time>2014-7-4T22:52:10Z</time></trkpt>
<trkpt lat="46.20354800" lon="7.17415600"><ele></ele><time>2014-7-4T22:52:13Z</time></trkpt>
<trkpt lat="46.20355300" lon="7.17413300"><ele></ele><time>2014-7-4T22:52:16Z</time></trkpt>
<trkpt lat="46.20355600" lon="7.17410500"><ele></ele><time>2014-7-4T22:52:19Z</time></trkpt>
<trkpt lat="46.20356300" lon="7.17408000"><ele></ele><time>2014-7-4T22:52:22Z</time></trkpt>
<trkpt lat="46.20357800" lon="7.17406100"><ele></ele><time>2014-7-4T22:52:25Z</time></trkpt>
<trkpt lat="46.20360100" lon="7.17404800"><ele></ele><time>2014-7-4T22:52:28Z</time></trkpt>
<trkpt lat="46.20362200" lon="7.17403600"><ele></ele><time>2014-7-4T22:52:31Z</time></trkpt>
<trkpt lat="46.20363300" lon="7.17402500"><ele></ele><time>2014-7-4T22:52:34Z</time></trkpt>
<trkpt lat="46.20364500" lon="7.17401600"><ele></ele><time>2014-7-4T22:52:37Z</time></trkpt>
<trkpt lat="46.20365800" lon="7.17400200"><ele></ele><time>2014-7-4T22:52:40Z</time></trkpt>
<trkpt lat="46.20367300" lon="7.17398400"><ele></ele><time>2014-7-4T22:52:43Z</time></trkpt>
<trkpt lat="46.20369400" lon="7.17397200"><ele></ele><time>2014-7-4T22:52:46Z</time></trkpt>
<trkpt lat="46.20372200" lon="7.17396000"><ele></ele><time>2014-7-4T22:52:49Z</time></trkpt>
<trkpt lat="46.20374100" lon="7.17394200"><ele></ele><time>2014-7-4T22:52:52Z</time></trkpt>
<trkpt lat="46.20376000" lon="7.17392900"><ele></ele><time>2014-7-4T22:52:55Z</time></trkpt>
<trkpt lat="46.20376300" lon="7.17391100"><ele></ele><time>2014-7-4T22:52:58Z</time></trkpt>
<trkpt lat="46.20377300" lon="7.17389200"><ele></ele><time>2014-7-4T22:53:1Z</time></trkpt>
<trkpt lat="46.20379000" lon="7.17387600"><ele></ele><time>2014-7-4T22:53:4Z</time></trkpt>
<trkpt lat="46.20381600" lon="7.17386500"><ele></ele><time>2014-7-4T22:53:7Z</time></trkpt>
<trkpt lat="46.20383300" lon="7.17385100"><ele></ele><time>2014-7-4T22:53:10Z</time></trkpt>
<trkpt lat="46.20384800" lon="7.17383700"><ele></ele><time>2014-7-4T22:53:13Z</time></trkpt>
<trkpt lat="46.20386100" lon="7.17382300"><ele></ele><time>2014-7-4T22:53:16Z</time></trkpt>
<trkpt lat="46.20387500" lon="7.17380800"><ele></ele><time>2014-7-4T22:53:19Z</time></trkpt>
<trkpt lat="46.20388800" lon="7.17379300"><ele></ele><time>2014-7-4T22:53:22Z</time></trkpt>
<trkpt lat="46.20391300" lon="7.17378200"><ele></ele><time>2014-7-4T22:53:25Z</time></trkpt>
<trkpt lat="46.20392200" lon="7.17376200"><ele></ele><time>2014-7-4T22:53:28Z</time></trkpt>
<trkpt lat="46.20394400" lon="7.17374800"><ele></ele><time>2014-7-4T22:53:31Z</time></trkpt>
<trkpt lat="46.20395800" lon="7.17373300"><ele></ele><time>2014-7-4T22:53:34Z</time></trkpt>
<trkpt lat="46.20396500" lon="7.17371300"><ele></ele><time>2014-7-4T22:53:37Z</time></trkpt>
<trkpt lat="46.20397900" lon="7.17369400"><ele></ele><time>2014-7-4T22:53:40Z</time></trkpt>
<trkpt lat="46.20398600" lon="7.17367500"><ele></ele><time>2014-7-4T22:53:43Z</time></trkpt>
<trkpt lat="46.20399700" lon="7.17365600"><ele></ele><time>2014-7-4T22:53:46Z</time></trkpt>
<trkpt lat="46.20400900" lon="7.17363700"><ele></ele><time>2014-7-4T22:53:49Z</time></trkpt>
<trkpt lat="46.20401900" lon="7.17361800"><ele></ele><time>2014-7-4T22:53:52Z</time></trkpt>
<trkpt lat="46.20402500" lon="7.17359700"><ele></ele><time>2014-7-4T22:53:55Z</time></trkpt>
<trkpt lat="46.20402900" lon="7.17357400"><ele></ele><time>2014-7-4T22:53:58Z</time></trkpt>
<trkpt lat="46.20403500" lon="7.17355000"><ele></ele><time>2014-7-4T22:54:1Z</time></trkpt>
<trkpt lat="46.20404300" lon="7.17353000"><ele></ele><time>2014-7-4T22:54:4Z</time></trkpt>
<trkpt lat="46.20405400" lon="7.17351200"><ele></ele><time>2014-7-4T22:54:7Z</time></trkpt>
<trkpt lat="46.20406300" lon="7.17349300"><ele></ele><time>2014-7-4T22:54:10Z</time></trkpt>
<trkpt lat="46.20406900" lon="7.17347200"><ele></ele><time>2014-7-4T22:54:13Z</time></trkpt>
<trkpt lat="46.20407900" lon="7.17345300"><ele></ele><time>2014-7-4T22:54:16Z</time></trkpt>
<trkpt lat="46.20408300" lon="7.17343000"><ele></ele><time>2014-7-4T22:54:19Z</time></trkpt>
<trkpt lat="46.20409600" lon="7.17341400"><ele></ele><time>2014-7-4T22:54:22Z</time></trkpt>
<trkpt lat="46.20411100" lon="7.17339900"><ele></ele><time>2014-7-4T22:54:25Z</time></trkpt>
<trkpt lat="46.20412400" lon="7.17338300"><ele></ele><time>2014-7-4T22:54:28Z</time></trkpt>
<trkpt lat="46.20413300" lon="7.17336600"><ele></ele><time>2014-7-4T22:54:31Z</time></trkpt>
<trkpt lat="46.20414700" lon="7.17335300"><ele></ele><time>2014-7-4T22:54:34Z</time></trkpt>
<trkpt lat="46.20416200" lon="7.17334100"><ele></ele><time>2014-7-4T22:54:37Z</time></trkpt>
<trkpt lat="46.20416700" lon="7.17332400"><ele></ele><time>2014-7-4T22:54:40Z</time></trkpt>
<trkpt lat="46.20417400" lon="7.17331000"><ele></ele><time>2014-7-4T22:54:43Z</time></trkpt>
<trkpt lat="46.20418200" lon="7.17329700"><ele></ele><time>2014-7-4T22:54:46Z</time></trkpt>
<trkpt lat="46.20419200" lon="7.17328500"><ele></ele><time>2014-7-4T22:54:49Z</time></trkpt>
<trkpt lat="46.20420400" lon="7.17327300"><ele></ele><time>2014-7-4T22:54:52Z</time></trkpt>
<trkpt lat="46.20421500" lon="7.17326100"><ele></ele><time>2014-7-4T22:54:55Z</time></trkpt>
<trkpt lat="46.20422200" lon="7.17324900"><ele></ele><time>2014-7-4T22:54:58Z</time></trkpt>
<trkpt lat="46.20423100" lon="7.17323800"><ele></ele><time>2014-7-4T22:55:1Z</time></trkpt>
<trkpt lat="46.20424600" lon="7.17322900"><ele></ele><time>2014-7-4T22:55:4Z</time></trkpt>
<trkpt lat="46.20425500" lon="7.17321800"><ele></ele><time>2014-7-4T22:55:7Z</time></trkpt>
<trkpt lat="46.20425900" lon="7.17320600"><ele></ele><time>2014-7-4T22:55:10Z</time></trkpt>
<trkpt lat="46.20426100" lon="7.17319400"><ele></ele><time>2014-7-4T22:55:13Z</time></trkpt>
<trkpt lat="46.20426400" lon="7.17318300"><ele></ele><time>2014-7-4T22:55:16Z</time></trkpt>
<trkpt lat="46.20427700" lon="7.17317600"><ele></ele><time>2014-7-4T22:55:19Z</time></trkpt>
<trkpt lat="46.20428800" lon="7.17316700"><ele></ele><time>2014-7-4T22:55:22Z</time></trkpt>
<trkpt lat="46.20430700" lon="7.17316000"><ele></ele><time>2014-7-4T22:55:25Z</time></trkpt>
<trkpt lat="46.20432500" lon="7.17315100"><ele></ele><time>2014-7-4T22:55:28Z</time></trkpt>
<trkpt lat="46.20433900" lon="7.17314100"><ele></ele><time>2014-7-4T22:55:31Z</time></trkpt>
<trkpt lat="46.20435800" lon="7.17313400"><ele></ele><time>2014-7-4T22:55:34Z</time></trkpt>
<trkpt lat="46.20435900" lon="7.17311700"><ele></ele><time>2014-7-4T22:55:37Z</time></trkpt>
<trkpt lat="46.20436200" lon="7.17310000"><ele></ele><time>2014-7-4T22:55:40Z</time></trkpt>
<trkpt lat="46.20437400" lon="7.17308900"><ele></ele><time>2014-7-4T22:55:43Z</time></trkpt>
<trkpt lat="46.20438500" lon="7.17307600"><ele></ele><time>2014-7-4T22:55:46Z</time></trkpt>
<trkpt lat="46.20439800" lon="7.17306300"><ele></ele><time>2014-7-4T22:55:49Z</time></trkpt>
<trkpt lat="46.20441300" lon="7.17305400"><ele></ele><time>2014-7-4T22:55:52Z</time></trkpt>
<trkpt lat="46.20443400" lon="7.17304900"><ele></ele><time>2014-7-4T22:55:55Z</time></trkpt>
<trkpt lat="46.20445800" lon="7.17304500"><ele></ele><time>2014-7-4T22:55:58Z</time></trkpt>
<trkpt lat="46.20448800" lon="7.17304100"><ele></ele><time>2014-7-4T22:56:1Z</time></trkpt>
<trkpt lat="46.20451600" lon="7.17303700"><ele></ele><time>2014-7-4T22:56:4Z</time></trkpt>
<trkpt lat="46.20454000" lon="7.17302900"><ele></ele><time>2014-7-4T22:56:7Z</time></trkpt>
<trkpt lat="46.20455100" lon="7.17301500"><ele></ele><time>2014-7-4T22:56:10Z</time></trkpt>
<trkpt lat="46.20457000" lon="7.17300500"><ele></ele><time>2014-7-4T22:56:13Z</time></trkpt>
<trkpt lat="46.20458200" lon="7.17299100"><ele></ele><time>2014-7-4T22:56:16Z</time></trkpt>
<trkpt lat="46.20458400" lon="7.17297400"><ele></ele><time>2014-7-4T22:56:19Z</time></trkpt>
<trkpt lat="46.20458500" lon="7.17295700"><ele></ele><time>2014-7-4T22:56:22Z</time></trkpt>
<trkpt lat="46.20458200" lon="7.17293800"><ele></ele><time>2014-7-4T22:56:25Z</time></trkpt>
<trkpt lat="46.20459700" lon="7.17292600"><ele></ele><time>2014-7-4T22:56:28Z</time></trkpt>
<trkpt lat="46.20460700" lon="7.17291300"><ele></ele><time>2014-7-4T22:56:31Z</time></trkpt>
<trkpt lat="46.20461400" lon="7.17289700"><ele></ele><time>2014-7-4T22:56:34Z</time></trkpt>
<trkpt lat="46.20461700" lon="7.17287900"><ele></ele><time>2014-7-4T22:56:37Z</time></trkpt>
<trkpt lat="46.20462900" lon="7.17286500"><ele></ele><time>2014-7-4T22:56:40Z</time></trkpt>
<trkpt lat="46.20463600" lon="7.17285100"><ele></ele><time>2014-7-4T22:56:43Z</time></trkpt>
<trkpt lat="46.20464400" lon="7.17283800"><ele></ele><time>2014-7-4T22:56:46Z</time></trkpt>
<trkpt lat="46.20466400" lon="7.17283000"><ele></ele><time>2014-7-4T22:56:49Z</time></trkpt>
<trkpt lat="46.20468100" lon="7.17281900"><ele></ele><time>2014-7-4T22:56:52Z</time></trkpt>
<trkpt lat="46.20470300" lon="7.17281000"><ele></ele><time>2014-7-4T22:56:55Z</time></trkpt>
<trkpt lat="46.20471700" lon="7.17279600"><ele></ele><time>2014-7-4T22:56:58Z</time></trkpt>
<trkpt lat="46.20472300" lon="7.17277800"><ele></ele><time>2014-7-4T22:57:1Z</time></trkpt>
<trkpt lat="46.20473200" lon="7.17276200"><ele></ele><time>2014-7-4T22:57:4Z</time></trkpt>
<trkpt lat="46.20473800" lon="7.17274300"><ele></ele><time>2014-7-4T22:57:7Z</time></trkpt>
<trkpt lat="46.20475200" lon="7.17273000"><ele></ele><time>2014-7-4T22:57:10Z</time></trkpt>
<trkpt lat="46.20476400" lon="7.17271600"><ele></ele><time>2014-7-4T22:57:13Z</time></trkpt>
<trkpt lat="46.20477000" lon="7.17269800"><ele></ele><time>2014-7-4T22:57:16Z</time></trkpt>
<trkpt lat="46.20477300" lon="7.17267800"><ele></ele><time>2014-7-4T22:57:19Z</time></trkpt>
<trkpt lat="46.20478400" lon="7.17266100"><ele></ele><time>2014-7-4T22:57:22Z</time></trkpt>
<trkpt lat="46.20478700" lon="7.17264000"><ele></ele><time>2014-7-4T22:57:25Z</time></trkpt>
<trkpt lat="46.20478900" lon="7.17261900"><ele></ele><time>2014-7-4T22:57:28Z</time></trkpt>
<trkpt lat="46.20478800" lon="7.17259500"><ele></ele><time>2014-7-4T22:57:31Z</time></trkpt>
<trkpt lat="46.20479900" lon="7.17257800"><ele></ele><time>2014-7-4T22:57:34Z</time></trkpt>
<trkpt lat="46.20480300" lon="7.17255700"><ele></ele><time>2014-7-4T22:57:37Z</time></trkpt>
<trkpt lat="46.20480500" lon="7.17253700"><ele></ele><time>2014-7-4T22:57:40Z</time></trkpt>
<trkpt lat="46.20481600" lon="7.17251700"><ele></ele><time>2014-7-4T22:57:43Z</time></trkpt>
<trkpt lat="46.20481500" lon="7.17249200"><ele></ele><time>2014-7-4T22:57:46Z</time></trkpt>
<trkpt lat="46.20482100" lon="7.17247100"><ele></ele><time>2014-7-4T22:57:49Z</time></trkpt>
<trkpt lat="46.20483000" lon="7.17244900"><ele></ele><time>2014-7-4T22:57:52Z</time></trkpt>
<trkpt lat="46.20483800" lon="7.17243000"><ele></ele><time>2014-7-4T22:57:55Z</time></trkpt>
<trkpt lat="46.20485300" lon="7.17241300"><ele></ele><time>2014-7-4T22:57:58Z</time></trkpt>
<trkpt lat="46.20487000" lon="7.17239700"><ele></ele><time>2014-7-4T22:58:1Z</time></trkpt>
<trkpt lat="46.20489100" lon="7.17238500"><ele></ele><time>2014-7-4T22:58:4Z</time></trkpt>
<trkpt lat="46.20491300" lon="7.17237200"><ele></ele><time>2014-7-4T22:58:7Z</time></trkpt>
<trkpt lat="46.20493900" lon="7.17236200"><ele></ele><time>2014-7-4T22:58:10Z</time></trkpt>
<trkpt lat="46.20495900" lon="7.17235100"><ele></ele><time>2014-7-4T22:58:13Z</time></trkpt>
<trkpt lat="46.20498000" lon="7.17233800"><ele></ele><time>2014-7-4T22:58:16Z</time></trkpt>
<trkpt lat="46.20499500" lon="7.17232600"><ele></ele><time>2014-7-4T22:58:19Z</time></trkpt>
<trkpt lat="46.20500300" lon="7.17231000"><ele></ele><time>2014-7-4T22:58:22Z</time></trkpt>
<trkpt lat="46.20500200" lon="7.17229100"><ele></ele><time>2014-7-4T22:58:25Z</time></trkpt>
<trkpt lat="46.20501000" lon="7.17227500"><ele></ele><time>2014-7-4T22:58:28Z</time></trkpt>
<trkpt lat="46.20502200" lon="7.17226000"><ele></ele><time>2014-7-4T22:58:31Z</time></trkpt>
<trkpt lat="46.20502700" lon="7.17224400"><ele></ele><time>2014-7-4T22:58:34Z</time></trkpt>
<trkpt lat="46.20502900" lon="7.17222700"><ele></ele><time>2014-7-4T22:58:37Z</time></trkpt>
<trkpt lat="46.20504900" lon="7.17221700"><ele></ele><time>2014-7-4T22:58:40Z</time></trkpt>
<trkpt lat="46.20506600" lon="7.17220500"><ele></ele><time>2014-7-4T22:58:43Z</time></trkpt>
<trkpt lat="46.20507900" lon="7.17219000"><ele></ele><time>2014-7-4T22:58:46Z</time></trkpt>
<trkpt lat="46.20508800" lon="7.17217600"><ele></ele><time>2014-7-4T22:58:49Z</time></trkpt>
<trkpt lat="46.20510400" lon="7.17216300"><ele></ele><time>2014-7-4T22:58:52Z</time></trkpt>
<trkpt lat="46.20512800" lon="7.17215600"><ele></ele><time>2014-7-4T22:58:55Z</time></trkpt>
<trkpt lat="46.20514500" lon="7.17214600"><ele></ele><time>2014-7-4T22:58:58Z</time></trkpt>
<trkpt lat="46.20516300" lon="7.17213600"><ele></ele><time>2014-7-4T22:59:1Z</time></trkpt>
<trkpt lat="46.20517600" lon="7.17212400"><ele></ele><time>2014-7-4T22:59:4Z</time></trkpt>
<trkpt lat="46.20518500" lon="7.17211000"><ele></ele><time>2014-7-4T22:59:7Z</time></trkpt>
<trkpt lat="46.20519100" lon="7.17209100"><ele></ele><time>2014-7-4T22:59:10Z</time></trkpt>
<trkpt lat="46.20519800" lon="7.17207500"><ele></ele><time>2014-7-4T22:59:13Z</time></trkpt>
<trkpt lat="46.20521000" lon="7.17206100"><ele></ele><time>2014-7-4T22:59:16Z</time></trkpt>
<trkpt lat="46.20521800" lon="7.17204300"><ele></ele><time>2014-7-4T22:59:19Z</time></trkpt>
<trkpt lat="46.20522800" lon="7.17202800"><ele></ele><time>2014-7-4T22:59:22Z</time></trkpt>
<trkpt lat="46.20524200" lon="7.17201400"><ele></ele><time>2014-7-4T22:59:25Z</time></trkpt>
<trkpt lat="46.20526000" lon="7.17200100"><ele></ele><time>2014-7-4T22:59:28Z</time></trkpt>
<trkpt lat="46.20527900" lon="7.17199000"><ele></ele><time>2014-7-4T22:59:31Z</time></trkpt>
<trkpt lat="46.20529400" lon="7.17197800"><ele></ele><time>2014-7-4T22:59:34Z</time></trkpt>
<trkpt lat="46.20530600" lon="7.17196500"><ele></ele><time>2014-7-4T22:59:37Z</time></trkpt>
<trkpt lat="46.20531400" lon="7.17194900"><ele></ele><time>2014-7-4T22:59:40Z</time></trkpt>
<trkpt lat="46.20532800" lon="7.17194000"><ele></ele><time>2014-7-4T22:59:43Z</time></trkpt>
<trkpt lat="46.20534900" lon="7.17192900"><ele></ele><time>2014-7-4T22:59:46Z</time></trkpt>
<trkpt lat="46.20536300" lon="7.17191500"><ele></ele><time>2014-7-4T22:59:49Z</time></trkpt>
<trkpt lat="46.20537200" lon="7.17189800"><ele></ele><time>2014-7-4T22:59:52Z</time></trkpt>
<trkpt lat="46.20538000" lon="7.17188100"><ele></ele><time>2014-7-4T22:59:55Z</time></trkpt>
<trkpt lat="46.20538500" lon="7.17186000"><ele></ele><time>2014-7-4T22:59:58Z</time></trkpt>
<trkpt lat="46.20540100" lon="7.17184500"><ele></ele><time>2014-7-4T23:0:1Z</time></trkpt>
<trkpt lat="46.20541400" lon="7.17182900"><ele></ele><time>2014-7-4T23:0:4Z</time></trkpt>
<trkpt lat="46.20543200" lon="7.17181400"><ele></ele><time>2014-7-4T23:0:7Z</time></trkpt>
<trkpt lat="46.20545100" lon="7.17179900"><ele></ele><time>2014-7-4T23:0:10Z</time></trkpt>
<trkpt lat="46.20547000" lon="7.17178500"><ele></ele><time>2014-7-4T23:0:13Z</time></trkpt>
<trkpt lat="46.20547900" lon="7.17176900"><ele></ele><time>2014-7-4T23:0:16Z</time></trkpt>
<trkpt lat="46.20549100" lon="7.17175300"><ele></ele><time>2014-7-4T23:0:19Z</time></trkpt>
<trkpt lat="46.20550900" lon="7.17174100"><ele></ele><time>2014-7-4T23:0:22Z</time></trkpt>
<trkpt lat="46.20553000" lon="7.17173000"><ele></ele><time>2014-7-4T23:0:25Z</time></trkpt>
<trkpt lat="46.20554100" lon="7.17171400"><ele></ele><time>2014-7-4T23:0:28Z</time></trkpt>
<trkpt lat="46.20554200" lon="7.17169300"><ele></ele><time>2014-7-4T23:0:31Z</time></trkpt>
<trkpt lat="46.20554700" lon="7.17167400"><ele></ele><time>2014-7-4T23:0:34Z</time></trkpt>
<trkpt lat="46.20555700" lon="7.17165600"><ele></ele><time>2014-7-4T23:0:37Z</time></trkpt>
<trkpt lat="46.20556100" lon="7.17163400"><ele></ele><time>2014-7-4T23:0:40Z</time></trkpt>
<trkpt lat="46.20556600" lon="7.17160900"><ele></ele><time>2014-7-4T23:0:43Z</time></trkpt>
<trkpt lat="46.20557400" lon="7.17158700"><ele></ele><time>2014-7-4T23:0:46Z</time></trkpt>
<trkpt lat="46.20557900" lon="7.17156500"><ele></ele><time>2014-7-4T23:0:49Z</time></trkpt>
<trkpt lat="46.20558300" lon="7.17154200"><ele></ele><time>2014-7-4T23:0:52Z</time></trkpt>
<trkpt lat="46.20558900" lon="7.17152200"><ele></ele><time>2014-7-4T23:0:55Z</time></trkpt>
<trkpt lat="46.20559900" lon="7.17150300"><ele></ele><time>2014-7-4T23:0:58Z</time></trkpt>
<trkpt lat="46.20560500" lon="7.17147900"><ele></ele><time>2014-7-4T23:1:1Z</time></trkpt>
<trkpt lat="46.20561500" lon="7.17146200"><ele></ele><time>2014-7-4T23:1:4Z</time></trkpt>
<trkpt lat="46.20562300" lon="7.17143900"><ele></ele><time>2014-7-4T23:1:7Z</time></trkpt>
<trkpt lat="46.20562700" lon="7.17141500"><ele></ele><time>2014-7-4T23:1:10Z</time></trkpt>
<trkpt lat="46.20563200" lon="7.17139100"><ele></ele><time>2014-7-4T23:1:13Z</time></trkpt>
<trkpt lat="46.20563600" lon="7.17136800"><ele></ele><time>2014-7-4T23:1:16Z</time></trkpt>
<trkpt lat="46.20564200" lon="7.17134600"><ele></ele><time>2014-7-4T23:1:19Z</time></trkpt>
<trkpt lat="46.20564100" lon="7.17131900"><ele></ele><time>2014-7-4T23:1:22Z</time></trkpt>
<trkpt lat="46.20563500" lon="7.17129400"><ele></ele><time>2014-7-4T23:1:25Z</time></trkpt>
<trkpt lat="46.20564300" lon="7.17127400"><ele></ele><time>2014-7-4T23:1:28Z</time></trkpt>
<trkpt lat="46.20565200" lon="7.17125100"><ele></ele><time>2014-7-4T23:1:31Z</time></trkpt>
<trkpt lat="46.20565800" lon="7.17122400"><ele></ele><time>2014-7-4T23:1:34Z</time></trkpt>
<trkpt lat="46.20567000" lon="7.17120300"><ele></ele><time>2014-7-4T23:1:37Z</time></trkpt>
<trkpt lat="46.20568200" lon="7.17118500"><ele></ele><time>2014-7-4T23:1:40Z</time></trkpt>
<trkpt lat="46.20570100" lon="7.17117400"><ele></ele><time>2014-7-4T23:1:43Z</time></trkpt>
<trkpt lat="46.20571900" lon="7.17116000"><ele></ele><time>2014-7-4T23:1:46Z</time></trkpt>
<trkpt lat="46.20574400" lon="7.17114500"><ele></ele><time>2014-7-4T23:1:49Z</time></trkpt>
<trkpt lat="46.20575400" lon="7.17112500"><ele></ele><time>2014-7-4T23:1:52Z</time></trkpt>
<trkpt lat="46.20576600" lon="7.17110400"><ele></ele><time>2014-7-4T23:1:55Z</time></trkpt>
<trkpt lat="46.20578000" lon="7.17108500"><ele></ele><time>2014-7-4T23:1:58Z</time></trkpt>
<trkpt lat="46.20578600" lon="7.17105900"><ele></ele><time>2014-7-4T23:2:1Z</time></trkpt>
<trkpt lat="46.20579700" lon="7.17103600"><ele></ele><time>2014-7-4T23:2:4Z</time></trkpt>
<trkpt lat="46.20580900" lon="7.17101400"><ele></ele><time>2014-7-4T23:2:7Z</time></trkpt>
<trkpt lat="46.20582100" lon="7.17099100"><ele></ele><time>2014-7-4T23:2:10Z</time></trkpt>
<trkpt lat="46.20583500" lon="7.17096800"><ele></ele><time>2014-7-4T23:2:13Z</time></trkpt>
<trkpt lat="46.20585000" lon="7.17094700"><ele></ele><time>2014-7-4T23:2:16Z</time></trkpt>
<trkpt lat="46.20586300" lon="7.17092700"><ele></ele><time>2014-7-4T23:2:19Z</time></trkpt>
<trkpt lat="46.20587200" lon="7.17090600"><ele></ele><time>2014-7-4T23:2:22Z</time></trkpt>
<trkpt lat="46.20588300" lon="7.17088600"><ele></ele><time>2014-7-4T23:2:25Z</time></trkpt>
<trkpt lat="46.20590300" lon="7.17086900"><ele></ele><time>2014-7-4T23:2:28Z</time></trkpt>
<trkpt lat="46.20591300" lon="7.17084700"><ele></ele><time>2014-7-4T23:2:31Z</time></trkpt>
<trkpt lat="46.20592700" lon="7.17082600"><ele></ele><time>2014-7-4T23:2:34Z</time></trkpt>
<trkpt lat="46.20593600" lon="7.17080300"><ele></ele><time>2014-7-4T23:2:37Z</time></trkpt>
<trkpt lat="46.20594300" lon="7.17077800"><ele></ele><time>2014-7-4T23:2:40Z</time></trkpt>
<trkpt lat="46.20595500" lon="7.17075700"><ele></ele><time>2014-7-4T23:2:43Z</time></trkpt>
<trkpt lat="46.20597000" lon="7.17074000"><ele></ele><time>2014-7-4T23:2:46Z</time></trkpt>
<trkpt lat="46.20598600" lon="7.17072900"><ele></ele><time>2014-7-4T23:2:49Z</time></trkpt>
<trkpt lat="46.20600900" lon="7.17072200"><ele></ele><time>2014-7-4T23:2:52Z</time></trkpt>
<trkpt lat="46.20602900" lon="7.17071500"><ele></ele><time>2014-7-4T23:2:55Z</time></trkpt>
<trkpt lat="46.20605300" lon="7.17070500"><ele></ele><time>2014-7-4T23:2:58Z</time></trkpt>
<trkpt lat="46.20608200" lon="7.17069500"><ele></ele><time>2014-7-4T23:3:1Z</time></trkpt>
<trkpt lat="46.20609900" lon="7.17068000"><ele></ele><time>2014-7-4T23:3:4Z</time></trkpt>
<trkpt lat="46.20611300" lon="7.17066600"><ele></ele><time>2014-7-4T23:3:7Z</time></trkpt>
<trkpt lat="46.20612500" lon="7.17064900"><ele></ele><time>2014-7-4T23:3:10Z</time></trkpt>
<trkpt lat="46.20611700" lon="7.17062200"><ele></ele><time>2014-7-4T23:3:13Z</time></trkpt>
<trkpt lat="46.20611800" lon="7.17060200"><ele></ele><time>2014-7-4T23:3:16Z</time></trkpt>
<trkpt lat="46.20612700" lon="7.17058400"><ele></ele><time>2014-7-4T23:3:19Z</time></trkpt>
<trkpt lat="46.20613300" lon="7.17056200"><ele></ele><time>2014-7-4T23:3:22Z</time></trkpt>
<trkpt lat="46.20614500" lon="7.17053700"><ele></ele><time>2014-7-4T23:3:25Z</time></trkpt>
<trkpt lat="46.20616200" lon="7.17051600"><ele></ele><time>2014-7-4T23:3:28Z</time></trkpt>
<trkpt lat="46.20617600" lon="7.17049200"><ele></ele><time>2014-7-4T23:3:31Z</time></trkpt>
<trkpt lat="46.20618000" lon="7.17046000"><ele></ele><time>2014-7-4T23:3:34Z</time></trkpt>
<trkpt lat="46.20618000" lon="7.17042600"><ele></ele><time>2014-7-4T23:3:37Z</time></trkpt>
<trkpt lat="46.20618800" lon="7.17039700"><ele></ele><time>2014-7-4T23:3:40Z</time></trkpt>
<trkpt lat="46.20621000" lon="7.17037500"><ele></ele><time>2014-7-4T23:3:43Z</time></trkpt>
<trkpt lat="46.20621600" lon="7.17034600"><ele></ele><time>2014-7-4T23:3:46Z</time></trkpt>
<trkpt lat="46.20621800" lon="7.17031600"><ele></ele><time>2014-7-4T23:3:49Z</time></trkpt>
<trkpt lat="46.20622400" lon="7.17028800"><ele></ele><time>2014-7-4T23:3:52Z</time></trkpt>
<trkpt lat="46.20623200" lon="7.17026200"><ele></ele><time>2014-7-4T23:3:55Z</time></trkpt>
<trkpt lat="46.20623800" lon="7.17023800"><ele></ele><time>2014-7-4T23:3:58Z</time></trkpt>
<trkpt lat="46.20625000" lon="7.17021800"><ele></ele><time>2014-7-4T23:4:1Z</time></trkpt>
<trkpt lat="46.20625300" lon="7.17019200"><ele></ele><time>2014-7-4T23:4:4Z</time></trkpt>
<trkpt lat="46.20626400" lon="7.17016800"><ele></ele><time>2014-7-4T23:4:7Z</time></trkpt>
<trkpt lat="46.20627900" lon="7.17014800"><ele></ele><time>2014-7-4T23:4:10Z</time></trkpt>
<trkpt lat="46.20629800" lon="7.17012900"><ele></ele><time>2014-7-4T23:4:13Z</time></trkpt>
<trkpt lat="46.20630900" lon="7.17010600"><ele></ele><time>2014-7-4T23:4:16Z</time></trkpt>
<trkpt lat="46.20632600" lon="7.17008700"><ele></ele><time>2014-7-4T23:4:19Z</time></trkpt>
<trkpt lat="46.20634200" lon="7.17006500"><ele></ele><time>2014-7-4T23:4:22Z</time></trkpt>
<trkpt lat="46.20636000" lon="7.17004400"><ele></ele><time>2014-7-4T23:4:25Z</time></trkpt>
<trkpt lat="46.20637200" lon="7.17002200"><ele></ele><time>2014-7-4T23:4:28Z</time></trkpt>
<trkpt lat="46.20639600" lon="7.17000500"><ele></ele><time>2014-7-4T23:4:31Z</time></trkpt>
<trkpt lat="46.20641900" lon="7.16998700"><ele></ele><time>2014-7-4T23:4:34Z</time></trkpt>
<trkpt lat="46.20643700" lon="7.16996700"><ele></ele><time>2014-7-4T23:4:37Z</time></trkpt>
<trkpt lat="46.20645400" lon="7.16994500"><ele></ele><time>2014-7-4T23:4:40Z</time></trkpt>
<trkpt lat="46.20646700" lon="7.16992100"><ele></ele><time>2014-7-4T23:4:43Z</time></trkpt>
<trkpt lat="46.20647400" lon="7.16989500"><ele></ele><time>2014-7-4T23:4:46Z</time></trkpt>
<trkpt lat="46.20647900" lon="7.16986700"><ele></ele><time>2014-7-4T23:4:49Z</time></trkpt>
<trkpt lat="46.20648400" lon="7.16983900"><ele></ele><time>2014-7-4T23:4:52Z</time></trkpt>
<trkpt lat="46.20649700" lon="7.16981500"><ele></ele><time>2014-7-4T23:4:55Z</time></trkpt>
<trkpt lat="46.20650100" lon="7.16978800"><ele></ele><time>2014-7-4T23:4:58Z</time></trkpt>
<trkpt lat="46.20650400" lon="7.16976000"><ele></ele><time>2014-7-4T23:5:1Z</time></trkpt>
<trkpt lat="46.20650800" lon="7.16973300"><ele></ele><time>2014-7-4T23:5:4Z</time></trkpt>
<trkpt lat="46.20652600" lon="7.16971100"><ele></ele><time>2014-7-4T23:5:7Z</time></trkpt>
<trkpt lat="46.20654000" lon="7.16968700"><ele></ele><time>2014-7-4T23:5:10Z</time></trkpt>
<trkpt lat="46.20657300" lon="7.16967000"><ele></ele><time>2014-7-4T23:5:13Z</time></trkpt>
<trkpt lat="46.20659500" lon="7.16964900"><ele></ele><time>2014-7-4T23:5:16Z</time></trkpt>
<trkpt lat="46.20662100" lon="7.16963200"><ele></ele><time>2014-7-4T23:5:19Z</time></trkpt>
<trkpt lat="46.20665200" lon="7.16961600"><ele></ele><time>2014-7-4T23:5:22Z</time></trkpt>
<trkpt lat="46.20665900" lon="7.16959000"><ele></ele><time>2014-7-4T23:5:25Z</time></trkpt>
<trkpt lat="46.20666300" lon="7.16956300"><ele></ele><time>2014-7-4T23:5:28Z</time></trkpt>
<trkpt lat="46.20667400" lon="7.16954000"><ele></ele><time>2014-7-4T23:5:31Z</time></trkpt>
<trkpt lat="46.20668600" lon="7.16951500"><ele></ele><time>2014-7-4T23:5:34Z</time></trkpt>
<trkpt lat="46.20669400" lon="7.16949100"><ele></ele><time>2014-7-4T23:5:37Z</time></trkpt>
<trkpt lat="46.20670000" lon="7.16946600"><ele></ele><time>2014-7-4T23:5:40Z</time></trkpt>
<trkpt lat="46.20670000" lon="7.16943600"><ele></ele><time>2014-7-4T23:5:43Z</time></trkpt>
<trkpt lat="46.20669600" lon="7.16940400"><ele></ele><time>2014-7-4T23:5:46Z</time></trkpt>
<trkpt lat="46.20669400" lon="7.16937100"><ele></ele><time>2014-7-4T23:5:49Z</time></trkpt>
<trkpt lat="46.20669400" lon="7.16933800"><ele></ele><time>2014-7-4T23:5:52Z</time></trkpt>
<trkpt lat="46.20669700" lon="7.16930800"><ele></ele><time>2014-7-4T23:5:55Z</time></trkpt>
<trkpt lat="46.20670100" lon="7.16927900"><ele></ele><time>2014-7-4T23:5:58Z</time></trkpt>
<trkpt lat="46.20671300" lon="7.16925500"><ele></ele><time>2014-7-4T23:6:1Z</time></trkpt>
<trkpt lat="46.20671400" lon="7.16922700"><ele></ele><time>2014-7-4T23:6:4Z</time></trkpt>
<trkpt lat="46.20671600" lon="7.16920000"><ele></ele><time>2014-7-4T23:6:7Z</time></trkpt>
<trkpt lat="46.20671300" lon="7.16916900"><ele></ele><time>2014-7-4T23:6:10Z</time></trkpt>
<trkpt lat="46.20670400" lon="7.16913500"><ele></ele><time>2014-7-4T23:6:13Z</time></trkpt>
<trkpt lat="46.20670400" lon="7.16910700"><ele></ele><time>2014-7-4T23:6:16Z</time></trkpt>
<trkpt lat="46.20670800" lon="7.16908100"><ele></ele><time>2014-7-4T23:6:19Z</time></trkpt>
<trkpt lat="46.20670200" lon="7.16904800"><ele></ele><time>2014-7-4T23:6:22Z</time></trkpt>
<trkpt lat="46.20669800" lon="7.16901500"><ele></ele><time>2014-7-4T23:6:25Z</time></trkpt>
<trkpt lat="46.20669400" lon="7.16898300"><ele></ele><time>2014-7-4T23:6:28Z</time></trkpt>
<trkpt lat="46.20670600" lon="7.16895900"><ele></ele><time>2014-7-4T23:6:31Z</time></trkpt>
<trkpt lat="46.20670100" lon="7.16892800"><ele></ele><time>2014-7-4T23:6:34Z</time></trkpt>
<trkpt lat="46.20670100" lon="7.16890100"><ele></ele><time>2014-7-4T23:6:37Z</time></trkpt>
<trkpt lat="46.20670900" lon="7.16887600"><ele></ele><time>2014-7-4T23:6:40Z</time></trkpt>
<trkpt lat="46.20671100" lon="7.16885100"><ele></ele><time>2014-7-4T23:6:43Z</time></trkpt>
<trkpt lat="46.20671100" lon="7.16882400"><ele></ele><time>2014-7-4T23:6:46Z</time></trkpt>
<trkpt lat="46.20670100" lon="7.16879500"><ele></ele><time>2014-7-4T23:6:49Z</time></trkpt>
<trkpt lat="46.20668700" lon="7.16876300"><ele></ele><time>2014-7-4T23:6:52Z</time></trkpt>
<trkpt lat="46.20667700" lon="7.16873600"><ele></ele><time>2014-7-4T23:6:55Z</time></trkpt>
<trkpt lat="46.20666500" lon="7.16871200"><ele></ele><time>2014-7-4T23:6:58Z</time></trkpt>
<trkpt lat="46.20665200" lon="7.16869100"><ele></ele><time>2014-7-4T23:7:1Z</time></trkpt>
<trkpt lat="46.20664600" lon="7.16867400"><ele></ele><time>2014-7-4T23:7:4Z</time></trkpt>
<trkpt lat="46.20664300" lon="7.16865300"><ele></ele><time>2014-7-4T23:7:7Z</time></trkpt>
<trkpt lat="46.20662900" lon="7.16862500"><ele></ele><time>2014-7-4T23:7:10Z</time></trkpt>
<trkpt lat="46.20662100" lon="7.16859800"><ele></ele><time>2014-7-4T23:7:13Z</time></trkpt>
<trkpt lat="46.20660800" lon="7.16857100"><ele></ele><time>2014-7-4T23:7:16Z</time></trkpt>
<trkpt lat="46.20659000" lon="7.16854400"><ele></ele><time>2014-7-4T23:7:19Z</time></trkpt>
<trkpt lat="46.20657900" lon="7.16852000"><ele></ele><time>2014-7-4T23:7:22Z</time></trkpt>
<trkpt lat="46.20656600" lon="7.16849600"><ele></ele><time>2014-7-4T23:7:25Z</time></trkpt>
<trkpt lat="46.20656000" lon="7.16846900"><ele></ele><time>2014-7-4T23:7:28Z</time></trkpt>
<trkpt lat="46.20655200" lon="7.16844000"><ele></ele><time>2014-7-4T23:7:31Z</time></trkpt>
<trkpt lat="46.20654300" lon="7.16840900"><ele></ele><time>2014-7-4T23:7:34Z</time></trkpt>
<trkpt lat="46.20653900" lon="7.16838000"><ele></ele><time>2014-7-4T23:7:37Z</time></trkpt>
<trkpt lat="46.20653700" lon="7.16835100"><ele></ele><time>2014-7-4T23:7:40Z</time></trkpt>
<trkpt lat="46.20653200" lon="7.16832300"><ele></ele><time>2014-7-4T23:7:43Z</time></trkpt>
<trkpt lat="46.20652900" lon="7.16829700"><ele></ele><time>2014-7-4T23:7:46Z</time></trkpt>
<trkpt lat="46.20652600" lon="7.16827000"><ele></ele><time>2014-7-4T23:7:49Z</time></trkpt>
<trkpt lat="46.20652500" lon="7.16824300"><ele></ele><time>2014-7-4T23:7:52Z</time></trkpt>
<trkpt lat="46.20652300" lon="7.16821400"><ele></ele><time>2014-7-4T23:7:55Z</time></trkpt>
<trkpt lat="46.20652300" lon="7.16818700"><ele></ele><time>2014-7-4T23:7:58Z</time></trkpt>
<trkpt lat="46.20651700" lon="7.16815700"><ele></ele><time>2014-7-4T23:8:1Z</time></trkpt>
<trkpt lat="46.20651000" lon="7.16812500"><ele></ele><time>2014-7-4T23:8:4Z</time></trkpt>
<trkpt lat="46.20651400" lon="7.16809600"><ele></ele><time>2014-7-4T23:8:7Z</time></trkpt>
<trkpt lat="46.20651300" lon="7.16806600"><ele></ele><time>2014-7-4T23:8:10Z</time></trkpt>
<trkpt lat="46.20651300" lon="7.16803600"><ele></ele><time>2014-7-4T23:8:13Z</time></trkpt>
<trkpt lat="46.20651500" lon="7.16800500"><ele></ele><time>2014-7-4T23:8:16Z</time></trkpt>
<trkpt lat="46.20651700" lon="7.16797500"><ele></ele><time>2014-7-4T23:8:19Z</time></trkpt>
<trkpt lat="46.20652000" lon="7.16794500"><ele></ele><time>2014-7-4T23:8:22Z</time></trkpt>
<trkpt lat="46.20652400" lon="7.16791500"><ele></ele><time>2014-7-4T23:8:25Z</time></trkpt>
<trkpt lat="46.20653000" lon="7.16788700"><ele></ele><time>2014-7-4T23:8:28Z</time></trkpt>
<trkpt lat="46.20653700" lon="7.16785900"><ele></ele><time>2014-7-4T23:8:31Z</time></trkpt>
<trkpt lat="46.20654600" lon="7.16783300"><ele></ele><time>2014-7-4T23:8:34Z</time></trkpt>
<trkpt lat="46.20655600" lon="7.16780600"><ele></ele><time>2014-7-4T23:8:37Z</time></trkpt>
<trkpt lat="46.20657300" lon="7.16778200"><ele></ele><time>2014-7-4T23:8:40Z</time></trkpt>
<trkpt lat="46.20658700" lon="7.16775700"><ele></ele><time>2014-7-4T23:8:43Z</time></trkpt>
<trkpt lat="46.20660200" lon="7.16773200"><ele></ele><time>2014-7-4T23:8:46Z</time></trkpt>
<trkpt lat="46.20661400" lon="7.16770500"><ele></ele><time>2014-7-4T23:8:49Z</time></trkpt>
<trkpt lat="46.20662600" lon="7.16767900"><ele></ele><time>2014-7-4T23:8:52Z</time></trkpt>
<trkpt lat="46.20663600" lon="7.16765300"><ele></ele><time>2014-7-4T23:8:55Z</time></trkpt>
<trkpt lat="46.20664900" lon="7.16762900"><ele></ele><time>2014-7-4T23:8:58Z</time></trkpt>
<trkpt lat="46.20666700" lon="7.16760800"><ele></ele><time>2014-7-4T23:9:1Z</time></trkpt>
<trkpt lat="46.20668100" lon="7.16758400"><ele></ele><time>2014-7-4T23:9:4Z</time></trkpt>
<trkpt lat="46.20669500" lon="7.16755900"><ele></ele><time>2014-7-4T23:9:7Z</time></trkpt>
<trkpt lat="46.20671000" lon="7.16753300"><ele></ele><time>2014-7-4T23:9:10Z</time></trkpt>
<trkpt lat="46.20672700" lon="7.16751000"><ele></ele><time>2014-7-4T23:9:13Z</time></trkpt>
<trkpt lat="46.20673900" lon="7.16748300"><ele></ele><time>2014-7-4T23:9:16Z</time></trkpt>
<trkpt lat="46.20674700" lon="7.16745300"><ele></ele><time>2014-7-4T23:9:19Z</time></trkpt>
<trkpt lat="46.20675200" lon="7.16742200"><ele></ele><time>2014-7-4T23:9:22Z</time></trkpt>
<trkpt lat="46.20676000" lon="7.16739300"><ele></ele><time>2014-7-4T23:9:25Z</time></trkpt>
<trkpt lat="46.20676600" lon="7.16736400"><ele></ele><time>2014-7-4T23:9:28Z</time></trkpt>
<trkpt lat="46.20677100" lon="7.16733600"><ele></ele><time>2014-7-4T23:9:31Z</time></trkpt>
<trkpt lat="46.20677500" lon="7.16730600"><ele></ele><time>2014-7-4T23:9:34Z</time></trkpt>
<trkpt lat="46.20677700" lon="7.16727400"><ele></ele><time>2014-7-4T23:9:37Z</time></trkpt>
<trkpt lat="46.20677900" lon="7.16724300"><ele></ele><time>2014-7-4T23:9:40Z</time></trkpt>
<trkpt lat="46.20677900" lon="7.16721100"><ele></ele><time>2014-7-4T23:9:43Z</time></trkpt>
<trkpt lat="46.20678000" lon="7.16718100"><ele></ele><time>2014-7-4T23:9:46Z</time></trkpt>
<trkpt lat="46.20678000" lon="7.16715000"><ele></ele><time>2014-7-4T23:9:49Z</time></trkpt>
<trkpt lat="46.20678200" lon="7.16712100"><ele></ele><time>2014-7-4T23:9:52Z</time></trkpt>
<trkpt lat="46.20678600" lon="7.16709400"><ele></ele><time>2014-7-4T23:9:55Z</time></trkpt>
<trkpt lat="46.20679000" lon="7.16706500"><ele></ele><time>2014-7-4T23:9:58Z</time></trkpt>
<trkpt lat="46.20679200" lon="7.16703600"><ele></ele><time>2014-7-4T23:10:1Z</time></trkpt>
<trkpt lat="46.20679400" lon="7.16700700"><ele></ele><time>2014-7-4T23:10:4Z</time></trkpt>
<trkpt lat="46.20679500" lon="7.16697800"><ele></ele><time>2014-7-4T23:10:7Z</time></trkpt>
<trkpt lat="46.20679800" lon="7.16695000"><ele></ele><time>2014-7-4T23:10:10Z</time></trkpt>
<trkpt lat="46.20680300" lon="7.16692100"><ele></ele><time>2014-7-4T23:10:13Z</time></trkpt>
<trkpt lat="46.20680900" lon="7.16689300"><ele></ele><time>2014-7-4T23:10:16Z</time></trkpt>
<trkpt lat="46.20681500" lon="7.16686600"><ele></ele><time>2014-7-4T23:10:19Z</time></trkpt>
<trkpt lat="46.20682000" lon="7.16683700"><ele></ele><time>2014-7-4T23:10:22Z</time></trkpt>
<trkpt lat="46.20682400" lon="7.16680900"><ele></ele><time>2014-7-4T23:10:25Z</time></trkpt>
<trkpt lat="46.20683200" lon="7.16678200"><ele></ele><time>2014-7-4T23:10:28Z</time></trkpt>
<trkpt lat="46.20684000" lon="7.16675600"><ele></ele><time>2014-7-4T23:10:31Z</time></trkpt>
<trkpt lat="46.20685000" lon="7.16673000"><ele></ele><time>2014-7-4T23:10:34Z</time></trkpt>
<trkpt lat="46.20686200" lon="7.16670400"><ele></ele><time>2014-7-4T23:10:37Z</time></trkpt>
<trkpt lat="46.20687200" lon="7.16667700"><ele></ele><time>2014-7-4T23:10:40Z</time></trkpt>
<trkpt lat="46.20688200" lon="7.16665000"><ele></ele><time>2014-7-4T23:10:43Z</time></trkpt>
<trkpt lat="46.20688900" lon="7.16662000"><ele></ele><time>2014-7-4T23:10:46Z</time></trkpt>
<trkpt lat="46.20689900" lon="7.16659300"><ele></ele><time>2014-7-4T23:10:49Z</time></trkpt>
<trkpt lat="46.20690900" lon="7.16656600"><ele></ele><time>2014-7-4T23:10:52Z</time></trkpt>
<trkpt lat="46.20691500" lon="7.16653900"><ele></ele><time>2014-7-4T23:10:55Z</time></trkpt>
<trkpt lat="46.20692000" lon="7.16651100"><ele></ele><time>2014-7-4T23:10:58Z</time></trkpt>
<trkpt lat="46.20692500" lon="7.16648300"><ele></ele><time>2014-7-4T23:11:1Z</time></trkpt>
<trkpt lat="46.20692800" lon="7.16645400"><ele></ele><time>2014-7-4T23:11:4Z</time></trkpt>
<trkpt lat="46.20693000" lon="7.16642400"><ele></ele><time>2014-7-4T23:11:7Z</time></trkpt>
<trkpt lat="46.20693100" lon="7.16639400"><ele></ele><time>2014-7-4T23:11:10Z</time></trkpt>
<trkpt lat="46.20693400" lon="7.16636600"><ele></ele><time>2014-7-4T23:11:13Z</time></trkpt>
<trkpt lat="46.20693600" lon="7.16633700"><ele></ele><time>2014-7-4T23:11:16Z</time></trkpt>
<trkpt lat="46.20693400" lon="7.16630600"><ele></ele><time>2014-7-4T23:11:19Z</time></trkpt>
<trkpt lat="46.20694000" lon="7.16627700"><ele></ele><time>2014-7-4T23:11:22Z</time></trkpt>
<trkpt lat="46.20694700" lon="7.16624700"><ele></ele><time>2014-7-4T23:11:25Z</time></trkpt>
<trkpt lat="46.20695200" lon="7.16621800"><ele></ele><time>2014-7-4T23:11:28Z</time></trkpt>
<trkpt lat="46.20695700" lon="7.16619000"><ele></ele><time>2014-7-4T23:11:31Z</time></trkpt>
<trkpt lat="46.20696200" lon="7.16616200"><ele></ele><time>2014-7-4T23:11:34Z</time></trkpt>
<trkpt lat="46.20696500" lon="7.16613500"><ele></ele><time>2014-7-4T23:11:37Z</time></trkpt>
<trkpt lat="46.20696600" lon="7.16610500"><ele></ele><time>2014-7-4T23:11:40Z</time></trkpt>
<trkpt lat="46.20697300" lon="7.16607700"><ele></ele><time>2014-7-4T23:11:43Z</time></trkpt>
<trkpt lat="46.20698000" lon="7.16604900"><ele></ele><time>2014-7-4T23:11:46Z</time></trkpt>
<trkpt lat="46.20698400" lon="7.16601800"><ele></ele><time>2014-7-4T23:11:49Z</time></trkpt>
<trkpt lat="46.20698500" lon="7.16598600"><ele></ele><time>2014-7-4T23:11:52Z</time></trkpt>
<trkpt lat="46.20699100" lon="7.16595600"><ele></ele><time>2014-7-4T23:11:55Z</time></trkpt>
<trkpt lat="46.20699700" lon="7.16592500"><ele></ele><time>2014-7-4T23:11:58Z</time></trkpt>
<trkpt lat="46.20700200" lon="7.16589400"><ele></ele><time>2014-7-4T23:12:1Z</time></trkpt>
<trkpt lat="46.20701200" lon="7.16586600"><ele></ele><time>2014-7-4T23:12:4Z</time></trkpt>
<trkpt lat="46.20701300" lon="7.16583600"><ele></ele><time>2014-7-4T23:12:7Z</time></trkpt>
<trkpt lat="46.20701800" lon="7.16580600"><ele></ele><time>2014-7-4T23:12:10Z</time></trkpt>
<trkpt lat="46.20702300" lon="7.16577600"><ele></ele><time>2014-7-4T23:12:13Z</time></trkpt>
<trkpt lat="46.20702500" lon="7.16574500"><ele></ele><time>2014-7-4T23:12:16Z</time></trkpt>
<trkpt lat="46.20702800" lon="7.16571600"><ele></ele><time>2014-7-4T23:12:19Z</time></trkpt>
<trkpt lat="46.20703000" lon="7.16568500"><ele></ele><time>2014-7-4T23:12:22Z</time></trkpt>
<trkpt lat="46.20703300" lon="7.16565500"><ele></ele><time>2014-7-4T23:12:25Z</time></trkpt>
<trkpt lat="46.20703400" lon="7.16562400"><ele></ele><time>2014-7-4T23:12:28Z</time></trkpt>
<trkpt lat="46.20703800" lon="7.16559400"><ele></ele><time>2014-7-4T23:12:31Z</time></trkpt>
<trkpt lat="46.20703900" lon="7.16556300"><ele></ele><time>2014-7-4T23:12:34Z</time></trkpt>
<trkpt lat="46.20704100" lon="7.16553200"><ele></ele><time>2014-7-4T23:12:37Z</time></trkpt>
<trkpt lat="46.20704400" lon="7.16550300"><ele></ele><time>2014-7-4T23:12:40Z</time></trkpt>
<trkpt lat="46.20704500" lon="7.16547300"><ele></ele><time>2014-7-4T23:12:43Z</time></trkpt>
<trkpt lat="46.20704400" lon="7.16544400"><ele></ele><time>2014-7-4T23:12:46Z</time></trkpt>
<trkpt lat="46.20704400" lon="7.16541300"><ele></ele><time>2014-7-4T23:12:49Z</time></trkpt>
<trkpt lat="46.20704300" lon="7.16538300"><ele></ele><time>2014-7-4T23:12:52Z</time></trkpt>
<trkpt lat="46.20704200" lon="7.16535200"><ele></ele><time>2014-7-4T23:12:55Z</time></trkpt>
<trkpt lat="46.20704300" lon="7.16532200"><ele></ele><time>2014-7-4T23:12:58Z</time></trkpt>
<trkpt lat="46.20704300" lon="7.16529300"><ele></ele><time>2014-7-4T23:13:1Z</time></trkpt>
<trkpt lat="46.20704400" lon="7.16526300"><ele></ele><time>2014-7-4T23:13:4Z</time></trkpt>
<trkpt lat="46.20704300" lon="7.16523200"><ele></ele><time>2014-7-4T23:13:7Z</time></trkpt>
<trkpt lat="46.20704100" lon="7.16520000"><ele></ele><time>2014-7-4T23:13:10Z</time></trkpt>
<trkpt lat="46.20703900" lon="7.16516800"><ele></ele><time>2014-7-4T23:13:13Z</time></trkpt>
<trkpt lat="46.20704000" lon="7.16513700"><ele></ele><time>2014-7-4T23:13:16Z</time></trkpt>
<trkpt lat="46.20703800" lon="7.16510300"><ele></ele><time>2014-7-4T23:13:19Z</time></trkpt>
<trkpt lat="46.20703600" lon="7.16506900"><ele></ele><time>2014-7-4T23:13:22Z</time></trkpt>
<trkpt lat="46.20703400" lon="7.16503900"><ele></ele><time>2014-7-4T23:13:25Z</time></trkpt>
<trkpt lat="46.20703200" lon="7.16500700"><ele></ele><time>2014-7-4T23:13:28Z</time></trkpt>
<trkpt lat="46.20703100" lon="7.16497400"><ele></ele><time>2014-7-4T23:13:31Z</time></trkpt>
<trkpt lat="46.20703000" lon="7.16494300"><ele></ele><time>2014-7-4T23:13:34Z</time></trkpt>
<trkpt lat="46.20703100" lon="7.16491300"><ele></ele><time>2014-7-4T23:13:37Z</time></trkpt>
<trkpt lat="46.20702900" lon="7.16488200"><ele></ele><time>2014-7-4T23:13:40Z</time></trkpt>
<trkpt lat="46.20702800" lon="7.16485100"><ele></ele><time>2014-7-4T23:13:43Z</time></trkpt>
<trkpt lat="46.20702600" lon="7.16481900"><ele></ele><time>2014-7-4T23:13:46Z</time></trkpt>
<trkpt lat="46.20701800" lon="7.16478400"><ele></ele><time>2014-7-4T23:13:49Z</time></trkpt>
<trkpt lat="46.20701300" lon="7.16475100"><ele></ele><time>2014-7-4T23:13:52Z</time></trkpt>
<trkpt lat="46.20701700" lon="7.16472200"><ele></ele><time>2014-7-4T23:13:55Z</time></trkpt>
<trkpt lat="46.20701900" lon="7.16469100"><ele></ele><time>2014-7-4T23:13:58Z</time></trkpt>
<trkpt lat="46.20702200" lon="7.16466100"><ele></ele><time>2014-7-4T23:14:1Z</time></trkpt>
<trkpt lat="46.20702400" lon="7.16463000"><ele></ele><time>2014-7-4T23:14:4Z</time></trkpt>
<trkpt lat="46.20702400" lon="7.16459900"><ele></ele><time>2014-7-4T23:14:7Z</time></trkpt>
<trkpt lat="46.20702500" lon="7.16456900"><ele></ele><time>2014-7-4T23:14:10Z</time></trkpt>
<trkpt lat="46.20702800" lon="7.16453900"><ele></ele><time>2014-7-4T23:14:13Z</time></trkpt>
<trkpt lat="46.20703300" lon="7.16451100"><ele></ele><time>2014-7-4T23:14:16Z</time></trkpt>
<trkpt lat="46.20703400" lon="7.16448100"><ele></ele><time>2014-7-4T23:14:19Z</time></trkpt>
<trkpt lat="46.20703800" lon="7.16445100"><ele></ele><time>2014-7-4T23:14:22Z</time></trkpt>
<trkpt lat="46.20703800" lon="7.16442100"><ele></ele><time>2014-7-4T23:14:25Z</time></trkpt>
<trkpt lat="46.20704300" lon="7.16439300"><ele></ele><time>2014-7-4T23:14:28Z</time></trkpt>
<trkpt lat="46.20704300" lon="7.16436200"><ele></ele><time>2014-7-4T23:14:31Z</time></trkpt>
<trkpt lat="46.20704100" lon="7.16432800"><ele></ele><time>2014-7-4T23:14:34Z</time></trkpt>
<trkpt lat="46.20704800" lon="7.16429800"><ele></ele><time>2014-7-4T23:14:37Z</time></trkpt>
<trkpt lat="46.20705200" lon="7.16426700"><ele></ele><time>2014-7-4T23:14:40Z</time></trkpt>
<trkpt lat="46.20705700" lon="7.16423800"><ele></ele><time>2014-7-4T23:14:43Z</time></trkpt>
<trkpt lat="46.20706000" lon="7.16420800"><ele></ele><time>2014-7-4T23:14:46Z</time></trkpt>
<trkpt lat="46.20706200" lon="7.16417800"><ele></ele><time>2014-7-4T23:14:49Z</time></trkpt>
<trkpt lat="46.20706100" lon="7.16414600"><ele></ele><time>2014-7-4T23:14:52Z</time></trkpt>
<trkpt lat="46.20706700" lon="7.16411800"><ele></ele><time>2014-7-4T23:14:55Z</time></trkpt>
<trkpt lat="46.20707500" lon="7.16409200"><ele></ele><time>2014-7-4T23:14:58Z</time></trkpt>
<trkpt lat="46.20708500" lon="7.16406800"><ele></ele><time>2014-7-4T23:15:1Z</time></trkpt>
<trkpt lat="46.20709700" lon="7.16404500"><ele></ele><time>2014-7-4T23:15:4Z</time></trkpt>
<trkpt lat="46.20711500" lon="7.16402300"><ele></ele><time>2014-7-4T23:15:7Z</time></trkpt>
<trkpt lat="46.20713300" lon="7.16400400"><ele></ele><time>2014-7-4T23:15:10Z</time></trkpt>
<trkpt lat="46.20715300" lon="7.16398800"><ele></ele><time>2014-7-4T23:15:13Z</time></trkpt>
<trkpt lat="46.20717200" lon="7.16397400"><ele></ele><time>2014-7-4T23:15:16Z</time></trkpt>
<trkpt lat="46.20719600" lon="7.16396500"><ele></ele><time>2014-7-4T23:15:19Z</time></trkpt>
<trkpt lat="46.20721600" lon="7.16395700"><ele></ele><time>2014-7-4T23:15:22Z</time></trkpt>
<trkpt lat="46.20724200" lon="7.16395400"><ele></ele><time>2014-7-4T23:15:25Z</time></trkpt>
<trkpt lat="46.20726600" lon="7.16395200"><ele></ele><time>2014-7-4T23:15:28Z</time></trkpt>
<trkpt lat="46.20729000" lon="7.16394900"><ele></ele><time>2014-7-4T23:15:31Z</time></trkpt>
<trkpt lat="46.20730600" lon="7.16394000"><ele></ele><time>2014-7-4T23:15:34Z</time></trkpt>
<trkpt lat="46.20731900" lon="7.16392800"><ele></ele><time>2014-7-4T23:15:37Z</time></trkpt>
<trkpt lat="46.20734500" lon="7.16392100"><ele></ele><time>2014-7-4T23:15:40Z</time></trkpt>
<trkpt lat="46.20736800" lon="7.16391200"><ele></ele><time>2014-7-4T23:15:43Z</time></trkpt>
<trkpt lat="46.20737500" lon="7.16389900"><ele></ele><time>2014-7-4T23:15:46Z</time></trkpt>
<trkpt lat="46.20738500" lon="7.16388700"><ele></ele><time>2014-7-4T23:15:49Z</time></trkpt>
<trkpt lat="46.20740500" lon="7.16387900"><ele></ele><time>2014-7-4T23:15:52Z</time></trkpt>
<trkpt lat="46.20742300" lon="7.16386800"><ele></ele><time>2014-7-4T23:15:55Z</time></trkpt>
<trkpt lat="46.20743800" lon="7.16385600"><ele></ele><time>2014-7-4T23:15:58Z</time></trkpt>
<trkpt lat="46.20744800" lon="7.16384100"><ele></ele><time>2014-7-4T23:16:1Z</time></trkpt>
<trkpt lat="46.20746200" lon="7.16382800"><ele></ele><time>2014-7-4T23:16:4Z</time></trkpt>
<trkpt lat="46.20748400" lon="7.16381600"><ele></ele><time>2014-7-4T23:16:7Z</time></trkpt>
<trkpt lat="46.20750500" lon="7.16380400"><ele></ele><time>2014-7-4T23:16:10Z</time></trkpt>
<trkpt lat="46.20751400" lon="7.16378700"><ele></ele><time>2014-7-4T23:16:13Z</time></trkpt>
<trkpt lat="46.20752000" lon="7.16376700"><ele></ele><time>2014-7-4T23:16:16Z</time></trkpt>
<trkpt lat="46.20753000" lon="7.16375100"><ele></ele><time>2014-7-4T23:16:19Z</time></trkpt>
<trkpt lat="46.20754200" lon="7.16373500"><ele></ele><time>2014-7-4T23:16:22Z</time></trkpt>
<trkpt lat="46.20755900" lon="7.16372200"><ele></ele><time>2014-7-4T23:16:25Z</time></trkpt>
<trkpt lat="46.20757300" lon="7.16370700"><ele></ele><time>2014-7-4T23:16:28Z</time></trkpt>
<trkpt lat="46.20759100" lon="7.16369400"><ele></ele><time>2014-7-4T23:16:31Z</time></trkpt>
<trkpt lat="46.20761000" lon="7.16368400"><ele></ele><time>2014-7-4T23:16:34Z</time></trkpt>
<trkpt lat="46.20762600" lon="7.16367400"><ele></ele><time>2014-7-4T23:16:37Z</time></trkpt>
<trkpt lat="46.20764300" lon="7.16366400"><ele></ele><time>2014-7-4T23:16:40Z</time></trkpt>
<trkpt lat="46.20766300" lon="7.16365700"><ele></ele><time>2014-7-4T23:16:43Z</time></trkpt>
<trkpt lat="46.20767600" lon="7.16364600"><ele></ele><time>2014-7-4T23:16:46Z</time></trkpt>
<trkpt lat="46.20768800" lon="7.16363300"><ele></ele><time>2014-7-4T23:16:49Z</time></trkpt>
<trkpt lat="46.20769900" lon="7.16362200"><ele></ele><time>2014-7-4T23:16:52Z</time></trkpt>
<trkpt lat="46.20770700" lon="7.16360900"><ele></ele><time>2014-7-4T23:16:55Z</time></trkpt>
<trkpt lat="46.20772000" lon="7.16360000"><ele></ele><time>2014-7-4T23:16:58Z</time></trkpt>
<trkpt lat="46.20772900" lon="7.16359100"><ele></ele><time>2014-7-4T23:17:1Z</time></trkpt>
<trkpt lat="46.20773900" lon="7.16357900"><ele></ele><time>2014-7-4T23:17:4Z</time></trkpt>
<trkpt lat="46.20775300" lon="7.16356900"><ele></ele><time>2014-7-4T23:17:7Z</time></trkpt>
<trkpt lat="46.20776000" lon="7.16355500"><ele></ele><time>2014-7-4T23:17:10Z</time></trkpt>
<trkpt lat="46.20776800" lon="7.16354400"><ele></ele><time>2014-7-4T23:17:13Z</time></trkpt>
<trkpt lat="46.20777200" lon="7.16352900"><ele></ele><time>2014-7-4T23:17:16Z</time></trkpt>
<trkpt lat="46.20778700" lon="7.16352000"><ele></ele><time>2014-7-4T23:17:19Z</time></trkpt>
<trkpt lat="46.20779600" lon="7.16351200"><ele></ele><time>2014-7-4T23:17:22Z</time></trkpt>
<trkpt lat="46.20780100" lon="7.16349900"><ele></ele><time>2014-7-4T23:17:25Z</time></trkpt>
<trkpt lat="46.20781300" lon="7.16349300"><ele></ele><time>2014-7-4T23:17:28Z</time></trkpt>
<trkpt lat="46.20781900" lon="7.16348400"><ele></ele><time>2014-7-4T23:17:31Z</time></trkpt>
<trkpt lat="46.20783000" lon="7.16347600"><ele></ele><time>2014-7-4T23:17:34Z</time></trkpt>
<trkpt lat="46.20783800" lon="7.16346500"><ele></ele><time>2014-7-4T23:17:37Z</time></trkpt>
<trkpt lat="46.20785500" lon="7.16345800"><ele></ele><time>2014-7-4T23:17:40Z</time></trkpt>
<trkpt lat="46.20786900" lon="7.16345100"><ele></ele><time>2014-7-4T23:17:43Z</time></trkpt>
<trkpt lat="46.20786600" lon="7.16343400"><ele></ele><time>2014-7-4T23:17:46Z</time></trkpt>
<trkpt lat="46.20787700" lon="7.16342700"><ele></ele><time>2014-7-4T23:17:49Z</time></trkpt>
<trkpt lat="46.20789200" lon="7.16342000"><ele></ele><time>2014-7-4T23:17:52Z</time></trkpt>
<trkpt lat="46.20790300" lon="7.16340900"><ele></ele><time>2014-7-4T23:17:55Z</time></trkpt>
<trkpt lat="46.20790800" lon="7.16339800"><ele></ele><time>2014-7-4T23:17:58Z</time></trkpt>
<trkpt lat="46.20791100" lon="7.16338400"><ele></ele><time>2014-7-4T23:18:1Z</time></trkpt>
<trkpt lat="46.20792300" lon="7.16337100"><ele></ele><time>2014-7-4T23:18:4Z</time></trkpt>
<trkpt lat="46.20793800" lon="7.16335900"><ele></ele><time>2014-7-4T23:18:7Z</time></trkpt>
<trkpt lat="46.20795300" lon="7.16334700"><ele></ele><time>2014-7-4T23:18:10Z</time></trkpt>
<trkpt lat="46.20796600" lon="7.16333400"><ele></ele><time>2014-7-4T23:18:13Z</time></trkpt>
<trkpt lat="46.20797000" lon="7.16331400"><ele></ele><time>2014-7-4T23:18:16Z</time></trkpt>
<trkpt lat="46.20797100" lon="7.16328900"><ele></ele><time>2014-7-4T23:18:19Z</time></trkpt>
<trkpt lat="46.20798300" lon="7.16327200"><ele></ele><time>2014-7-4T23:18:22Z</time></trkpt>
<trkpt lat="46.20800100" lon="7.16325800"><ele></ele><time>2014-7-4T23:18:25Z</time></trkpt>
<trkpt lat="46.20801800" lon="7.16324700"><ele></ele><time>2014-7-4T23:18:28Z</time></trkpt>
<trkpt lat="46.20803200" lon="7.16323300"><ele></ele><time>2014-7-4T23:18:31Z</time></trkpt>
<trkpt lat="46.20804300" lon="7.16321800"><ele></ele><time>2014-7-4T23:18:34Z</time></trkpt>
<trkpt lat="46.20805000" lon="7.16320200"><ele></ele><time>2014-7-4T23:18:37Z</time></trkpt>
<trkpt lat="46.20805600" lon="7.16318600"><ele></ele><time>2014-7-4T23:18:40Z</time></trkpt>
<trkpt lat="46.20806400" lon="7.16316900"><ele></ele><time>2014-7-4T23:18:43Z</time></trkpt>
<trkpt lat="46.20807200" lon="7.16315200"><ele></ele><time>2014-7-4T23:18:46Z</time></trkpt>
<trkpt lat="46.20807900" lon="7.16313500"><ele></ele><time>2014-7-4T23:18:49Z</time></trkpt>
<trkpt lat="46.20808600" lon="7.16311800"><ele></ele><time>2014-7-4T23:18:52Z</time></trkpt>
<trkpt lat="46.20809200" lon="7.16309900"><ele></ele><time>2014-7-4T23:18:55Z</time></trkpt>
<trkpt lat="46.20810100" lon="7.16308000"><ele></ele><time>2014-7-4T23:18:58Z</time></trkpt>
<trkpt lat="46.20810700" lon="7.16305900"><ele></ele><time>2014-7-4T23:19:1Z</time></trkpt>
<trkpt lat="46.20811500" lon="7.16303800"><ele></ele><time>2014-7-4T23:19:4Z</time></trkpt>
<trkpt lat="46.20812200" lon="7.16301700"><ele></ele><time>2014-7-4T23:19:7Z</time></trkpt>
<trkpt lat="46.20812500" lon="7.16299500"><ele></ele><time>2014-7-4T23:19:10Z</time></trkpt>
<trkpt lat="46.20812400" lon="7.16296900"><ele></ele><time>2014-7-4T23:19:13Z</time></trkpt>
<trkpt lat="46.20812300" lon="7.16294200"><ele></ele><time>2014-7-4T23:19:16Z</time></trkpt>
<trkpt lat="46.20812200" lon="7.16291600"><ele></ele><time>2014-7-4T23:19:19Z</time></trkpt>
<trkpt lat="46.20812200" lon="7.16289200"><ele></ele><time>2014-7-4T23:19:22Z</time></trkpt>
<trkpt lat="46.20812000" lon="7.16286800"><ele></ele><time>2014-7-4T23:19:25Z</time></trkpt>
<trkpt lat="46.20812000" lon="7.16284700"><ele></ele><time>2014-7-4T23:19:28Z</time></trkpt>
<trkpt lat="46.20811700" lon="7.16282500"><ele></ele><time>2014-7-4T23:19:31Z</time></trkpt>
<trkpt lat="46.20811100" lon="7.16280200"><ele></ele><time>2014-7-4T23:19:34Z</time></trkpt>
<trkpt lat="46.20810500" lon="7.16278000"><ele></ele><time>2014-7-4T23:19:37Z</time></trkpt>
<trkpt lat="46.20810300" lon="7.16276000"><ele></ele><time>2014-7-4T23:19:40Z</time></trkpt>
<trkpt lat="46.20809700" lon="7.16274200"><ele></ele><time>2014-7-4T23:19:43Z</time></trkpt>
<trkpt lat="46.20809000" lon="7.16272600"><ele></ele><time>2014-7-4T23:19:46Z</time></trkpt>
<trkpt lat="46.20808300" lon="7.16270800"><ele></ele><time>2014-7-4T23:19:49Z</time></trkpt>
<trkpt lat="46.20807600" lon="7.16269000"><ele></ele><time>2014-7-4T23:19:52Z</time></trkpt>
<trkpt lat="46.20806700" lon="7.16267300"><ele></ele><time>2014-7-4T23:19:55Z</time></trkpt>
<trkpt lat="46.20806000" lon="7.16265600"><ele></ele><time>2014-7-4T23:19:58Z</time></trkpt>
<trkpt lat="46.20805000" lon="7.16263900"><ele></ele><time>2014-7-4T23:20:1Z</time></trkpt>
<trkpt lat="46.20804100" lon="7.16262200"><ele></ele><time>2014-7-4T23:20:4Z</time></trkpt>
<trkpt lat="46.20803100" lon="7.16260200"><ele></ele><time>2014-7-4T23:20:7Z</time></trkpt>
<trkpt lat="46.20802100" lon="7.16258400"><ele></ele><time>2014-7-4T23:20:10Z</time></trkpt>
<trkpt lat="46.20801100" lon="7.16256600"><ele></ele><time>2014-7-4T23:20:13Z</time></trkpt>
<trkpt lat="46.20800100" lon="7.16254600"><ele></ele><time>2014-7-4T23:20:16Z</time></trkpt>
<trkpt lat="46.20798900" lon="7.16252700"><ele></ele><time>2014-7-4T23:20:19Z</time></trkpt>
<trkpt lat="46.20797900" lon="7.16250800"><ele></ele><time>2014-7-4T23:20:22Z</time></trkpt>
<trkpt lat="46.20796600" lon="7.16248700"><ele></ele><time>2014-7-4T23:20:25Z</time></trkpt>
<trkpt lat="46.20795500" lon="7.16246700"><ele></ele><time>2014-7-4T23:20:28Z</time></trkpt>
<trkpt lat="46.20794100" lon="7.16244600"><ele></ele><time>2014-7-4T23:20:31Z</time></trkpt>
<trkpt lat="46.20792900" lon="7.16242300"><ele></ele><time>2014-7-4T23:20:34Z</time></trkpt>
<trkpt lat="46.20791800" lon="7.16240300"><ele></ele><time>2014-7-4T23:20:37Z</time></trkpt>
<trkpt lat="46.20790600" lon="7.16238300"><ele></ele><time>2014-7-4T23:20:40Z</time></trkpt>
<trkpt lat="46.20789700" lon="7.16236700"><ele></ele><time>2014-7-4T23:20:43Z</time></trkpt>
<trkpt lat="46.20789000" lon="7.16235100"><ele></ele><time>2014-7-4T23:20:46Z</time></trkpt>
<trkpt lat="46.20788200" lon="7.16233300"><ele></ele><time>2014-7-4T23:20:49Z</time></trkpt>
<trkpt lat="46.20787100" lon="7.16231000"><ele></ele><time>2014-7-4T23:20:52Z</time></trkpt>
<trkpt lat="46.20786300" lon="7.16228500"><ele></ele><time>2014-7-4T23:20:55Z</time></trkpt>
<trkpt lat="46.20785400" lon="7.16226200"><ele></ele><time>2014-7-4T23:20:58Z</time></trkpt>
<trkpt lat="46.20784500" lon="7.16223700"><ele></ele><time>2014-7-4T23:21:1Z</time></trkpt>
<trkpt lat="46.20783600" lon="7.16221200"><ele></ele><time>2014-7-4T23:21:4Z</time></trkpt>
<trkpt lat="46.20782900" lon="7.16219000"><ele></ele><time>2014-7-4T23:21:7Z</time></trkpt>
<trkpt lat="46.20782200" lon="7.16216400"><ele></ele><time>2014-7-4T23:21:10Z</time></trkpt>
<trkpt lat="46.20781600" lon="7.16213700"><ele></ele><time>2014-7-4T23:21:13Z</time></trkpt>
<trkpt lat="46.20780700" lon="7.16211000"><ele></ele><time>2014-7-4T23:21:16Z</time></trkpt>
<trkpt lat="46.20779900" lon="7.16208300"><ele></ele><time>2014-7-4T23:21:19Z</time></trkpt>
<trkpt lat="46.20779000" lon="7.16205600"><ele></ele><time>2014-7-4T23:21:22Z</time></trkpt>
<trkpt lat="46.20778300" lon="7.16203200"><ele></ele><time>2014-7-4T23:21:25Z</time></trkpt>
<trkpt lat="46.20777600" lon="7.16200600"><ele></ele><time>2014-7-4T23:21:28Z</time></trkpt>
<trkpt lat="46.20776700" lon="7.16198000"><ele></ele><time>2014-7-4T23:21:31Z</time></trkpt>
<trkpt lat="46.20775600" lon="7.16195400"><ele></ele><time>2014-7-4T23:21:34Z</time></trkpt>
<trkpt lat="46.20774400" lon="7.16192900"><ele></ele><time>2014-7-4T23:21:37Z</time></trkpt>
<trkpt lat="46.20773300" lon="7.16190500"><ele></ele><time>2014-7-4T23:21:40Z</time></trkpt>
<trkpt lat="46.20771900" lon="7.16188000"><ele></ele><time>2014-7-4T23:21:43Z</time></trkpt>
<trkpt lat="46.20770300" lon="7.16185800"><ele></ele><time>2014-7-4T23:21:46Z</time></trkpt>
<trkpt lat="46.20768500" lon="7.16184100"><ele></ele><time>2014-7-4T23:21:49Z</time></trkpt>
<trkpt lat="46.20767100" lon="7.16182800"><ele></ele><time>2014-7-4T23:21:52Z</time></trkpt>
<trkpt lat="46.20765700" lon="7.16181400"><ele></ele><time>2014-7-4T23:21:55Z</time></trkpt>
<trkpt lat="46.20764500" lon="7.16180000"><ele></ele><time>2014-7-4T23:21:58Z</time></trkpt>
<trkpt lat="46.20763300" lon="7.16178800"><ele></ele><time>2014-7-4T23:22:1Z</time></trkpt>
<trkpt lat="46.20761300" lon="7.16177400"><ele></ele><time>2014-7-4T23:22:4Z</time></trkpt>
<trkpt lat="46.20759500" lon="7.16175900"><ele></ele><time>2014-7-4T23:22:7Z</time></trkpt>
<trkpt lat="46.20757900" lon="7.16174200"><ele></ele><time>2014-7-4T23:22:10Z</time></trkpt>
<trkpt lat="46.20756500" lon="7.16172600"><ele></ele><time>2014-7-4T23:22:13Z</time></trkpt>
<trkpt lat="46.20755000" lon="7.16170800"><ele></ele><time>2014-7-4T23:22:16Z</time></trkpt>
<trkpt lat="46.20753600" lon="7.16169000"><ele></ele><time>2014-7-4T23:22:19Z</time></trkpt>
<trkpt lat="46.20752400" lon="7.16167200"><ele></ele><time>2014-7-4T23:22:22Z</time></trkpt>
<trkpt lat="46.20751400" lon="7.16165100"><ele></ele><time>2014-7-4T23:22:25Z</time></trkpt>
<trkpt lat="46.20750400" lon="7.16162500"><ele></ele><time>2014-7-4T23:22:28Z</time></trkpt>
<trkpt lat="46.20749800" lon="7.16159500"><ele></ele><time>2014-7-4T23:22:31Z</time></trkpt>
<trkpt lat="46.20749900" lon="7.16156400"><ele></ele><time>2014-7-4T23:22:34Z</time></trkpt>
<trkpt lat="46.20750300" lon="7.16153400"><ele></ele><time>2014-7-4T23:22:37Z</time></trkpt>
<trkpt lat="46.20750700" lon="7.16150400"><ele></ele><time>2014-7-4T23:22:40Z</time></trkpt>
<trkpt lat="46.20751000" lon="7.16147300"><ele></ele><time>2014-7-4T23:22:43Z</time></trkpt>
<trkpt lat="46.20751200" lon="7.16144400"><ele></ele><time>2014-7-4T23:22:46Z</time></trkpt>
<trkpt lat="46.20751600" lon="7.16141400"><ele></ele><time>2014-7-4T23:22:49Z</time></trkpt>
<trkpt lat="46.20752200" lon="7.16138700"><ele></ele><time>2014-7-4T23:22:52Z</time></trkpt>
<trkpt lat="46.20752800" lon="7.16136000"><ele></ele><time>2014-7-4T23:22:55Z</time></trkpt>
<trkpt lat="46.20754000" lon="7.16133400"><ele></ele><time>2014-7-4T23:22:58Z</time></trkpt>
<trkpt lat="46.20755100" lon="7.16131000"><ele></ele><time>2014-7-4T23:23:1Z</time></trkpt>
<trkpt lat="46.20756100" lon="7.16128500"><ele></ele><time>2014-7-4T23:23:4Z</time></trkpt>
<trkpt lat="46.20757100" lon="7.16126000"><ele></ele><time>2014-7-4T23:23:7Z</time></trkpt>
<trkpt lat="46.20758200" lon="7.16123500"><ele></ele><time>2014-7-4T23:23:10Z</time></trkpt>
<trkpt lat="46.20759300" lon="7.16120900"><ele></ele><time>2014-7-4T23:23:13Z</time></trkpt>
<trkpt lat="46.20760500" lon="7.16118400"><ele></ele><time>2014-7-4T23:23:16Z</time></trkpt>
<trkpt lat="46.20761000" lon="7.16115800"><ele></ele><time>2014-7-4T23:23:19Z</time></trkpt>
<trkpt lat="46.20761800" lon="7.16113300"><ele></ele><time>2014-7-4T23:23:22Z</time></trkpt>
<trkpt lat="46.20762400" lon="7.16110500"><ele></ele><time>2014-7-4T23:23:25Z</time></trkpt>
<trkpt lat="46.20765800" lon="7.16096500"><ele></ele><time>2014-7-4T23:23:28Z</time></trkpt>
<trkpt lat="46.20766100" lon="7.16093800"><ele></ele><time>2014-7-4T23:23:31Z</time></trkpt>
<trkpt lat="46.20766500" lon="7.16091100"><ele></ele><time>2014-7-4T23:23:34Z</time></trkpt>
<trkpt lat="46.20766700" lon="7.16088300"><ele></ele><time>2014-7-4T23:23:37Z</time></trkpt>
<trkpt lat="46.20767000" lon="7.16085500"><ele></ele><time>2014-7-4T23:23:40Z</time></trkpt>
<trkpt lat="46.20767000" lon="7.16082700"><ele></ele><time>2014-7-4T23:23:43Z</time></trkpt>
<trkpt lat="46.20767200" lon="7.16079900"><ele></ele><time>2014-7-4T23:23:46Z</time></trkpt>
<trkpt lat="46.20767600" lon="7.16077200"><ele></ele><time>2014-7-4T23:23:49Z</time></trkpt>
<trkpt lat="46.20768100" lon="7.16074500"><ele></ele><time>2014-7-4T23:23:52Z</time></trkpt>
<trkpt lat="46.20768600" lon="7.16071700"><ele></ele><time>2014-7-4T23:23:55Z</time></trkpt>
<trkpt lat="46.20769000" lon="7.16068900"><ele></ele><time>2014-7-4T23:23:58Z</time></trkpt>
<trkpt lat="46.20769600" lon="7.16066300"><ele></ele><time>2014-7-4T23:24:1Z</time></trkpt>
<trkpt lat="46.20770500" lon="7.16063700"><ele></ele><time>2014-7-4T23:24:4Z</time></trkpt>
<trkpt lat="46.20771300" lon="7.16061100"><ele></ele><time>2014-7-4T23:24:7Z</time></trkpt>
<trkpt lat="46.20771300" lon="7.16058200"><ele></ele><time>2014-7-4T23:24:10Z</time></trkpt>
<trkpt lat="46.20771800" lon="7.16055500"><ele></ele><time>2014-7-4T23:24:13Z</time></trkpt>
<trkpt lat="46.20772100" lon="7.16052700"><ele></ele><time>2014-7-4T23:24:16Z</time></trkpt>
<trkpt lat="46.20772900" lon="7.16050000"><ele></ele><time>2014-7-4T23:24:19Z</time></trkpt>
<trkpt lat="46.20773800" lon="7.16047400"><ele></ele><time>2014-7-4T23:24:22Z</time></trkpt>
<trkpt lat="46.20774500" lon="7.16044800"><ele></ele><time>2014-7-4T23:24:25Z</time></trkpt>
<trkpt lat="46.20775700" lon="7.16042200"><ele></ele><time>2014-7-4T23:24:28Z</time></trkpt>
<trkpt lat="46.20776700" lon="7.16040000"><ele></ele><time>2014-7-4T23:24:31Z</time></trkpt>
<trkpt lat="46.20777600" lon="7.16037600"><ele></ele><time>2014-7-4T23:24:34Z</time></trkpt>
<trkpt lat="46.20778900" lon="7.16035000"><ele></ele><time>2014-7-4T23:24:37Z</time></trkpt>
<trkpt lat="46.20780000" lon="7.16032000"><ele></ele><time>2014-7-4T23:24:40Z</time></trkpt>
<trkpt lat="46.20780500" lon="7.16028900"><ele></ele><time>2014-7-4T23:24:43Z</time></trkpt>
<trkpt lat="46.20781600" lon="7.16026200"><ele></ele><time>2014-7-4T23:24:46Z</time></trkpt>
<trkpt lat="46.20782400" lon="7.16023400"><ele></ele><time>2014-7-4T23:24:49Z</time></trkpt>
<trkpt lat="46.20782900" lon="7.16020700"><ele></ele><time>2014-7-4T23:24:52Z</time></trkpt>
<trkpt lat="46.20783500" lon="7.16017900"><ele></ele><time>2014-7-4T23:24:55Z</time></trkpt>
<trkpt lat="46.20784600" lon="7.16015100"><ele></ele><time>2014-7-4T23:24:58Z</time></trkpt>
<trkpt lat="46.20785400" lon="7.16012300"><ele></ele><time>2014-7-4T23:25:1Z</time></trkpt>
<trkpt lat="46.20786300" lon="7.16009500"><ele></ele><time>2014-7-4T23:25:4Z</time></trkpt>
<trkpt lat="46.20787500" lon="7.16006800"><ele></ele><time>2014-7-4T23:25:7Z</time></trkpt>
<trkpt lat="46.20788100" lon="7.16004000"><ele></ele><time>2014-7-4T23:25:10Z</time></trkpt>
<trkpt lat="46.20788800" lon="7.16001400"><ele></ele><time>2014-7-4T23:25:13Z</time></trkpt>
<trkpt lat="46.20789100" lon="7.15998700"><ele></ele><time>2014-7-4T23:25:16Z</time></trkpt>
<trkpt lat="46.20789400" lon="7.15996000"><ele></ele><time>2014-7-4T23:25:19Z</time></trkpt>
<trkpt lat="46.20789200" lon="7.15993400"><ele></ele><time>2014-7-4T23:25:22Z</time></trkpt>
<trkpt lat="46.20790000" lon="7.15991200"><ele></ele><time>2014-7-4T23:25:25Z</time></trkpt>
<trkpt lat="46.20791100" lon="7.15989100"><ele></ele><time>2014-7-4T23:25:28Z</time></trkpt>
<trkpt lat="46.20791600" lon="7.15986600"><ele></ele><time>2014-7-4T23:25:31Z</time></trkpt>
<trkpt lat="46.20791900" lon="7.15984000"><ele></ele><time>2014-7-4T23:25:34Z</time></trkpt>
<trkpt lat="46.20792000" lon="7.15981400"><ele></ele><time>2014-7-4T23:25:37Z</time></trkpt>
<trkpt lat="46.20791900" lon="7.15978600"><ele></ele><time>2014-7-4T23:25:40Z</time></trkpt>
<trkpt lat="46.20791600" lon="7.15975700"><ele></ele><time>2014-7-4T23:25:43Z</time></trkpt>
<trkpt lat="46.20791000" lon="7.15972700"><ele></ele><time>2014-7-4T23:25:46Z</time></trkpt>
<trkpt lat="46.20790200" lon="7.15969600"><ele></ele><time>2014-7-4T23:25:49Z</time></trkpt>
<trkpt lat="46.20789300" lon="7.15966400"><ele></ele><time>2014-7-4T23:25:52Z</time></trkpt>
<trkpt lat="46.20788400" lon="7.15963200"><ele></ele><time>2014-7-4T23:25:55Z</time></trkpt>
<trkpt lat="46.20787600" lon="7.15960200"><ele></ele><time>2014-7-4T23:25:58Z</time></trkpt>
<trkpt lat="46.20787100" lon="7.15957300"><ele></ele><time>2014-7-4T23:26:1Z</time></trkpt>
<trkpt lat="46.20786800" lon="7.15954500"><ele></ele><time>2014-7-4T23:26:4Z</time></trkpt>
<trkpt lat="46.20786500" lon="7.15951800"><ele></ele><time>2014-7-4T23:26:7Z</time></trkpt>
<trkpt lat="46.20786100" lon="7.15949000"><ele></ele><time>2014-7-4T23:26:10Z</time></trkpt>
<trkpt lat="46.20785600" lon="7.15946000"><ele></ele><time>2014-7-4T23:26:13Z</time></trkpt>
<trkpt lat="46.20784900" lon="7.15943000"><ele></ele><time>2014-7-4T23:26:16Z</time></trkpt>
<trkpt lat="46.20784700" lon="7.15940000"><ele></ele><time>2014-7-4T23:26:19Z</time></trkpt>
<trkpt lat="46.20784400" lon="7.15937000"><ele></ele><time>2014-7-4T23:26:22Z</time></trkpt>
<trkpt lat="46.20783900" lon="7.15933700"><ele></ele><time>2014-7-4T23:26:25Z</time></trkpt>
<trkpt lat="46.20783900" lon="7.15930600"><ele></ele><time>2014-7-4T23:26:28Z</time></trkpt>
<trkpt lat="46.20783800" lon="7.15927600"><ele></ele><time>2014-7-4T23:26:31Z</time></trkpt>
<trkpt lat="46.20783700" lon="7.15924600"><ele></ele><time>2014-7-4T23:26:34Z</time></trkpt>
<trkpt lat="46.20783400" lon="7.15921700"><ele></ele><time>2014-7-4T23:26:37Z</time></trkpt>
<trkpt lat="46.20783200" lon="7.15918600"><ele></ele><time>2014-7-4T23:26:40Z</time></trkpt>
<trkpt lat="46.20783400" lon="7.15915600"><ele></ele><time>2014-7-4T23:26:43Z</time></trkpt>
<trkpt lat="46.20783900" lon="7.15912700"><ele></ele><time>2014-7-4T23:26:46Z</time></trkpt>
<trkpt lat="46.20784100" lon="7.15909700"><ele></ele><time>2014-7-4T23:26:49Z</time></trkpt>
<trkpt lat="46.20783600" lon="7.15906700"><ele></ele><time>2014-7-4T23:26:52Z</time></trkpt>
<trkpt lat="46.20783300" lon="7.15903800"><ele></ele><time>2014-7-4T23:26:55Z</time></trkpt>
<trkpt lat="46.20783000" lon="7.15900900"><ele></ele><time>2014-7-4T23:26:58Z</time></trkpt>
<trkpt lat="46.20783200" lon="7.15898200"><ele></ele><time>2014-7-4T23:27:1Z</time></trkpt>
<trkpt lat="46.20783500" lon="7.15895500"><ele></ele><time>2014-7-4T23:27:4Z</time></trkpt>
<trkpt lat="46.20784300" lon="7.15892800"><ele></ele><time>2014-7-4T23:27:7Z</time></trkpt>
<trkpt lat="46.20784500" lon="7.15890100"><ele></ele><time>2014-7-4T23:27:10Z</time></trkpt>
<trkpt lat="46.20784900" lon="7.15887500"><ele></ele><time>2014-7-4T23:27:13Z</time></trkpt>
<trkpt lat="46.20785600" lon="7.15885000"><ele></ele><time>2014-7-4T23:27:16Z</time></trkpt>
<trkpt lat="46.20786200" lon="7.15882400"><ele></ele><time>2014-7-4T23:27:19Z</time></trkpt>
<trkpt lat="46.20787100" lon="7.15879900"><ele></ele><time>2014-7-4T23:27:22Z</time></trkpt>
<trkpt lat="46.20788000" lon="7.15877000"><ele></ele><time>2014-7-4T23:27:25Z</time></trkpt>
<trkpt lat="46.20788700" lon="7.15874100"><ele></ele><time>2014-7-4T23:27:28Z</time></trkpt>
<trkpt lat="46.20789700" lon="7.15871200"><ele></ele><time>2014-7-4T23:27:31Z</time></trkpt>
<trkpt lat="46.20790500" lon="7.15868400"><ele></ele><time>2014-7-4T23:27:34Z</time></trkpt>
<trkpt lat="46.20791800" lon="7.15866000"><ele></ele><time>2014-7-4T23:27:37Z</time></trkpt>
<trkpt lat="46.20793000" lon="7.15863400"><ele></ele><time>2014-7-4T23:27:40Z</time></trkpt>
<trkpt lat="46.20793800" lon="7.15860700"><ele></ele><time>2014-7-4T23:27:43Z</time></trkpt>
<trkpt lat="46.20794200" lon="7.15857900"><ele></ele><time>2014-7-4T23:27:46Z</time></trkpt>
<trkpt lat="46.20794700" lon="7.15855100"><ele></ele><time>2014-7-4T23:27:49Z</time></trkpt>
<trkpt lat="46.20795400" lon="7.15852500"><ele></ele><time>2014-7-4T23:27:52Z</time></trkpt>
<trkpt lat="46.20796100" lon="7.15849900"><ele></ele><time>2014-7-4T23:27:55Z</time></trkpt>
<trkpt lat="46.20796400" lon="7.15847400"><ele></ele><time>2014-7-4T23:27:58Z</time></trkpt>
<trkpt lat="46.20797100" lon="7.15845100"><ele></ele><time>2014-7-4T23:28:1Z</time></trkpt>
<trkpt lat="46.20797700" lon="7.15842600"><ele></ele><time>2014-7-4T23:28:4Z</time></trkpt>
<trkpt lat="46.20798400" lon="7.15840000"><ele></ele><time>2014-7-4T23:28:7Z</time></trkpt>
<trkpt lat="46.20799100" lon="7.15837400"><ele></ele><time>2014-7-4T23:28:10Z</time></trkpt>
<trkpt lat="46.20799200" lon="7.15834600"><ele></ele><time>2014-7-4T23:28:13Z</time></trkpt>
<trkpt lat="46.20799400" lon="7.15831800"><ele></ele><time>2014-7-4T23:28:16Z</time></trkpt>
<trkpt lat="46.20799900" lon="7.15829100"><ele></ele><time>2014-7-4T23:28:19Z</time></trkpt>
<trkpt lat="46.20800500" lon="7.15826400"><ele></ele><time>2014-7-4T23:28:22Z</time></trkpt>
<trkpt lat="46.20800400" lon="7.15823400"><ele></ele><time>2014-7-4T23:28:25Z</time></trkpt>
<trkpt lat="46.20800600" lon="7.15820500"><ele></ele><time>2014-7-4T23:28:28Z</time></trkpt>
<trkpt lat="46.20800700" lon="7.15817500"><ele></ele><time>2014-7-4T23:28:31Z</time></trkpt>
<trkpt lat="46.20800700" lon="7.15814700"><ele></ele><time>2014-7-4T23:28:34Z</time></trkpt>
<trkpt lat="46.20800600" lon="7.15811800"><ele></ele><time>2014-7-4T23:28:37Z</time></trkpt>
<trkpt lat="46.20800600" lon="7.15808900"><ele></ele><time>2014-7-4T23:28:40Z</time></trkpt>
<trkpt lat="46.20800600" lon="7.15806100"><ele></ele><time>2014-7-4T23:28:43Z</time></trkpt>
<trkpt lat="46.20800900" lon="7.15803400"><ele></ele><time>2014-7-4T23:28:46Z</time></trkpt>
<trkpt lat="46.20800800" lon="7.15800500"><ele></ele><time>2014-7-4T23:28:49Z</time></trkpt>
<trkpt lat="46.20800800" lon="7.15797700"><ele></ele><time>2014-7-4T23:28:52Z</time></trkpt>
<trkpt lat="46.20800900" lon="7.15794800"><ele></ele><time>2014-7-4T23:28:55Z</time></trkpt>
<trkpt lat="46.20800900" lon="7.15792000"><ele></ele><time>2014-7-4T23:28:58Z</time></trkpt>
<trkpt lat="46.20801000" lon="7.15789300"><ele></ele><time>2014-7-4T23:29:1Z</time></trkpt>
<trkpt lat="46.20800800" lon="7.15786600"><ele></ele><time>2014-7-4T23:29:4Z</time></trkpt>
<trkpt lat="46.20800900" lon="7.15783900"><ele></ele><time>2014-7-4T23:29:7Z</time></trkpt>
<trkpt lat="46.20800900" lon="7.15781300"><ele></ele><time>2014-7-4T23:29:10Z</time></trkpt>
<trkpt lat="46.20800800" lon="7.15778500"><ele></ele><time>2014-7-4T23:29:13Z</time></trkpt>
<trkpt lat="46.20800700" lon="7.15775700"><ele></ele><time>2014-7-4T23:29:16Z</time></trkpt>
<trkpt lat="46.20800800" lon="7.15773000"><ele></ele><time>2014-7-4T23:29:19Z</time></trkpt>
<trkpt lat="46.20801200" lon="7.15770400"><ele></ele><time>2014-7-4T23:29:22Z</time></trkpt>
<trkpt lat="46.20801100" lon="7.15767700"><ele></ele><time>2014-7-4T23:29:25Z</time></trkpt>
<trkpt lat="46.20801300" lon="7.15765100"><ele></ele><time>2014-7-4T23:29:28Z</time></trkpt>
<trkpt lat="46.20801000" lon="7.15762300"><ele></ele><time>2014-7-4T23:29:31Z</time></trkpt>
<trkpt lat="46.20801100" lon="7.15759400"><ele></ele><time>2014-7-4T23:29:34Z</time></trkpt>
<trkpt lat="46.20801200" lon="7.15756700"><ele></ele><time>2014-7-4T23:29:37Z</time></trkpt>
<trkpt lat="46.20801500" lon="7.15754000"><ele></ele><time>2014-7-4T23:29:40Z</time></trkpt>
<trkpt lat="46.20801700" lon="7.15751200"><ele></ele><time>2014-7-4T23:29:43Z</time></trkpt>
<trkpt lat="46.20802100" lon="7.15748500"><ele></ele><time>2014-7-4T23:29:46Z</time></trkpt>
<trkpt lat="46.20802300" lon="7.15745700"><ele></ele><time>2014-7-4T23:29:49Z</time></trkpt>
<trkpt lat="46.20802300" lon="7.15742800"><ele></ele><time>2014-7-4T23:29:52Z</time></trkpt>
<trkpt lat="46.20802700" lon="7.15740000"><ele></ele><time>2014-7-4T23:29:55Z</time></trkpt>
<trkpt lat="46.20803200" lon="7.15737200"><ele></ele><time>2014-7-4T23:29:58Z</time></trkpt>
<trkpt lat="46.20803500" lon="7.15734300"><ele></ele><time>2014-7-4T23:30:1Z</time></trkpt>
<trkpt lat="46.20804000" lon="7.15731500"><ele></ele><time>2014-7-4T23:30:4Z</time></trkpt>
<trkpt lat="46.20804500" lon="7.15728800"><ele></ele><time>2014-7-4T23:30:7Z</time></trkpt>
<trkpt lat="46.20804700" lon="7.15725900"><ele></ele><time>2014-7-4T23:30:10Z</time></trkpt>
<trkpt lat="46.20804900" lon="7.15723000"><ele></ele><time>2014-7-4T23:30:13Z</time></trkpt>
<trkpt lat="46.20805000" lon="7.15720000"><ele></ele><time>2014-7-4T23:30:16Z</time></trkpt>
<trkpt lat="46.20805200" lon="7.15716900"><ele></ele><time>2014-7-4T23:30:19Z</time></trkpt>
<trkpt lat="46.20805700" lon="7.15714100"><ele></ele><time>2014-7-4T23:30:22Z</time></trkpt>
<trkpt lat="46.20806000" lon="7.15711100"><ele></ele><time>2014-7-4T23:30:25Z</time></trkpt>
<trkpt lat="46.20806300" lon="7.15708300"><ele></ele><time>2014-7-4T23:30:28Z</time></trkpt>
<trkpt lat="46.20807000" lon="7.15705400"><ele></ele><time>2014-7-4T23:30:31Z</time></trkpt>
<trkpt lat="46.20807900" lon="7.15702800"><ele></ele><time>2014-7-4T23:30:34Z</time></trkpt>
<trkpt lat="46.20808500" lon="7.15700200"><ele></ele><time>2014-7-4T23:30:37Z</time></trkpt>
<trkpt lat="46.20808800" lon="7.15697300"><ele></ele><time>2014-7-4T23:30:40Z</time></trkpt>
<trkpt lat="46.20809000" lon="7.15694300"><ele></ele><time>2014-7-4T23:30:43Z</time></trkpt>
<trkpt lat="46.20809200" lon="7.15691300"><ele></ele><time>2014-7-4T23:30:46Z</time></trkpt>
<trkpt lat="46.20809500" lon="7.15688400"><ele></ele><time>2014-7-4T23:30:49Z</time></trkpt>
<trkpt lat="46.20809700" lon="7.15685400"><ele></ele><time>2014-7-4T23:30:52Z</time></trkpt>
<trkpt lat="46.20809800" lon="7.15682300"><ele></ele><time>2014-7-4T23:30:55Z</time></trkpt>
<trkpt lat="46.20810200" lon="7.15679400"><ele></ele><time>2014-7-4T23:30:58Z</time></trkpt>
<trkpt lat="46.20810200" lon="7.15676300"><ele></ele><time>2014-7-4T23:31:1Z</time></trkpt>
<trkpt lat="46.20810000" lon="7.15673000"><ele></ele><time>2014-7-4T23:31:4Z</time></trkpt>
<trkpt lat="46.20809800" lon="7.15669900"><ele></ele><time>2014-7-4T23:31:7Z</time></trkpt>
<trkpt lat="46.20809700" lon="7.15667000"><ele></ele><time>2014-7-4T23:31:10Z</time></trkpt>
<trkpt lat="46.20809500" lon="7.15664300"><ele></ele><time>2014-7-4T23:31:13Z</time></trkpt>
<trkpt lat="46.20809600" lon="7.15661500"><ele></ele><time>2014-7-4T23:31:16Z</time></trkpt>
<trkpt lat="46.20810400" lon="7.15658900"><ele></ele><time>2014-7-4T23:31:19Z</time></trkpt>
<trkpt lat="46.20811000" lon="7.15656400"><ele></ele><time>2014-7-4T23:31:22Z</time></trkpt>
<trkpt lat="46.20811500" lon="7.15654200"><ele></ele><time>2014-7-4T23:31:25Z</time></trkpt>
<trkpt lat="46.20812300" lon="7.15652300"><ele></ele><time>2014-7-4T23:31:28Z</time></trkpt>
<trkpt lat="46.20812500" lon="7.15650200"><ele></ele><time>2014-7-4T23:31:31Z</time></trkpt>
<trkpt lat="46.20812200" lon="7.15647400"><ele></ele><time>2014-7-4T23:31:34Z</time></trkpt>
<trkpt lat="46.20811900" lon="7.15644100"><ele></ele><time>2014-7-4T23:31:37Z</time></trkpt>
<trkpt lat="46.20811700" lon="7.15640400"><ele></ele><time>2014-7-4T23:31:40Z</time></trkpt>
<trkpt lat="46.20811800" lon="7.15636200"><ele></ele><time>2014-7-4T23:31:43Z</time></trkpt>
<trkpt lat="46.20812300" lon="7.15632100"><ele></ele><time>2014-7-4T23:31:46Z</time></trkpt>
<trkpt lat="46.20812400" lon="7.15628100"><ele></ele><time>2014-7-4T23:31:49Z</time></trkpt>
<trkpt lat="46.20812900" lon="7.15624300"><ele></ele><time>2014-7-4T23:31:52Z</time></trkpt>
<trkpt lat="46.20813200" lon="7.15620500"><ele></ele><time>2014-7-4T23:31:55Z</time></trkpt>
<trkpt lat="46.20813300" lon="7.15616800"><ele></ele><time>2014-7-4T23:31:58Z</time></trkpt>
<trkpt lat="46.20813700" lon="7.15613300"><ele></ele><time>2014-7-4T23:32:1Z</time></trkpt>
<trkpt lat="46.20814200" lon="7.15609900"><ele></ele><time>2014-7-4T23:32:4Z</time></trkpt>
<trkpt lat="46.20814600" lon="7.15606700"><ele></ele><time>2014-7-4T23:32:7Z</time></trkpt>
<trkpt lat="46.20815100" lon="7.15603600"><ele></ele><time>2014-7-4T23:32:10Z</time></trkpt>
<trkpt lat="46.20815400" lon="7.15600300"><ele></ele><time>2014-7-4T23:32:13Z</time></trkpt>
<trkpt lat="46.20816000" lon="7.15597200"><ele></ele><time>2014-7-4T23:32:16Z</time></trkpt>
<trkpt lat="46.20816500" lon="7.15594000"><ele></ele><time>2014-7-4T23:32:19Z</time></trkpt>
<trkpt lat="46.20817000" lon="7.15590700"><ele></ele><time>2014-7-4T23:32:22Z</time></trkpt>
<trkpt lat="46.20817800" lon="7.15587600"><ele></ele><time>2014-7-4T23:32:25Z</time></trkpt>
<trkpt lat="46.20819000" lon="7.15584300"><ele></ele><time>2014-7-4T23:32:28Z</time></trkpt>
<trkpt lat="46.20820100" lon="7.15581100"><ele></ele><time>2014-7-4T23:32:31Z</time></trkpt>
<trkpt lat="46.20821400" lon="7.15577800"><ele></ele><time>2014-7-4T23:32:34Z</time></trkpt>
<trkpt lat="46.20822900" lon="7.15574600"><ele></ele><time>2014-7-4T23:32:37Z</time></trkpt>
<trkpt lat="46.20824700" lon="7.15571400"><ele></ele><time>2014-7-4T23:32:40Z</time></trkpt>
<trkpt lat="46.20826400" lon="7.15568300"><ele></ele><time>2014-7-4T23:32:43Z</time></trkpt>
<trkpt lat="46.20827800" lon="7.15565400"><ele></ele><time>2014-7-4T23:32:46Z</time></trkpt>
<trkpt lat="46.20828900" lon="7.15562400"><ele></ele><time>2014-7-4T23:32:49Z</time></trkpt>
<trkpt lat="46.20830600" lon="7.15559400"><ele></ele><time>2014-7-4T23:32:52Z</time></trkpt>
<trkpt lat="46.20831600" lon="7.15556300"><ele></ele><time>2014-7-4T23:32:55Z</time></trkpt>
<trkpt lat="46.20832400" lon="7.15552900"><ele></ele><time>2014-7-4T23:32:58Z</time></trkpt>
<trkpt lat="46.20833000" lon="7.15549200"><ele></ele><time>2014-7-4T23:33:1Z</time></trkpt>
<trkpt lat="46.20833200" lon="7.15545300"><ele></ele><time>2014-7-4T23:33:4Z</time></trkpt>
<trkpt lat="46.20833300" lon="7.15541400"><ele></ele><time>2014-7-4T23:33:7Z</time></trkpt>
<trkpt lat="46.20832900" lon="7.15537600"><ele></ele><time>2014-7-4T23:33:10Z</time></trkpt>
<trkpt lat="46.20832200" lon="7.15533900"><ele></ele><time>2014-7-4T23:33:13Z</time></trkpt>
<trkpt lat="46.20831300" lon="7.15530200"><ele></ele><time>2014-7-4T23:33:16Z</time></trkpt>
<trkpt lat="46.20830200" lon="7.15526500"><ele></ele><time>2014-7-4T23:33:19Z</time></trkpt>
<trkpt lat="46.20829200" lon="7.15522700"><ele></ele><time>2014-7-4T23:33:22Z</time></trkpt>
<trkpt lat="46.20828300" lon="7.15518800"><ele></ele><time>2014-7-4T23:33:25Z</time></trkpt>
<trkpt lat="46.20827300" lon="7.15514900"><ele></ele><time>2014-7-4T23:33:28Z</time></trkpt>
<trkpt lat="46.20826600" lon="7.15511200"><ele></ele><time>2014-7-4T23:33:31Z</time></trkpt>
<trkpt lat="46.20826000" lon="7.15507500"><ele></ele><time>2014-7-4T23:33:34Z</time></trkpt>
<trkpt lat="46.20825700" lon="7.15503800"><ele></ele><time>2014-7-4T23:33:37Z</time></trkpt>
<trkpt lat="46.20825600" lon="7.15499800"><ele></ele><time>2014-7-4T23:33:40Z</time></trkpt>
<trkpt lat="46.20826000" lon="7.15495700"><ele></ele><time>2014-7-4T23:33:43Z</time></trkpt>
<trkpt lat="46.20827100" lon="7.15491600"><ele></ele><time>2014-7-4T23:33:46Z</time></trkpt>
<trkpt lat="46.20828400" lon="7.15487700"><ele></ele><time>2014-7-4T23:33:49Z</time></trkpt>
<trkpt lat="46.20829200" lon="7.15483900"><ele></ele><time>2014-7-4T23:33:52Z</time></trkpt>
<trkpt lat="46.20830300" lon="7.15480500"><ele></ele><time>2014-7-4T23:33:55Z</time></trkpt>
<trkpt lat="46.20831400" lon="7.15477300"><ele></ele><time>2014-7-4T23:33:58Z</time></trkpt>
<trkpt lat="46.20832400" lon="7.15474400"><ele></ele><time>2014-7-4T23:34:1Z</time></trkpt>
<trkpt lat="46.20833400" lon="7.15471600"><ele></ele><time>2014-7-4T23:34:4Z</time></trkpt>
<trkpt lat="46.20834800" lon="7.15468600"><ele></ele><time>2014-7-4T23:34:7Z</time></trkpt>
<trkpt lat="46.20836500" lon="7.15465400"><ele></ele><time>2014-7-4T23:34:10Z</time></trkpt>
<trkpt lat="46.20838000" lon="7.15462000"><ele></ele><time>2014-7-4T23:34:13Z</time></trkpt>
<trkpt lat="46.20839700" lon="7.15458500"><ele></ele><time>2014-7-4T23:34:16Z</time></trkpt>
<trkpt lat="46.20841500" lon="7.15454900"><ele></ele><time>2014-7-4T23:34:19Z</time></trkpt>
<trkpt lat="46.20843300" lon="7.15451200"><ele></ele><time>2014-7-4T23:34:22Z</time></trkpt>
<trkpt lat="46.20845000" lon="7.15447400"><ele></ele><time>2014-7-4T23:34:25Z</time></trkpt>
<trkpt lat="46.20846600" lon="7.15443400"><ele></ele><time>2014-7-4T23:34:28Z</time></trkpt>
<trkpt lat="46.20848100" lon="7.15439400"><ele></ele><time>2014-7-4T23:34:31Z</time></trkpt>
<trkpt lat="46.20848900" lon="7.15435100"><ele></ele><time>2014-7-4T23:34:34Z</time></trkpt>
<trkpt lat="46.20849500" lon="7.15430700"><ele></ele><time>2014-7-4T23:34:37Z</time></trkpt>
<trkpt lat="46.20849800" lon="7.15426600"><ele></ele><time>2014-7-4T23:34:40Z</time></trkpt>
<trkpt lat="46.20849900" lon="7.15422600"><ele></ele><time>2014-7-4T23:34:43Z</time></trkpt>
<trkpt lat="46.20850000" lon="7.15418800"><ele></ele><time>2014-7-4T23:34:46Z</time></trkpt>
<trkpt lat="46.20850500" lon="7.15415100"><ele></ele><time>2014-7-4T23:34:49Z</time></trkpt>
<trkpt lat="46.20850800" lon="7.15411100"><ele></ele><time>2014-7-4T23:34:52Z</time></trkpt>
<trkpt lat="46.20851300" lon="7.15407100"><ele></ele><time>2014-7-4T23:34:55Z</time></trkpt>
<trkpt lat="46.20851800" lon="7.15402900"><ele></ele><time>2014-7-4T23:34:58Z</time></trkpt>
<trkpt lat="46.20852000" lon="7.15398200"><ele></ele><time>2014-7-4T23:35:1Z</time></trkpt>
<trkpt lat="46.20851600" lon="7.15393100"><ele></ele><time>2014-7-4T23:35:4Z</time></trkpt>
<trkpt lat="46.20851900" lon="7.15387900"><ele></ele><time>2014-7-4T23:35:7Z</time></trkpt>
<trkpt lat="46.20852200" lon="7.15382500"><ele></ele><time>2014-7-4T23:35:10Z</time></trkpt>
<trkpt lat="46.20853200" lon="7.15377200"><ele></ele><time>2014-7-4T23:35:13Z</time></trkpt>
<trkpt lat="46.20854100" lon="7.15371600"><ele></ele><time>2014-7-4T23:35:16Z</time></trkpt>
<trkpt lat="46.20854400" lon="7.15365700"><ele></ele><time>2014-7-4T23:35:19Z</time></trkpt>
<trkpt lat="46.20855000" lon="7.15359700"><ele></ele><time>2014-7-4T23:35:22Z</time></trkpt>
<trkpt lat="46.20855600" lon="7.15353800"><ele></ele><time>2014-7-4T23:35:25Z</time></trkpt>
<trkpt lat="46.20856000" lon="7.15347700"><ele></ele><time>2014-7-4T23:35:28Z</time></trkpt>
<trkpt lat="46.20856600" lon="7.15341800"><ele></ele><time>2014-7-4T23:35:31Z</time></trkpt>
<trkpt lat="46.20857000" lon="7.15336000"><ele></ele><time>2014-7-4T23:35:34Z</time></trkpt>
<trkpt lat="46.20857400" lon="7.15330100"><ele></ele><time>2014-7-4T23:35:37Z</time></trkpt>
<trkpt lat="46.20857600" lon="7.15324500"><ele></ele><time>2014-7-4T23:35:40Z</time></trkpt>
<trkpt lat="46.20858000" lon="7.15319100"><ele></ele><time>2014-7-4T23:35:43Z</time></trkpt>
<trkpt lat="46.20858100" lon="7.15313600"><ele></ele><time>2014-7-4T23:35:46Z</time></trkpt>
<trkpt lat="46.20858100" lon="7.15308100"><ele></ele><time>2014-7-4T23:35:49Z</time></trkpt>
<trkpt lat="46.20857900" lon="7.15302800"><ele></ele><time>2014-7-4T23:35:52Z</time></trkpt>
<trkpt lat="46.20857000" lon="7.15297700"><ele></ele><time>2014-7-4T23:35:55Z</time></trkpt>
<trkpt lat="46.20855800" lon="7.15292600"><ele></ele><time>2014-7-4T23:35:58Z</time></trkpt>
<trkpt lat="46.20854800" lon="7.15287500"><ele></ele><time>2014-7-4T23:36:1Z</time></trkpt>
<trkpt lat="46.20853900" lon="7.15282100"><ele></ele><time>2014-7-4T23:36:4Z</time></trkpt>
<trkpt lat="46.20852700" lon="7.15276600"><ele></ele><time>2014-7-4T23:36:7Z</time></trkpt>
<trkpt lat="46.20851300" lon="7.15271300"><ele></ele><time>2014-7-4T23:36:10Z</time></trkpt>
<trkpt lat="46.20850100" lon="7.15266300"><ele></ele><time>2014-7-4T23:36:13Z</time></trkpt>
<trkpt lat="46.20848300" lon="7.15261200"><ele></ele><time>2014-7-4T23:36:16Z</time></trkpt>
<trkpt lat="46.20847100" lon="7.15256400"><ele></ele><time>2014-7-4T23:36:19Z</time></trkpt>
<trkpt lat="46.20846000" lon="7.15251500"><ele></ele><time>2014-7-4T23:36:22Z</time></trkpt>
<trkpt lat="46.20844800" lon="7.15246700"><ele></ele><time>2014-7-4T23:36:25Z</time></trkpt>
<trkpt lat="46.20843700" lon="7.15241800"><ele></ele><time>2014-7-4T23:36:28Z</time></trkpt>
<trkpt lat="46.20842300" lon="7.15236700"><ele></ele><time>2014-7-4T23:36:31Z</time></trkpt>
<trkpt lat="46.20840700" lon="7.15230800"><ele></ele><time>2014-7-4T23:36:34Z</time></trkpt>
<trkpt lat="46.20839200" lon="7.15224500"><ele></ele><time>2014-7-4T23:36:37Z</time></trkpt>
<trkpt lat="46.20838000" lon="7.15218600"><ele></ele><time>2014-7-4T23:36:40Z</time></trkpt>
<trkpt lat="46.20836900" lon="7.15213200"><ele></ele><time>2014-7-4T23:36:43Z</time></trkpt>
<trkpt lat="46.20835600" lon="7.15207800"><ele></ele><time>2014-7-4T23:36:46Z</time></trkpt>
<trkpt lat="46.20834600" lon="7.15202400"><ele></ele><time>2014-7-4T23:36:49Z</time></trkpt>
<trkpt lat="46.20833700" lon="7.15196900"><ele></ele><time>2014-7-4T23:36:52Z</time></trkpt>
<trkpt lat="46.20832800" lon="7.15191300"><ele></ele><time>2014-7-4T23:36:55Z</time></trkpt>
<trkpt lat="46.20832300" lon="7.15185800"><ele></ele><time>2014-7-4T23:36:58Z</time></trkpt>
<trkpt lat="46.20831800" lon="7.15180200"><ele></ele><time>2014-7-4T23:37:1Z</time></trkpt>
<trkpt lat="46.20831300" lon="7.15174500"><ele></ele><time>2014-7-4T23:37:4Z</time></trkpt>
<trkpt lat="46.20831000" lon="7.15168700"><ele></ele><time>2014-7-4T23:37:7Z</time></trkpt>
<trkpt lat="46.20830900" lon="7.15163100"><ele></ele><time>2014-7-4T23:37:10Z</time></trkpt>
<trkpt lat="46.20830400" lon="7.15157400"><ele></ele><time>2014-7-4T23:37:13Z</time></trkpt>
<trkpt lat="46.20829700" lon="7.15152000"><ele></ele><time>2014-7-4T23:37:16Z</time></trkpt>
<trkpt lat="46.20829000" lon="7.15146800"><ele></ele><time>2014-7-4T23:37:19Z</time></trkpt>
<trkpt lat="46.20828800" lon="7.15142000"><ele></ele><time>2014-7-4T23:37:22Z</time></trkpt>
<trkpt lat="46.20828400" lon="7.15137700"><ele></ele><time>2014-7-4T23:37:25Z</time></trkpt>
<trkpt lat="46.20828500" lon="7.15134000"><ele></ele><time>2014-7-4T23:37:28Z</time></trkpt>
<trkpt lat="46.20829000" lon="7.15130600"><ele></ele><time>2014-7-4T23:37:31Z</time></trkpt>
<trkpt lat="46.20829700" lon="7.15127200"><ele></ele><time>2014-7-4T23:37:34Z</time></trkpt>
<trkpt lat="46.20829800" lon="7.15123600"><ele></ele><time>2014-7-4T23:37:37Z</time></trkpt>
<trkpt lat="46.20829600" lon="7.15119900"><ele></ele><time>2014-7-4T23:37:40Z</time></trkpt>
<trkpt lat="46.20829900" lon="7.15116200"><ele></ele><time>2014-7-4T23:37:43Z</time></trkpt>
<trkpt lat="46.20830900" lon="7.15112800"><ele></ele><time>2014-7-4T23:37:46Z</time></trkpt>
<trkpt lat="46.20832100" lon="7.15109500"><ele></ele><time>2014-7-4T23:37:49Z</time></trkpt>
<trkpt lat="46.20833500" lon="7.15106300"><ele></ele><time>2014-7-4T23:37:52Z</time></trkpt>
<trkpt lat="46.20835100" lon="7.15103100"><ele></ele><time>2014-7-4T23:37:55Z</time></trkpt>
<trkpt lat="46.20836500" lon="7.15099900"><ele></ele><time>2014-7-4T23:37:58Z</time></trkpt>
<trkpt lat="46.20838000" lon="7.15096700"><ele></ele><time>2014-7-4T23:38:1Z</time></trkpt>
<trkpt lat="46.20839400" lon="7.15093600"><ele></ele><time>2014-7-4T23:38:4Z</time></trkpt>
<trkpt lat="46.20840600" lon="7.15090700"><ele></ele><time>2014-7-4T23:38:7Z</time></trkpt>
<trkpt lat="46.20841600" lon="7.15088200"><ele></ele><time>2014-7-4T23:38:10Z</time></trkpt>
<trkpt lat="46.20842500" lon="7.15085900"><ele></ele><time>2014-7-4T23:38:13Z</time></trkpt>
<trkpt lat="46.20843000" lon="7.15083200"><ele></ele><time>2014-7-4T23:38:16Z</time></trkpt>
<trkpt lat="46.20843500" lon="7.15080400"><ele></ele><time>2014-7-4T23:38:19Z</time></trkpt>
<trkpt lat="46.20844400" lon="7.15077400"><ele></ele><time>2014-7-4T23:38:22Z</time></trkpt>
<trkpt lat="46.20845400" lon="7.15074200"><ele></ele><time>2014-7-4T23:38:25Z</time></trkpt>
<trkpt lat="46.20846200" lon="7.15071000"><ele></ele><time>2014-7-4T23:38:28Z</time></trkpt>
<trkpt lat="46.20847100" lon="7.15068400"><ele></ele><time>2014-7-4T23:38:31Z</time></trkpt>
<trkpt lat="46.20848300" lon="7.15066200"><ele></ele><time>2014-7-4T23:38:34Z</time></trkpt>
<trkpt lat="46.20849000" lon="7.15064400"><ele></ele><time>2014-7-4T23:38:37Z</time></trkpt>
<trkpt lat="46.20848700" lon="7.15063600"><ele></ele><time>2014-7-4T23:38:40Z</time></trkpt>
<trkpt lat="46.20848100" lon="7.15063300"><ele></ele><time>2014-7-4T23:38:43Z</time></trkpt>
<trkpt lat="46.20846800" lon="7.15057900"><ele></ele><time>2014-7-4T23:38:46Z</time></trkpt>
<trkpt lat="46.20849400" lon="7.15056600"><ele></ele><time>2014-7-4T23:38:49Z</time></trkpt>
<trkpt lat="46.20851500" lon="7.15055200"><ele></ele><time>2014-7-4T23:38:52Z</time></trkpt>
<trkpt lat="46.20852800" lon="7.15053000"><ele></ele><time>2014-7-4T23:38:55Z</time></trkpt>
<trkpt lat="46.20852900" lon="7.15051800"><ele></ele><time>2014-7-4T23:38:58Z</time></trkpt>
<trkpt lat="46.20852500" lon="7.15051500"><ele></ele><time>2014-7-4T23:39:1Z</time></trkpt>
<trkpt lat="46.20852400" lon="7.15051600"><ele></ele><time>2014-7-4T23:39:4Z</time></trkpt>
<trkpt lat="46.20850000" lon="7.15051600"><ele></ele><time>2014-7-4T23:39:7Z</time></trkpt>
<trkpt lat="46.20848000" lon="7.15050000"><ele></ele><time>2014-7-4T23:39:10Z</time></trkpt>
<trkpt lat="46.20847600" lon="7.15048300"><ele></ele><time>2014-7-4T23:39:13Z</time></trkpt>
<trkpt lat="46.20847900" lon="7.15047700"><ele></ele><time>2014-7-4T23:39:16Z</time></trkpt>
<trkpt lat="46.20848000" lon="7.15047600"><ele></ele><time>2014-7-4T23:39:19Z</time></trkpt>
<trkpt lat="46.20848100" lon="7.15045100"><ele></ele><time>2014-7-4T23:39:22Z</time></trkpt>
<trkpt lat="46.20848100" lon="7.15043100"><ele></ele><time>2014-7-4T23:39:25Z</time></trkpt>
<trkpt lat="46.20848000" lon="7.15040700"><ele></ele><time>2014-7-4T23:39:28Z</time></trkpt>
<trkpt lat="46.20847900" lon="7.15037700"><ele></ele><time>2014-7-4T23:39:31Z</time></trkpt>
<trkpt lat="46.20847700" lon="7.15034300"><ele></ele><time>2014-7-4T23:39:34Z</time></trkpt>
<trkpt lat="46.20847300" lon="7.15030800"><ele></ele><time>2014-7-4T23:39:37Z</time></trkpt>
<trkpt lat="46.20846900" lon="7.15027700"><ele></ele><time>2014-7-4T23:39:40Z</time></trkpt>
<trkpt lat="46.20846600" lon="7.15025100"><ele></ele><time>2014-7-4T23:39:43Z</time></trkpt>
<trkpt lat="46.20846100" lon="7.15022500"><ele></ele><time>2014-7-4T23:39:46Z</time></trkpt>
<trkpt lat="46.20845300" lon="7.15019800"><ele></ele><time>2014-7-4T23:39:49Z</time></trkpt>
<trkpt lat="46.20844100" lon="7.15017200"><ele></ele><time>2014-7-4T23:39:52Z</time></trkpt>
<trkpt lat="46.20842100" lon="7.15015200"><ele></ele><time>2014-7-4T23:39:55Z</time></trkpt>
<trkpt lat="46.20839600" lon="7.15014000"><ele></ele><time>2014-7-4T23:39:58Z</time></trkpt>
<trkpt lat="46.20836700" lon="7.15014000"><ele></ele><time>2014-7-4T23:40:1Z</time></trkpt>
<trkpt lat="46.20833800" lon="7.15015100"><ele></ele><time>2014-7-4T23:40:4Z</time></trkpt>
<trkpt lat="46.20831000" lon="7.15016800"><ele></ele><time>2014-7-4T23:40:7Z</time></trkpt>
<trkpt lat="46.20828100" lon="7.15019300"><ele></ele><time>2014-7-4T23:40:10Z</time></trkpt>
<trkpt lat="46.20824900" lon="7.15022600"><ele></ele><time>2014-7-4T23:40:13Z</time></trkpt>
<trkpt lat="46.20821300" lon="7.15026400"><ele></ele><time>2014-7-4T23:40:16Z</time></trkpt>
<trkpt lat="46.20817200" lon="7.15030400"><ele></ele><time>2014-7-4T23:40:19Z</time></trkpt>
<trkpt lat="46.20813000" lon="7.15034500"><ele></ele><time>2014-7-4T23:40:22Z</time></trkpt>
<trkpt lat="46.20808500" lon="7.15038800"><ele></ele><time>2014-7-4T23:40:25Z</time></trkpt>
<trkpt lat="46.20803700" lon="7.15043100"><ele></ele><time>2014-7-4T23:40:28Z</time></trkpt>
<trkpt lat="46.20798400" lon="7.15047800"><ele></ele><time>2014-7-4T23:40:31Z</time></trkpt>
<trkpt lat="46.20792800" lon="7.15053400"><ele></ele><time>2014-7-4T23:40:34Z</time></trkpt>
<trkpt lat="46.20787300" lon="7.15060400"><ele></ele><time>2014-7-4T23:40:37Z</time></trkpt>
<trkpt lat="46.20782000" lon="7.15068800"><ele></ele><time>2014-7-4T23:40:40Z</time></trkpt>
<trkpt lat="46.20776900" lon="7.15078000"><ele></ele><time>2014-7-4T23:40:43Z</time></trkpt>
<trkpt lat="46.20771800" lon="7.15087600"><ele></ele><time>2014-7-4T23:40:46Z</time></trkpt>
<trkpt lat="46.20766400" lon="7.15097600"><ele></ele><time>2014-7-4T23:40:49Z</time></trkpt>
<trkpt lat="46.20760900" lon="7.15107200"><ele></ele><time>2014-7-4T23:40:52Z</time></trkpt>
<trkpt lat="46.20755700" lon="7.15115500"><ele></ele><time>2014-7-4T23:40:55Z</time></trkpt>
<trkpt lat="46.20750000" lon="7.15122500"><ele></ele><time>2014-7-4T23:40:58Z</time></trkpt>
<trkpt lat="46.20743700" lon="7.15128800"><ele></ele><time>2014-7-4T23:41:1Z</time></trkpt>
<trkpt lat="46.20738700" lon="7.15136400"><ele></ele><time>2014-7-4T23:41:4Z</time></trkpt>
<trkpt lat="46.20735900" lon="7.15145800"><ele></ele><time>2014-7-4T23:41:7Z</time></trkpt>
<trkpt lat="46.20734500" lon="7.15156500"><ele></ele><time>2014-7-4T23:41:10Z</time></trkpt>
<trkpt lat="46.20732700" lon="7.15167800"><ele></ele><time>2014-7-4T23:41:13Z</time></trkpt>
<trkpt lat="46.20729800" lon="7.15179300"><ele></ele><time>2014-7-4T23:41:16Z</time></trkpt>
<trkpt lat="46.20726100" lon="7.15190200"><ele></ele><time>2014-7-4T23:41:19Z</time></trkpt>
<trkpt lat="46.20722100" lon="7.15201000"><ele></ele><time>2014-7-4T23:41:22Z</time></trkpt>
<trkpt lat="46.20717700" lon="7.15211400"><ele></ele><time>2014-7-4T23:41:25Z</time></trkpt>
<trkpt lat="46.20713200" lon="7.15222000"><ele></ele><time>2014-7-4T23:41:28Z</time></trkpt>
<trkpt lat="46.20708200" lon="7.15232900"><ele></ele><time>2014-7-4T23:41:31Z</time></trkpt>
<trkpt lat="46.20702600" lon="7.15243100"><ele></ele><time>2014-7-4T23:41:34Z</time></trkpt>
<trkpt lat="46.20695900" lon="7.15252900"><ele></ele><time>2014-7-4T23:41:37Z</time></trkpt>
<trkpt lat="46.20688900" lon="7.15261900"><ele></ele><time>2014-7-4T23:41:40Z</time></trkpt>
<trkpt lat="46.20682500" lon="7.15269700"><ele></ele><time>2014-7-4T23:41:43Z</time></trkpt>
<trkpt lat="46.20677300" lon="7.15275800"><ele></ele><time>2014-7-4T23:41:46Z</time></trkpt>
<trkpt lat="46.20672900" lon="7.15281300"><ele></ele><time>2014-7-4T23:41:49Z</time></trkpt>
<trkpt lat="46.20668600" lon="7.15287900"><ele></ele><time>2014-7-4T23:41:52Z</time></trkpt>
<trkpt lat="46.20664200" lon="7.15294700"><ele></ele><time>2014-7-4T23:41:55Z</time></trkpt>
<trkpt lat="46.20659500" lon="7.15301900"><ele></ele><time>2014-7-4T23:41:58Z</time></trkpt>
<trkpt lat="46.20654000" lon="7.15308500"><ele></ele><time>2014-7-4T23:42:1Z</time></trkpt>
<trkpt lat="46.20647800" lon="7.15314700"><ele></ele><time>2014-7-4T23:42:4Z</time></trkpt>
<trkpt lat="46.20640500" lon="7.15320000"><ele></ele><time>2014-7-4T23:42:7Z</time></trkpt>
<trkpt lat="46.20633400" lon="7.15325700"><ele></ele><time>2014-7-4T23:42:10Z</time></trkpt>
<trkpt lat="46.20626300" lon="7.15331400"><ele></ele><time>2014-7-4T23:42:13Z</time></trkpt>
<trkpt lat="46.20619100" lon="7.15337500"><ele></ele><time>2014-7-4T23:42:16Z</time></trkpt>
<trkpt lat="46.20611500" lon="7.15343100"><ele></ele><time>2014-7-4T23:42:19Z</time></trkpt>
<trkpt lat="46.20603700" lon="7.15348300"><ele></ele><time>2014-7-4T23:42:22Z</time></trkpt>
<trkpt lat="46.20595700" lon="7.15352300"><ele></ele><time>2014-7-4T23:42:25Z</time></trkpt>
<trkpt lat="46.20587500" lon="7.15355600"><ele></ele><time>2014-7-4T23:42:28Z</time></trkpt>
<trkpt lat="46.20579500" lon="7.15358000"><ele></ele><time>2014-7-4T23:42:31Z</time></trkpt>
<trkpt lat="46.20571500" lon="7.15359700"><ele></ele><time>2014-7-4T23:42:34Z</time></trkpt>
<trkpt lat="46.20563800" lon="7.15360600"><ele></ele><time>2014-7-4T23:42:37Z</time></trkpt>
<trkpt lat="46.20556200" lon="7.15362000"><ele></ele><time>2014-7-4T23:42:40Z</time></trkpt>
<trkpt lat="46.20548800" lon="7.15364000"><ele></ele><time>2014-7-4T23:42:43Z</time></trkpt>
<trkpt lat="46.20541400" lon="7.15367300"><ele></ele><time>2014-7-4T23:42:46Z</time></trkpt>
<trkpt lat="46.20534200" lon="7.15371900"><ele></ele><time>2014-7-4T23:42:49Z</time></trkpt>
<trkpt lat="46.20527600" lon="7.15378000"><ele></ele><time>2014-7-4T23:42:52Z</time></trkpt>
<trkpt lat="46.20522200" lon="7.15385200"><ele></ele><time>2014-7-4T23:42:55Z</time></trkpt>
<trkpt lat="46.20519300" lon="7.15395700"><ele></ele><time>2014-7-4T23:42:58Z</time></trkpt>
<trkpt lat="46.20516500" lon="7.15406200"><ele></ele><time>2014-7-4T23:43:1Z</time></trkpt>
<trkpt lat="46.20513500" lon="7.15416000"><ele></ele><time>2014-7-4T23:43:4Z</time></trkpt>
<trkpt lat="46.20509700" lon="7.15423800"><ele></ele><time>2014-7-4T23:43:7Z</time></trkpt>
<trkpt lat="46.20506300" lon="7.15429700"><ele></ele><time>2014-7-4T23:43:10Z</time></trkpt>
<trkpt lat="46.20503900" lon="7.15434100"><ele></ele><time>2014-7-4T23:43:13Z</time></trkpt>
<trkpt lat="46.20501400" lon="7.15438100"><ele></ele><time>2014-7-4T23:43:16Z</time></trkpt>
<trkpt lat="46.20498700" lon="7.15442800"><ele></ele><time>2014-7-4T23:43:19Z</time></trkpt>
<trkpt lat="46.20495300" lon="7.15447600"><ele></ele><time>2014-7-4T23:43:22Z</time></trkpt>
<trkpt lat="46.20491000" lon="7.15451600"><ele></ele><time>2014-7-4T23:43:25Z</time></trkpt>
<trkpt lat="46.20486000" lon="7.15455100"><ele></ele><time>2014-7-4T23:43:28Z</time></trkpt>
<trkpt lat="46.20480800" lon="7.15458100"><ele></ele><time>2014-7-4T23:43:31Z</time></trkpt>
<trkpt lat="46.20474900" lon="7.15460600"><ele></ele><time>2014-7-4T23:43:34Z</time></trkpt>
<trkpt lat="46.20468800" lon="7.15463000"><ele></ele><time>2014-7-4T23:43:37Z</time></trkpt>
<trkpt lat="46.20462600" lon="7.15465400"><ele></ele><time>2014-7-4T23:43:40Z</time></trkpt>
<trkpt lat="46.20456500" lon="7.15468900"><ele></ele><time>2014-7-4T23:43:43Z</time></trkpt>
<trkpt lat="46.20450900" lon="7.15474000"><ele></ele><time>2014-7-4T23:43:46Z</time></trkpt>
<trkpt lat="46.20445900" lon="7.15480100"><ele></ele><time>2014-7-4T23:43:49Z</time></trkpt>
<trkpt lat="46.20441500" lon="7.15487000"><ele></ele><time>2014-7-4T23:43:52Z</time></trkpt>
<trkpt lat="46.20437600" lon="7.15494300"><ele></ele><time>2014-7-4T23:43:55Z</time></trkpt>
<trkpt lat="46.20433700" lon="7.15501200"><ele></ele><time>2014-7-4T23:43:58Z</time></trkpt>
<trkpt lat="46.20429300" lon="7.15507500"><ele></ele><time>2014-7-4T23:44:1Z</time></trkpt>
<trkpt lat="46.20424100" lon="7.15512600"><ele></ele><time>2014-7-4T23:44:4Z</time></trkpt>
<trkpt lat="46.20418600" lon="7.15516500"><ele></ele><time>2014-7-4T23:44:7Z</time></trkpt>
<trkpt lat="46.20412800" lon="7.15520300"><ele></ele><time>2014-7-4T23:44:10Z</time></trkpt>
<trkpt lat="46.20407000" lon="7.15523200"><ele></ele><time>2014-7-4T23:44:13Z</time></trkpt>
<trkpt lat="46.20401100" lon="7.15526300"><ele></ele><time>2014-7-4T23:44:16Z</time></trkpt>
<trkpt lat="46.20395400" lon="7.15531600"><ele></ele><time>2014-7-4T23:44:19Z</time></trkpt>
<trkpt lat="46.20391000" lon="7.15539000"><ele></ele><time>2014-7-4T23:44:22Z</time></trkpt>
<trkpt lat="46.20388100" lon="7.15547900"><ele></ele><time>2014-7-4T23:44:25Z</time></trkpt>
<trkpt lat="46.20386100" lon="7.15557300"><ele></ele><time>2014-7-4T23:44:28Z</time></trkpt>
<trkpt lat="46.20383400" lon="7.15566400"><ele></ele><time>2014-7-4T23:44:31Z</time></trkpt>
<trkpt lat="46.20379500" lon="7.15575300"><ele></ele><time>2014-7-4T23:44:34Z</time></trkpt>
<trkpt lat="46.20374300" lon="7.15582500"><ele></ele><time>2014-7-4T23:44:37Z</time></trkpt>
<trkpt lat="46.20367800" lon="7.15587300"><ele></ele><time>2014-7-4T23:44:40Z</time></trkpt>
<trkpt lat="46.20360600" lon="7.15590800"><ele></ele><time>2014-7-4T23:44:43Z</time></trkpt>
<trkpt lat="46.20354100" lon="7.15596000"><ele></ele><time>2014-7-4T23:44:46Z</time></trkpt>
<trkpt lat="46.20349500" lon="7.15603800"><ele></ele><time>2014-7-4T23:44:49Z</time></trkpt>
<trkpt lat="46.20347100" lon="7.15612800"><ele></ele><time>2014-7-4T23:44:52Z</time></trkpt>
<trkpt lat="46.20346300" lon="7.15621500"><ele></ele><time>2014-7-4T23:44:55Z</time></trkpt>
<trkpt lat="46.20346500" lon="7.15629800"><ele></ele><time>2014-7-4T23:44:58Z</time></trkpt>
<trkpt lat="46.20347600" lon="7.15637800"><ele></ele><time>2014-7-4T23:45:1Z</time></trkpt>
<trkpt lat="46.20349900" lon="7.15645500"><ele></ele><time>2014-7-4T23:45:4Z</time></trkpt>
<trkpt lat="46.20352900" lon="7.15653100"><ele></ele><time>2014-7-4T23:45:7Z</time></trkpt>
<trkpt lat="46.20355700" lon="7.15661200"><ele></ele><time>2014-7-4T23:45:10Z</time></trkpt>
<trkpt lat="46.20355900" lon="7.15671400"><ele></ele><time>2014-7-4T23:45:13Z</time></trkpt>
<trkpt lat="46.20354500" lon="7.15680300"><ele></ele><time>2014-7-4T23:45:16Z</time></trkpt>
<trkpt lat="46.20351500" lon="7.15688200"><ele></ele><time>2014-7-4T23:45:19Z</time></trkpt>
<trkpt lat="46.20348600" lon="7.15696400"><ele></ele><time>2014-7-4T23:45:22Z</time></trkpt>
<trkpt lat="46.20346000" lon="7.15705100"><ele></ele><time>2014-7-4T23:45:25Z</time></trkpt>
<trkpt lat="46.20344300" lon="7.15714700"><ele></ele><time>2014-7-4T23:45:28Z</time></trkpt>
<trkpt lat="46.20342900" lon="7.15723500"><ele></ele><time>2014-7-4T23:45:31Z</time></trkpt>
<trkpt lat="46.20341100" lon="7.15732600"><ele></ele><time>2014-7-4T23:45:34Z</time></trkpt>
<trkpt lat="46.20338700" lon="7.15741400"><ele></ele><time>2014-7-4T23:45:37Z</time></trkpt>
<trkpt lat="46.20335900" lon="7.15750300"><ele></ele><time>2014-7-4T23:45:40Z</time></trkpt>
<trkpt lat="46.20332600" lon="7.15758900"><ele></ele><time>2014-7-4T23:45:43Z</time></trkpt>
<trkpt lat="46.20328600" lon="7.15767700"><ele></ele><time>2014-7-4T23:45:46Z</time></trkpt>
<trkpt lat="46.20324100" lon="7.15776000"><ele></ele><time>2014-7-4T23:45:49Z</time></trkpt>
<trkpt lat="46.20318800" lon="7.15784000"><ele></ele><time>2014-7-4T23:45:52Z</time></trkpt>
<trkpt lat="46.20312000" lon="7.15789600"><ele></ele><time>2014-7-4T23:45:55Z</time></trkpt>
<trkpt lat="46.20305800" lon="7.15796000"><ele></ele><time>2014-7-4T23:45:58Z</time></trkpt>
<trkpt lat="46.20299800" lon="7.15803000"><ele></ele><time>2014-7-4T23:46:1Z</time></trkpt>
<trkpt lat="46.20294000" lon="7.15811000"><ele></ele><time>2014-7-4T23:46:4Z</time></trkpt>
<trkpt lat="46.20288800" lon="7.15820300"><ele></ele><time>2014-7-4T23:46:7Z</time></trkpt>
<trkpt lat="46.20285400" lon="7.15831000"><ele></ele><time>2014-7-4T23:46:10Z</time></trkpt>
<trkpt lat="46.20282200" lon="7.15842100"><ele></ele><time>2014-7-4T23:46:13Z</time></trkpt>
<trkpt lat="46.20279200" lon="7.15853400"><ele></ele><time>2014-7-4T23:46:16Z</time></trkpt>
<trkpt lat="46.20275900" lon="7.15864600"><ele></ele><time>2014-7-4T23:46:19Z</time></trkpt>
<trkpt lat="46.20272000" lon="7.15874700"><ele></ele><time>2014-7-4T23:46:22Z</time></trkpt>
<trkpt lat="46.20267400" lon="7.15883800"><ele></ele><time>2014-7-4T23:46:25Z</time></trkpt>
<trkpt lat="46.20262600" lon="7.15892600"><ele></ele><time>2014-7-4T23:46:28Z</time></trkpt>
<trkpt lat="46.20257900" lon="7.15901700"><ele></ele><time>2014-7-4T23:46:31Z</time></trkpt>
<trkpt lat="46.20254300" lon="7.15913300"><ele></ele><time>2014-7-4T23:46:34Z</time></trkpt>
<trkpt lat="46.20250000" lon="7.15923500"><ele></ele><time>2014-7-4T23:46:37Z</time></trkpt>
<trkpt lat="46.20244600" lon="7.15932500"><ele></ele><time>2014-7-4T23:46:40Z</time></trkpt>
<trkpt lat="46.20238700" lon="7.15940300"><ele></ele><time>2014-7-4T23:46:43Z</time></trkpt>
<trkpt lat="46.20232400" lon="7.15946100"><ele></ele><time>2014-7-4T23:46:46Z</time></trkpt>
<trkpt lat="46.20226100" lon="7.15951000"><ele></ele><time>2014-7-4T23:46:49Z</time></trkpt>
<trkpt lat="46.20219200" lon="7.15953900"><ele></ele><time>2014-7-4T23:46:52Z</time></trkpt>
<trkpt lat="46.20212400" lon="7.15957700"><ele></ele><time>2014-7-4T23:46:55Z</time></trkpt>
<trkpt lat="46.20205600" lon="7.15962900"><ele></ele><time>2014-7-4T23:46:58Z</time></trkpt>
<trkpt lat="46.20199200" lon="7.15969600"><ele></ele><time>2014-7-4T23:47:1Z</time></trkpt>
<trkpt lat="46.20193000" lon="7.15976200"><ele></ele><time>2014-7-4T23:47:4Z</time></trkpt>
<trkpt lat="46.20187300" lon="7.15984900"><ele></ele><time>2014-7-4T23:47:7Z</time></trkpt>
<trkpt lat="46.20181400" lon="7.15993000"><ele></ele><time>2014-7-4T23:47:10Z</time></trkpt>
<trkpt lat="46.20175400" lon="7.16000800"><ele></ele><time>2014-7-4T23:47:13Z</time></trkpt>
<trkpt lat="46.20169100" lon="7.16008000"><ele></ele><time>2014-7-4T23:47:16Z</time></trkpt>
<trkpt lat="46.20162300" lon="7.16014700"><ele></ele><time>2014-7-4T23:47:19Z</time></trkpt>
<trkpt lat="46.20155300" lon="7.16021100"><ele></ele><time>2014-7-4T23:47:22Z</time></trkpt>
<trkpt lat="46.20148900" lon="7.16028900"><ele></ele><time>2014-7-4T23:47:25Z</time></trkpt>
<trkpt lat="46.20142800" lon="7.16037200"><ele></ele><time>2014-7-4T23:47:28Z</time></trkpt>
<trkpt lat="46.20136900" lon="7.16046300"><ele></ele><time>2014-7-4T23:47:31Z</time></trkpt>
<trkpt lat="46.20130900" lon="7.16054500"><ele></ele><time>2014-7-4T23:47:34Z</time></trkpt>
<trkpt lat="46.20124500" lon="7.16062200"><ele></ele><time>2014-7-4T23:47:37Z</time></trkpt>
<trkpt lat="46.20117800" lon="7.16071100"><ele></ele><time>2014-7-4T23:47:40Z</time></trkpt>
<trkpt lat="46.20112400" lon="7.16081000"><ele></ele><time>2014-7-4T23:47:43Z</time></trkpt>
<trkpt lat="46.20107900" lon="7.16090700"><ele></ele><time>2014-7-4T23:47:46Z</time></trkpt>
<trkpt lat="46.20102300" lon="7.16100600"><ele></ele><time>2014-7-4T23:47:49Z</time></trkpt>
<trkpt lat="46.20096300" lon="7.16108800"><ele></ele><time>2014-7-4T23:47:52Z</time></trkpt>
<trkpt lat="46.20089800" lon="7.16117000"><ele></ele><time>2014-7-4T23:47:55Z</time></trkpt>
<trkpt lat="46.20083200" lon="7.16126000"><ele></ele><time>2014-7-4T23:47:58Z</time></trkpt>
<trkpt lat="46.20076200" lon="7.16133500"><ele></ele><time>2014-7-4T23:48:1Z</time></trkpt>
<trkpt lat="46.20069600" lon="7.16141300"><ele></ele><time>2014-7-4T23:48:4Z</time></trkpt>
<trkpt lat="46.20063200" lon="7.16149500"><ele></ele><time>2014-7-4T23:48:7Z</time></trkpt>
<trkpt lat="46.20056700" lon="7.16157600"><ele></ele><time>2014-7-4T23:48:10Z</time></trkpt>
<trkpt lat="46.20049900" lon="7.16165500"><ele></ele><time>2014-7-4T23:48:13Z</time></trkpt>
<trkpt lat="46.20042400" lon="7.16172100"><ele></ele><time>2014-7-4T23:48:16Z</time></trkpt>
<trkpt lat="46.20034700" lon="7.16178100"><ele></ele><time>2014-7-4T23:48:19Z</time></trkpt>
<trkpt lat="46.20027400" lon="7.16184600"><ele></ele><time>2014-7-4T23:48:22Z</time></trkpt>
<trkpt lat="46.20020700" lon="7.16191700"><ele></ele><time>2014-7-4T23:48:25Z</time></trkpt>
<trkpt lat="46.20014300" lon="7.16199500"><ele></ele><time>2014-7-4T23:48:28Z</time></trkpt>
<trkpt lat="46.20008500" lon="7.16207700"><ele></ele><time>2014-7-4T23:48:31Z</time></trkpt>
<trkpt lat="46.20002300" lon="7.16215500"><ele></ele><time>2014-7-4T23:48:34Z</time></trkpt>
<trkpt lat="46.19995700" lon="7.16223000"><ele></ele><time>2014-7-4T23:48:37Z</time></trkpt>
<trkpt lat="46.19989300" lon="7.16230200"><ele></ele><time>2014-7-4T23:48:40Z</time></trkpt>
<trkpt lat="46.19983000" lon="7.16236300"><ele></ele><time>2014-7-4T23:48:43Z</time></trkpt>
<trkpt lat="46.19975700" lon="7.16240100"><ele></ele><time>2014-7-4T23:48:46Z</time></trkpt>
<trkpt lat="46.19968300" lon="7.16242000"><ele></ele><time>2014-7-4T23:48:49Z</time></trkpt>
<trkpt lat="46.19960500" lon="7.16241900"><ele></ele><time>2014-7-4T23:48:52Z</time></trkpt>
<trkpt lat="46.19952800" lon="7.16241800"><ele></ele><time>2014-7-4T23:48:55Z</time></trkpt>
<trkpt lat="46.19945500" lon="7.16244500"><ele></ele><time>2014-7-4T23:48:58Z</time></trkpt>
<trkpt lat="46.19938600" lon="7.16248300"><ele></ele><time>2014-7-4T23:49:1Z</time></trkpt>
<trkpt lat="46.19931400" lon="7.16251000"><ele></ele><time>2014-7-4T23:49:4Z</time></trkpt>
<trkpt lat="46.19924000" lon="7.16251900"><ele></ele><time>2014-7-4T23:49:7Z</time></trkpt>
<trkpt lat="46.19916400" lon="7.16251000"><ele></ele><time>2014-7-4T23:49:10Z</time></trkpt>
<trkpt lat="46.19908900" lon="7.16249600"><ele></ele><time>2014-7-4T23:49:13Z</time></trkpt>
<trkpt lat="46.19901300" lon="7.16249100"><ele></ele><time>2014-7-4T23:49:16Z</time></trkpt>
<trkpt lat="46.19893600" lon="7.16249400"><ele></ele><time>2014-7-4T23:49:19Z</time></trkpt>
<trkpt lat="46.19885800" lon="7.16249600"><ele></ele><time>2014-7-4T23:49:22Z</time></trkpt>
<trkpt lat="46.19878000" lon="7.16249400"><ele></ele><time>2014-7-4T23:49:25Z</time></trkpt>
<trkpt lat="46.19870200" lon="7.16248100"><ele></ele><time>2014-7-4T23:49:28Z</time></trkpt>
<trkpt lat="46.19862800" lon="7.16245000"><ele></ele><time>2014-7-4T23:49:31Z</time></trkpt>
<trkpt lat="46.19855600" lon="7.16240700"><ele></ele><time>2014-7-4T23:49:34Z</time></trkpt>
<trkpt lat="46.19848400" lon="7.16237000"><ele></ele><time>2014-7-4T23:49:37Z</time></trkpt>
<trkpt lat="46.19841000" lon="7.16235200"><ele></ele><time>2014-7-4T23:49:40Z</time></trkpt>
<trkpt lat="46.19833400" lon="7.16235200"><ele></ele><time>2014-7-4T23:49:43Z</time></trkpt>
<trkpt lat="46.19825700" lon="7.16235900"><ele></ele><time>2014-7-4T23:49:46Z</time></trkpt>
<trkpt lat="46.19818100" lon="7.16236000"><ele></ele><time>2014-7-4T23:49:49Z</time></trkpt>
<trkpt lat="46.19810400" lon="7.16235900"><ele></ele><time>2014-7-4T23:49:52Z</time></trkpt>
<trkpt lat="46.19802500" lon="7.16237500"><ele></ele><time>2014-7-4T23:49:55Z</time></trkpt>
<trkpt lat="46.19794600" lon="7.16240000"><ele></ele><time>2014-7-4T23:49:58Z</time></trkpt>
<trkpt lat="46.19786800" lon="7.16242400"><ele></ele><time>2014-7-4T23:50:1Z</time></trkpt>
<trkpt lat="46.19778800" lon="7.16244200"><ele></ele><time>2014-7-4T23:50:4Z</time></trkpt>
<trkpt lat="46.19770600" lon="7.16244500"><ele></ele><time>2014-7-4T23:50:7Z</time></trkpt>
<trkpt lat="46.19762600" lon="7.16242900"><ele></ele><time>2014-7-4T23:50:10Z</time></trkpt>
<trkpt lat="46.19755000" lon="7.16240400"><ele></ele><time>2014-7-4T23:50:13Z</time></trkpt>
<trkpt lat="46.19748000" lon="7.16237800"><ele></ele><time>2014-7-4T23:50:16Z</time></trkpt>
<trkpt lat="46.19741900" lon="7.16234900"><ele></ele><time>2014-7-4T23:50:19Z</time></trkpt>
<trkpt lat="46.19736700" lon="7.16230000"><ele></ele><time>2014-7-4T23:50:22Z</time></trkpt>
<trkpt lat="46.19733200" lon="7.16222800"><ele></ele><time>2014-7-4T23:50:25Z</time></trkpt>
<trkpt lat="46.19731100" lon="7.16214300"><ele></ele><time>2014-7-4T23:50:28Z</time></trkpt>
<trkpt lat="46.19729500" lon="7.16205400"><ele></ele><time>2014-7-4T23:50:31Z</time></trkpt>
<trkpt lat="46.19727900" lon="7.16196700"><ele></ele><time>2014-7-4T23:50:34Z</time></trkpt>
<trkpt lat="46.19726300" lon="7.16188200"><ele></ele><time>2014-7-4T23:50:37Z</time></trkpt>
<trkpt lat="46.19724900" lon="7.16179600"><ele></ele><time>2014-7-4T23:50:40Z</time></trkpt>
<trkpt lat="46.19724000" lon="7.16170900"><ele></ele><time>2014-7-4T23:50:43Z</time></trkpt>
<trkpt lat="46.19723900" lon="7.16162000"><ele></ele><time>2014-7-4T23:50:46Z</time></trkpt>
<trkpt lat="46.19724600" lon="7.16153000"><ele></ele><time>2014-7-4T23:50:49Z</time></trkpt>
<trkpt lat="46.19726000" lon="7.16143900"><ele></ele><time>2014-7-4T23:50:52Z</time></trkpt>
<trkpt lat="46.19727700" lon="7.16135000"><ele></ele><time>2014-7-4T23:50:55Z</time></trkpt>
<trkpt lat="46.19729400" lon="7.16125800"><ele></ele><time>2014-7-4T23:50:58Z</time></trkpt>
<trkpt lat="46.19731200" lon="7.16116600"><ele></ele><time>2014-7-4T23:51:1Z</time></trkpt>
<trkpt lat="46.19733300" lon="7.16107700"><ele></ele><time>2014-7-4T23:51:4Z</time></trkpt>
<trkpt lat="46.19735200" lon="7.16098600"><ele></ele><time>2014-7-4T23:51:7Z</time></trkpt>
<trkpt lat="46.19737100" lon="7.16089600"><ele></ele><time>2014-7-4T23:51:10Z</time></trkpt>
<trkpt lat="46.19738700" lon="7.16080600"><ele></ele><time>2014-7-4T23:51:13Z</time></trkpt>
<trkpt lat="46.19739800" lon="7.16071700"><ele></ele><time>2014-7-4T23:51:16Z</time></trkpt>
<trkpt lat="46.19739600" lon="7.16062700"><ele></ele><time>2014-7-4T23:51:19Z</time></trkpt>
<trkpt lat="46.19737400" lon="7.16054300"><ele></ele><time>2014-7-4T23:51:22Z</time></trkpt>
<trkpt lat="46.19733700" lon="7.16047300"><ele></ele><time>2014-7-4T23:51:25Z</time></trkpt>
<trkpt lat="46.19728500" lon="7.16042700"><ele></ele><time>2014-7-4T23:51:28Z</time></trkpt>
<trkpt lat="46.19722300" lon="7.16040800"><ele></ele><time>2014-7-4T23:51:31Z</time></trkpt>
<trkpt lat="46.19716100" lon="7.16041300"><ele></ele><time>2014-7-4T23:51:34Z</time></trkpt>
<trkpt lat="46.19709700" lon="7.16043600"><ele></ele><time>2014-7-4T23:51:37Z</time></trkpt>
<trkpt lat="46.19703300" lon="7.16046600"><ele></ele><time>2014-7-4T23:51:40Z</time></trkpt>
<trkpt lat="46.19696400" lon="7.16048100"><ele></ele><time>2014-7-4T23:51:43Z</time></trkpt>
<trkpt lat="46.19689300" lon="7.16047300"><ele></ele><time>2014-7-4T23:51:46Z</time></trkpt>
<trkpt lat="46.19682000" lon="7.16046900"><ele></ele><time>2014-7-4T23:51:49Z</time></trkpt>
<trkpt lat="46.19675000" lon="7.16049400"><ele></ele><time>2014-7-4T23:51:52Z</time></trkpt>
<trkpt lat="46.19668900" lon="7.16054100"><ele></ele><time>2014-7-4T23:51:55Z</time></trkpt>
<trkpt lat="46.19663900" lon="7.16060600"><ele></ele><time>2014-7-4T23:51:58Z</time></trkpt>
<trkpt lat="46.19658600" lon="7.16067100"><ele></ele><time>2014-7-4T23:52:1Z</time></trkpt>
<trkpt lat="46.19652400" lon="7.16072900"><ele></ele><time>2014-7-4T23:52:4Z</time></trkpt>
<trkpt lat="46.19645700" lon="7.16077200"><ele></ele><time>2014-7-4T23:52:7Z</time></trkpt>
<trkpt lat="46.19638500" lon="7.16080300"><ele></ele><time>2014-7-4T23:52:10Z</time></trkpt>
<trkpt lat="46.19631100" lon="7.16082800"><ele></ele><time>2014-7-4T23:52:13Z</time></trkpt>
<trkpt lat="46.19623500" lon="7.16085600"><ele></ele><time>2014-7-4T23:52:16Z</time></trkpt>
<trkpt lat="46.19615900" lon="7.16089400"><ele></ele><time>2014-7-4T23:52:19Z</time></trkpt>
<trkpt lat="46.19608200" lon="7.16094100"><ele></ele><time>2014-7-4T23:52:22Z</time></trkpt>
<trkpt lat="46.19600300" lon="7.16099500"><ele></ele><time>2014-7-4T23:52:25Z</time></trkpt>
<trkpt lat="46.19592000" lon="7.16105300"><ele></ele><time>2014-7-4T23:52:28Z</time></trkpt>
<trkpt lat="46.19583900" lon="7.16112400"><ele></ele><time>2014-7-4T23:52:31Z</time></trkpt>
<trkpt lat="46.19576100" lon="7.16120300"><ele></ele><time>2014-7-4T23:52:34Z</time></trkpt>
<trkpt lat="46.19568600" lon="7.16128700"><ele></ele><time>2014-7-4T23:52:37Z</time></trkpt>
<trkpt lat="46.19561400" lon="7.16137100"><ele></ele><time>2014-7-4T23:52:40Z</time></trkpt>
<trkpt lat="46.19554900" lon="7.16146400"><ele></ele><time>2014-7-4T23:52:43Z</time></trkpt>
<trkpt lat="46.19549000" lon="7.16156600"><ele></ele><time>2014-7-4T23:52:46Z</time></trkpt>
<trkpt lat="46.19543900" lon="7.16168000"><ele></ele><time>2014-7-4T23:52:49Z</time></trkpt>
<trkpt lat="46.19539400" lon="7.16179900"><ele></ele><time>2014-7-4T23:52:52Z</time></trkpt>
<trkpt lat="46.19535100" lon="7.16191400"><ele></ele><time>2014-7-4T23:52:55Z</time></trkpt>
<trkpt lat="46.19529800" lon="7.16201400"><ele></ele><time>2014-7-4T23:52:58Z</time></trkpt>
<trkpt lat="46.19524300" lon="7.16210800"><ele></ele><time>2014-7-4T23:53:1Z</time></trkpt>
<trkpt lat="46.19518800" lon="7.16220400"><ele></ele><time>2014-7-4T23:53:4Z</time></trkpt>
<trkpt lat="46.19513000" lon="7.16228500"><ele></ele><time>2014-7-4T23:53:7Z</time></trkpt>
<trkpt lat="46.19507400" lon="7.16236900"><ele></ele><time>2014-7-4T23:53:10Z</time></trkpt>
<trkpt lat="46.19502600" lon="7.16246400"><ele></ele><time>2014-7-4T23:53:13Z</time></trkpt>
<trkpt lat="46.19498500" lon="7.16256800"><ele></ele><time>2014-7-4T23:53:16Z</time></trkpt>
<trkpt lat="46.19494800" lon="7.16268100"><ele></ele><time>2014-7-4T23:53:19Z</time></trkpt>
<trkpt lat="46.19491100" lon="7.16279200"><ele></ele><time>2014-7-4T23:53:22Z</time></trkpt>
<trkpt lat="46.19487300" lon="7.16288800"><ele></ele><time>2014-7-4T23:53:25Z</time></trkpt>
<trkpt lat="46.19482700" lon="7.16295400"><ele></ele><time>2014-7-4T23:53:28Z</time></trkpt>
<trkpt lat="46.19477800" lon="7.16298500"><ele></ele><time>2014-7-4T23:53:31Z</time></trkpt>
<trkpt lat="46.19472700" lon="7.16297200"><ele></ele><time>2014-7-4T23:53:34Z</time></trkpt>
<trkpt lat="46.19468400" lon="7.16292400"><ele></ele><time>2014-7-4T23:53:37Z</time></trkpt>
<trkpt lat="46.19464500" lon="7.16286000"><ele></ele><time>2014-7-4T23:53:40Z</time></trkpt>
<trkpt lat="46.19460700" lon="7.16277900"><ele></ele><time>2014-7-4T23:53:43Z</time></trkpt>
<trkpt lat="46.19457500" lon="7.16269100"><ele></ele><time>2014-7-4T23:53:46Z</time></trkpt>
<trkpt lat="46.19455200" lon="7.16259800"><ele></ele><time>2014-7-4T23:53:49Z</time></trkpt>
<trkpt lat="46.19454100" lon="7.16250500"><ele></ele><time>2014-7-4T23:53:52Z</time></trkpt>
<trkpt lat="46.19453000" lon="7.16241400"><ele></ele><time>2014-7-4T23:53:55Z</time></trkpt>
<trkpt lat="46.19451900" lon="7.16232400"><ele></ele><time>2014-7-4T23:53:58Z</time></trkpt>
<trkpt lat="46.19450300" lon="7.16223700"><ele></ele><time>2014-7-4T23:54:1Z</time></trkpt>
<trkpt lat="46.19448000" lon="7.16215900"><ele></ele><time>2014-7-4T23:54:4Z</time></trkpt>
<trkpt lat="46.19445300" lon="7.16209000"><ele></ele><time>2014-7-4T23:54:7Z</time></trkpt>
<trkpt lat="46.19442600" lon="7.16202600"><ele></ele><time>2014-7-4T23:54:10Z</time></trkpt>
<trkpt lat="46.19439300" lon="7.16194300"><ele></ele><time>2014-7-4T23:54:13Z</time></trkpt>
<trkpt lat="46.19437000" lon="7.16188200"><ele></ele><time>2014-7-4T23:54:16Z</time></trkpt>
<trkpt lat="46.19434500" lon="7.16183000"><ele></ele><time>2014-7-4T23:54:19Z</time></trkpt>
<trkpt lat="46.19431800" lon="7.16178700"><ele></ele><time>2014-7-4T23:54:22Z</time></trkpt>
<trkpt lat="46.19428500" lon="7.16174300"><ele></ele><time>2014-7-4T23:54:25Z</time></trkpt>
<trkpt lat="46.19425200" lon="7.16170100"><ele></ele><time>2014-7-4T23:54:28Z</time></trkpt>
<trkpt lat="46.19422400" lon="7.16165900"><ele></ele><time>2014-7-4T23:54:31Z</time></trkpt>
<trkpt lat="46.19419300" lon="7.16161800"><ele></ele><time>2014-7-4T23:54:34Z</time></trkpt>
<trkpt lat="46.19415300" lon="7.16158400"><ele></ele><time>2014-7-4T23:54:37Z</time></trkpt>
<trkpt lat="46.19410100" lon="7.16155500"><ele></ele><time>2014-7-4T23:54:40Z</time></trkpt>
<trkpt lat="46.19404600" lon="7.16153600"><ele></ele><time>2014-7-4T23:54:43Z</time></trkpt>
<trkpt lat="46.19398600" lon="7.16151000"><ele></ele><time>2014-7-4T23:54:46Z</time></trkpt>
<trkpt lat="46.19392200" lon="7.16148600"><ele></ele><time>2014-7-4T23:54:49Z</time></trkpt>
<trkpt lat="46.19385700" lon="7.16147100"><ele></ele><time>2014-7-4T23:54:52Z</time></trkpt>
<trkpt lat="46.19379800" lon="7.16146500"><ele></ele><time>2014-7-4T23:54:55Z</time></trkpt>
<trkpt lat="46.19374100" lon="7.16146800"><ele></ele><time>2014-7-4T23:54:58Z</time></trkpt>
<trkpt lat="46.19368700" lon="7.16147200"><ele></ele><time>2014-7-4T23:55:1Z</time></trkpt>
<trkpt lat="46.19363800" lon="7.16147100"><ele></ele><time>2014-7-4T23:55:4Z</time></trkpt>
<trkpt lat="46.19358800" lon="7.16146800"><ele></ele><time>2014-7-4T23:55:7Z</time></trkpt>
<trkpt lat="46.19353700" lon="7.16147000"><ele></ele><time>2014-7-4T23:55:10Z</time></trkpt>
<trkpt lat="46.19348100" lon="7.16148100"><ele></ele><time>2014-7-4T23:55:13Z</time></trkpt>
<trkpt lat="46.19342500" lon="7.16148900"><ele></ele><time>2014-7-4T23:55:16Z</time></trkpt>
<trkpt lat="46.19336800" lon="7.16148800"><ele></ele><time>2014-7-4T23:55:19Z</time></trkpt>
<trkpt lat="46.19330400" lon="7.16147600"><ele></ele><time>2014-7-4T23:55:22Z</time></trkpt>
<trkpt lat="46.19324300" lon="7.16146700"><ele></ele><time>2014-7-4T23:55:25Z</time></trkpt>
<trkpt lat="46.19317900" lon="7.16146500"><ele></ele><time>2014-7-4T23:55:28Z</time></trkpt>
<trkpt lat="46.19311400" lon="7.16147100"><ele></ele><time>2014-7-4T23:55:31Z</time></trkpt>
<trkpt lat="46.19305100" lon="7.16148300"><ele></ele><time>2014-7-4T23:55:34Z</time></trkpt>
<trkpt lat="46.19299000" lon="7.16149700"><ele></ele><time>2014-7-4T23:55:37Z</time></trkpt>
<trkpt lat="46.19292400" lon="7.16150200"><ele></ele><time>2014-7-4T23:55:40Z</time></trkpt>
<trkpt lat="46.19285500" lon="7.16150500"><ele></ele><time>2014-7-4T23:55:43Z</time></trkpt>
<trkpt lat="46.19278500" lon="7.16150800"><ele></ele><time>2014-7-4T23:55:46Z</time></trkpt>
<trkpt lat="46.19271600" lon="7.16151400"><ele></ele><time>2014-7-4T23:55:49Z</time></trkpt>
<trkpt lat="46.19264600" lon="7.16152300"><ele></ele><time>2014-7-4T23:55:52Z</time></trkpt>
<trkpt lat="46.19257900" lon="7.16153500"><ele></ele><time>2014-7-4T23:55:55Z</time></trkpt>
<trkpt lat="46.19251800" lon="7.16154600"><ele></ele><time>2014-7-4T23:55:58Z</time></trkpt>
<trkpt lat="46.19245800" lon="7.16155800"><ele></ele><time>2014-7-4T23:56:1Z</time></trkpt>
<trkpt lat="46.19240100" lon="7.16157500"><ele></ele><time>2014-7-4T23:56:4Z</time></trkpt>
<trkpt lat="46.19234500" lon="7.16160100"><ele></ele><time>2014-7-4T23:56:7Z</time></trkpt>
<trkpt lat="46.19229000" lon="7.16164200"><ele></ele><time>2014-7-4T23:56:10Z</time></trkpt>
<trkpt lat="46.19223500" lon="7.16169400"><ele></ele><time>2014-7-4T23:56:13Z</time></trkpt>
<trkpt lat="46.19217600" lon="7.16174700"><ele></ele><time>2014-7-4T23:56:16Z</time></trkpt>
<trkpt lat="46.19211100" lon="7.16180100"><ele></ele><time>2014-7-4T23:56:19Z</time></trkpt>
<trkpt lat="46.19204800" lon="7.16184900"><ele></ele><time>2014-7-4T23:56:22Z</time></trkpt>
<trkpt lat="46.19199900" lon="7.16188900"><ele></ele><time>2014-7-4T23:56:25Z</time></trkpt>
<trkpt lat="46.19196900" lon="7.16192800"><ele></ele><time>2014-7-4T23:56:28Z</time></trkpt>
<trkpt lat="46.19196500" lon="7.16197500"><ele></ele><time>2014-7-4T23:56:31Z</time></trkpt>
<trkpt lat="46.19198400" lon="7.16201800"><ele></ele><time>2014-7-4T23:56:34Z</time></trkpt>
<trkpt lat="46.19201900" lon="7.16204000"><ele></ele><time>2014-7-4T23:56:37Z</time></trkpt>
<trkpt lat="46.19206300" lon="7.16203800"><ele></ele><time>2014-7-4T23:56:40Z</time></trkpt>
<trkpt lat="46.19211200" lon="7.16202000"><ele></ele><time>2014-7-4T23:56:43Z</time></trkpt>
<trkpt lat="46.19216500" lon="7.16199500"><ele></ele><time>2014-7-4T23:56:46Z</time></trkpt>
<trkpt lat="46.19222200" lon="7.16196800"><ele></ele><time>2014-7-4T23:56:49Z</time></trkpt>
<trkpt lat="46.19229200" lon="7.16195000"><ele></ele><time>2014-7-4T23:56:52Z</time></trkpt>
<trkpt lat="46.19236800" lon="7.16193700"><ele></ele><time>2014-7-4T23:56:55Z</time></trkpt>
<trkpt lat="46.19244600" lon="7.16192200"><ele></ele><time>2014-7-4T23:56:58Z</time></trkpt>
<trkpt lat="46.19253100" lon="7.16190900"><ele></ele><time>2014-7-4T23:57:1Z</time></trkpt>
<trkpt lat="46.19262300" lon="7.16190300"><ele></ele><time>2014-7-4T23:57:4Z</time></trkpt>
<trkpt lat="46.19272000" lon="7.16190900"><ele></ele><time>2014-7-4T23:57:7Z</time></trkpt>
<trkpt lat="46.19282100" lon="7.16192400"><ele></ele><time>2014-7-4T23:57:10Z</time></trkpt>
<trkpt lat="46.19292300" lon="7.16194600"><ele></ele><time>2014-7-4T23:57:13Z</time></trkpt>
<trkpt lat="46.19302600" lon="7.16198300"><ele></ele><time>2014-7-4T23:57:16Z</time></trkpt>
<trkpt lat="46.19312900" lon="7.16203800"><ele></ele><time>2014-7-4T23:57:19Z</time></trkpt>
<trkpt lat="46.19323200" lon="7.16210400"><ele></ele><time>2014-7-4T23:57:22Z</time></trkpt>
<trkpt lat="46.19333500" lon="7.16217200"><ele></ele><time>2014-7-4T23:57:25Z</time></trkpt>
<trkpt lat="46.19343900" lon="7.16224600"><ele></ele><time>2014-7-4T23:57:28Z</time></trkpt>
<trkpt lat="46.19353700" lon="7.16234000"><ele></ele><time>2014-7-4T23:57:31Z</time></trkpt>
<trkpt lat="46.19361500" lon="7.16246300"><ele></ele><time>2014-7-4T23:57:34Z</time></trkpt>
<trkpt lat="46.19367100" lon="7.16260900"><ele></ele><time>2014-7-4T23:57:37Z</time></trkpt>
<trkpt lat="46.19371300" lon="7.16276900"><ele></ele><time>2014-7-4T23:57:40Z</time></trkpt>
<trkpt lat="46.19375600" lon="7.16293800"><ele></ele><time>2014-7-4T23:57:43Z</time></trkpt>
<trkpt lat="46.19380100" lon="7.16311200"><ele></ele><time>2014-7-4T23:57:46Z</time></trkpt>
<trkpt lat="46.19384400" lon="7.16327900"><ele></ele><time>2014-7-4T23:57:49Z</time></trkpt>
<trkpt lat="46.19387900" lon="7.16342300"><ele></ele><time>2014-7-4T23:57:52Z</time></trkpt>
<trkpt lat="46.19389600" lon="7.16355200"><ele></ele><time>2014-7-4T23:57:55Z</time></trkpt>
<trkpt lat="46.19389000" lon="7.16368000"><ele></ele><time>2014-7-4T23:57:58Z</time></trkpt>
<trkpt lat="46.19386800" lon="7.16380300"><ele></ele><time>2014-7-4T23:58:1Z</time></trkpt>
<trkpt lat="46.19384500" lon="7.16392600"><ele></ele><time>2014-7-4T23:58:4Z</time></trkpt>
<trkpt lat="46.19383800" lon="7.16404600"><ele></ele><time>2014-7-4T23:58:7Z</time></trkpt>
<trkpt lat="46.19384400" lon="7.16416600"><ele></ele><time>2014-7-4T23:58:10Z</time></trkpt>
<trkpt lat="46.19386200" lon="7.16428400"><ele></ele><time>2014-7-4T23:58:13Z</time></trkpt>
<trkpt lat="46.19388600" lon="7.16439100"><ele></ele><time>2014-7-4T23:58:16Z</time></trkpt>
<trkpt lat="46.19391100" lon="7.16447800"><ele></ele><time>2014-7-4T23:58:19Z</time></trkpt>
<trkpt lat="46.19393300" lon="7.16454600"><ele></ele><time>2014-7-4T23:58:22Z</time></trkpt>
<trkpt lat="46.19394200" lon="7.16460400"><ele></ele><time>2014-7-4T23:58:25Z</time></trkpt>
<trkpt lat="46.19392800" lon="7.16465300"><ele></ele><time>2014-7-4T23:58:28Z</time></trkpt>
<trkpt lat="46.19389300" lon="7.16468200"><ele></ele><time>2014-7-4T23:58:31Z</time></trkpt>
<trkpt lat="46.19384800" lon="7.16467100"><ele></ele><time>2014-7-4T23:58:34Z</time></trkpt>
<trkpt lat="46.19380600" lon="7.16462200"><ele></ele><time>2014-7-4T23:58:37Z</time></trkpt>
<trkpt lat="46.19376900" lon="7.16454800"><ele></ele><time>2014-7-4T23:58:40Z</time></trkpt>
<trkpt lat="46.19373400" lon="7.16445900"><ele></ele><time>2014-7-4T23:58:43Z</time></trkpt>
<trkpt lat="46.19369600" lon="7.16436000"><ele></ele><time>2014-7-4T23:58:46Z</time></trkpt>
<trkpt lat="46.19365400" lon="7.16425500"><ele></ele><time>2014-7-4T23:58:49Z</time></trkpt>
<trkpt lat="46.19361100" lon="7.16414300"><ele></ele><time>2014-7-4T23:58:52Z</time></trkpt>
<trkpt lat="46.19356400" lon="7.16402700"><ele></ele><time>2014-7-4T23:58:55Z</time></trkpt>
<trkpt lat="46.19350400" lon="7.16391700"><ele></ele><time>2014-7-4T23:58:58Z</time></trkpt>
<trkpt lat="46.19342900" lon="7.16381900"><ele></ele><time>2014-7-4T23:59:1Z</time></trkpt>
<trkpt lat="46.19334800" lon="7.16372700"><ele></ele><time>2014-7-4T23:59:4Z</time></trkpt>
<trkpt lat="46.19326700" lon="7.16364600"><ele></ele><time>2014-7-4T23:59:7Z</time></trkpt>
<trkpt lat="46.19318200" lon="7.16359100"><ele></ele><time>2014-7-4T23:59:10Z</time></trkpt>
<trkpt lat="46.19308900" lon="7.16356800"><ele></ele><time>2014-7-4T23:59:13Z</time></trkpt>
<trkpt lat="46.19299200" lon="7.16358700"><ele></ele><time>2014-7-4T23:59:16Z</time></trkpt>
<trkpt lat="46.19289800" lon="7.16364400"><ele></ele><time>2014-7-4T23:59:19Z</time></trkpt>
<trkpt lat="46.19280800" lon="7.16372100"><ele></ele><time>2014-7-4T23:59:22Z</time></trkpt>
<trkpt lat="46.19271800" lon="7.16379700"><ele></ele><time>2014-7-4T23:59:25Z</time></trkpt>
<trkpt lat="46.19262900" lon="7.16386600"><ele></ele><time>2014-7-4T23:59:28Z</time></trkpt>
<trkpt lat="46.19254200" lon="7.16393600"><ele></ele><time>2014-7-4T23:59:31Z</time></trkpt>
<trkpt lat="46.19245600" lon="7.16401100"><ele></ele><time>2014-7-4T23:59:34Z</time></trkpt>
<trkpt lat="46.19237100" lon="7.16408700"><ele></ele><time>2014-7-4T23:59:37Z</time></trkpt>
<trkpt lat="46.19228800" lon="7.16416000"><ele></ele><time>2014-7-4T23:59:40Z</time></trkpt>
<trkpt lat="46.19220500" lon="7.16423200"><ele></ele><time>2014-7-4T23:59:43Z</time></trkpt>
<trkpt lat="46.19212000" lon="7.16429800"><ele></ele><time>2014-7-4T23:59:46Z</time></trkpt>
<trkpt lat="46.19202900" lon="7.16435500"><ele></ele><time>2014-7-4T23:59:49Z</time></trkpt>
<trkpt lat="46.19194400" lon="7.16440000"><ele></ele><time>2014-7-4T23:59:52Z</time></trkpt>
<trkpt lat="46.19186500" lon="7.16442500"><ele></ele><time>2014-7-4T23:59:55Z</time></trkpt>
<trkpt lat="46.19178400" lon="7.16442100"><ele></ele><time>2014-7-4T23:59:58Z</time></trkpt>
<trkpt lat="46.19169900" lon="7.16439700"><ele></ele><time>2014-7-5T0:0:1Z</time></trkpt>
<trkpt lat="46.19161600" lon="7.16437200"><ele></ele><time>2014-7-5T0:0:4Z</time></trkpt>
<trkpt lat="46.19154100" lon="7.16434400"><ele></ele><time>2014-7-5T0:0:7Z</time></trkpt>
<trkpt lat="46.19147600" lon="7.16429600"><ele></ele><time>2014-7-5T0:0:10Z</time></trkpt>
<trkpt lat="46.19142800" lon="7.16422700"><ele></ele><time>2014-7-5T0:0:13Z</time></trkpt>
<trkpt lat="46.19140300" lon="7.16415000"><ele></ele><time>2014-7-5T0:0:16Z</time></trkpt>
<trkpt lat="46.19140100" lon="7.16408100"><ele></ele><time>2014-7-5T0:0:19Z</time></trkpt>
<trkpt lat="46.19140700" lon="7.16402400"><ele></ele><time>2014-7-5T0:0:22Z</time></trkpt>
<trkpt lat="46.19140800" lon="7.16397700"><ele></ele><time>2014-7-5T0:0:25Z</time></trkpt>
<trkpt lat="46.19140500" lon="7.16394000"><ele></ele><time>2014-7-5T0:0:28Z</time></trkpt>
<trkpt lat="46.19140000" lon="7.16391000"><ele></ele><time>2014-7-5T0:0:31Z</time></trkpt>
<trkpt lat="46.19139700" lon="7.16388100"><ele></ele><time>2014-7-5T0:0:34Z</time></trkpt>
<trkpt lat="46.19139200" lon="7.16385200"><ele></ele><time>2014-7-5T0:0:37Z</time></trkpt>
<trkpt lat="46.19138400" lon="7.16382300"><ele></ele><time>2014-7-5T0:0:40Z</time></trkpt>
<trkpt lat="46.19137500" lon="7.16379500"><ele></ele><time>2014-7-5T0:0:43Z</time></trkpt>
<trkpt lat="46.19136400" lon="7.16376700"><ele></ele><time>2014-7-5T0:0:46Z</time></trkpt>
<trkpt lat="46.19135300" lon="7.16373800"><ele></ele><time>2014-7-5T0:0:49Z</time></trkpt>
<trkpt lat="46.19134100" lon="7.16370700"><ele></ele><time>2014-7-5T0:0:52Z</time></trkpt>
<trkpt lat="46.19133000" lon="7.16367500"><ele></ele><time>2014-7-5T0:0:55Z</time></trkpt>
<trkpt lat="46.19131900" lon="7.16364400"><ele></ele><time>2014-7-5T0:0:58Z</time></trkpt>
<trkpt lat="46.19130600" lon="7.16361400"><ele></ele><time>2014-7-5T0:1:1Z</time></trkpt>
<trkpt lat="46.19129000" lon="7.16358800"><ele></ele><time>2014-7-5T0:1:4Z</time></trkpt>
<trkpt lat="46.19127200" lon="7.16356400"><ele></ele><time>2014-7-5T0:1:7Z</time></trkpt>
<trkpt lat="46.19125500" lon="7.16354300"><ele></ele><time>2014-7-5T0:1:10Z</time></trkpt>
<trkpt lat="46.19123600" lon="7.16352600"><ele></ele><time>2014-7-5T0:1:13Z</time></trkpt>
<trkpt lat="46.19121400" lon="7.16351600"><ele></ele><time>2014-7-5T0:1:16Z</time></trkpt>
<trkpt lat="46.19118200" lon="7.16351800"><ele></ele><time>2014-7-5T0:1:19Z</time></trkpt>
<trkpt lat="46.19115600" lon="7.16353200"><ele></ele><time>2014-7-5T0:1:22Z</time></trkpt>
<trkpt lat="46.19113300" lon="7.16355200"><ele></ele><time>2014-7-5T0:1:25Z</time></trkpt>
<trkpt lat="46.19111100" lon="7.16357500"><ele></ele><time>2014-7-5T0:1:28Z</time></trkpt>
<trkpt lat="46.19109200" lon="7.16360000"><ele></ele><time>2014-7-5T0:1:31Z</time></trkpt>
<trkpt lat="46.19107500" lon="7.16362800"><ele></ele><time>2014-7-5T0:1:34Z</time></trkpt>
<trkpt lat="46.19106000" lon="7.16365400"><ele></ele><time>2014-7-5T0:1:37Z</time></trkpt>
<trkpt lat="46.19104500" lon="7.16367800"><ele></ele><time>2014-7-5T0:1:40Z</time></trkpt>
<trkpt lat="46.19103000" lon="7.16369900"><ele></ele><time>2014-7-5T0:1:43Z</time></trkpt>
<trkpt lat="46.19101700" lon="7.16371900"><ele></ele><time>2014-7-5T0:1:46Z</time></trkpt>
<trkpt lat="46.19100500" lon="7.16374000"><ele></ele><time>2014-7-5T0:1:49Z</time></trkpt>
<trkpt lat="46.19099300" lon="7.16375700"><ele></ele><time>2014-7-5T0:1:52Z</time></trkpt>
<trkpt lat="46.19098200" lon="7.16377200"><ele></ele><time>2014-7-5T0:1:55Z</time></trkpt>
<trkpt lat="46.19097600" lon="7.16378600"><ele></ele><time>2014-7-5T0:1:58Z</time></trkpt>
<trkpt lat="46.19096900" lon="7.16379700"><ele></ele><time>2014-7-5T0:2:1Z</time></trkpt>
<trkpt lat="46.19096300" lon="7.16380900"><ele></ele><time>2014-7-5T0:2:4Z</time></trkpt>
<trkpt lat="46.19095700" lon="7.16381800"><ele></ele><time>2014-7-5T0:2:7Z</time></trkpt>
<trkpt lat="46.19095100" lon="7.16382800"><ele></ele><time>2014-7-5T0:2:10Z</time></trkpt>
<trkpt lat="46.19094300" lon="7.16383400"><ele></ele><time>2014-7-5T0:2:13Z</time></trkpt>
<trkpt lat="46.19093900" lon="7.16384000"><ele></ele><time>2014-7-5T0:2:16Z</time></trkpt>
<trkpt lat="46.19094100" lon="7.16384400"><ele></ele><time>2014-7-5T0:2:19Z</time></trkpt>
<trkpt lat="46.19094200" lon="7.16384900"><ele></ele><time>2014-7-5T0:2:22Z</time></trkpt>
<trkpt lat="46.19093800" lon="7.16387600"><ele></ele><time>2014-7-5T0:2:25Z</time></trkpt>
<trkpt lat="46.19093300" lon="7.16387300"><ele></ele><time>2014-7-5T0:2:28Z</time></trkpt>
<trkpt lat="46.19093100" lon="7.16387000"><ele></ele><time>2014-7-5T0:2:31Z</time></trkpt>
<trkpt lat="46.19093000" lon="7.16387100"><ele></ele><time>2014-7-5T0:2:34Z</time></trkpt>
<trkpt lat="46.19090400" lon="7.16394800"><ele></ele><time>2014-7-5T0:2:37Z</time></trkpt>
<trkpt lat="46.19090100" lon="7.16395000"><ele></ele><time>2014-7-5T0:2:40Z</time></trkpt>
<trkpt lat="46.19089700" lon="7.16394800"><ele></ele><time>2014-7-5T0:2:43Z</time></trkpt>
<trkpt lat="46.19089500" lon="7.16394700"><ele></ele><time>2014-7-5T0:2:46Z</time></trkpt>
<trkpt lat="46.19088200" lon="7.16389700"><ele></ele><time>2014-7-5T0:2:49Z</time></trkpt>
<trkpt lat="46.19087800" lon="7.16390300"><ele></ele><time>2014-7-5T0:2:52Z</time></trkpt>
<trkpt lat="46.19087400" lon="7.16391900"><ele></ele><time>2014-7-5T0:2:55Z</time></trkpt>
<trkpt lat="46.19086700" lon="7.16392900"><ele></ele><time>2014-7-5T0:2:58Z</time></trkpt>
<trkpt lat="46.19086100" lon="7.16394000"><ele></ele><time>2014-7-5T0:3:1Z</time></trkpt>
<trkpt lat="46.19085200" lon="7.16394900"><ele></ele><time>2014-7-5T0:3:4Z</time></trkpt>
<trkpt lat="46.19084500" lon="7.16396100"><ele></ele><time>2014-7-5T0:3:7Z</time></trkpt>
<trkpt lat="46.19083800" lon="7.16397300"><ele></ele><time>2014-7-5T0:3:10Z</time></trkpt>
<trkpt lat="46.19082900" lon="7.16397700"><ele></ele><time>2014-7-5T0:3:13Z</time></trkpt>
<trkpt lat="46.19081800" lon="7.16397900"><ele></ele><time>2014-7-5T0:3:16Z</time></trkpt>
<trkpt lat="46.19080600" lon="7.16398400"><ele></ele><time>2014-7-5T0:3:19Z</time></trkpt>
<trkpt lat="46.19079500" lon="7.16398900"><ele></ele><time>2014-7-5T0:3:22Z</time></trkpt>
<trkpt lat="46.19078200" lon="7.16399600"><ele></ele><time>2014-7-5T0:3:25Z</time></trkpt>
<trkpt lat="46.19077000" lon="7.16400200"><ele></ele><time>2014-7-5T0:3:28Z</time></trkpt>
<trkpt lat="46.19075700" lon="7.16400700"><ele></ele><time>2014-7-5T0:3:31Z</time></trkpt>
<trkpt lat="46.19074400" lon="7.16401000"><ele></ele><time>2014-7-5T0:3:34Z</time></trkpt>
<trkpt lat="46.19073000" lon="7.16401500"><ele></ele><time>2014-7-5T0:3:37Z</time></trkpt>
<trkpt lat="46.19071800" lon="7.16402000"><ele></ele><time>2014-7-5T0:3:40Z</time></trkpt>
<trkpt lat="46.19070500" lon="7.16402500"><ele></ele><time>2014-7-5T0:3:43Z</time></trkpt>
<trkpt lat="46.19069200" lon="7.16402700"><ele></ele><time>2014-7-5T0:3:46Z</time></trkpt>
<trkpt lat="46.19067800" lon="7.16403100"><ele></ele><time>2014-7-5T0:3:49Z</time></trkpt>
<trkpt lat="46.19066300" lon="7.16403400"><ele></ele><time>2014-7-5T0:3:52Z</time></trkpt>
<trkpt lat="46.19065000" lon="7.16403500"><ele></ele><time>2014-7-5T0:3:55Z</time></trkpt>
<trkpt lat="46.19063700" lon="7.16403800"><ele></ele><time>2014-7-5T0:3:58Z</time></trkpt>
<trkpt lat="46.19062700" lon="7.16404300"><ele></ele><time>2014-7-5T0:4:1Z</time></trkpt>
<trkpt lat="46.19061700" lon="7.16404900"><ele></ele><time>2014-7-5T0:4:4Z</time></trkpt>
<trkpt lat="46.19060500" lon="7.16405400"><ele></ele><time>2014-7-5T0:4:7Z</time></trkpt>
<trkpt lat="46.19059200" lon="7.16405700"><ele></ele><time>2014-7-5T0:4:10Z</time></trkpt>
<trkpt lat="46.19058000" lon="7.16406100"><ele></ele><time>2014-7-5T0:4:13Z</time></trkpt>
<trkpt lat="46.19056600" lon="7.16406800"><ele></ele><time>2014-7-5T0:4:16Z</time></trkpt>
<trkpt lat="46.19055400" lon="7.16408000"><ele></ele><time>2014-7-5T0:4:19Z</time></trkpt>
<trkpt lat="46.19054200" lon="7.16409200"><ele></ele><time>2014-7-5T0:4:22Z</time></trkpt>
<trkpt lat="46.19052800" lon="7.16410400"><ele></ele><time>2014-7-5T0:4:25Z</time></trkpt>
<trkpt lat="46.19051400" lon="7.16411500"><ele></ele><time>2014-7-5T0:4:28Z</time></trkpt>
<trkpt lat="46.19050200" lon="7.16412900"><ele></ele><time>2014-7-5T0:4:31Z</time></trkpt>
<trkpt lat="46.19049000" lon="7.16414300"><ele></ele><time>2014-7-5T0:4:34Z</time></trkpt>
<trkpt lat="46.19047800" lon="7.16415600"><ele></ele><time>2014-7-5T0:4:37Z</time></trkpt>
<trkpt lat="46.19046600" lon="7.16417100"><ele></ele><time>2014-7-5T0:4:40Z</time></trkpt>
<trkpt lat="46.19045500" lon="7.16418600"><ele></ele><time>2014-7-5T0:4:43Z</time></trkpt>
<trkpt lat="46.19044600" lon="7.16420700"><ele></ele><time>2014-7-5T0:4:46Z</time></trkpt>
<trkpt lat="46.19043500" lon="7.16422600"><ele></ele><time>2014-7-5T0:4:49Z</time></trkpt>
<trkpt lat="46.19042400" lon="7.16424200"><ele></ele><time>2014-7-5T0:4:52Z</time></trkpt>
<trkpt lat="46.19041300" lon="7.16425800"><ele></ele><time>2014-7-5T0:4:55Z</time></trkpt>
<trkpt lat="46.19040100" lon="7.16427000"><ele></ele><time>2014-7-5T0:4:58Z</time></trkpt>
<trkpt lat="46.19038800" lon="7.16428400"><ele></ele><time>2014-7-5T0:5:1Z</time></trkpt>
<trkpt lat="46.19037500" lon="7.16429500"><ele></ele><time>2014-7-5T0:5:4Z</time></trkpt>
<trkpt lat="46.19036200" lon="7.16430700"><ele></ele><time>2014-7-5T0:5:7Z</time></trkpt>
<trkpt lat="46.19035000" lon="7.16432200"><ele></ele><time>2014-7-5T0:5:10Z</time></trkpt>
<trkpt lat="46.19033800" lon="7.16433800"><ele></ele><time>2014-7-5T0:5:13Z</time></trkpt>
<trkpt lat="46.19032600" lon="7.16435000"><ele></ele><time>2014-7-5T0:5:16Z</time></trkpt>
<trkpt lat="46.19031300" lon="7.16436200"><ele></ele><time>2014-7-5T0:5:19Z</time></trkpt>
<trkpt lat="46.19030100" lon="7.16437600"><ele></ele><time>2014-7-5T0:5:22Z</time></trkpt>
<trkpt lat="46.19028800" lon="7.16438800"><ele></ele><time>2014-7-5T0:5:25Z</time></trkpt>
<trkpt lat="46.19027700" lon="7.16439700"><ele></ele><time>2014-7-5T0:5:28Z</time></trkpt>
<trkpt lat="46.19026500" lon="7.16440700"><ele></ele><time>2014-7-5T0:5:31Z</time></trkpt>
<trkpt lat="46.19025300" lon="7.16441600"><ele></ele><time>2014-7-5T0:5:34Z</time></trkpt>
<trkpt lat="46.19024100" lon="7.16442400"><ele></ele><time>2014-7-5T0:5:37Z</time></trkpt>
<trkpt lat="46.19022700" lon="7.16443300"><ele></ele><time>2014-7-5T0:5:40Z</time></trkpt>
<trkpt lat="46.19021600" lon="7.16444200"><ele></ele><time>2014-7-5T0:5:43Z</time></trkpt>
<trkpt lat="46.19020300" lon="7.16445300"><ele></ele><time>2014-7-5T0:5:46Z</time></trkpt>
<trkpt lat="46.19019000" lon="7.16446400"><ele></ele><time>2014-7-5T0:5:49Z</time></trkpt>
<trkpt lat="46.19017500" lon="7.16447400"><ele></ele><time>2014-7-5T0:5:52Z</time></trkpt>
<trkpt lat="46.19016000" lon="7.16448400"><ele></ele><time>2014-7-5T0:5:55Z</time></trkpt>
<trkpt lat="46.19014600" lon="7.16449300"><ele></ele><time>2014-7-5T0:5:58Z</time></trkpt>
<trkpt lat="46.19013200" lon="7.16450200"><ele></ele><time>2014-7-5T0:6:1Z</time></trkpt>
<trkpt lat="46.19011900" lon="7.16451000"><ele></ele><time>2014-7-5T0:6:4Z</time></trkpt>
<trkpt lat="46.19010700" lon="7.16451900"><ele></ele><time>2014-7-5T0:6:7Z</time></trkpt>
<trkpt lat="46.19009400" lon="7.16452900"><ele></ele><time>2014-7-5T0:6:10Z</time></trkpt>
<trkpt lat="46.19007900" lon="7.16453800"><ele></ele><time>2014-7-5T0:6:13Z</time></trkpt>
<trkpt lat="46.19006600" lon="7.16454700"><ele></ele><time>2014-7-5T0:6:16Z</time></trkpt>
<trkpt lat="46.19005200" lon="7.16455700"><ele></ele><time>2014-7-5T0:6:19Z</time></trkpt>
<trkpt lat="46.19003800" lon="7.16456800"><ele></ele><time>2014-7-5T0:6:22Z</time></trkpt>
<trkpt lat="46.19002300" lon="7.16458100"><ele></ele><time>2014-7-5T0:6:25Z</time></trkpt>
<trkpt lat="46.19000700" lon="7.16459100"><ele></ele><time>2014-7-5T0:6:28Z</time></trkpt>
<trkpt lat="46.18999100" lon="7.16459900"><ele></ele><time>2014-7-5T0:6:31Z</time></trkpt>
<trkpt lat="46.18997500" lon="7.16460800"><ele></ele><time>2014-7-5T0:6:34Z</time></trkpt>
<trkpt lat="46.18996100" lon="7.16461800"><ele></ele><time>2014-7-5T0:6:37Z</time></trkpt>
<trkpt lat="46.18994600" lon="7.16463200"><ele></ele><time>2014-7-5T0:6:40Z</time></trkpt>
<trkpt lat="46.18993200" lon="7.16464300"><ele></ele><time>2014-7-5T0:6:43Z</time></trkpt>
<trkpt lat="46.18992300" lon="7.16465500"><ele></ele><time>2014-7-5T0:6:46Z</time></trkpt>
<trkpt lat="46.18991100" lon="7.16466600"><ele></ele><time>2014-7-5T0:6:49Z</time></trkpt>
<trkpt lat="46.18989600" lon="7.16467600"><ele></ele><time>2014-7-5T0:6:52Z</time></trkpt>
<trkpt lat="46.18988100" lon="7.16468600"><ele></ele><time>2014-7-5T0:6:55Z</time></trkpt>
<trkpt lat="46.18986800" lon="7.16469500"><ele></ele><time>2014-7-5T0:6:58Z</time></trkpt>
<trkpt lat="46.18985500" lon="7.16470400"><ele></ele><time>2014-7-5T0:7:1Z</time></trkpt>
<trkpt lat="46.18984000" lon="7.16471200"><ele></ele><time>2014-7-5T0:7:4Z</time></trkpt>
<trkpt lat="46.18982400" lon="7.16472300"><ele></ele><time>2014-7-5T0:7:7Z</time></trkpt>
<trkpt lat="46.18980900" lon="7.16473500"><ele></ele><time>2014-7-5T0:7:10Z</time></trkpt>
<trkpt lat="46.18979600" lon="7.16474700"><ele></ele><time>2014-7-5T0:7:13Z</time></trkpt>
<trkpt lat="46.18978200" lon="7.16476000"><ele></ele><time>2014-7-5T0:7:16Z</time></trkpt>
<trkpt lat="46.18976600" lon="7.16477000"><ele></ele><time>2014-7-5T0:7:19Z</time></trkpt>
<trkpt lat="46.18975100" lon="7.16478000"><ele></ele><time>2014-7-5T0:7:22Z</time></trkpt>
<trkpt lat="46.18972800" lon="7.16478500"><ele></ele><time>2014-7-5T0:7:25Z</time></trkpt>
<trkpt lat="46.18971300" lon="7.16479600"><ele></ele><time>2014-7-5T0:7:28Z</time></trkpt>
<trkpt lat="46.18969800" lon="7.16480600"><ele></ele><time>2014-7-5T0:7:31Z</time></trkpt>
<trkpt lat="46.18968300" lon="7.16481400"><ele></ele><time>2014-7-5T0:7:34Z</time></trkpt>
<trkpt lat="46.18966900" lon="7.16482200"><ele></ele><time>2014-7-5T0:7:37Z</time></trkpt>
<trkpt lat="46.18965500" lon="7.16483100"><ele></ele><time>2014-7-5T0:7:40Z</time></trkpt>
<trkpt lat="46.18964100" lon="7.16484200"><ele></ele><time>2014-7-5T0:7:43Z</time></trkpt>
<trkpt lat="46.18962800" lon="7.16485400"><ele></ele><time>2014-7-5T0:7:46Z</time></trkpt>
<trkpt lat="46.18961500" lon="7.16486200"><ele></ele><time>2014-7-5T0:7:49Z</time></trkpt>
<trkpt lat="46.18960200" lon="7.16486900"><ele></ele><time>2014-7-5T0:7:52Z</time></trkpt>
<trkpt lat="46.18958900" lon="7.16487700"><ele></ele><time>2014-7-5T0:7:55Z</time></trkpt>
<trkpt lat="46.18957300" lon="7.16488600"><ele></ele><time>2014-7-5T0:7:58Z</time></trkpt>
<trkpt lat="46.18955700" lon="7.16489400"><ele></ele><time>2014-7-5T0:8:1Z</time></trkpt>
<trkpt lat="46.18954100" lon="7.16490400"><ele></ele><time>2014-7-5T0:8:4Z</time></trkpt>
<trkpt lat="46.18952800" lon="7.16491700"><ele></ele><time>2014-7-5T0:8:7Z</time></trkpt>
<trkpt lat="46.18951400" lon="7.16492900"><ele></ele><time>2014-7-5T0:8:10Z</time></trkpt>
<trkpt lat="46.18949900" lon="7.16493900"><ele></ele><time>2014-7-5T0:8:13Z</time></trkpt>
<trkpt lat="46.18948500" lon="7.16494800"><ele></ele><time>2014-7-5T0:8:16Z</time></trkpt>
<trkpt lat="46.18947100" lon="7.16495800"><ele></ele><time>2014-7-5T0:8:19Z</time></trkpt>
<trkpt lat="46.18945800" lon="7.16497000"><ele></ele><time>2014-7-5T0:8:22Z</time></trkpt>
<trkpt lat="46.18944400" lon="7.16498100"><ele></ele><time>2014-7-5T0:8:25Z</time></trkpt>
<trkpt lat="46.18943100" lon="7.16499300"><ele></ele><time>2014-7-5T0:8:28Z</time></trkpt>
<trkpt lat="46.18941800" lon="7.16500500"><ele></ele><time>2014-7-5T0:8:31Z</time></trkpt>
<trkpt lat="46.18940500" lon="7.16501700"><ele></ele><time>2014-7-5T0:8:34Z</time></trkpt>
<trkpt lat="46.18939300" lon="7.16502900"><ele></ele><time>2014-7-5T0:8:37Z</time></trkpt>
<trkpt lat="46.18938300" lon="7.16504300"><ele></ele><time>2014-7-5T0:8:40Z</time></trkpt>
<trkpt lat="46.18937400" lon="7.16505800"><ele></ele><time>2014-7-5T0:8:43Z</time></trkpt>
<trkpt lat="46.18935900" lon="7.16506800"><ele></ele><time>2014-7-5T0:8:46Z</time></trkpt>
<trkpt lat="46.18934300" lon="7.16507700"><ele></ele><time>2014-7-5T0:8:49Z</time></trkpt>
<trkpt lat="46.18932800" lon="7.16508100"><ele></ele><time>2014-7-5T0:8:52Z</time></trkpt>
<trkpt lat="46.18931500" lon="7.16508200"><ele></ele><time>2014-7-5T0:8:55Z</time></trkpt>
<trkpt lat="46.18930500" lon="7.16508800"><ele></ele><time>2014-7-5T0:8:58Z</time></trkpt>
<trkpt lat="46.18929500" lon="7.16509900"><ele></ele><time>2014-7-5T0:9:1Z</time></trkpt>
<trkpt lat="46.18928600" lon="7.16511100"><ele></ele><time>2014-7-5T0:9:4Z</time></trkpt>
<trkpt lat="46.18927300" lon="7.16512100"><ele></ele><time>2014-7-5T0:9:7Z</time></trkpt>
<trkpt lat="46.18926000" lon="7.16513200"><ele></ele><time>2014-7-5T0:9:10Z</time></trkpt>
<trkpt lat="46.18924600" lon="7.16514100"><ele></ele><time>2014-7-5T0:9:13Z</time></trkpt>
<trkpt lat="46.18923100" lon="7.16514700"><ele></ele><time>2014-7-5T0:9:16Z</time></trkpt>
<trkpt lat="46.18921700" lon="7.16515900"><ele></ele><time>2014-7-5T0:9:19Z</time></trkpt>
<trkpt lat="46.18920200" lon="7.16517300"><ele></ele><time>2014-7-5T0:9:22Z</time></trkpt>
<trkpt lat="46.18918700" lon="7.16518800"><ele></ele><time>2014-7-5T0:9:25Z</time></trkpt>
<trkpt lat="46.18917400" lon="7.16520800"><ele></ele><time>2014-7-5T0:9:28Z</time></trkpt>
<trkpt lat="46.18915900" lon="7.16522500"><ele></ele><time>2014-7-5T0:9:31Z</time></trkpt>
<trkpt lat="46.18914400" lon="7.16523900"><ele></ele><time>2014-7-5T0:9:34Z</time></trkpt>
<trkpt lat="46.18913000" lon="7.16525600"><ele></ele><time>2014-7-5T0:9:37Z</time></trkpt>
<trkpt lat="46.18911500" lon="7.16527100"><ele></ele><time>2014-7-5T0:9:40Z</time></trkpt>
<trkpt lat="46.18909700" lon="7.16528700"><ele></ele><time>2014-7-5T0:9:43Z</time></trkpt>
<trkpt lat="46.18907800" lon="7.16530300"><ele></ele><time>2014-7-5T0:9:46Z</time></trkpt>
<trkpt lat="46.18905900" lon="7.16532100"><ele></ele><time>2014-7-5T0:9:49Z</time></trkpt>
<trkpt lat="46.18903500" lon="7.16533900"><ele></ele><time>2014-7-5T0:9:52Z</time></trkpt>
<trkpt lat="46.18901100" lon="7.16536300"><ele></ele><time>2014-7-5T0:9:55Z</time></trkpt>
<trkpt lat="46.18898600" lon="7.16539400"><ele></ele><time>2014-7-5T0:9:58Z</time></trkpt>
<trkpt lat="46.18896100" lon="7.16543100"><ele></ele><time>2014-7-5T0:10:1Z</time></trkpt>
<trkpt lat="46.18893300" lon="7.16547300"><ele></ele><time>2014-7-5T0:10:4Z</time></trkpt>
<trkpt lat="46.18890100" lon="7.16551900"><ele></ele><time>2014-7-5T0:10:7Z</time></trkpt>
<trkpt lat="46.18886200" lon="7.16556400"><ele></ele><time>2014-7-5T0:10:10Z</time></trkpt>
<trkpt lat="46.18882000" lon="7.16561500"><ele></ele><time>2014-7-5T0:10:13Z</time></trkpt>
<trkpt lat="46.18877300" lon="7.16567200"><ele></ele><time>2014-7-5T0:10:16Z</time></trkpt>
<trkpt lat="46.18872000" lon="7.16572500"><ele></ele><time>2014-7-5T0:10:19Z</time></trkpt>
<trkpt lat="46.18866400" lon="7.16576600"><ele></ele><time>2014-7-5T0:10:22Z</time></trkpt>
<trkpt lat="46.18860300" lon="7.16579700"><ele></ele><time>2014-7-5T0:10:25Z</time></trkpt>
<trkpt lat="46.18853600" lon="7.16582400"><ele></ele><time>2014-7-5T0:10:28Z</time></trkpt>
<trkpt lat="46.18846300" lon="7.16584500"><ele></ele><time>2014-7-5T0:10:31Z</time></trkpt>
<trkpt lat="46.18838800" lon="7.16587200"><ele></ele><time>2014-7-5T0:10:34Z</time></trkpt>
<trkpt lat="46.18830500" lon="7.16590300"><ele></ele><time>2014-7-5T0:10:37Z</time></trkpt>
<trkpt lat="46.18821800" lon="7.16594500"><ele></ele><time>2014-7-5T0:10:40Z</time></trkpt>
<trkpt lat="46.18813400" lon="7.16600300"><ele></ele><time>2014-7-5T0:10:43Z</time></trkpt>
<trkpt lat="46.18804700" lon="7.16606700"><ele></ele><time>2014-7-5T0:10:46Z</time></trkpt>
<trkpt lat="46.18796000" lon="7.16614100"><ele></ele><time>2014-7-5T0:10:49Z</time></trkpt>
<trkpt lat="46.18787500" lon="7.16622400"><ele></ele><time>2014-7-5T0:10:52Z</time></trkpt>
<trkpt lat="46.18778900" lon="7.16630500"><ele></ele><time>2014-7-5T0:10:55Z</time></trkpt>
<trkpt lat="46.18769800" lon="7.16638700"><ele></ele><time>2014-7-5T0:10:58Z</time></trkpt>
<trkpt lat="46.18760400" lon="7.16646200"><ele></ele><time>2014-7-5T0:11:1Z</time></trkpt>
<trkpt lat="46.18751000" lon="7.16651500"><ele></ele><time>2014-7-5T0:11:4Z</time></trkpt>
<trkpt lat="46.18743300" lon="7.16657500"><ele></ele><time>2014-7-5T0:11:7Z</time></trkpt>
<trkpt lat="46.18736400" lon="7.16664400"><ele></ele><time>2014-7-5T0:11:10Z</time></trkpt>
<trkpt lat="46.18729000" lon="7.16669000"><ele></ele><time>2014-7-5T0:11:13Z</time></trkpt>
<trkpt lat="46.18721800" lon="7.16674200"><ele></ele><time>2014-7-5T0:11:16Z</time></trkpt>
<trkpt lat="46.18716100" lon="7.16681800"><ele></ele><time>2014-7-5T0:11:19Z</time></trkpt>
<trkpt lat="46.18712200" lon="7.16693900"><ele></ele><time>2014-7-5T0:11:22Z</time></trkpt>
<trkpt lat="46.18707600" lon="7.16706000"><ele></ele><time>2014-7-5T0:11:25Z</time></trkpt>
<trkpt lat="46.18702700" lon="7.16720200"><ele></ele><time>2014-7-5T0:11:28Z</time></trkpt>
<trkpt lat="46.18696900" lon="7.16732500"><ele></ele><time>2014-7-5T0:11:31Z</time></trkpt>
<trkpt lat="46.18691200" lon="7.16744800"><ele></ele><time>2014-7-5T0:11:34Z</time></trkpt>
<trkpt lat="46.18684800" lon="7.16756100"><ele></ele><time>2014-7-5T0:11:37Z</time></trkpt>
<trkpt lat="46.18678500" lon="7.16768200"><ele></ele><time>2014-7-5T0:11:40Z</time></trkpt>
<trkpt lat="46.18672700" lon="7.16780200"><ele></ele><time>2014-7-5T0:11:43Z</time></trkpt>
<trkpt lat="46.18668000" lon="7.16793000"><ele></ele><time>2014-7-5T0:11:46Z</time></trkpt>
<trkpt lat="46.18664400" lon="7.16806300"><ele></ele><time>2014-7-5T0:11:49Z</time></trkpt>
<trkpt lat="46.18661100" lon="7.16820200"><ele></ele><time>2014-7-5T0:11:52Z</time></trkpt>
<trkpt lat="46.18658200" lon="7.16834200"><ele></ele><time>2014-7-5T0:11:55Z</time></trkpt>
<trkpt lat="46.18656200" lon="7.16847700"><ele></ele><time>2014-7-5T0:11:58Z</time></trkpt>
<trkpt lat="46.18654700" lon="7.16861100"><ele></ele><time>2014-7-5T0:12:1Z</time></trkpt>
<trkpt lat="46.18652100" lon="7.16872900"><ele></ele><time>2014-7-5T0:12:4Z</time></trkpt>
<trkpt lat="46.18647600" lon="7.16884700"><ele></ele><time>2014-7-5T0:12:7Z</time></trkpt>
<trkpt lat="46.18642400" lon="7.16896000"><ele></ele><time>2014-7-5T0:12:10Z</time></trkpt>
<trkpt lat="46.18638100" lon="7.16908100"><ele></ele><time>2014-7-5T0:12:13Z</time></trkpt>
<trkpt lat="46.18634900" lon="7.16921000"><ele></ele><time>2014-7-5T0:12:16Z</time></trkpt>
<trkpt lat="46.18631300" lon="7.16934000"><ele></ele><time>2014-7-5T0:12:19Z</time></trkpt>
<trkpt lat="46.18626400" lon="7.16946800"><ele></ele><time>2014-7-5T0:12:22Z</time></trkpt>
<trkpt lat="46.18620700" lon="7.16958400"><ele></ele><time>2014-7-5T0:12:25Z</time></trkpt>
<trkpt lat="46.18614500" lon="7.16969900"><ele></ele><time>2014-7-5T0:12:28Z</time></trkpt>
<trkpt lat="46.18607700" lon="7.16980900"><ele></ele><time>2014-7-5T0:12:31Z</time></trkpt>
<trkpt lat="46.18600500" lon="7.16991700"><ele></ele><time>2014-7-5T0:12:34Z</time></trkpt>
<trkpt lat="46.18593200" lon="7.17002400"><ele></ele><time>2014-7-5T0:12:37Z</time></trkpt>
<trkpt lat="46.18585400" lon="7.17010800"><ele></ele><time>2014-7-5T0:12:40Z</time></trkpt>
<trkpt lat="46.18577400" lon="7.17018500"><ele></ele><time>2014-7-5T0:12:43Z</time></trkpt>
<trkpt lat="46.18569400" lon="7.17028200"><ele></ele><time>2014-7-5T0:12:46Z</time></trkpt>
<trkpt lat="46.18560800" lon="7.17036800"><ele></ele><time>2014-7-5T0:12:49Z</time></trkpt>
<trkpt lat="46.18551700" lon="7.17043700"><ele></ele><time>2014-7-5T0:12:52Z</time></trkpt>
<trkpt lat="46.18544300" lon="7.17052400"><ele></ele><time>2014-7-5T0:12:55Z</time></trkpt>
<trkpt lat="46.18538800" lon="7.17062800"><ele></ele><time>2014-7-5T0:12:58Z</time></trkpt>
<trkpt lat="46.18533300" lon="7.17072900"><ele></ele><time>2014-7-5T0:13:1Z</time></trkpt>
<trkpt lat="46.18528100" lon="7.17083500"><ele></ele><time>2014-7-5T0:13:4Z</time></trkpt>
<trkpt lat="46.18522800" lon="7.17093700"><ele></ele><time>2014-7-5T0:13:7Z</time></trkpt>
<trkpt lat="46.18518000" lon="7.17104100"><ele></ele><time>2014-7-5T0:13:10Z</time></trkpt>
<trkpt lat="46.18513900" lon="7.17116000"><ele></ele><time>2014-7-5T0:13:13Z</time></trkpt>
<trkpt lat="46.18511500" lon="7.17132400"><ele></ele><time>2014-7-5T0:13:16Z</time></trkpt>
<trkpt lat="46.18508200" lon="7.17147900"><ele></ele><time>2014-7-5T0:13:19Z</time></trkpt>
<trkpt lat="46.18506600" lon="7.17163700"><ele></ele><time>2014-7-5T0:13:22Z</time></trkpt>
<trkpt lat="46.18506400" lon="7.17179100"><ele></ele><time>2014-7-5T0:13:25Z</time></trkpt>
<trkpt lat="46.18506800" lon="7.17193300"><ele></ele><time>2014-7-5T0:13:28Z</time></trkpt>
<trkpt lat="46.18507800" lon="7.17202700"><ele></ele><time>2014-7-5T0:13:31Z</time></trkpt>
<trkpt lat="46.18506200" lon="7.17209500"><ele></ele><time>2014-7-5T0:13:34Z</time></trkpt>
<trkpt lat="46.18503100" lon="7.17215100"><ele></ele><time>2014-7-5T0:13:37Z</time></trkpt>
<trkpt lat="46.18499700" lon="7.17221200"><ele></ele><time>2014-7-5T0:13:40Z</time></trkpt>
<trkpt lat="46.18496400" lon="7.17225800"><ele></ele><time>2014-7-5T0:13:43Z</time></trkpt>
<trkpt lat="46.18494300" lon="7.17228400"><ele></ele><time>2014-7-5T0:13:46Z</time></trkpt>
<trkpt lat="46.18493700" lon="7.17230100"><ele></ele><time>2014-7-5T0:13:49Z</time></trkpt>
<trkpt lat="46.18493500" lon="7.17231600"><ele></ele><time>2014-7-5T0:13:52Z</time></trkpt>
<trkpt lat="46.18493600" lon="7.17233300"><ele></ele><time>2014-7-5T0:13:55Z</time></trkpt>
<trkpt lat="46.18494200" lon="7.17234500"><ele></ele><time>2014-7-5T0:13:58Z</time></trkpt>
<trkpt lat="46.18494900" lon="7.17234500"><ele></ele><time>2014-7-5T0:14:1Z</time></trkpt>
<trkpt lat="46.18495300" lon="7.17234300"><ele></ele><time>2014-7-5T0:14:4Z</time></trkpt>
<trkpt lat="46.18495600" lon="7.17235400"><ele></ele><time>2014-7-5T0:14:7Z</time></trkpt>
<trkpt lat="46.18495800" lon="7.17236000"><ele></ele><time>2014-7-5T0:14:10Z</time></trkpt>
<trkpt lat="46.18495900" lon="7.17235500"><ele></ele><time>2014-7-5T0:14:13Z</time></trkpt>
<trkpt lat="46.18501000" lon="7.17227500"><ele></ele><time>2014-7-5T0:14:16Z</time></trkpt>
<trkpt lat="46.18504000" lon="7.17223200"><ele></ele><time>2014-7-5T0:14:19Z</time></trkpt>
<trkpt lat="46.18507600" lon="7.17218100"><ele></ele><time>2014-7-5T0:14:22Z</time></trkpt>
<trkpt lat="46.18510900" lon="7.17213000"><ele></ele><time>2014-7-5T0:14:25Z</time></trkpt>
<trkpt lat="46.18514500" lon="7.17207000"><ele></ele><time>2014-7-5T0:14:28Z</time></trkpt>
<trkpt lat="46.18517500" lon="7.17199000"><ele></ele><time>2014-7-5T0:14:31Z</time></trkpt>
<trkpt lat="46.18519300" lon="7.17189900"><ele></ele><time>2014-7-5T0:14:34Z</time></trkpt>
<trkpt lat="46.18520800" lon="7.17179600"><ele></ele><time>2014-7-5T0:14:37Z</time></trkpt>
<trkpt lat="46.18524800" lon="7.17165200"><ele></ele><time>2014-7-5T0:14:40Z</time></trkpt>
<trkpt lat="46.18530300" lon="7.17154300"><ele></ele><time>2014-7-5T0:14:43Z</time></trkpt>
<trkpt lat="46.18536200" lon="7.17146700"><ele></ele><time>2014-7-5T0:14:46Z</time></trkpt>
<trkpt lat="46.18541700" lon="7.17139100"><ele></ele><time>2014-7-5T0:14:49Z</time></trkpt>
<trkpt lat="46.18545300" lon="7.17132100"><ele></ele><time>2014-7-5T0:14:52Z</time></trkpt>
<trkpt lat="46.18548000" lon="7.17124100"><ele></ele><time>2014-7-5T0:14:55Z</time></trkpt>
<trkpt lat="46.18550300" lon="7.17115900"><ele></ele><time>2014-7-5T0:14:58Z</time></trkpt>
<trkpt lat="46.18552900" lon="7.17107700"><ele></ele><time>2014-7-5T0:15:1Z</time></trkpt>
<trkpt lat="46.18555300" lon="7.17100300"><ele></ele><time>2014-7-5T0:15:4Z</time></trkpt>
<trkpt lat="46.18556500" lon="7.17097500"><ele></ele><time>2014-7-5T0:15:7Z</time></trkpt>
<trkpt lat="46.18557100" lon="7.17095400"><ele></ele><time>2014-7-5T0:15:10Z</time></trkpt>
<trkpt lat="46.18557500" lon="7.17094600"><ele></ele><time>2014-7-5T0:15:13Z</time></trkpt>
<trkpt lat="46.18558000" lon="7.17094100"><ele></ele><time>2014-7-5T0:15:16Z</time></trkpt>
<trkpt lat="46.18558800" lon="7.17094300"><ele></ele><time>2014-7-5T0:15:19Z</time></trkpt>
<trkpt lat="46.18562900" lon="7.17092800"><ele></ele><time>2014-7-5T0:15:22Z</time></trkpt>
<trkpt lat="46.18564900" lon="7.17091000"><ele></ele><time>2014-7-5T0:15:25Z</time></trkpt>
<trkpt lat="46.18566400" lon="7.17087900"><ele></ele><time>2014-7-5T0:15:28Z</time></trkpt>
<trkpt lat="46.18567300" lon="7.17084000"><ele></ele><time>2014-7-5T0:15:31Z</time></trkpt>
<trkpt lat="46.18567800" lon="7.17078600"><ele></ele><time>2014-7-5T0:15:34Z</time></trkpt>
<trkpt lat="46.18569100" lon="7.17072800"><ele></ele><time>2014-7-5T0:15:37Z</time></trkpt>
<trkpt lat="46.18571400" lon="7.17068400"><ele></ele><time>2014-7-5T0:15:40Z</time></trkpt>
<trkpt lat="46.18574000" lon="7.17065900"><ele></ele><time>2014-7-5T0:15:43Z</time></trkpt>
<trkpt lat="46.18575900" lon="7.17064700"><ele></ele><time>2014-7-5T0:15:46Z</time></trkpt>
<trkpt lat="46.18577100" lon="7.17064400"><ele></ele><time>2014-7-5T0:15:49Z</time></trkpt>
<trkpt lat="46.18577900" lon="7.17064500"><ele></ele><time>2014-7-5T0:15:52Z</time></trkpt>
<trkpt lat="46.18578500" lon="7.17064500"><ele></ele><time>2014-7-5T0:15:55Z</time></trkpt>
<trkpt lat="46.18578800" lon="7.17064600"><ele></ele><time>2014-7-5T0:15:58Z</time></trkpt>
<trkpt lat="46.18578500" lon="7.17064700"><ele></ele><time>2014-7-5T0:16:1Z</time></trkpt>
<trkpt lat="46.18580800" lon="7.17065200"><ele></ele><time>2014-7-5T0:16:4Z</time></trkpt>
<trkpt lat="46.18583000" lon="7.17064900"><ele></ele><time>2014-7-5T0:16:7Z</time></trkpt>
<trkpt lat="46.18585800" lon="7.17064500"><ele></ele><time>2014-7-5T0:16:10Z</time></trkpt>
<trkpt lat="46.18589400" lon="7.17064100"><ele></ele><time>2014-7-5T0:16:13Z</time></trkpt>
<trkpt lat="46.18593400" lon="7.17063700"><ele></ele><time>2014-7-5T0:16:16Z</time></trkpt>
<trkpt lat="46.18597400" lon="7.17063400"><ele></ele><time>2014-7-5T0:16:19Z</time></trkpt>
<trkpt lat="46.18601700" lon="7.17063200"><ele></ele><time>2014-7-5T0:16:22Z</time></trkpt>
<trkpt lat="46.18606200" lon="7.17062000"><ele></ele><time>2014-7-5T0:16:25Z</time></trkpt>
<trkpt lat="46.18611500" lon="7.17060800"><ele></ele><time>2014-7-5T0:16:28Z</time></trkpt>
<trkpt lat="46.18617700" lon="7.17060700"><ele></ele><time>2014-7-5T0:16:31Z</time></trkpt>
<trkpt lat="46.18624800" lon="7.17060700"><ele></ele><time>2014-7-5T0:16:34Z</time></trkpt>
<trkpt lat="46.18631900" lon="7.17060000"><ele></ele><time>2014-7-5T0:16:37Z</time></trkpt>
<trkpt lat="46.18639100" lon="7.17058700"><ele></ele><time>2014-7-5T0:16:40Z</time></trkpt>
<trkpt lat="46.18645700" lon="7.17056100"><ele></ele><time>2014-7-5T0:16:43Z</time></trkpt>
<trkpt lat="46.18651600" lon="7.17051200"><ele></ele><time>2014-7-5T0:16:46Z</time></trkpt>
<trkpt lat="46.18657300" lon="7.17045200"><ele></ele><time>2014-7-5T0:16:49Z</time></trkpt>
<trkpt lat="46.18662400" lon="7.17039100"><ele></ele><time>2014-7-5T0:16:52Z</time></trkpt>
<trkpt lat="46.18667100" lon="7.17032900"><ele></ele><time>2014-7-5T0:16:55Z</time></trkpt>
<trkpt lat="46.18672300" lon="7.17027100"><ele></ele><time>2014-7-5T0:16:58Z</time></trkpt>
<trkpt lat="46.18678100" lon="7.17021700"><ele></ele><time>2014-7-5T0:17:1Z</time></trkpt>
<trkpt lat="46.18684100" lon="7.17015700"><ele></ele><time>2014-7-5T0:17:4Z</time></trkpt>
<trkpt lat="46.18690200" lon="7.17009900"><ele></ele><time>2014-7-5T0:17:7Z</time></trkpt>
<trkpt lat="46.18696600" lon="7.17003100"><ele></ele><time>2014-7-5T0:17:10Z</time></trkpt>
<trkpt lat="46.18702700" lon="7.16994800"><ele></ele><time>2014-7-5T0:17:13Z</time></trkpt>
<trkpt lat="46.18710700" lon="7.16980400"><ele></ele><time>2014-7-5T0:17:16Z</time></trkpt>
<trkpt lat="46.18717600" lon="7.16969700"><ele></ele><time>2014-7-5T0:17:19Z</time></trkpt>
<trkpt lat="46.18725600" lon="7.16957800"><ele></ele><time>2014-7-5T0:17:22Z</time></trkpt>
<trkpt lat="46.18733200" lon="7.16948300"><ele></ele><time>2014-7-5T0:17:25Z</time></trkpt>
<trkpt lat="46.18741200" lon="7.16940900"><ele></ele><time>2014-7-5T0:17:28Z</time></trkpt>
<trkpt lat="46.18748600" lon="7.16933300"><ele></ele><time>2014-7-5T0:17:31Z</time></trkpt>
<trkpt lat="46.18757400" lon="7.16928200"><ele></ele><time>2014-7-5T0:17:34Z</time></trkpt>
<trkpt lat="46.18762900" lon="7.16922300"><ele></ele><time>2014-7-5T0:17:37Z</time></trkpt>
<trkpt lat="46.18767000" lon="7.16916000"><ele></ele><time>2014-7-5T0:17:40Z</time></trkpt>
<trkpt lat="46.18767900" lon="7.16907200"><ele></ele><time>2014-7-5T0:17:43Z</time></trkpt>
<trkpt lat="46.18770100" lon="7.16898000"><ele></ele><time>2014-7-5T0:17:46Z</time></trkpt>
<trkpt lat="46.18772900" lon="7.16889300"><ele></ele><time>2014-7-5T0:17:49Z</time></trkpt>
<trkpt lat="46.18777100" lon="7.16882000"><ele></ele><time>2014-7-5T0:17:52Z</time></trkpt>
<trkpt lat="46.18781800" lon="7.16875200"><ele></ele><time>2014-7-5T0:17:55Z</time></trkpt>
<trkpt lat="46.18785000" lon="7.16868100"><ele></ele><time>2014-7-5T0:17:58Z</time></trkpt>
<trkpt lat="46.18789200" lon="7.16862800"><ele></ele><time>2014-7-5T0:18:1Z</time></trkpt>
<trkpt lat="46.18791400" lon="7.16860600"><ele></ele><time>2014-7-5T0:18:4Z</time></trkpt>
<trkpt lat="46.18792300" lon="7.16860500"><ele></ele><time>2014-7-5T0:18:7Z</time></trkpt>
<trkpt lat="46.18793000" lon="7.16861100"><ele></ele><time>2014-7-5T0:18:10Z</time></trkpt>
<trkpt lat="46.18794500" lon="7.16861900"><ele></ele><time>2014-7-5T0:18:13Z</time></trkpt>
<trkpt lat="46.18795600" lon="7.16862400"><ele></ele><time>2014-7-5T0:18:16Z</time></trkpt>
<trkpt lat="46.18796400" lon="7.16862800"><ele></ele><time>2014-7-5T0:18:19Z</time></trkpt>
<trkpt lat="46.18802400" lon="7.16862700"><ele></ele><time>2014-7-5T0:18:22Z</time></trkpt>
<trkpt lat="46.18805300" lon="7.16863000"><ele></ele><time>2014-7-5T0:18:25Z</time></trkpt>
<trkpt lat="46.18808500" lon="7.16864100"><ele></ele><time>2014-7-5T0:18:28Z</time></trkpt>
<trkpt lat="46.18811800" lon="7.16864800"><ele></ele><time>2014-7-5T0:18:31Z</time></trkpt>
<trkpt lat="46.18814900" lon="7.16864500"><ele></ele><time>2014-7-5T0:18:34Z</time></trkpt>
<trkpt lat="46.18817400" lon="7.16863400"><ele></ele><time>2014-7-5T0:18:37Z</time></trkpt>
<trkpt lat="46.18819500" lon="7.16861900"><ele></ele><time>2014-7-5T0:18:40Z</time></trkpt>
<trkpt lat="46.18821500" lon="7.16860600"><ele></ele><time>2014-7-5T0:18:43Z</time></trkpt>
<trkpt lat="46.18823800" lon="7.16859500"><ele></ele><time>2014-7-5T0:18:46Z</time></trkpt>
<trkpt lat="46.18826500" lon="7.16857900"><ele></ele><time>2014-7-5T0:18:49Z</time></trkpt>
<trkpt lat="46.18829300" lon="7.16855800"><ele></ele><time>2014-7-5T0:18:52Z</time></trkpt>
<trkpt lat="46.18831900" lon="7.16853100"><ele></ele><time>2014-7-5T0:18:55Z</time></trkpt>
<trkpt lat="46.18835300" lon="7.16849800"><ele></ele><time>2014-7-5T0:18:58Z</time></trkpt>
<trkpt lat="46.18838900" lon="7.16846200"><ele></ele><time>2014-7-5T0:19:1Z</time></trkpt>
<trkpt lat="46.18843100" lon="7.16842000"><ele></ele><time>2014-7-5T0:19:4Z</time></trkpt>
<trkpt lat="46.18848400" lon="7.16837700"><ele></ele><time>2014-7-5T0:19:7Z</time></trkpt>
<trkpt lat="46.18854000" lon="7.16833400"><ele></ele><time>2014-7-5T0:19:10Z</time></trkpt>
<trkpt lat="46.18859300" lon="7.16829700"><ele></ele><time>2014-7-5T0:19:13Z</time></trkpt>
<trkpt lat="46.18864000" lon="7.16826000"><ele></ele><time>2014-7-5T0:19:16Z</time></trkpt>
<trkpt lat="46.18868100" lon="7.16822400"><ele></ele><time>2014-7-5T0:19:19Z</time></trkpt>
<trkpt lat="46.18872900" lon="7.16818800"><ele></ele><time>2014-7-5T0:19:22Z</time></trkpt>
<trkpt lat="46.18877700" lon="7.16816000"><ele></ele><time>2014-7-5T0:19:25Z</time></trkpt>
<trkpt lat="46.18882400" lon="7.16812600"><ele></ele><time>2014-7-5T0:19:28Z</time></trkpt>
<trkpt lat="46.18882900" lon="7.16819600"><ele></ele><time>2014-7-5T0:19:31Z</time></trkpt>
<trkpt lat="46.18881200" lon="7.16823400"><ele></ele><time>2014-7-5T0:19:34Z</time></trkpt>
<trkpt lat="46.18878200" lon="7.16829100"><ele></ele><time>2014-7-5T0:19:37Z</time></trkpt>
<trkpt lat="46.18874300" lon="7.16834900"><ele></ele><time>2014-7-5T0:19:40Z</time></trkpt>
<trkpt lat="46.18870100" lon="7.16840100"><ele></ele><time>2014-7-5T0:19:43Z</time></trkpt>
<trkpt lat="46.18865500" lon="7.16844300"><ele></ele><time>2014-7-5T0:19:46Z</time></trkpt>
<trkpt lat="46.18860500" lon="7.16849100"><ele></ele><time>2014-7-5T0:19:49Z</time></trkpt>
<trkpt lat="46.18855200" lon="7.16855700"><ele></ele><time>2014-7-5T0:19:52Z</time></trkpt>
<trkpt lat="46.18850500" lon="7.16862900"><ele></ele><time>2014-7-5T0:19:55Z</time></trkpt>
<trkpt lat="46.18845900" lon="7.16870900"><ele></ele><time>2014-7-5T0:19:58Z</time></trkpt>
<trkpt lat="46.18841100" lon="7.16880000"><ele></ele><time>2014-7-5T0:20:1Z</time></trkpt>
<trkpt lat="46.18816400" lon="7.16900700"><ele></ele><time>2014-7-5T0:20:4Z</time></trkpt>
<trkpt lat="46.18810200" lon="7.16904200"><ele></ele><time>2014-7-5T0:20:7Z</time></trkpt>
<trkpt lat="46.18804300" lon="7.16910800"><ele></ele><time>2014-7-5T0:20:10Z</time></trkpt>
<trkpt lat="46.18800100" lon="7.16917500"><ele></ele><time>2014-7-5T0:20:13Z</time></trkpt>
<trkpt lat="46.18797700" lon="7.16925400"><ele></ele><time>2014-7-5T0:20:16Z</time></trkpt>
<trkpt lat="46.18796300" lon="7.16933800"><ele></ele><time>2014-7-5T0:20:19Z</time></trkpt>
<trkpt lat="46.18794900" lon="7.16943000"><ele></ele><time>2014-7-5T0:20:22Z</time></trkpt>
<trkpt lat="46.18793200" lon="7.16953300"><ele></ele><time>2014-7-5T0:20:25Z</time></trkpt>
<trkpt lat="46.18790700" lon="7.16964100"><ele></ele><time>2014-7-5T0:20:28Z</time></trkpt>
<trkpt lat="46.18787700" lon="7.16975700"><ele></ele><time>2014-7-5T0:20:31Z</time></trkpt>
<trkpt lat="46.18784800" lon="7.16989100"><ele></ele><time>2014-7-5T0:20:34Z</time></trkpt>
<trkpt lat="46.18782100" lon="7.17002000"><ele></ele><time>2014-7-5T0:20:37Z</time></trkpt>
<trkpt lat="46.18779100" lon="7.17013400"><ele></ele><time>2014-7-5T0:20:40Z</time></trkpt>
<trkpt lat="46.18774900" lon="7.17024400"><ele></ele><time>2014-7-5T0:20:43Z</time></trkpt>
<trkpt lat="46.18769900" lon="7.17035500"><ele></ele><time>2014-7-5T0:20:46Z</time></trkpt>
<trkpt lat="46.18765100" lon="7.17046900"><ele></ele><time>2014-7-5T0:20:49Z</time></trkpt>
<trkpt lat="46.18760900" lon="7.17059300"><ele></ele><time>2014-7-5T0:20:52Z</time></trkpt>
<trkpt lat="46.18757100" lon="7.17071700"><ele></ele><time>2014-7-5T0:20:55Z</time></trkpt>
<trkpt lat="46.18752700" lon="7.17083800"><ele></ele><time>2014-7-5T0:20:58Z</time></trkpt>
<trkpt lat="46.18747900" lon="7.17095800"><ele></ele><time>2014-7-5T0:21:1Z</time></trkpt>
<trkpt lat="46.18742400" lon="7.17108400"><ele></ele><time>2014-7-5T0:21:4Z</time></trkpt>
<trkpt lat="46.18735700" lon="7.17119800"><ele></ele><time>2014-7-5T0:21:7Z</time></trkpt>
<trkpt lat="46.18728400" lon="7.17131500"><ele></ele><time>2014-7-5T0:21:10Z</time></trkpt>
<trkpt lat="46.18720100" lon="7.17141300"><ele></ele><time>2014-7-5T0:21:13Z</time></trkpt>
<trkpt lat="46.18711700" lon="7.17149600"><ele></ele><time>2014-7-5T0:21:16Z</time></trkpt>
<trkpt lat="46.18703500" lon="7.17157200"><ele></ele><time>2014-7-5T0:21:19Z</time></trkpt>
<trkpt lat="46.18695500" lon="7.17164300"><ele></ele><time>2014-7-5T0:21:22Z</time></trkpt>
<trkpt lat="46.18687000" lon="7.17171300"><ele></ele><time>2014-7-5T0:21:25Z</time></trkpt>
<trkpt lat="46.18678300" lon="7.17178300"><ele></ele><time>2014-7-5T0:21:28Z</time></trkpt>
<trkpt lat="46.18671300" lon="7.17186000"><ele></ele><time>2014-7-5T0:21:31Z</time></trkpt>
<trkpt lat="46.18666400" lon="7.17194300"><ele></ele><time>2014-7-5T0:21:34Z</time></trkpt>
<trkpt lat="46.18662400" lon="7.17202500"><ele></ele><time>2014-7-5T0:21:37Z</time></trkpt>
<trkpt lat="46.18658800" lon="7.17211900"><ele></ele><time>2014-7-5T0:21:40Z</time></trkpt>
<trkpt lat="46.18655100" lon="7.17222000"><ele></ele><time>2014-7-5T0:21:43Z</time></trkpt>
<trkpt lat="46.18652200" lon="7.17235600"><ele></ele><time>2014-7-5T0:21:46Z</time></trkpt>
<trkpt lat="46.18649500" lon="7.17249400"><ele></ele><time>2014-7-5T0:21:49Z</time></trkpt>
<trkpt lat="46.18646800" lon="7.17262900"><ele></ele><time>2014-7-5T0:21:52Z</time></trkpt>
<trkpt lat="46.18645000" lon="7.17276000"><ele></ele><time>2014-7-5T0:21:55Z</time></trkpt>
<trkpt lat="46.18643100" lon="7.17288400"><ele></ele><time>2014-7-5T0:21:58Z</time></trkpt>
<trkpt lat="46.18639900" lon="7.17300200"><ele></ele><time>2014-7-5T0:22:1Z</time></trkpt>
<trkpt lat="46.18635100" lon="7.17310800"><ele></ele><time>2014-7-5T0:22:4Z</time></trkpt>
<trkpt lat="46.18629800" lon="7.17321800"><ele></ele><time>2014-7-5T0:22:7Z</time></trkpt>
<trkpt lat="46.18624100" lon="7.17333100"><ele></ele><time>2014-7-5T0:22:10Z</time></trkpt>
<trkpt lat="46.18618400" lon="7.17344300"><ele></ele><time>2014-7-5T0:22:13Z</time></trkpt>
<trkpt lat="46.18612400" lon="7.17354800"><ele></ele><time>2014-7-5T0:22:16Z</time></trkpt>
<trkpt lat="46.18605900" lon="7.17363200"><ele></ele><time>2014-7-5T0:22:19Z</time></trkpt>
<trkpt lat="46.18599300" lon="7.17370200"><ele></ele><time>2014-7-5T0:22:22Z</time></trkpt>
<trkpt lat="46.18591600" lon="7.17375300"><ele></ele><time>2014-7-5T0:22:25Z</time></trkpt>
<trkpt lat="46.18583200" lon="7.17379800"><ele></ele><time>2014-7-5T0:22:28Z</time></trkpt>
<trkpt lat="46.18574000" lon="7.17383000"><ele></ele><time>2014-7-5T0:22:31Z</time></trkpt>
<trkpt lat="46.18564200" lon="7.17385300"><ele></ele><time>2014-7-5T0:22:34Z</time></trkpt>
<trkpt lat="46.18554400" lon="7.17387700"><ele></ele><time>2014-7-5T0:22:37Z</time></trkpt>
<trkpt lat="46.18544500" lon="7.17389900"><ele></ele><time>2014-7-5T0:22:40Z</time></trkpt>
<trkpt lat="46.18534700" lon="7.17392300"><ele></ele><time>2014-7-5T0:22:43Z</time></trkpt>
<trkpt lat="46.18525100" lon="7.17395600"><ele></ele><time>2014-7-5T0:22:46Z</time></trkpt>
<trkpt lat="46.18515700" lon="7.17400400"><ele></ele><time>2014-7-5T0:22:49Z</time></trkpt>
<trkpt lat="46.18506500" lon="7.17406500"><ele></ele><time>2014-7-5T0:22:52Z</time></trkpt>
<trkpt lat="46.18497100" lon="7.17412900"><ele></ele><time>2014-7-5T0:22:55Z</time></trkpt>
<trkpt lat="46.18487400" lon="7.17420100"><ele></ele><time>2014-7-5T0:22:58Z</time></trkpt>
<trkpt lat="46.18477800" lon="7.17428800"><ele></ele><time>2014-7-5T0:23:1Z</time></trkpt>
<trkpt lat="46.18468600" lon="7.17438000"><ele></ele><time>2014-7-5T0:23:4Z</time></trkpt>
<trkpt lat="46.18460100" lon="7.17447000"><ele></ele><time>2014-7-5T0:23:7Z</time></trkpt>
<trkpt lat="46.18452100" lon="7.17457200"><ele></ele><time>2014-7-5T0:23:10Z</time></trkpt>
<trkpt lat="46.18444700" lon="7.17468500"><ele></ele><time>2014-7-5T0:23:13Z</time></trkpt>
<trkpt lat="46.18438100" lon="7.17481500"><ele></ele><time>2014-7-5T0:23:16Z</time></trkpt>
<trkpt lat="46.18432400" lon="7.17495600"><ele></ele><time>2014-7-5T0:23:19Z</time></trkpt>
<trkpt lat="46.18429500" lon="7.17509400"><ele></ele><time>2014-7-5T0:23:22Z</time></trkpt>
<trkpt lat="46.18426300" lon="7.17520200"><ele></ele><time>2014-7-5T0:23:25Z</time></trkpt>
<trkpt lat="46.18421600" lon="7.17528900"><ele></ele><time>2014-7-5T0:23:28Z</time></trkpt>
<trkpt lat="46.18413300" lon="7.17531900"><ele></ele><time>2014-7-5T0:23:31Z</time></trkpt>
<trkpt lat="46.18404200" lon="7.17531200"><ele></ele><time>2014-7-5T0:23:34Z</time></trkpt>
<trkpt lat="46.18395600" lon="7.17532700"><ele></ele><time>2014-7-5T0:23:37Z</time></trkpt>
<trkpt lat="46.18387800" lon="7.17534800"><ele></ele><time>2014-7-5T0:23:40Z</time></trkpt>
<trkpt lat="46.18380000" lon="7.17536500"><ele></ele><time>2014-7-5T0:23:43Z</time></trkpt>
<trkpt lat="46.18373700" lon="7.17538300"><ele></ele><time>2014-7-5T0:23:46Z</time></trkpt>
<trkpt lat="46.18367900" lon="7.17540600"><ele></ele><time>2014-7-5T0:23:49Z</time></trkpt>
<trkpt lat="46.18363400" lon="7.17543000"><ele></ele><time>2014-7-5T0:23:52Z</time></trkpt>
<trkpt lat="46.18361400" lon="7.17546500"><ele></ele><time>2014-7-5T0:23:55Z</time></trkpt>
<trkpt lat="46.18361800" lon="7.17549500"><ele></ele><time>2014-7-5T0:23:58Z</time></trkpt>
<trkpt lat="46.18364600" lon="7.17553500"><ele></ele><time>2014-7-5T0:24:1Z</time></trkpt>
<trkpt lat="46.18368500" lon="7.17554800"><ele></ele><time>2014-7-5T0:24:4Z</time></trkpt>
<trkpt lat="46.18372300" lon="7.17553900"><ele></ele><time>2014-7-5T0:24:7Z</time></trkpt>
<trkpt lat="46.18375800" lon="7.17551900"><ele></ele><time>2014-7-5T0:24:10Z</time></trkpt>
<trkpt lat="46.18379400" lon="7.17549500"><ele></ele><time>2014-7-5T0:24:13Z</time></trkpt>
<trkpt lat="46.18383600" lon="7.17547200"><ele></ele><time>2014-7-5T0:24:16Z</time></trkpt>
<trkpt lat="46.18388500" lon="7.17546000"><ele></ele><time>2014-7-5T0:24:19Z</time></trkpt>
<trkpt lat="46.18394600" lon="7.17544600"><ele></ele><time>2014-7-5T0:24:22Z</time></trkpt>
<trkpt lat="46.18403200" lon="7.17543100"><ele></ele><time>2014-7-5T0:24:25Z</time></trkpt>
<trkpt lat="46.18412200" lon="7.17540800"><ele></ele><time>2014-7-5T0:24:28Z</time></trkpt>
<trkpt lat="46.18421300" lon="7.17538200"><ele></ele><time>2014-7-5T0:24:31Z</time></trkpt>
<trkpt lat="46.18429800" lon="7.17535000"><ele></ele><time>2014-7-5T0:24:34Z</time></trkpt>
<trkpt lat="46.18436800" lon="7.17530900"><ele></ele><time>2014-7-5T0:24:37Z</time></trkpt>
<trkpt lat="46.18442700" lon="7.17524700"><ele></ele><time>2014-7-5T0:24:40Z</time></trkpt>
<trkpt lat="46.18447400" lon="7.17516700"><ele></ele><time>2014-7-5T0:24:43Z</time></trkpt>
<trkpt lat="46.18451900" lon="7.17509200"><ele></ele><time>2014-7-5T0:24:46Z</time></trkpt>
<trkpt lat="46.18456600" lon="7.17501000"><ele></ele><time>2014-7-5T0:24:49Z</time></trkpt>
<trkpt lat="46.18462000" lon="7.17492800"><ele></ele><time>2014-7-5T0:24:52Z</time></trkpt>
<trkpt lat="46.18468200" lon="7.17484800"><ele></ele><time>2014-7-5T0:24:55Z</time></trkpt>
<trkpt lat="46.18475400" lon="7.17477300"><ele></ele><time>2014-7-5T0:24:58Z</time></trkpt>
<trkpt lat="46.18484200" lon="7.17472800"><ele></ele><time>2014-7-5T0:25:1Z</time></trkpt>
<trkpt lat="46.18493400" lon="7.17468900"><ele></ele><time>2014-7-5T0:25:4Z</time></trkpt>
<trkpt lat="46.18503500" lon="7.17465500"><ele></ele><time>2014-7-5T0:25:7Z</time></trkpt>
<trkpt lat="46.18514000" lon="7.17461800"><ele></ele><time>2014-7-5T0:25:10Z</time></trkpt>
<trkpt lat="46.18524400" lon="7.17458100"><ele></ele><time>2014-7-5T0:25:13Z</time></trkpt>
<trkpt lat="46.18535800" lon="7.17454400"><ele></ele><time>2014-7-5T0:25:16Z</time></trkpt>
<trkpt lat="46.18547600" lon="7.17450900"><ele></ele><time>2014-7-5T0:25:19Z</time></trkpt>
<trkpt lat="46.18558900" lon="7.17448800"><ele></ele><time>2014-7-5T0:25:22Z</time></trkpt>
<trkpt lat="46.18569400" lon="7.17447000"><ele></ele><time>2014-7-5T0:25:25Z</time></trkpt>
<trkpt lat="46.18579900" lon="7.17444500"><ele></ele><time>2014-7-5T0:25:28Z</time></trkpt>
<trkpt lat="46.18590500" lon="7.17441300"><ele></ele><time>2014-7-5T0:25:31Z</time></trkpt>
<trkpt lat="46.18601200" lon="7.17438100"><ele></ele><time>2014-7-5T0:25:34Z</time></trkpt>
<trkpt lat="46.18612200" lon="7.17437000"><ele></ele><time>2014-7-5T0:25:37Z</time></trkpt>
<trkpt lat="46.18626000" lon="7.17441000"><ele></ele><time>2014-7-5T0:25:40Z</time></trkpt>
<trkpt lat="46.18639000" lon="7.17442200"><ele></ele><time>2014-7-5T0:25:43Z</time></trkpt>
<trkpt lat="46.18651600" lon="7.17443000"><ele></ele><time>2014-7-5T0:25:46Z</time></trkpt>
<trkpt lat="46.18662000" lon="7.17443200"><ele></ele><time>2014-7-5T0:25:49Z</time></trkpt>
<trkpt lat="46.18672400" lon="7.17441900"><ele></ele><time>2014-7-5T0:25:52Z</time></trkpt>
<trkpt lat="46.18683000" lon="7.17440500"><ele></ele><time>2014-7-5T0:25:55Z</time></trkpt>
<trkpt lat="46.18692400" lon="7.17438000"><ele></ele><time>2014-7-5T0:25:58Z</time></trkpt>
<trkpt lat="46.18700500" lon="7.17434900"><ele></ele><time>2014-7-5T0:26:1Z</time></trkpt>
<trkpt lat="46.18708500" lon="7.17430100"><ele></ele><time>2014-7-5T0:26:4Z</time></trkpt>
<trkpt lat="46.18716900" lon="7.17423300"><ele></ele><time>2014-7-5T0:26:7Z</time></trkpt>
<trkpt lat="46.18724600" lon="7.17415000"><ele></ele><time>2014-7-5T0:26:10Z</time></trkpt>
<trkpt lat="46.18732100" lon="7.17405500"><ele></ele><time>2014-7-5T0:26:13Z</time></trkpt>
<trkpt lat="46.18739000" lon="7.17395600"><ele></ele><time>2014-7-5T0:26:16Z</time></trkpt>
<trkpt lat="46.18746000" lon="7.17386200"><ele></ele><time>2014-7-5T0:26:19Z</time></trkpt>
<trkpt lat="46.18752700" lon="7.17376100"><ele></ele><time>2014-7-5T0:26:22Z</time></trkpt>
<trkpt lat="46.18758900" lon="7.17365400"><ele></ele><time>2014-7-5T0:26:25Z</time></trkpt>
<trkpt lat="46.18765000" lon="7.17354600"><ele></ele><time>2014-7-5T0:26:28Z</time></trkpt>
<trkpt lat="46.18771800" lon="7.17344600"><ele></ele><time>2014-7-5T0:26:31Z</time></trkpt>
<trkpt lat="46.18779200" lon="7.17336000"><ele></ele><time>2014-7-5T0:26:34Z</time></trkpt>
<trkpt lat="46.18787200" lon="7.17327700"><ele></ele><time>2014-7-5T0:26:37Z</time></trkpt>
<trkpt lat="46.18796500" lon="7.17319700"><ele></ele><time>2014-7-5T0:26:40Z</time></trkpt>
<trkpt lat="46.18806500" lon="7.17312700"><ele></ele><time>2014-7-5T0:26:43Z</time></trkpt>
<trkpt lat="46.18816600" lon="7.17308200"><ele></ele><time>2014-7-5T0:26:46Z</time></trkpt>
<trkpt lat="46.18827400" lon="7.17304500"><ele></ele><time>2014-7-5T0:26:49Z</time></trkpt>
<trkpt lat="46.18838100" lon="7.17301800"><ele></ele><time>2014-7-5T0:26:52Z</time></trkpt>
<trkpt lat="46.18848300" lon="7.17302100"><ele></ele><time>2014-7-5T0:26:55Z</time></trkpt>
<trkpt lat="46.18857200" lon="7.17307900"><ele></ele><time>2014-7-5T0:26:58Z</time></trkpt>
<trkpt lat="46.18866100" lon="7.17315900"><ele></ele><time>2014-7-5T0:27:1Z</time></trkpt>
<trkpt lat="46.18874900" lon="7.17324000"><ele></ele><time>2014-7-5T0:27:4Z</time></trkpt>
<trkpt lat="46.18882100" lon="7.17330600"><ele></ele><time>2014-7-5T0:27:7Z</time></trkpt>
<trkpt lat="46.18888600" lon="7.17335400"><ele></ele><time>2014-7-5T0:27:10Z</time></trkpt>
<trkpt lat="46.18894500" lon="7.17338300"><ele></ele><time>2014-7-5T0:27:13Z</time></trkpt>
<trkpt lat="46.18899300" lon="7.17337100"><ele></ele><time>2014-7-5T0:27:16Z</time></trkpt>
<trkpt lat="46.18904900" lon="7.17332500"><ele></ele><time>2014-7-5T0:27:19Z</time></trkpt>
<trkpt lat="46.18910200" lon="7.17325600"><ele></ele><time>2014-7-5T0:27:22Z</time></trkpt>
<trkpt lat="46.18914600" lon="7.17316300"><ele></ele><time>2014-7-5T0:27:25Z</time></trkpt>
<trkpt lat="46.18917300" lon="7.17305300"><ele></ele><time>2014-7-5T0:27:28Z</time></trkpt>
<trkpt lat="46.18919100" lon="7.17293600"><ele></ele><time>2014-7-5T0:27:31Z</time></trkpt>
<trkpt lat="46.18920500" lon="7.17281800"><ele></ele><time>2014-7-5T0:27:34Z</time></trkpt>
<trkpt lat="46.18923300" lon="7.17270400"><ele></ele><time>2014-7-5T0:27:37Z</time></trkpt>
<trkpt lat="46.18927400" lon="7.17259600"><ele></ele><time>2014-7-5T0:27:40Z</time></trkpt>
<trkpt lat="46.18934600" lon="7.17254700"><ele></ele><time>2014-7-5T0:27:43Z</time></trkpt>
<trkpt lat="46.18941300" lon="7.17253100"><ele></ele><time>2014-7-5T0:27:46Z</time></trkpt>
<trkpt lat="46.18951000" lon="7.17254100"><ele></ele><time>2014-7-5T0:27:49Z</time></trkpt>
<trkpt lat="46.18957400" lon="7.17259400"><ele></ele><time>2014-7-5T0:27:52Z</time></trkpt>
<trkpt lat="46.18965300" lon="7.17268800"><ele></ele><time>2014-7-5T0:27:55Z</time></trkpt>
<trkpt lat="46.18972000" lon="7.17278400"><ele></ele><time>2014-7-5T0:27:58Z</time></trkpt>
<trkpt lat="46.18978300" lon="7.17287900"><ele></ele><time>2014-7-5T0:28:1Z</time></trkpt>
<trkpt lat="46.18985200" lon="7.17296000"><ele></ele><time>2014-7-5T0:28:4Z</time></trkpt>
<trkpt lat="46.18992500" lon="7.17302600"><ele></ele><time>2014-7-5T0:28:7Z</time></trkpt>
<trkpt lat="46.18999500" lon="7.17310200"><ele></ele><time>2014-7-5T0:28:10Z</time></trkpt>
<trkpt lat="46.19006700" lon="7.17318100"><ele></ele><time>2014-7-5T0:28:13Z</time></trkpt>
<trkpt lat="46.19014400" lon="7.17324500"><ele></ele><time>2014-7-5T0:28:16Z</time></trkpt>
<trkpt lat="46.19022700" lon="7.17328900"><ele></ele><time>2014-7-5T0:28:19Z</time></trkpt>
<trkpt lat="46.19030700" lon="7.17329000"><ele></ele><time>2014-7-5T0:28:22Z</time></trkpt>
<trkpt lat="46.19039800" lon="7.17327800"><ele></ele><time>2014-7-5T0:28:25Z</time></trkpt>
<trkpt lat="46.19048100" lon="7.17323100"><ele></ele><time>2014-7-5T0:28:28Z</time></trkpt>
<trkpt lat="46.19055800" lon="7.17316600"><ele></ele><time>2014-7-5T0:28:31Z</time></trkpt>
<trkpt lat="46.19062900" lon="7.17309100"><ele></ele><time>2014-7-5T0:28:34Z</time></trkpt>
<trkpt lat="46.19068900" lon="7.17300300"><ele></ele><time>2014-7-5T0:28:37Z</time></trkpt>
<trkpt lat="46.19075500" lon="7.17291800"><ele></ele><time>2014-7-5T0:28:40Z</time></trkpt>
<trkpt lat="46.19082300" lon="7.17283500"><ele></ele><time>2014-7-5T0:28:43Z</time></trkpt>
<trkpt lat="46.19088600" lon="7.17276200"><ele></ele><time>2014-7-5T0:28:46Z</time></trkpt>
<trkpt lat="46.19094500" lon="7.17268600"><ele></ele><time>2014-7-5T0:28:49Z</time></trkpt>
<trkpt lat="46.19099500" lon="7.17261000"><ele></ele><time>2014-7-5T0:28:52Z</time></trkpt>
<trkpt lat="46.19103900" lon="7.17253500"><ele></ele><time>2014-7-5T0:28:55Z</time></trkpt>
<trkpt lat="46.19107700" lon="7.17245600"><ele></ele><time>2014-7-5T0:28:58Z</time></trkpt>
<trkpt lat="46.19111700" lon="7.17237900"><ele></ele><time>2014-7-5T0:29:1Z</time></trkpt>
<trkpt lat="46.19116300" lon="7.17231900"><ele></ele><time>2014-7-5T0:29:4Z</time></trkpt>
<trkpt lat="46.19121600" lon="7.17228700"><ele></ele><time>2014-7-5T0:29:7Z</time></trkpt>
<trkpt lat="46.19127000" lon="7.17229400"><ele></ele><time>2014-7-5T0:29:10Z</time></trkpt>
<trkpt lat="46.19131200" lon="7.17233300"><ele></ele><time>2014-7-5T0:29:13Z</time></trkpt>
<trkpt lat="46.19134600" lon="7.17239300"><ele></ele><time>2014-7-5T0:29:16Z</time></trkpt>
<trkpt lat="46.19137900" lon="7.17245900"><ele></ele><time>2014-7-5T0:29:19Z</time></trkpt>
<trkpt lat="46.19141800" lon="7.17251900"><ele></ele><time>2014-7-5T0:29:22Z</time></trkpt>
<trkpt lat="46.19146400" lon="7.17256700"><ele></ele><time>2014-7-5T0:29:25Z</time></trkpt>
<trkpt lat="46.19151700" lon="7.17260400"><ele></ele><time>2014-7-5T0:29:28Z</time></trkpt>
<trkpt lat="46.19157100" lon="7.17263200"><ele></ele><time>2014-7-5T0:29:31Z</time></trkpt>
<trkpt lat="46.19162800" lon="7.17265700"><ele></ele><time>2014-7-5T0:29:34Z</time></trkpt>
<trkpt lat="46.19168600" lon="7.17267800"><ele></ele><time>2014-7-5T0:29:37Z</time></trkpt>
<trkpt lat="46.19174800" lon="7.17269600"><ele></ele><time>2014-7-5T0:29:40Z</time></trkpt>
<trkpt lat="46.19180300" lon="7.17271600"><ele></ele><time>2014-7-5T0:29:43Z</time></trkpt>
<trkpt lat="46.19185800" lon="7.17274500"><ele></ele><time>2014-7-5T0:29:46Z</time></trkpt>
<trkpt lat="46.19191900" lon="7.17278100"><ele></ele><time>2014-7-5T0:29:49Z</time></trkpt>
<trkpt lat="46.19197200" lon="7.17281900"><ele></ele><time>2014-7-5T0:29:52Z</time></trkpt>
<trkpt lat="46.19202600" lon="7.17286100"><ele></ele><time>2014-7-5T0:29:55Z</time></trkpt>
<trkpt lat="46.19208100" lon="7.17290700"><ele></ele><time>2014-7-5T0:29:58Z</time></trkpt>
<trkpt lat="46.19213800" lon="7.17295600"><ele></ele><time>2014-7-5T0:30:1Z</time></trkpt>
<trkpt lat="46.19219300" lon="7.17301400"><ele></ele><time>2014-7-5T0:30:4Z</time></trkpt>
<trkpt lat="46.19223000" lon="7.17308100"><ele></ele><time>2014-7-5T0:30:7Z</time></trkpt>
<trkpt lat="46.19224700" lon="7.17314600"><ele></ele><time>2014-7-5T0:30:10Z</time></trkpt>
<trkpt lat="46.19224300" lon="7.17320500"><ele></ele><time>2014-7-5T0:30:13Z</time></trkpt>
<trkpt lat="46.19222500" lon="7.17326100"><ele></ele><time>2014-7-5T0:30:16Z</time></trkpt>
<trkpt lat="46.19220600" lon="7.17331000"><ele></ele><time>2014-7-5T0:30:19Z</time></trkpt>
<trkpt lat="46.19217700" lon="7.17335500"><ele></ele><time>2014-7-5T0:30:22Z</time></trkpt>
<trkpt lat="46.19214800" lon="7.17340300"><ele></ele><time>2014-7-5T0:30:25Z</time></trkpt>
<trkpt lat="46.19211600" lon="7.17344700"><ele></ele><time>2014-7-5T0:30:28Z</time></trkpt>
<trkpt lat="46.19208700" lon="7.17348500"><ele></ele><time>2014-7-5T0:30:31Z</time></trkpt>
<trkpt lat="46.19205500" lon="7.17351200"><ele></ele><time>2014-7-5T0:30:34Z</time></trkpt>
<trkpt lat="46.19202600" lon="7.17353100"><ele></ele><time>2014-7-5T0:30:37Z</time></trkpt>
<trkpt lat="46.19199800" lon="7.17354400"><ele></ele><time>2014-7-5T0:30:40Z</time></trkpt>
<trkpt lat="46.19196500" lon="7.17355000"><ele></ele><time>2014-7-5T0:30:43Z</time></trkpt>
<trkpt lat="46.19193900" lon="7.17355000"><ele></ele><time>2014-7-5T0:30:46Z</time></trkpt>
<trkpt lat="46.19190100" lon="7.17354900"><ele></ele><time>2014-7-5T0:30:49Z</time></trkpt>
<trkpt lat="46.19187500" lon="7.17354800"><ele></ele><time>2014-7-5T0:30:52Z</time></trkpt>
<trkpt lat="46.19183400" lon="7.17355200"><ele></ele><time>2014-7-5T0:30:55Z</time></trkpt>
<trkpt lat="46.19180400" lon="7.17355700"><ele></ele><time>2014-7-5T0:30:58Z</time></trkpt>
<trkpt lat="46.19178000" lon="7.17355800"><ele></ele><time>2014-7-5T0:31:1Z</time></trkpt>
<trkpt lat="46.19175600" lon="7.17355500"><ele></ele><time>2014-7-5T0:31:4Z</time></trkpt>
<trkpt lat="46.19173400" lon="7.17355200"><ele></ele><time>2014-7-5T0:31:7Z</time></trkpt>
<trkpt lat="46.19171100" lon="7.17355500"><ele></ele><time>2014-7-5T0:31:10Z</time></trkpt>
<trkpt lat="46.19168200" lon="7.17356000"><ele></ele><time>2014-7-5T0:31:13Z</time></trkpt>
<trkpt lat="46.19165400" lon="7.17356500"><ele></ele><time>2014-7-5T0:31:16Z</time></trkpt>
<trkpt lat="46.19162900" lon="7.17357300"><ele></ele><time>2014-7-5T0:31:19Z</time></trkpt>
<trkpt lat="46.19161300" lon="7.17358000"><ele></ele><time>2014-7-5T0:31:22Z</time></trkpt>
<trkpt lat="46.19159900" lon="7.17358900"><ele></ele><time>2014-7-5T0:31:25Z</time></trkpt>
<trkpt lat="46.19157800" lon="7.17360500"><ele></ele><time>2014-7-5T0:31:28Z</time></trkpt>
<trkpt lat="46.19156300" lon="7.17362200"><ele></ele><time>2014-7-5T0:31:31Z</time></trkpt>
<trkpt lat="46.19153800" lon="7.17364400"><ele></ele><time>2014-7-5T0:31:34Z</time></trkpt>
<trkpt lat="46.19151600" lon="7.17366900"><ele></ele><time>2014-7-5T0:31:37Z</time></trkpt>
<trkpt lat="46.19149700" lon="7.17369600"><ele></ele><time>2014-7-5T0:31:40Z</time></trkpt>
<trkpt lat="46.19147900" lon="7.17372600"><ele></ele><time>2014-7-5T0:31:43Z</time></trkpt>
<trkpt lat="46.19145900" lon="7.17375600"><ele></ele><time>2014-7-5T0:31:46Z</time></trkpt>
<trkpt lat="46.19143900" lon="7.17379000"><ele></ele><time>2014-7-5T0:31:49Z</time></trkpt>
<trkpt lat="46.19142300" lon="7.17382500"><ele></ele><time>2014-7-5T0:31:52Z</time></trkpt>
<trkpt lat="46.19140900" lon="7.17386200"><ele></ele><time>2014-7-5T0:31:55Z</time></trkpt>
<trkpt lat="46.19139400" lon="7.17390200"><ele></ele><time>2014-7-5T0:31:58Z</time></trkpt>
<trkpt lat="46.19138000" lon="7.17394100"><ele></ele><time>2014-7-5T0:32:1Z</time></trkpt>
<trkpt lat="46.19136700" lon="7.17397900"><ele></ele><time>2014-7-5T0:32:4Z</time></trkpt>
<trkpt lat="46.19135500" lon="7.17401700"><ele></ele><time>2014-7-5T0:32:7Z</time></trkpt>
<trkpt lat="46.19134400" lon="7.17405700"><ele></ele><time>2014-7-5T0:32:10Z</time></trkpt>
<trkpt lat="46.19133200" lon="7.17409700"><ele></ele><time>2014-7-5T0:32:13Z</time></trkpt>
<trkpt lat="46.19131700" lon="7.17413800"><ele></ele><time>2014-7-5T0:32:16Z</time></trkpt>
<trkpt lat="46.19130100" lon="7.17418300"><ele></ele><time>2014-7-5T0:32:19Z</time></trkpt>
<trkpt lat="46.19128900" lon="7.17422600"><ele></ele><time>2014-7-5T0:32:22Z</time></trkpt>
<trkpt lat="46.19127000" lon="7.17426700"><ele></ele><time>2014-7-5T0:32:25Z</time></trkpt>
<trkpt lat="46.19124700" lon="7.17430800"><ele></ele><time>2014-7-5T0:32:28Z</time></trkpt>
<trkpt lat="46.19122200" lon="7.17434900"><ele></ele><time>2014-7-5T0:32:31Z</time></trkpt>
<trkpt lat="46.19119500" lon="7.17438700"><ele></ele><time>2014-7-5T0:32:34Z</time></trkpt>
<trkpt lat="46.19116700" lon="7.17442100"><ele></ele><time>2014-7-5T0:32:37Z</time></trkpt>
<trkpt lat="46.19114000" lon="7.17445300"><ele></ele><time>2014-7-5T0:32:40Z</time></trkpt>
<trkpt lat="46.19111100" lon="7.17448500"><ele></ele><time>2014-7-5T0:32:43Z</time></trkpt>
<trkpt lat="46.19108300" lon="7.17451500"><ele></ele><time>2014-7-5T0:32:46Z</time></trkpt>
<trkpt lat="46.19105500" lon="7.17454200"><ele></ele><time>2014-7-5T0:32:49Z</time></trkpt>
<trkpt lat="46.19102800" lon="7.17456700"><ele></ele><time>2014-7-5T0:32:52Z</time></trkpt>
<trkpt lat="46.19100100" lon="7.17458900"><ele></ele><time>2014-7-5T0:32:55Z</time></trkpt>
<trkpt lat="46.19097500" lon="7.17460800"><ele></ele><time>2014-7-5T0:32:58Z</time></trkpt>
<trkpt lat="46.19094900" lon="7.17463400"><ele></ele><time>2014-7-5T0:33:1Z</time></trkpt>
<trkpt lat="46.19092200" lon="7.17466400"><ele></ele><time>2014-7-5T0:33:4Z</time></trkpt>
<trkpt lat="46.19089500" lon="7.17469100"><ele></ele><time>2014-7-5T0:33:7Z</time></trkpt>
<trkpt lat="46.19086600" lon="7.17471800"><ele></ele><time>2014-7-5T0:33:10Z</time></trkpt>
<trkpt lat="46.19083600" lon="7.17474500"><ele></ele><time>2014-7-5T0:33:13Z</time></trkpt>
<trkpt lat="46.19080100" lon="7.17477000"><ele></ele><time>2014-7-5T0:33:16Z</time></trkpt>
<trkpt lat="46.19076300" lon="7.17478900"><ele></ele><time>2014-7-5T0:33:19Z</time></trkpt>
<trkpt lat="46.19072300" lon="7.17480000"><ele></ele><time>2014-7-5T0:33:22Z</time></trkpt>
<trkpt lat="46.19068500" lon="7.17480500"><ele></ele><time>2014-7-5T0:33:25Z</time></trkpt>
<trkpt lat="46.19064600" lon="7.17480600"><ele></ele><time>2014-7-5T0:33:28Z</time></trkpt>
<trkpt lat="46.19060600" lon="7.17480700"><ele></ele><time>2014-7-5T0:33:31Z</time></trkpt>
<trkpt lat="46.19056400" lon="7.17480900"><ele></ele><time>2014-7-5T0:33:34Z</time></trkpt>
<trkpt lat="46.19051800" lon="7.17480800"><ele></ele><time>2014-7-5T0:33:37Z</time></trkpt>
<trkpt lat="46.19047000" lon="7.17480900"><ele></ele><time>2014-7-5T0:33:40Z</time></trkpt>
<trkpt lat="46.19041800" lon="7.17481200"><ele></ele><time>2014-7-5T0:33:43Z</time></trkpt>
<trkpt lat="46.19036400" lon="7.17481300"><ele></ele><time>2014-7-5T0:33:46Z</time></trkpt>
<trkpt lat="46.19030700" lon="7.17481500"><ele></ele><time>2014-7-5T0:33:49Z</time></trkpt>
<trkpt lat="46.19024800" lon="7.17481800"><ele></ele><time>2014-7-5T0:33:52Z</time></trkpt>
<trkpt lat="46.19018600" lon="7.17482800"><ele></ele><time>2014-7-5T0:33:55Z</time></trkpt>
<trkpt lat="46.19012500" lon="7.17485400"><ele></ele><time>2014-7-5T0:33:58Z</time></trkpt>
<trkpt lat="46.19006900" lon="7.17490400"><ele></ele><time>2014-7-5T0:34:1Z</time></trkpt>
<trkpt lat="46.19001300" lon="7.17499800"><ele></ele><time>2014-7-5T0:34:4Z</time></trkpt>
<trkpt lat="46.18996700" lon="7.17509200"><ele></ele><time>2014-7-5T0:34:7Z</time></trkpt>
<trkpt lat="46.18992300" lon="7.17518700"><ele></ele><time>2014-7-5T0:34:10Z</time></trkpt>
<trkpt lat="46.18988000" lon="7.17528200"><ele></ele><time>2014-7-5T0:34:13Z</time></trkpt>
<trkpt lat="46.18983900" lon="7.17538200"><ele></ele><time>2014-7-5T0:34:16Z</time></trkpt>
<trkpt lat="46.18979900" lon="7.17548900"><ele></ele><time>2014-7-5T0:34:19Z</time></trkpt>
<trkpt lat="46.18976000" lon="7.17559700"><ele></ele><time>2014-7-5T0:34:22Z</time></trkpt>
<trkpt lat="46.18972400" lon="7.17571100"><ele></ele><time>2014-7-5T0:34:25Z</time></trkpt>
<trkpt lat="46.18968800" lon="7.17583200"><ele></ele><time>2014-7-5T0:34:28Z</time></trkpt>
<trkpt lat="46.18965200" lon="7.17595900"><ele></ele><time>2014-7-5T0:34:31Z</time></trkpt>
<trkpt lat="46.18962300" lon="7.17609000"><ele></ele><time>2014-7-5T0:34:34Z</time></trkpt>
<trkpt lat="46.18961500" lon="7.17622700"><ele></ele><time>2014-7-5T0:34:37Z</time></trkpt>
<trkpt lat="46.18962800" lon="7.17636700"><ele></ele><time>2014-7-5T0:34:40Z</time></trkpt>
<trkpt lat="46.18966000" lon="7.17650300"><ele></ele><time>2014-7-5T0:34:43Z</time></trkpt>
<trkpt lat="46.18970700" lon="7.17663300"><ele></ele><time>2014-7-5T0:34:46Z</time></trkpt>
<trkpt lat="46.18975400" lon="7.17676200"><ele></ele><time>2014-7-5T0:34:49Z</time></trkpt>
<trkpt lat="46.18979000" lon="7.17689600"><ele></ele><time>2014-7-5T0:34:52Z</time></trkpt>
<trkpt lat="46.18980000" lon="7.17703200"><ele></ele><time>2014-7-5T0:34:55Z</time></trkpt>
<trkpt lat="46.18978900" lon="7.17716400"><ele></ele><time>2014-7-5T0:34:58Z</time></trkpt>
<trkpt lat="46.18976500" lon="7.17729000"><ele></ele><time>2014-7-5T0:35:1Z</time></trkpt>
<trkpt lat="46.18973400" lon="7.17740900"><ele></ele><time>2014-7-5T0:35:4Z</time></trkpt>
<trkpt lat="46.18969600" lon="7.17752300"><ele></ele><time>2014-7-5T0:35:7Z</time></trkpt>
<trkpt lat="46.18965100" lon="7.17762600"><ele></ele><time>2014-7-5T0:35:10Z</time></trkpt>
<trkpt lat="46.18961000" lon="7.17772600"><ele></ele><time>2014-7-5T0:35:13Z</time></trkpt>
<trkpt lat="46.18958400" lon="7.17783000"><ele></ele><time>2014-7-5T0:35:16Z</time></trkpt>
<trkpt lat="46.18957200" lon="7.17793700"><ele></ele><time>2014-7-5T0:35:19Z</time></trkpt>
<trkpt lat="46.18957500" lon="7.17804600"><ele></ele><time>2014-7-5T0:35:22Z</time></trkpt>
<trkpt lat="46.18958000" lon="7.17815500"><ele></ele><time>2014-7-5T0:35:25Z</time></trkpt>
<trkpt lat="46.18959300" lon="7.17826300"><ele></ele><time>2014-7-5T0:35:28Z</time></trkpt>
<trkpt lat="46.18961300" lon="7.17836800"><ele></ele><time>2014-7-5T0:35:31Z</time></trkpt>
<trkpt lat="46.18964100" lon="7.17846700"><ele></ele><time>2014-7-5T0:35:34Z</time></trkpt>
<trkpt lat="46.18967100" lon="7.17856600"><ele></ele><time>2014-7-5T0:35:37Z</time></trkpt>
<trkpt lat="46.18969200" lon="7.17866800"><ele></ele><time>2014-7-5T0:35:40Z</time></trkpt>
<trkpt lat="46.18969900" lon="7.17875900"><ele></ele><time>2014-7-5T0:35:43Z</time></trkpt>
<trkpt lat="46.18968200" lon="7.17885100"><ele></ele><time>2014-7-5T0:35:46Z</time></trkpt>
<trkpt lat="46.18965000" lon="7.17894100"><ele></ele><time>2014-7-5T0:35:49Z</time></trkpt>
<trkpt lat="46.18961100" lon="7.17902600"><ele></ele><time>2014-7-5T0:35:52Z</time></trkpt>
<trkpt lat="46.18957200" lon="7.17911100"><ele></ele><time>2014-7-5T0:35:55Z</time></trkpt>
<trkpt lat="46.18953700" lon="7.17919700"><ele></ele><time>2014-7-5T0:35:58Z</time></trkpt>
<trkpt lat="46.18950800" lon="7.17928600"><ele></ele><time>2014-7-5T0:36:1Z</time></trkpt>
<trkpt lat="46.18949300" lon="7.17938100"><ele></ele><time>2014-7-5T0:36:4Z</time></trkpt>
<trkpt lat="46.18949600" lon="7.17947700"><ele></ele><time>2014-7-5T0:36:7Z</time></trkpt>
<trkpt lat="46.18951800" lon="7.17956800"><ele></ele><time>2014-7-5T0:36:10Z</time></trkpt>
<trkpt lat="46.18954600" lon="7.17964800"><ele></ele><time>2014-7-5T0:36:13Z</time></trkpt>
<trkpt lat="46.18957400" lon="7.17972300"><ele></ele><time>2014-7-5T0:36:16Z</time></trkpt>
<trkpt lat="46.18960000" lon="7.17979500"><ele></ele><time>2014-7-5T0:36:19Z</time></trkpt>
<trkpt lat="46.18962700" lon="7.17986700"><ele></ele><time>2014-7-5T0:36:22Z</time></trkpt>
<trkpt lat="46.18965900" lon="7.17993400"><ele></ele><time>2014-7-5T0:36:25Z</time></trkpt>
<trkpt lat="46.18969400" lon="7.17999600"><ele></ele><time>2014-7-5T0:36:28Z</time></trkpt>
<trkpt lat="46.18972500" lon="7.18004800"><ele></ele><time>2014-7-5T0:36:31Z</time></trkpt>
<trkpt lat="46.18974500" lon="7.18009200"><ele></ele><time>2014-7-5T0:36:34Z</time></trkpt>
<trkpt lat="46.18975000" lon="7.18013000"><ele></ele><time>2014-7-5T0:36:37Z</time></trkpt>
<trkpt lat="46.18974300" lon="7.18016700"><ele></ele><time>2014-7-5T0:36:40Z</time></trkpt>
<trkpt lat="46.18971700" lon="7.18020000"><ele></ele><time>2014-7-5T0:36:43Z</time></trkpt>
<trkpt lat="46.18967200" lon="7.18021300"><ele></ele><time>2014-7-5T0:36:46Z</time></trkpt>
<trkpt lat="46.18961900" lon="7.18018900"><ele></ele><time>2014-7-5T0:36:49Z</time></trkpt>
<trkpt lat="46.18956800" lon="7.18013400"><ele></ele><time>2014-7-5T0:36:52Z</time></trkpt>
<trkpt lat="46.18952500" lon="7.18007100"><ele></ele><time>2014-7-5T0:36:55Z</time></trkpt>
<trkpt lat="46.18949000" lon="7.18002300"><ele></ele><time>2014-7-5T0:36:58Z</time></trkpt>
<trkpt lat="46.18945900" lon="7.17999900"><ele></ele><time>2014-7-5T0:37:1Z</time></trkpt>
<trkpt lat="46.18943500" lon="7.17998700"><ele></ele><time>2014-7-5T0:37:4Z</time></trkpt>
<trkpt lat="46.18941200" lon="7.17999200"><ele></ele><time>2014-7-5T0:37:7Z</time></trkpt>
<trkpt lat="46.18939600" lon="7.18002300"><ele></ele><time>2014-7-5T0:37:10Z</time></trkpt>
<trkpt lat="46.18939900" lon="7.18006500"><ele></ele><time>2014-7-5T0:37:13Z</time></trkpt>
<trkpt lat="46.18941500" lon="7.18011100"><ele></ele><time>2014-7-5T0:37:16Z</time></trkpt>
<trkpt lat="46.18943200" lon="7.18017500"><ele></ele><time>2014-7-5T0:37:19Z</time></trkpt>
<trkpt lat="46.18945000" lon="7.18026100"><ele></ele><time>2014-7-5T0:37:22Z</time></trkpt>
<trkpt lat="46.18946900" lon="7.18036200"><ele></ele><time>2014-7-5T0:37:25Z</time></trkpt>
<trkpt lat="46.18948700" lon="7.18048000"><ele></ele><time>2014-7-5T0:37:28Z</time></trkpt>
<trkpt lat="46.18949900" lon="7.18061200"><ele></ele><time>2014-7-5T0:37:31Z</time></trkpt>
<trkpt lat="46.18951300" lon="7.18075100"><ele></ele><time>2014-7-5T0:37:34Z</time></trkpt>
<trkpt lat="46.18952900" lon="7.18089200"><ele></ele><time>2014-7-5T0:37:37Z</time></trkpt>
<trkpt lat="46.18955100" lon="7.18104000"><ele></ele><time>2014-7-5T0:37:40Z</time></trkpt>
<trkpt lat="46.18957400" lon="7.18118600"><ele></ele><time>2014-7-5T0:37:43Z</time></trkpt>
<trkpt lat="46.18959500" lon="7.18131800"><ele></ele><time>2014-7-5T0:37:46Z</time></trkpt>
<trkpt lat="46.18961200" lon="7.18144100"><ele></ele><time>2014-7-5T0:37:49Z</time></trkpt>
<trkpt lat="46.18962700" lon="7.18155700"><ele></ele><time>2014-7-5T0:37:52Z</time></trkpt>
<trkpt lat="46.18964200" lon="7.18167500"><ele></ele><time>2014-7-5T0:37:55Z</time></trkpt>
<trkpt lat="46.18965800" lon="7.18179000"><ele></ele><time>2014-7-5T0:37:58Z</time></trkpt>
<trkpt lat="46.18967600" lon="7.18190200"><ele></ele><time>2014-7-5T0:38:1Z</time></trkpt>
<trkpt lat="46.18969600" lon="7.18200000"><ele></ele><time>2014-7-5T0:38:4Z</time></trkpt>
<trkpt lat="46.18971800" lon="7.18208700"><ele></ele><time>2014-7-5T0:38:7Z</time></trkpt>
<trkpt lat="46.18973500" lon="7.18217200"><ele></ele><time>2014-7-5T0:38:10Z</time></trkpt>
<trkpt lat="46.18975000" lon="7.18226100"><ele></ele><time>2014-7-5T0:38:13Z</time></trkpt>
<trkpt lat="46.18977500" lon="7.18234500"><ele></ele><time>2014-7-5T0:38:16Z</time></trkpt>
<trkpt lat="46.18981500" lon="7.18241000"><ele></ele><time>2014-7-5T0:38:19Z</time></trkpt>
<trkpt lat="46.18987100" lon="7.18245300"><ele></ele><time>2014-7-5T0:38:22Z</time></trkpt>
<trkpt lat="46.18993800" lon="7.18247800"><ele></ele><time>2014-7-5T0:38:25Z</time></trkpt>
<trkpt lat="46.19001100" lon="7.18249300"><ele></ele><time>2014-7-5T0:38:28Z</time></trkpt>
<trkpt lat="46.19008600" lon="7.18250300"><ele></ele><time>2014-7-5T0:38:31Z</time></trkpt>
<trkpt lat="46.19016000" lon="7.18250300"><ele></ele><time>2014-7-5T0:38:34Z</time></trkpt>
<trkpt lat="46.19023100" lon="7.18249500"><ele></ele><time>2014-7-5T0:38:37Z</time></trkpt>
<trkpt lat="46.19029600" lon="7.18248200"><ele></ele><time>2014-7-5T0:38:40Z</time></trkpt>
<trkpt lat="46.19035600" lon="7.18246600"><ele></ele><time>2014-7-5T0:38:43Z</time></trkpt>
<trkpt lat="46.19040800" lon="7.18244400"><ele></ele><time>2014-7-5T0:38:46Z</time></trkpt>
<trkpt lat="46.19045100" lon="7.18242300"><ele></ele><time>2014-7-5T0:38:49Z</time></trkpt>
<trkpt lat="46.19049200" lon="7.18240700"><ele></ele><time>2014-7-5T0:38:52Z</time></trkpt>
<trkpt lat="46.19052600" lon="7.18238900"><ele></ele><time>2014-7-5T0:38:55Z</time></trkpt>
<trkpt lat="46.19055600" lon="7.18237300"><ele></ele><time>2014-7-5T0:38:58Z</time></trkpt>
<trkpt lat="46.19058200" lon="7.18235800"><ele></ele><time>2014-7-5T0:39:1Z</time></trkpt>
<trkpt lat="46.19060700" lon="7.18234300"><ele></ele><time>2014-7-5T0:39:4Z</time></trkpt>
<trkpt lat="46.19063200" lon="7.18232700"><ele></ele><time>2014-7-5T0:39:7Z</time></trkpt>
<trkpt lat="46.19065600" lon="7.18231300"><ele></ele><time>2014-7-5T0:39:10Z</time></trkpt>
<trkpt lat="46.19067800" lon="7.18229800"><ele></ele><time>2014-7-5T0:39:13Z</time></trkpt>
<trkpt lat="46.19069700" lon="7.18227900"><ele></ele><time>2014-7-5T0:39:16Z</time></trkpt>
<trkpt lat="46.19071500" lon="7.18225900"><ele></ele><time>2014-7-5T0:39:19Z</time></trkpt>
<trkpt lat="46.19073200" lon="7.18223900"><ele></ele><time>2014-7-5T0:39:22Z</time></trkpt>
<trkpt lat="46.19074700" lon="7.18221900"><ele></ele><time>2014-7-5T0:39:25Z</time></trkpt>
<trkpt lat="46.19076100" lon="7.18219500"><ele></ele><time>2014-7-5T0:39:28Z</time></trkpt>
<trkpt lat="46.19077600" lon="7.18216900"><ele></ele><time>2014-7-5T0:39:31Z</time></trkpt>
<trkpt lat="46.19079300" lon="7.18214000"><ele></ele><time>2014-7-5T0:39:34Z</time></trkpt>
<trkpt lat="46.19081200" lon="7.18210600"><ele></ele><time>2014-7-5T0:39:37Z</time></trkpt>
<trkpt lat="46.19082800" lon="7.18207200"><ele></ele><time>2014-7-5T0:39:40Z</time></trkpt>
<trkpt lat="46.19084400" lon="7.18204300"><ele></ele><time>2014-7-5T0:39:43Z</time></trkpt>
<trkpt lat="46.19085900" lon="7.18201600"><ele></ele><time>2014-7-5T0:39:46Z</time></trkpt>
<trkpt lat="46.19087600" lon="7.18199000"><ele></ele><time>2014-7-5T0:39:49Z</time></trkpt>
<trkpt lat="46.19088900" lon="7.18196400"><ele></ele><time>2014-7-5T0:39:52Z</time></trkpt>
<trkpt lat="46.19090400" lon="7.18194100"><ele></ele><time>2014-7-5T0:39:55Z</time></trkpt>
<trkpt lat="46.19091900" lon="7.18192200"><ele></ele><time>2014-7-5T0:39:58Z</time></trkpt>
<trkpt lat="46.19093400" lon="7.18189800"><ele></ele><time>2014-7-5T0:40:1Z</time></trkpt>
<trkpt lat="46.19095000" lon="7.18187200"><ele></ele><time>2014-7-5T0:40:4Z</time></trkpt>
<trkpt lat="46.19096400" lon="7.18184900"><ele></ele><time>2014-7-5T0:40:7Z</time></trkpt>
<trkpt lat="46.19097700" lon="7.18182600"><ele></ele><time>2014-7-5T0:40:10Z</time></trkpt>
<trkpt lat="46.19099000" lon="7.18180300"><ele></ele><time>2014-7-5T0:40:13Z</time></trkpt>
<trkpt lat="46.19100300" lon="7.18177800"><ele></ele><time>2014-7-5T0:40:16Z</time></trkpt>
<trkpt lat="46.19102000" lon="7.18175500"><ele></ele><time>2014-7-5T0:40:19Z</time></trkpt>
<trkpt lat="46.19103500" lon="7.18173500"><ele></ele><time>2014-7-5T0:40:22Z</time></trkpt>
<trkpt lat="46.19105000" lon="7.18171500"><ele></ele><time>2014-7-5T0:40:25Z</time></trkpt>
<trkpt lat="46.19106600" lon="7.18169000"><ele></ele><time>2014-7-5T0:40:28Z</time></trkpt>
<trkpt lat="46.19108300" lon="7.18167100"><ele></ele><time>2014-7-5T0:40:31Z</time></trkpt>
<trkpt lat="46.19109700" lon="7.18165600"><ele></ele><time>2014-7-5T0:40:34Z</time></trkpt>
<trkpt lat="46.19111500" lon="7.18164700"><ele></ele><time>2014-7-5T0:40:37Z</time></trkpt>
<trkpt lat="46.19114300" lon="7.18164000"><ele></ele><time>2014-7-5T0:40:40Z</time></trkpt>
<trkpt lat="46.19117500" lon="7.18163400"><ele></ele><time>2014-7-5T0:40:43Z</time></trkpt>
<trkpt lat="46.19120400" lon="7.18163100"><ele></ele><time>2014-7-5T0:40:46Z</time></trkpt>
<trkpt lat="46.19122900" lon="7.18163200"><ele></ele><time>2014-7-5T0:40:49Z</time></trkpt>
<trkpt lat="46.19125600" lon="7.18163600"><ele></ele><time>2014-7-5T0:40:52Z</time></trkpt>
<trkpt lat="46.19128400" lon="7.18163800"><ele></ele><time>2014-7-5T0:40:55Z</time></trkpt>
<trkpt lat="46.19130900" lon="7.18164300"><ele></ele><time>2014-7-5T0:40:58Z</time></trkpt>
<trkpt lat="46.19133600" lon="7.18165000"><ele></ele><time>2014-7-5T0:41:1Z</time></trkpt>
<trkpt lat="46.19136100" lon="7.18165400"><ele></ele><time>2014-7-5T0:41:4Z</time></trkpt>
<trkpt lat="46.19139000" lon="7.18165700"><ele></ele><time>2014-7-5T0:41:7Z</time></trkpt>
<trkpt lat="46.19141600" lon="7.18165900"><ele></ele><time>2014-7-5T0:41:10Z</time></trkpt>
<trkpt lat="46.19144100" lon="7.18166100"><ele></ele><time>2014-7-5T0:41:13Z</time></trkpt>
<trkpt lat="46.19146400" lon="7.18166300"><ele></ele><time>2014-7-5T0:41:16Z</time></trkpt>
<trkpt lat="46.19148700" lon="7.18166000"><ele></ele><time>2014-7-5T0:41:19Z</time></trkpt>
<trkpt lat="46.19150800" lon="7.18165300"><ele></ele><time>2014-7-5T0:41:22Z</time></trkpt>
<trkpt lat="46.19152700" lon="7.18164500"><ele></ele><time>2014-7-5T0:41:25Z</time></trkpt>
<trkpt lat="46.19154500" lon="7.18163600"><ele></ele><time>2014-7-5T0:41:28Z</time></trkpt>
<trkpt lat="46.19156200" lon="7.18162600"><ele></ele><time>2014-7-5T0:41:31Z</time></trkpt>
<trkpt lat="46.19157900" lon="7.18161600"><ele></ele><time>2014-7-5T0:41:34Z</time></trkpt>
<trkpt lat="46.19160100" lon="7.18161200"><ele></ele><time>2014-7-5T0:41:37Z</time></trkpt>
<trkpt lat="46.19162100" lon="7.18160700"><ele></ele><time>2014-7-5T0:41:40Z</time></trkpt>
<trkpt lat="46.19163900" lon="7.18159400"><ele></ele><time>2014-7-5T0:41:43Z</time></trkpt>
<trkpt lat="46.19165100" lon="7.18158200"><ele></ele><time>2014-7-5T0:41:46Z</time></trkpt>
<trkpt lat="46.19166600" lon="7.18157200"><ele></ele><time>2014-7-5T0:41:49Z</time></trkpt>
<trkpt lat="46.19168400" lon="7.18156200"><ele></ele><time>2014-7-5T0:41:52Z</time></trkpt>
<trkpt lat="46.19170200" lon="7.18155500"><ele></ele><time>2014-7-5T0:41:55Z</time></trkpt>
<trkpt lat="46.19172000" lon="7.18154600"><ele></ele><time>2014-7-5T0:41:58Z</time></trkpt>
<trkpt lat="46.19173700" lon="7.18153900"><ele></ele><time>2014-7-5T0:42:1Z</time></trkpt>
<trkpt lat="46.19175400" lon="7.18153300"><ele></ele><time>2014-7-5T0:42:4Z</time></trkpt>
<trkpt lat="46.19177000" lon="7.18152700"><ele></ele><time>2014-7-5T0:42:7Z</time></trkpt>
<trkpt lat="46.19178600" lon="7.18152300"><ele></ele><time>2014-7-5T0:42:10Z</time></trkpt>
<trkpt lat="46.19180400" lon="7.18152700"><ele></ele><time>2014-7-5T0:42:13Z</time></trkpt>
<trkpt lat="46.19182500" lon="7.18153600"><ele></ele><time>2014-7-5T0:42:16Z</time></trkpt>
<trkpt lat="46.19184200" lon="7.18153300"><ele></ele><time>2014-7-5T0:42:19Z</time></trkpt>
<trkpt lat="46.19186000" lon="7.18153200"><ele></ele><time>2014-7-5T0:42:22Z</time></trkpt>
<trkpt lat="46.19188000" lon="7.18153400"><ele></ele><time>2014-7-5T0:42:25Z</time></trkpt>
<trkpt lat="46.19189700" lon="7.18153700"><ele></ele><time>2014-7-5T0:42:28Z</time></trkpt>
<trkpt lat="46.19191400" lon="7.18154100"><ele></ele><time>2014-7-5T0:42:31Z</time></trkpt>
<trkpt lat="46.19192800" lon="7.18154300"><ele></ele><time>2014-7-5T0:42:34Z</time></trkpt>
<trkpt lat="46.19194300" lon="7.18154500"><ele></ele><time>2014-7-5T0:42:37Z</time></trkpt>
<trkpt lat="46.19195800" lon="7.18154600"><ele></ele><time>2014-7-5T0:42:40Z</time></trkpt>
<trkpt lat="46.19197400" lon="7.18154800"><ele></ele><time>2014-7-5T0:42:43Z</time></trkpt>
<trkpt lat="46.19199100" lon="7.18155400"><ele></ele><time>2014-7-5T0:42:46Z</time></trkpt>
<trkpt lat="46.19200700" lon="7.18156100"><ele></ele><time>2014-7-5T0:42:49Z</time></trkpt>
<trkpt lat="46.19202200" lon="7.18156500"><ele></ele><time>2014-7-5T0:42:52Z</time></trkpt>
<trkpt lat="46.19203800" lon="7.18157000"><ele></ele><time>2014-7-5T0:42:55Z</time></trkpt>
<trkpt lat="46.19205200" lon="7.18157900"><ele></ele><time>2014-7-5T0:42:58Z</time></trkpt>
<trkpt lat="46.19206500" lon="7.18158900"><ele></ele><time>2014-7-5T0:43:1Z</time></trkpt>
<trkpt lat="46.19208000" lon="7.18159800"><ele></ele><time>2014-7-5T0:43:4Z</time></trkpt>
<trkpt lat="46.19209500" lon="7.18160400"><ele></ele><time>2014-7-5T0:43:7Z</time></trkpt>
<trkpt lat="46.19211100" lon="7.18161100"><ele></ele><time>2014-7-5T0:43:10Z</time></trkpt>
<trkpt lat="46.19212700" lon="7.18161800"><ele></ele><time>2014-7-5T0:43:13Z</time></trkpt>
<trkpt lat="46.19214100" lon="7.18162500"><ele></ele><time>2014-7-5T0:43:16Z</time></trkpt>
<trkpt lat="46.19215200" lon="7.18163100"><ele></ele><time>2014-7-5T0:43:19Z</time></trkpt>
<trkpt lat="46.19216700" lon="7.18163700"><ele></ele><time>2014-7-5T0:43:22Z</time></trkpt>
<trkpt lat="46.19218100" lon="7.18164400"><ele></ele><time>2014-7-5T0:43:25Z</time></trkpt>
<trkpt lat="46.19219400" lon="7.18165300"><ele></ele><time>2014-7-5T0:43:28Z</time></trkpt>
<trkpt lat="46.19220600" lon="7.18166300"><ele></ele><time>2014-7-5T0:43:31Z</time></trkpt>
<trkpt lat="46.19221900" lon="7.18167200"><ele></ele><time>2014-7-5T0:43:34Z</time></trkpt>
<trkpt lat="46.19223200" lon="7.18167800"><ele></ele><time>2014-7-5T0:43:37Z</time></trkpt>
<trkpt lat="46.19224700" lon="7.18168500"><ele></ele><time>2014-7-5T0:43:40Z</time></trkpt>
<trkpt lat="46.19226100" lon="7.18169300"><ele></ele><time>2014-7-5T0:43:43Z</time></trkpt>
<trkpt lat="46.19227400" lon="7.18170100"><ele></ele><time>2014-7-5T0:43:46Z</time></trkpt>
<trkpt lat="46.19228700" lon="7.18171100"><ele></ele><time>2014-7-5T0:43:49Z</time></trkpt>
<trkpt lat="46.19230000" lon="7.18172000"><ele></ele><time>2014-7-5T0:43:52Z</time></trkpt>
<trkpt lat="46.19231200" lon="7.18172900"><ele></ele><time>2014-7-5T0:43:55Z</time></trkpt>
<trkpt lat="46.19232800" lon="7.18173400"><ele></ele><time>2014-7-5T0:43:58Z</time></trkpt>
<trkpt lat="46.19234300" lon="7.18173800"><ele></ele><time>2014-7-5T0:44:1Z</time></trkpt>
<trkpt lat="46.19235800" lon="7.18174200"><ele></ele><time>2014-7-5T0:44:4Z</time></trkpt>
<trkpt lat="46.19237200" lon="7.18174700"><ele></ele><time>2014-7-5T0:44:7Z</time></trkpt>
<trkpt lat="46.19238700" lon="7.18175000"><ele></ele><time>2014-7-5T0:44:10Z</time></trkpt>
<trkpt lat="46.19240100" lon="7.18175400"><ele></ele><time>2014-7-5T0:44:13Z</time></trkpt>
<trkpt lat="46.19241500" lon="7.18175500"><ele></ele><time>2014-7-5T0:44:16Z</time></trkpt>
<trkpt lat="46.19243100" lon="7.18175700"><ele></ele><time>2014-7-5T0:44:19Z</time></trkpt>
<trkpt lat="46.19244700" lon="7.18175400"><ele></ele><time>2014-7-5T0:44:22Z</time></trkpt>
<trkpt lat="46.19246200" lon="7.18175200"><ele></ele><time>2014-7-5T0:44:25Z</time></trkpt>
<trkpt lat="46.19247600" lon="7.18174600"><ele></ele><time>2014-7-5T0:44:28Z</time></trkpt>
<trkpt lat="46.19248900" lon="7.18173800"><ele></ele><time>2014-7-5T0:44:31Z</time></trkpt>
<trkpt lat="46.19250000" lon="7.18173300"><ele></ele><time>2014-7-5T0:44:34Z</time></trkpt>
<trkpt lat="46.19251300" lon="7.18172600"><ele></ele><time>2014-7-5T0:44:37Z</time></trkpt>
<trkpt lat="46.19252700" lon="7.18171700"><ele></ele><time>2014-7-5T0:44:40Z</time></trkpt>
<trkpt lat="46.19254100" lon="7.18170400"><ele></ele><time>2014-7-5T0:44:43Z</time></trkpt>
<trkpt lat="46.19255300" lon="7.18168700"><ele></ele><time>2014-7-5T0:44:46Z</time></trkpt>
<trkpt lat="46.19256900" lon="7.18167400"><ele></ele><time>2014-7-5T0:44:49Z</time></trkpt>
<trkpt lat="46.19258700" lon="7.18166200"><ele></ele><time>2014-7-5T0:44:52Z</time></trkpt>
<trkpt lat="46.19261300" lon="7.18165400"><ele></ele><time>2014-7-5T0:44:55Z</time></trkpt>
<trkpt lat="46.19264600" lon="7.18165000"><ele></ele><time>2014-7-5T0:44:58Z</time></trkpt>
<trkpt lat="46.19268500" lon="7.18165000"><ele></ele><time>2014-7-5T0:45:1Z</time></trkpt>
<trkpt lat="46.19272700" lon="7.18165000"><ele></ele><time>2014-7-5T0:45:4Z</time></trkpt>
<trkpt lat="46.19277600" lon="7.18164300"><ele></ele><time>2014-7-5T0:45:7Z</time></trkpt>
<trkpt lat="46.19282600" lon="7.18162900"><ele></ele><time>2014-7-5T0:45:10Z</time></trkpt>
<trkpt lat="46.19287400" lon="7.18160900"><ele></ele><time>2014-7-5T0:45:13Z</time></trkpt>
<trkpt lat="46.19293100" lon="7.18158600"><ele></ele><time>2014-7-5T0:45:16Z</time></trkpt>
<trkpt lat="46.19299200" lon="7.18156400"><ele></ele><time>2014-7-5T0:45:19Z</time></trkpt>
<trkpt lat="46.19305800" lon="7.18154800"><ele></ele><time>2014-7-5T0:45:22Z</time></trkpt>
<trkpt lat="46.19312700" lon="7.18153800"><ele></ele><time>2014-7-5T0:45:25Z</time></trkpt>
<trkpt lat="46.19320400" lon="7.18152900"><ele></ele><time>2014-7-5T0:45:28Z</time></trkpt>
<trkpt lat="46.19328400" lon="7.18152300"><ele></ele><time>2014-7-5T0:45:31Z</time></trkpt>
<trkpt lat="46.19336300" lon="7.18152400"><ele></ele><time>2014-7-5T0:45:34Z</time></trkpt>
<trkpt lat="46.19343900" lon="7.18156500"><ele></ele><time>2014-7-5T0:45:37Z</time></trkpt>
<trkpt lat="46.19351200" lon="7.18162600"><ele></ele><time>2014-7-5T0:45:40Z</time></trkpt>
<trkpt lat="46.19358800" lon="7.18169200"><ele></ele><time>2014-7-5T0:45:43Z</time></trkpt>
<trkpt lat="46.19366400" lon="7.18174700"><ele></ele><time>2014-7-5T0:45:46Z</time></trkpt>
<trkpt lat="46.19374500" lon="7.18180400"><ele></ele><time>2014-7-5T0:45:49Z</time></trkpt>
<trkpt lat="46.19382300" lon="7.18186800"><ele></ele><time>2014-7-5T0:45:52Z</time></trkpt>
<trkpt lat="46.19389600" lon="7.18193200"><ele></ele><time>2014-7-5T0:45:55Z</time></trkpt>
<trkpt lat="46.19395600" lon="7.18199400"><ele></ele><time>2014-7-5T0:45:58Z</time></trkpt>
<trkpt lat="46.19400800" lon="7.18205200"><ele></ele><time>2014-7-5T0:46:1Z</time></trkpt>
<trkpt lat="46.19404300" lon="7.18211200"><ele></ele><time>2014-7-5T0:46:4Z</time></trkpt>
<trkpt lat="46.19406400" lon="7.18217500"><ele></ele><time>2014-7-5T0:46:7Z</time></trkpt>
<trkpt lat="46.19408300" lon="7.18223500"><ele></ele><time>2014-7-5T0:46:10Z</time></trkpt>
<trkpt lat="46.19409900" lon="7.18229100"><ele></ele><time>2014-7-5T0:46:13Z</time></trkpt>
<trkpt lat="46.19411100" lon="7.18234500"><ele></ele><time>2014-7-5T0:46:16Z</time></trkpt>
<trkpt lat="46.19411600" lon="7.18239900"><ele></ele><time>2014-7-5T0:46:19Z</time></trkpt>
<trkpt lat="46.19411800" lon="7.18245100"><ele></ele><time>2014-7-5T0:46:22Z</time></trkpt>
<trkpt lat="46.19411600" lon="7.18250300"><ele></ele><time>2014-7-5T0:46:25Z</time></trkpt>
<trkpt lat="46.19410600" lon="7.18255400"><ele></ele><time>2014-7-5T0:46:28Z</time></trkpt>
<trkpt lat="46.19409200" lon="7.18260800"><ele></ele><time>2014-7-5T0:46:31Z</time></trkpt>
<trkpt lat="46.19407500" lon="7.18266100"><ele></ele><time>2014-7-5T0:46:34Z</time></trkpt>
<trkpt lat="46.19405900" lon="7.18270900"><ele></ele><time>2014-7-5T0:46:37Z</time></trkpt>
<trkpt lat="46.19404400" lon="7.18275800"><ele></ele><time>2014-7-5T0:46:40Z</time></trkpt>
<trkpt lat="46.19403200" lon="7.18280700"><ele></ele><time>2014-7-5T0:46:43Z</time></trkpt>
<trkpt lat="46.19402200" lon="7.18285500"><ele></ele><time>2014-7-5T0:46:46Z</time></trkpt>
<trkpt lat="46.19401500" lon="7.18290200"><ele></ele><time>2014-7-5T0:46:49Z</time></trkpt>
<trkpt lat="46.19400800" lon="7.18294200"><ele></ele><time>2014-7-5T0:46:52Z</time></trkpt>
<trkpt lat="46.19400400" lon="7.18297400"><ele></ele><time>2014-7-5T0:46:55Z</time></trkpt>
<trkpt lat="46.19400400" lon="7.18300300"><ele></ele><time>2014-7-5T0:46:58Z</time></trkpt>
<trkpt lat="46.19400100" lon="7.18303100"><ele></ele><time>2014-7-5T0:47:1Z</time></trkpt>
<trkpt lat="46.19400300" lon="7.18305800"><ele></ele><time>2014-7-5T0:47:4Z</time></trkpt>
<trkpt lat="46.19400700" lon="7.18308700"><ele></ele><time>2014-7-5T0:47:7Z</time></trkpt>
<trkpt lat="46.19401000" lon="7.18311500"><ele></ele><time>2014-7-5T0:47:10Z</time></trkpt>
<trkpt lat="46.19401400" lon="7.18314200"><ele></ele><time>2014-7-5T0:47:13Z</time></trkpt>
<trkpt lat="46.19402300" lon="7.18316700"><ele></ele><time>2014-7-5T0:47:16Z</time></trkpt>
<trkpt lat="46.19402900" lon="7.18319000"><ele></ele><time>2014-7-5T0:47:19Z</time></trkpt>
<trkpt lat="46.19403900" lon="7.18321300"><ele></ele><time>2014-7-5T0:47:22Z</time></trkpt>
<trkpt lat="46.19405000" lon="7.18323600"><ele></ele><time>2014-7-5T0:47:25Z</time></trkpt>
<trkpt lat="46.19406000" lon="7.18325700"><ele></ele><time>2014-7-5T0:47:28Z</time></trkpt>
<trkpt lat="46.19406800" lon="7.18327600"><ele></ele><time>2014-7-5T0:47:31Z</time></trkpt>
<trkpt lat="46.19407800" lon="7.18329400"><ele></ele><time>2014-7-5T0:47:34Z</time></trkpt>
<trkpt lat="46.19409300" lon="7.18331000"><ele></ele><time>2014-7-5T0:47:37Z</time></trkpt>
<trkpt lat="46.19410500" lon="7.18332500"><ele></ele><time>2014-7-5T0:47:40Z</time></trkpt>
<trkpt lat="46.19411400" lon="7.18334000"><ele></ele><time>2014-7-5T0:47:43Z</time></trkpt>
<trkpt lat="46.19412400" lon="7.18335400"><ele></ele><time>2014-7-5T0:47:46Z</time></trkpt>
<trkpt lat="46.19413400" lon="7.18337100"><ele></ele><time>2014-7-5T0:47:49Z</time></trkpt>
<trkpt lat="46.19414400" lon="7.18339000"><ele></ele><time>2014-7-5T0:47:52Z</time></trkpt>
<trkpt lat="46.19415300" lon="7.18341000"><ele></ele><time>2014-7-5T0:47:55Z</time></trkpt>
<trkpt lat="46.19416400" lon="7.18343100"><ele></ele><time>2014-7-5T0:47:58Z</time></trkpt>
<trkpt lat="46.19417300" lon="7.18345500"><ele></ele><time>2014-7-5T0:48:1Z</time></trkpt>
<trkpt lat="46.19418500" lon="7.18347500"><ele></ele><time>2014-7-5T0:48:4Z</time></trkpt>
<trkpt lat="46.19419500" lon="7.18349200"><ele></ele><time>2014-7-5T0:48:7Z</time></trkpt>
<trkpt lat="46.19420700" lon="7.18350900"><ele></ele><time>2014-7-5T0:48:10Z</time></trkpt>
<trkpt lat="46.19421700" lon="7.18353000"><ele></ele><time>2014-7-5T0:48:13Z</time></trkpt>
<trkpt lat="46.19422600" lon="7.18355900"><ele></ele><time>2014-7-5T0:48:16Z</time></trkpt>
<trkpt lat="46.19423800" lon="7.18358800"><ele></ele><time>2014-7-5T0:48:19Z</time></trkpt>
<trkpt lat="46.19424900" lon="7.18362100"><ele></ele><time>2014-7-5T0:48:22Z</time></trkpt>
<trkpt lat="46.19426400" lon="7.18365500"><ele></ele><time>2014-7-5T0:48:25Z</time></trkpt>
<trkpt lat="46.19427500" lon="7.18368900"><ele></ele><time>2014-7-5T0:48:28Z</time></trkpt>
<trkpt lat="46.19428700" lon="7.18372600"><ele></ele><time>2014-7-5T0:48:31Z</time></trkpt>
<trkpt lat="46.19429800" lon="7.18376100"><ele></ele><time>2014-7-5T0:48:34Z</time></trkpt>
<trkpt lat="46.19431000" lon="7.18379200"><ele></ele><time>2014-7-5T0:48:37Z</time></trkpt>
<trkpt lat="46.19432300" lon="7.18382600"><ele></ele><time>2014-7-5T0:48:40Z</time></trkpt>
<trkpt lat="46.19433300" lon="7.18386000"><ele></ele><time>2014-7-5T0:48:43Z</time></trkpt>
<trkpt lat="46.19434400" lon="7.18389500"><ele></ele><time>2014-7-5T0:48:46Z</time></trkpt>
<trkpt lat="46.19435500" lon="7.18392900"><ele></ele><time>2014-7-5T0:48:49Z</time></trkpt>
<trkpt lat="46.19436800" lon="7.18396300"><ele></ele><time>2014-7-5T0:48:52Z</time></trkpt>
<trkpt lat="46.19438300" lon="7.18399800"><ele></ele><time>2014-7-5T0:48:55Z</time></trkpt>
<trkpt lat="46.19439800" lon="7.18403900"><ele></ele><time>2014-7-5T0:48:58Z</time></trkpt>
<trkpt lat="46.19441400" lon="7.18408000"><ele></ele><time>2014-7-5T0:49:1Z</time></trkpt>
<trkpt lat="46.19443200" lon="7.18412200"><ele></ele><time>2014-7-5T0:49:4Z</time></trkpt>
<trkpt lat="46.19444600" lon="7.18416500"><ele></ele><time>2014-7-5T0:49:7Z</time></trkpt>
<trkpt lat="46.19446000" lon="7.18421000"><ele></ele><time>2014-7-5T0:49:10Z</time></trkpt>
<trkpt lat="46.19447300" lon="7.18425700"><ele></ele><time>2014-7-5T0:49:13Z</time></trkpt>
<trkpt lat="46.19448600" lon="7.18430500"><ele></ele><time>2014-7-5T0:49:16Z</time></trkpt>
<trkpt lat="46.19449600" lon="7.18435300"><ele></ele><time>2014-7-5T0:49:19Z</time></trkpt>
<trkpt lat="46.19450600" lon="7.18439900"><ele></ele><time>2014-7-5T0:49:22Z</time></trkpt>
<trkpt lat="46.19451400" lon="7.18444500"><ele></ele><time>2014-7-5T0:49:25Z</time></trkpt>
<trkpt lat="46.19452000" lon="7.18449100"><ele></ele><time>2014-7-5T0:49:28Z</time></trkpt>
<trkpt lat="46.19452600" lon="7.18454100"><ele></ele><time>2014-7-5T0:49:31Z</time></trkpt>
<trkpt lat="46.19453100" lon="7.18459400"><ele></ele><time>2014-7-5T0:49:34Z</time></trkpt>
<trkpt lat="46.19454100" lon="7.18464800"><ele></ele><time>2014-7-5T0:49:37Z</time></trkpt>
<trkpt lat="46.19455000" lon="7.18469700"><ele></ele><time>2014-7-5T0:49:40Z</time></trkpt>
<trkpt lat="46.19455600" lon="7.18475500"><ele></ele><time>2014-7-5T0:49:43Z</time></trkpt>
<trkpt lat="46.19456500" lon="7.18482200"><ele></ele><time>2014-7-5T0:49:46Z</time></trkpt>
<trkpt lat="46.19457400" lon="7.18488900"><ele></ele><time>2014-7-5T0:49:49Z</time></trkpt>
<trkpt lat="46.19458000" lon="7.18494900"><ele></ele><time>2014-7-5T0:49:52Z</time></trkpt>
<trkpt lat="46.19458900" lon="7.18500200"><ele></ele><time>2014-7-5T0:49:55Z</time></trkpt>
<trkpt lat="46.19460400" lon="7.18504900"><ele></ele><time>2014-7-5T0:49:58Z</time></trkpt>
<trkpt lat="46.19462000" lon="7.18509400"><ele></ele><time>2014-7-5T0:50:1Z</time></trkpt>
<trkpt lat="46.19464000" lon="7.18512500"><ele></ele><time>2014-7-5T0:50:4Z</time></trkpt>
<trkpt lat="46.19466500" lon="7.18514800"><ele></ele><time>2014-7-5T0:50:7Z</time></trkpt>
<trkpt lat="46.19469400" lon="7.18516500"><ele></ele><time>2014-7-5T0:50:10Z</time></trkpt>
<trkpt lat="46.19472600" lon="7.18518000"><ele></ele><time>2014-7-5T0:50:13Z</time></trkpt>
<trkpt lat="46.19475900" lon="7.18519200"><ele></ele><time>2014-7-5T0:50:16Z</time></trkpt>
<trkpt lat="46.19479100" lon="7.18520100"><ele></ele><time>2014-7-5T0:50:19Z</time></trkpt>
<trkpt lat="46.19482300" lon="7.18520800"><ele></ele><time>2014-7-5T0:50:22Z</time></trkpt>
<trkpt lat="46.19485700" lon="7.18521200"><ele></ele><time>2014-7-5T0:50:25Z</time></trkpt>
<trkpt lat="46.19489100" lon="7.18521500"><ele></ele><time>2014-7-5T0:50:28Z</time></trkpt>
<trkpt lat="46.19492400" lon="7.18521200"><ele></ele><time>2014-7-5T0:50:31Z</time></trkpt>
<trkpt lat="46.19495500" lon="7.18520200"><ele></ele><time>2014-7-5T0:50:34Z</time></trkpt>
<trkpt lat="46.19498800" lon="7.18518800"><ele></ele><time>2014-7-5T0:50:37Z</time></trkpt>
<trkpt lat="46.19502000" lon="7.18517100"><ele></ele><time>2014-7-5T0:50:40Z</time></trkpt>
<trkpt lat="46.19504700" lon="7.18515000"><ele></ele><time>2014-7-5T0:50:43Z</time></trkpt>
<trkpt lat="46.19507000" lon="7.18512200"><ele></ele><time>2014-7-5T0:50:46Z</time></trkpt>
<trkpt lat="46.19510000" lon="7.18509100"><ele></ele><time>2014-7-5T0:50:49Z</time></trkpt>
<trkpt lat="46.19512600" lon="7.18506800"><ele></ele><time>2014-7-5T0:50:52Z</time></trkpt>
<trkpt lat="46.19514500" lon="7.18505200"><ele></ele><time>2014-7-5T0:50:55Z</time></trkpt>
<trkpt lat="46.19515700" lon="7.18504500"><ele></ele><time>2014-7-5T0:50:58Z</time></trkpt>
<trkpt lat="46.19516700" lon="7.18506200"><ele></ele><time>2014-7-5T0:51:1Z</time></trkpt>
<trkpt lat="46.19518400" lon="7.18511100"><ele></ele><time>2014-7-5T0:51:4Z</time></trkpt>
<trkpt lat="46.19520000" lon="7.18517000"><ele></ele><time>2014-7-5T0:51:7Z</time></trkpt>
<trkpt lat="46.19521700" lon="7.18524600"><ele></ele><time>2014-7-5T0:51:10Z</time></trkpt>
<trkpt lat="46.19524000" lon="7.18534200"><ele></ele><time>2014-7-5T0:51:13Z</time></trkpt>
<trkpt lat="46.19526300" lon="7.18544500"><ele></ele><time>2014-7-5T0:51:16Z</time></trkpt>
<trkpt lat="46.19528400" lon="7.18556100"><ele></ele><time>2014-7-5T0:51:19Z</time></trkpt>
<trkpt lat="46.19530600" lon="7.18568200"><ele></ele><time>2014-7-5T0:51:22Z</time></trkpt>
<trkpt lat="46.19532700" lon="7.18580800"><ele></ele><time>2014-7-5T0:51:25Z</time></trkpt>
<trkpt lat="46.19534500" lon="7.18592300"><ele></ele><time>2014-7-5T0:51:28Z</time></trkpt>
<trkpt lat="46.19536700" lon="7.18602600"><ele></ele><time>2014-7-5T0:51:31Z</time></trkpt>
<trkpt lat="46.19539500" lon="7.18612100"><ele></ele><time>2014-7-5T0:51:34Z</time></trkpt>
<trkpt lat="46.19542500" lon="7.18620400"><ele></ele><time>2014-7-5T0:51:37Z</time></trkpt>
<trkpt lat="46.19546700" lon="7.18629000"><ele></ele><time>2014-7-5T0:51:40Z</time></trkpt>
<trkpt lat="46.19552100" lon="7.18638000"><ele></ele><time>2014-7-5T0:51:43Z</time></trkpt>
<trkpt lat="46.19557900" lon="7.18649400"><ele></ele><time>2014-7-5T0:51:46Z</time></trkpt>
<trkpt lat="46.19564000" lon="7.18662200"><ele></ele><time>2014-7-5T0:51:49Z</time></trkpt>
<trkpt lat="46.19569300" lon="7.18673200"><ele></ele><time>2014-7-5T0:51:52Z</time></trkpt>
<trkpt lat="46.19573800" lon="7.18682200"><ele></ele><time>2014-7-5T0:51:55Z</time></trkpt>
<trkpt lat="46.19578200" lon="7.18689700"><ele></ele><time>2014-7-5T0:51:58Z</time></trkpt>
<trkpt lat="46.19581900" lon="7.18695100"><ele></ele><time>2014-7-5T0:52:1Z</time></trkpt>
<trkpt lat="46.19584300" lon="7.18699700"><ele></ele><time>2014-7-5T0:52:4Z</time></trkpt>
<trkpt lat="46.19584700" lon="7.18703900"><ele></ele><time>2014-7-5T0:52:7Z</time></trkpt>
<trkpt lat="46.19583100" lon="7.18707600"><ele></ele><time>2014-7-5T0:52:10Z</time></trkpt>
<trkpt lat="46.19579600" lon="7.18710500"><ele></ele><time>2014-7-5T0:52:13Z</time></trkpt>
<trkpt lat="46.19574900" lon="7.18713200"><ele></ele><time>2014-7-5T0:52:16Z</time></trkpt>
<trkpt lat="46.19569500" lon="7.18716400"><ele></ele><time>2014-7-5T0:52:19Z</time></trkpt>
<trkpt lat="46.19563600" lon="7.18720000"><ele></ele><time>2014-7-5T0:52:22Z</time></trkpt>
<trkpt lat="46.19557400" lon="7.18723700"><ele></ele><time>2014-7-5T0:52:25Z</time></trkpt>
<trkpt lat="46.19551300" lon="7.18727800"><ele></ele><time>2014-7-5T0:52:28Z</time></trkpt>
<trkpt lat="46.19545000" lon="7.18731900"><ele></ele><time>2014-7-5T0:52:31Z</time></trkpt>
<trkpt lat="46.19538700" lon="7.18735300"><ele></ele><time>2014-7-5T0:52:34Z</time></trkpt>
<trkpt lat="46.19532500" lon="7.18736700"><ele></ele><time>2014-7-5T0:52:37Z</time></trkpt>
<trkpt lat="46.19525600" lon="7.18734900"><ele></ele><time>2014-7-5T0:52:40Z</time></trkpt>
<trkpt lat="46.19519000" lon="7.18730300"><ele></ele><time>2014-7-5T0:52:43Z</time></trkpt>
<trkpt lat="46.19512800" lon="7.18725400"><ele></ele><time>2014-7-5T0:52:46Z</time></trkpt>
<trkpt lat="46.19506500" lon="7.18721600"><ele></ele><time>2014-7-5T0:52:49Z</time></trkpt>
<trkpt lat="46.19500600" lon="7.18718900"><ele></ele><time>2014-7-5T0:52:52Z</time></trkpt>
<trkpt lat="46.19495100" lon="7.18716800"><ele></ele><time>2014-7-5T0:52:55Z</time></trkpt>
<trkpt lat="46.19489600" lon="7.18714300"><ele></ele><time>2014-7-5T0:52:58Z</time></trkpt>
<trkpt lat="46.19484100" lon="7.18711500"><ele></ele><time>2014-7-5T0:53:1Z</time></trkpt>
<trkpt lat="46.19478200" lon="7.18708700"><ele></ele><time>2014-7-5T0:53:4Z</time></trkpt>
<trkpt lat="46.19472000" lon="7.18705800"><ele></ele><time>2014-7-5T0:53:7Z</time></trkpt>
<trkpt lat="46.19465300" lon="7.18702800"><ele></ele><time>2014-7-5T0:53:10Z</time></trkpt>
<trkpt lat="46.19458700" lon="7.18698600"><ele></ele><time>2014-7-5T0:53:13Z</time></trkpt>
<trkpt lat="46.19452500" lon="7.18691400"><ele></ele><time>2014-7-5T0:53:16Z</time></trkpt>
<trkpt lat="46.19446900" lon="7.18681400"><ele></ele><time>2014-7-5T0:53:19Z</time></trkpt>
<trkpt lat="46.19442200" lon="7.18671100"><ele></ele><time>2014-7-5T0:53:22Z</time></trkpt>
<trkpt lat="46.19438500" lon="7.18663700"><ele></ele><time>2014-7-5T0:53:25Z</time></trkpt>
<trkpt lat="46.19434900" lon="7.18658800"><ele></ele><time>2014-7-5T0:53:28Z</time></trkpt>
<trkpt lat="46.19431100" lon="7.18659100"><ele></ele><time>2014-7-5T0:53:31Z</time></trkpt>
<trkpt lat="46.19428200" lon="7.18661800"><ele></ele><time>2014-7-5T0:53:34Z</time></trkpt>
<trkpt lat="46.19427200" lon="7.18666200"><ele></ele><time>2014-7-5T0:53:37Z</time></trkpt>
<trkpt lat="46.19427800" lon="7.18672700"><ele></ele><time>2014-7-5T0:53:40Z</time></trkpt>
<trkpt lat="46.19429600" lon="7.18681500"><ele></ele><time>2014-7-5T0:53:43Z</time></trkpt>
<trkpt lat="46.19431300" lon="7.18691600"><ele></ele><time>2014-7-5T0:53:46Z</time></trkpt>
<trkpt lat="46.19431200" lon="7.18700500"><ele></ele><time>2014-7-5T0:53:49Z</time></trkpt>
<trkpt lat="46.19428500" lon="7.18706400"><ele></ele><time>2014-7-5T0:53:52Z</time></trkpt>
<trkpt lat="46.19423400" lon="7.18708600"><ele></ele><time>2014-7-5T0:53:55Z</time></trkpt>
<trkpt lat="46.19417200" lon="7.18706400"><ele></ele><time>2014-7-5T0:53:58Z</time></trkpt>
<trkpt lat="46.19410800" lon="7.18700000"><ele></ele><time>2014-7-5T0:54:1Z</time></trkpt>
<trkpt lat="46.19403900" lon="7.18690900"><ele></ele><time>2014-7-5T0:54:4Z</time></trkpt>
<trkpt lat="46.19396700" lon="7.18680400"><ele></ele><time>2014-7-5T0:54:7Z</time></trkpt>
<trkpt lat="46.19389100" lon="7.18668500"><ele></ele><time>2014-7-5T0:54:10Z</time></trkpt>
<trkpt lat="46.19381000" lon="7.18656800"><ele></ele><time>2014-7-5T0:54:13Z</time></trkpt>
<trkpt lat="46.19372200" lon="7.18646000"><ele></ele><time>2014-7-5T0:54:16Z</time></trkpt>
<trkpt lat="46.19363800" lon="7.18635300"><ele></ele><time>2014-7-5T0:54:19Z</time></trkpt>
<trkpt lat="46.19356500" lon="7.18624800"><ele></ele><time>2014-7-5T0:54:22Z</time></trkpt>
<trkpt lat="46.19350000" lon="7.18614300"><ele></ele><time>2014-7-5T0:54:25Z</time></trkpt>
<trkpt lat="46.19344000" lon="7.18603900"><ele></ele><time>2014-7-5T0:54:28Z</time></trkpt>
<trkpt lat="46.19338700" lon="7.18593200"><ele></ele><time>2014-7-5T0:54:31Z</time></trkpt>
<trkpt lat="46.19334100" lon="7.18582200"><ele></ele><time>2014-7-5T0:54:34Z</time></trkpt>
<trkpt lat="46.19329700" lon="7.18571300"><ele></ele><time>2014-7-5T0:54:37Z</time></trkpt>
<trkpt lat="46.19325200" lon="7.18560500"><ele></ele><time>2014-7-5T0:54:40Z</time></trkpt>
<trkpt lat="46.19320600" lon="7.18549700"><ele></ele><time>2014-7-5T0:54:43Z</time></trkpt>
<trkpt lat="46.19316200" lon="7.18538400"><ele></ele><time>2014-7-5T0:54:46Z</time></trkpt>
<trkpt lat="46.19311700" lon="7.18526300"><ele></ele><time>2014-7-5T0:54:49Z</time></trkpt>
<trkpt lat="46.19307100" lon="7.18513100"><ele></ele><time>2014-7-5T0:54:52Z</time></trkpt>
<trkpt lat="46.19302500" lon="7.18498800"><ele></ele><time>2014-7-5T0:54:55Z</time></trkpt>
<trkpt lat="46.19298600" lon="7.18483800"><ele></ele><time>2014-7-5T0:54:58Z</time></trkpt>
<trkpt lat="46.19295100" lon="7.18469600"><ele></ele><time>2014-7-5T0:55:1Z</time></trkpt>
<trkpt lat="46.19291000" lon="7.18456900"><ele></ele><time>2014-7-5T0:55:4Z</time></trkpt>
<trkpt lat="46.19286600" lon="7.18446800"><ele></ele><time>2014-7-5T0:55:7Z</time></trkpt>
<trkpt lat="46.19282100" lon="7.18440400"><ele></ele><time>2014-7-5T0:55:10Z</time></trkpt>
<trkpt lat="46.19278100" lon="7.18436600"><ele></ele><time>2014-7-5T0:55:13Z</time></trkpt>
<trkpt lat="46.19274800" lon="7.18434700"><ele></ele><time>2014-7-5T0:55:16Z</time></trkpt>
<trkpt lat="46.19272800" lon="7.18434900"><ele></ele><time>2014-7-5T0:55:19Z</time></trkpt>
<trkpt lat="46.19271700" lon="7.18436200"><ele></ele><time>2014-7-5T0:55:22Z</time></trkpt>
<trkpt lat="46.19270900" lon="7.18437300"><ele></ele><time>2014-7-5T0:55:25Z</time></trkpt>
<trkpt lat="46.19270500" lon="7.18438400"><ele></ele><time>2014-7-5T0:55:28Z</time></trkpt>
<trkpt lat="46.19269500" lon="7.18439100"><ele></ele><time>2014-7-5T0:55:31Z</time></trkpt>
<trkpt lat="46.19267400" lon="7.18439100"><ele></ele><time>2014-7-5T0:55:34Z</time></trkpt>
<trkpt lat="46.19265300" lon="7.18437000"><ele></ele><time>2014-7-5T0:55:37Z</time></trkpt>
<trkpt lat="46.19263800" lon="7.18433600"><ele></ele><time>2014-7-5T0:55:40Z</time></trkpt>
<trkpt lat="46.19262500" lon="7.18430200"><ele></ele><time>2014-7-5T0:55:43Z</time></trkpt>
<trkpt lat="46.19261200" lon="7.18427300"><ele></ele><time>2014-7-5T0:55:46Z</time></trkpt>
<trkpt lat="46.19259200" lon="7.18424800"><ele></ele><time>2014-7-5T0:55:49Z</time></trkpt>
<trkpt lat="46.19257200" lon="7.18422800"><ele></ele><time>2014-7-5T0:55:52Z</time></trkpt>
<trkpt lat="46.19255300" lon="7.18421000"><ele></ele><time>2014-7-5T0:55:55Z</time></trkpt>
<trkpt lat="46.19253500" lon="7.18419200"><ele></ele><time>2014-7-5T0:55:58Z</time></trkpt>
<trkpt lat="46.19251600" lon="7.18417500"><ele></ele><time>2014-7-5T0:56:1Z</time></trkpt>
<trkpt lat="46.19249800" lon="7.18415600"><ele></ele><time>2014-7-5T0:56:4Z</time></trkpt>
<trkpt lat="46.19248100" lon="7.18413500"><ele></ele><time>2014-7-5T0:56:7Z</time></trkpt>
<trkpt lat="46.19246300" lon="7.18411500"><ele></ele><time>2014-7-5T0:56:10Z</time></trkpt>
<trkpt lat="46.19244500" lon="7.18409500"><ele></ele><time>2014-7-5T0:56:13Z</time></trkpt>
<trkpt lat="46.19242700" lon="7.18407600"><ele></ele><time>2014-7-5T0:56:16Z</time></trkpt>
<trkpt lat="46.19240900" lon="7.18406000"><ele></ele><time>2014-7-5T0:56:19Z</time></trkpt>
<trkpt lat="46.19239000" lon="7.18404300"><ele></ele><time>2014-7-5T0:56:22Z</time></trkpt>
<trkpt lat="46.19237300" lon="7.18402400"><ele></ele><time>2014-7-5T0:56:25Z</time></trkpt>
<trkpt lat="46.19235500" lon="7.18400700"><ele></ele><time>2014-7-5T0:56:28Z</time></trkpt>
<trkpt lat="46.19233500" lon="7.18399000"><ele></ele><time>2014-7-5T0:56:31Z</time></trkpt>
<trkpt lat="46.19231600" lon="7.18397300"><ele></ele><time>2014-7-5T0:56:34Z</time></trkpt>
<trkpt lat="46.19229800" lon="7.18395600"><ele></ele><time>2014-7-5T0:56:37Z</time></trkpt>
<trkpt lat="46.19227800" lon="7.18394100"><ele></ele><time>2014-7-5T0:56:40Z</time></trkpt>
<trkpt lat="46.19225900" lon="7.18392400"><ele></ele><time>2014-7-5T0:56:43Z</time></trkpt>
<trkpt lat="46.19224100" lon="7.18390600"><ele></ele><time>2014-7-5T0:56:46Z</time></trkpt>
<trkpt lat="46.19222300" lon="7.18388800"><ele></ele><time>2014-7-5T0:56:49Z</time></trkpt>
<trkpt lat="46.19220400" lon="7.18387100"><ele></ele><time>2014-7-5T0:56:52Z</time></trkpt>
<trkpt lat="46.19218400" lon="7.18385600"><ele></ele><time>2014-7-5T0:56:55Z</time></trkpt>
<trkpt lat="46.19216400" lon="7.18384300"><ele></ele><time>2014-7-5T0:56:58Z</time></trkpt>
<trkpt lat="46.19214400" lon="7.18382700"><ele></ele><time>2014-7-5T0:57:1Z</time></trkpt>
<trkpt lat="46.19212400" lon="7.18381500"><ele></ele><time>2014-7-5T0:57:4Z</time></trkpt>
<trkpt lat="46.19210100" lon="7.18380900"><ele></ele><time>2014-7-5T0:57:7Z</time></trkpt>
<trkpt lat="46.19207600" lon="7.18380700"><ele></ele><time>2014-7-5T0:57:10Z</time></trkpt>
<trkpt lat="46.19205100" lon="7.18380300"><ele></ele><time>2014-7-5T0:57:13Z</time></trkpt>
<trkpt lat="46.19202700" lon="7.18379700"><ele></ele><time>2014-7-5T0:57:16Z</time></trkpt>
<trkpt lat="46.19200200" lon="7.18378900"><ele></ele><time>2014-7-5T0:57:19Z</time></trkpt>
<trkpt lat="46.19197900" lon="7.18378100"><ele></ele><time>2014-7-5T0:57:22Z</time></trkpt>
<trkpt lat="46.19195500" lon="7.18377600"><ele></ele><time>2014-7-5T0:57:25Z</time></trkpt>
<trkpt lat="46.19193100" lon="7.18377400"><ele></ele><time>2014-7-5T0:57:28Z</time></trkpt>
<trkpt lat="46.19190800" lon="7.18377800"><ele></ele><time>2014-7-5T0:57:31Z</time></trkpt>
<trkpt lat="46.19188500" lon="7.18378000"><ele></ele><time>2014-7-5T0:57:34Z</time></trkpt>
<trkpt lat="46.19186400" lon="7.18377700"><ele></ele><time>2014-7-5T0:57:37Z</time></trkpt>
<trkpt lat="46.19184400" lon="7.18377400"><ele></ele><time>2014-7-5T0:57:40Z</time></trkpt>
<trkpt lat="46.19182700" lon="7.18377000"><ele></ele><time>2014-7-5T0:57:43Z</time></trkpt>
<trkpt lat="46.19180900" lon="7.18376500"><ele></ele><time>2014-7-5T0:57:46Z</time></trkpt>
<trkpt lat="46.19179100" lon="7.18375500"><ele></ele><time>2014-7-5T0:57:49Z</time></trkpt>
<trkpt lat="46.19177400" lon="7.18374300"><ele></ele><time>2014-7-5T0:57:52Z</time></trkpt>
<trkpt lat="46.19175500" lon="7.18373200"><ele></ele><time>2014-7-5T0:57:55Z</time></trkpt>
<trkpt lat="46.19173000" lon="7.18372300"><ele></ele><time>2014-7-5T0:57:58Z</time></trkpt>
<trkpt lat="46.19170000" lon="7.18371700"><ele></ele><time>2014-7-5T0:58:1Z</time></trkpt>
<trkpt lat="46.19166200" lon="7.18371600"><ele></ele><time>2014-7-5T0:58:4Z</time></trkpt>
<trkpt lat="46.19161500" lon="7.18372500"><ele></ele><time>2014-7-5T0:58:7Z</time></trkpt>
<trkpt lat="46.19155900" lon="7.18374700"><ele></ele><time>2014-7-5T0:58:10Z</time></trkpt>
<trkpt lat="46.19149600" lon="7.18378200"><ele></ele><time>2014-7-5T0:58:13Z</time></trkpt>
<trkpt lat="46.19142800" lon="7.18383100"><ele></ele><time>2014-7-5T0:58:16Z</time></trkpt>
<trkpt lat="46.19136100" lon="7.18388700"><ele></ele><time>2014-7-5T0:58:19Z</time></trkpt>
<trkpt lat="46.19130400" lon="7.18393300"><ele></ele><time>2014-7-5T0:58:22Z</time></trkpt>
<trkpt lat="46.19127100" lon="7.18397200"><ele></ele><time>2014-7-5T0:58:25Z</time></trkpt>
<trkpt lat="46.19126700" lon="7.18401000"><ele></ele><time>2014-7-5T0:58:28Z</time></trkpt>
<trkpt lat="46.19128500" lon="7.18404500"><ele></ele><time>2014-7-5T0:58:31Z</time></trkpt>
<trkpt lat="46.19132400" lon="7.18406800"><ele></ele><time>2014-7-5T0:58:34Z</time></trkpt>
<trkpt lat="46.19138000" lon="7.18408200"><ele></ele><time>2014-7-5T0:58:37Z</time></trkpt>
<trkpt lat="46.19144500" lon="7.18409500"><ele></ele><time>2014-7-5T0:58:40Z</time></trkpt>
<trkpt lat="46.19151900" lon="7.18411700"><ele></ele><time>2014-7-5T0:58:43Z</time></trkpt>
<trkpt lat="46.19160800" lon="7.18415000"><ele></ele><time>2014-7-5T0:58:46Z</time></trkpt>
<trkpt lat="46.19169900" lon="7.18418400"><ele></ele><time>2014-7-5T0:58:49Z</time></trkpt>
<trkpt lat="46.19177400" lon="7.18421800"><ele></ele><time>2014-7-5T0:58:52Z</time></trkpt>
<trkpt lat="46.19182500" lon="7.18424400"><ele></ele><time>2014-7-5T0:58:55Z</time></trkpt>
<trkpt lat="46.19185200" lon="7.18426700"><ele></ele><time>2014-7-5T0:58:58Z</time></trkpt>
<trkpt lat="46.19186300" lon="7.18428700"><ele></ele><time>2014-7-5T0:59:1Z</time></trkpt>
<trkpt lat="46.19187200" lon="7.18430100"><ele></ele><time>2014-7-5T0:59:4Z</time></trkpt>
<trkpt lat="46.19188200" lon="7.18431300"><ele></ele><time>2014-7-5T0:59:7Z</time></trkpt>
<trkpt lat="46.19188900" lon="7.18432700"><ele></ele><time>2014-7-5T0:59:10Z</time></trkpt>
<trkpt lat="46.19189500" lon="7.18433800"><ele></ele><time>2014-7-5T0:59:13Z</time></trkpt>
<trkpt lat="46.19190800" lon="7.18434100"><ele></ele><time>2014-7-5T0:59:16Z</time></trkpt>
<trkpt lat="46.19192600" lon="7.18434900"><ele></ele><time>2014-7-5T0:59:19Z</time></trkpt>
<trkpt lat="46.19194500" lon="7.18435500"><ele></ele><time>2014-7-5T0:59:22Z</time></trkpt>
<trkpt lat="46.19196100" lon="7.18435600"><ele></ele><time>2014-7-5T0:59:25Z</time></trkpt>
<trkpt lat="46.19197600" lon="7.18435300"><ele></ele><time>2014-7-5T0:59:28Z</time></trkpt>
<trkpt lat="46.19198700" lon="7.18434500"><ele></ele><time>2014-7-5T0:59:31Z</time></trkpt>
<trkpt lat="46.19199700" lon="7.18433500"><ele></ele><time>2014-7-5T0:59:34Z</time></trkpt>
<trkpt lat="46.19200900" lon="7.18433200"><ele></ele><time>2014-7-5T0:59:37Z</time></trkpt>
<trkpt lat="46.19201700" lon="7.18433400"><ele></ele><time>2014-7-5T0:59:40Z</time></trkpt>
<trkpt lat="46.19202500" lon="7.18433600"><ele></ele><time>2014-7-5T0:59:43Z</time></trkpt>
<trkpt lat="46.19203200" lon="7.18433900"><ele></ele><time>2014-7-5T0:59:46Z</time></trkpt>
<trkpt lat="46.19203600" lon="7.18434400"><ele></ele><time>2014-7-5T0:59:49Z</time></trkpt>
<trkpt lat="46.19203900" lon="7.18435100"><ele></ele><time>2014-7-5T0:59:52Z</time></trkpt>
<trkpt lat="46.19204700" lon="7.18436000"><ele></ele><time>2014-7-5T0:59:55Z</time></trkpt>
<trkpt lat="46.19205500" lon="7.18437100"><ele></ele><time>2014-7-5T0:59:58Z</time></trkpt>
<trkpt lat="46.19206400" lon="7.18438300"><ele></ele><time>2014-7-5T1:0:1Z</time></trkpt>
<trkpt lat="46.19207300" lon="7.18439300"><ele></ele><time>2014-7-5T1:0:4Z</time></trkpt>
<trkpt lat="46.19208000" lon="7.18439900"><ele></ele><time>2014-7-5T1:0:7Z</time></trkpt>
<trkpt lat="46.19209000" lon="7.18440700"><ele></ele><time>2014-7-5T1:0:10Z</time></trkpt>
<trkpt lat="46.19209900" lon="7.18441700"><ele></ele><time>2014-7-5T1:0:13Z</time></trkpt>
<trkpt lat="46.19210600" lon="7.18442600"><ele></ele><time>2014-7-5T1:0:16Z</time></trkpt>
<trkpt lat="46.19211000" lon="7.18444600"><ele></ele><time>2014-7-5T1:0:19Z</time></trkpt>
<trkpt lat="46.19211500" lon="7.18448000"><ele></ele><time>2014-7-5T1:0:22Z</time></trkpt>
<trkpt lat="46.19212300" lon="7.18452700"><ele></ele><time>2014-7-5T1:0:25Z</time></trkpt>
<trkpt lat="46.19213400" lon="7.18457900"><ele></ele><time>2014-7-5T1:0:28Z</time></trkpt>
<trkpt lat="46.19214800" lon="7.18463800"><ele></ele><time>2014-7-5T1:0:31Z</time></trkpt>
<trkpt lat="46.19217400" lon="7.18472500"><ele></ele><time>2014-7-5T1:0:34Z</time></trkpt>
<trkpt lat="46.19221300" lon="7.18484500"><ele></ele><time>2014-7-5T1:0:37Z</time></trkpt>
<trkpt lat="46.19225900" lon="7.18497100"><ele></ele><time>2014-7-5T1:0:40Z</time></trkpt>
<trkpt lat="46.19231300" lon="7.18510200"><ele></ele><time>2014-7-5T1:0:43Z</time></trkpt>
<trkpt lat="46.19236200" lon="7.18524500"><ele></ele><time>2014-7-5T1:0:46Z</time></trkpt>
<trkpt lat="46.19241300" lon="7.18539100"><ele></ele><time>2014-7-5T1:0:49Z</time></trkpt>
<trkpt lat="46.19245500" lon="7.18554100"><ele></ele><time>2014-7-5T1:0:52Z</time></trkpt>
<trkpt lat="46.19248000" lon="7.18569800"><ele></ele><time>2014-7-5T1:0:55Z</time></trkpt>
<trkpt lat="46.19249000" lon="7.18585800"><ele></ele><time>2014-7-5T1:0:58Z</time></trkpt>
<trkpt lat="46.19249400" lon="7.18602100"><ele></ele><time>2014-7-5T1:1:1Z</time></trkpt>
<trkpt lat="46.19249800" lon="7.18617700"><ele></ele><time>2014-7-5T1:1:4Z</time></trkpt>
<trkpt lat="46.19250800" lon="7.18632200"><ele></ele><time>2014-7-5T1:1:7Z</time></trkpt>
<trkpt lat="46.19251900" lon="7.18644700"><ele></ele><time>2014-7-5T1:1:10Z</time></trkpt>
<trkpt lat="46.19253300" lon="7.18655200"><ele></ele><time>2014-7-5T1:1:13Z</time></trkpt>
<trkpt lat="46.19255000" lon="7.18663700"><ele></ele><time>2014-7-5T1:1:16Z</time></trkpt>
<trkpt lat="46.19256800" lon="7.18669500"><ele></ele><time>2014-7-5T1:1:19Z</time></trkpt>
<trkpt lat="46.19258700" lon="7.18674000"><ele></ele><time>2014-7-5T1:1:22Z</time></trkpt>
<trkpt lat="46.19260500" lon="7.18677400"><ele></ele><time>2014-7-5T1:1:25Z</time></trkpt>
<trkpt lat="46.19261900" lon="7.18680500"><ele></ele><time>2014-7-5T1:1:28Z</time></trkpt>
<trkpt lat="46.19263300" lon="7.18683400"><ele></ele><time>2014-7-5T1:1:31Z</time></trkpt>
<trkpt lat="46.19263400" lon="7.18685900"><ele></ele><time>2014-7-5T1:1:34Z</time></trkpt>
<trkpt lat="46.19261900" lon="7.18687000"><ele></ele><time>2014-7-5T1:1:37Z</time></trkpt>
<trkpt lat="46.19259800" lon="7.18685700"><ele></ele><time>2014-7-5T1:1:40Z</time></trkpt>
<trkpt lat="46.19257600" lon="7.18682400"><ele></ele><time>2014-7-5T1:1:43Z</time></trkpt>
<trkpt lat="46.19254800" lon="7.18678000"><ele></ele><time>2014-7-5T1:1:46Z</time></trkpt>
<trkpt lat="46.19251500" lon="7.18672700"><ele></ele><time>2014-7-5T1:1:49Z</time></trkpt>
<trkpt lat="46.19247900" lon="7.18666000"><ele></ele><time>2014-7-5T1:1:52Z</time></trkpt>
<trkpt lat="46.19244400" lon="7.18658100"><ele></ele><time>2014-7-5T1:1:55Z</time></trkpt>
<trkpt lat="46.19240900" lon="7.18649000"><ele></ele><time>2014-7-5T1:1:58Z</time></trkpt>
<trkpt lat="46.19237300" lon="7.18639000"><ele></ele><time>2014-7-5T1:2:1Z</time></trkpt>
<trkpt lat="46.19232700" lon="7.18628900"><ele></ele><time>2014-7-5T1:2:4Z</time></trkpt>
<trkpt lat="46.19227100" lon="7.18619200"><ele></ele><time>2014-7-5T1:2:7Z</time></trkpt>
<trkpt lat="46.19221000" lon="7.18610400"><ele></ele><time>2014-7-5T1:2:10Z</time></trkpt>
<trkpt lat="46.19214100" lon="7.18604000"><ele></ele><time>2014-7-5T1:2:13Z</time></trkpt>
<trkpt lat="46.19206200" lon="7.18601000"><ele></ele><time>2014-7-5T1:2:16Z</time></trkpt>
<trkpt lat="46.19197700" lon="7.18598600"><ele></ele><time>2014-7-5T1:2:19Z</time></trkpt>
<trkpt lat="46.19189900" lon="7.18593900"><ele></ele><time>2014-7-5T1:2:22Z</time></trkpt>
<trkpt lat="46.19183400" lon="7.18587300"><ele></ele><time>2014-7-5T1:2:25Z</time></trkpt>
<trkpt lat="46.19177900" lon="7.18581000"><ele></ele><time>2014-7-5T1:2:28Z</time></trkpt>
<trkpt lat="46.19172900" lon="7.18575700"><ele></ele><time>2014-7-5T1:2:31Z</time></trkpt>
<trkpt lat="46.19168600" lon="7.18572600"><ele></ele><time>2014-7-5T1:2:34Z</time></trkpt>
<trkpt lat="46.19165200" lon="7.18571200"><ele></ele><time>2014-7-5T1:2:37Z</time></trkpt>
<trkpt lat="46.19162400" lon="7.18570100"><ele></ele><time>2014-7-5T1:2:40Z</time></trkpt>
<trkpt lat="46.19160200" lon="7.18568800"><ele></ele><time>2014-7-5T1:2:43Z</time></trkpt>
<trkpt lat="46.19158300" lon="7.18568200"><ele></ele><time>2014-7-5T1:2:46Z</time></trkpt>
<trkpt lat="46.19156400" lon="7.18568000"><ele></ele><time>2014-7-5T1:2:49Z</time></trkpt>
<trkpt lat="46.19154200" lon="7.18567700"><ele></ele><time>2014-7-5T1:2:52Z</time></trkpt>
<trkpt lat="46.19151800" lon="7.18567300"><ele></ele><time>2014-7-5T1:2:55Z</time></trkpt>
<trkpt lat="46.19149300" lon="7.18567100"><ele></ele><time>2014-7-5T1:2:58Z</time></trkpt>
<trkpt lat="46.19146700" lon="7.18566900"><ele></ele><time>2014-7-5T1:3:1Z</time></trkpt>
<trkpt lat="46.19144400" lon="7.18566700"><ele></ele><time>2014-7-5T1:3:4Z</time></trkpt>
<trkpt lat="46.19141900" lon="7.18566200"><ele></ele><time>2014-7-5T1:3:7Z</time></trkpt>
<trkpt lat="46.19139600" lon="7.18565500"><ele></ele><time>2014-7-5T1:3:10Z</time></trkpt>
<trkpt lat="46.19137300" lon="7.18565000"><ele></ele><time>2014-7-5T1:3:13Z</time></trkpt>
<trkpt lat="46.19135200" lon="7.18564300"><ele></ele><time>2014-7-5T1:3:16Z</time></trkpt>
<trkpt lat="46.19133400" lon="7.18563300"><ele></ele><time>2014-7-5T1:3:19Z</time></trkpt>
<trkpt lat="46.19132000" lon="7.18562000"><ele></ele><time>2014-7-5T1:3:22Z</time></trkpt>
<trkpt lat="46.19130700" lon="7.18560900"><ele></ele><time>2014-7-5T1:3:25Z</time></trkpt>
<trkpt lat="46.19129300" lon="7.18560200"><ele></ele><time>2014-7-5T1:3:28Z</time></trkpt>
<trkpt lat="46.19127600" lon="7.18559600"><ele></ele><time>2014-7-5T1:3:31Z</time></trkpt>
<trkpt lat="46.19126000" lon="7.18558900"><ele></ele><time>2014-7-5T1:3:34Z</time></trkpt>
<trkpt lat="46.19124400" lon="7.18558200"><ele></ele><time>2014-7-5T1:3:37Z</time></trkpt>
<trkpt lat="46.19122600" lon="7.18557500"><ele></ele><time>2014-7-5T1:3:40Z</time></trkpt>
<trkpt lat="46.19120800" lon="7.18556400"><ele></ele><time>2014-7-5T1:3:43Z</time></trkpt>
<trkpt lat="46.19119000" lon="7.18555500"><ele></ele><time>2014-7-5T1:3:46Z</time></trkpt>
<trkpt lat="46.19117300" lon="7.18555000"><ele></ele><time>2014-7-5T1:3:49Z</time></trkpt>
<trkpt lat="46.19116200" lon="7.18554700"><ele></ele><time>2014-7-5T1:3:52Z</time></trkpt>
<trkpt lat="46.19115700" lon="7.18554600"><ele></ele><time>2014-7-5T1:3:55Z</time></trkpt>
<trkpt lat="46.19115800" lon="7.18554600"><ele></ele><time>2014-7-5T1:3:58Z</time></trkpt>
<trkpt lat="46.19113800" lon="7.18552800"><ele></ele><time>2014-7-5T1:4:1Z</time></trkpt>
<trkpt lat="46.19113400" lon="7.18552500"><ele></ele><time>2014-7-5T1:4:4Z</time></trkpt>
<trkpt lat="46.19112700" lon="7.18550000"><ele></ele><time>2014-7-5T1:4:7Z</time></trkpt>
<trkpt lat="46.19112300" lon="7.18550000"><ele></ele><time>2014-7-5T1:4:10Z</time></trkpt>
<trkpt lat="46.19113200" lon="7.18550500"><ele></ele><time>2014-7-5T1:4:13Z</time></trkpt>
<trkpt lat="46.19113500" lon="7.18550600"><ele></ele><time>2014-7-5T1:4:16Z</time></trkpt>
<trkpt lat="46.19115400" lon="7.18552900"><ele></ele><time>2014-7-5T1:4:19Z</time></trkpt>
<trkpt lat="46.19116200" lon="7.18552900"><ele></ele><time>2014-7-5T1:4:22Z</time></trkpt>
<trkpt lat="46.19116900" lon="7.18552500"><ele></ele><time>2014-7-5T1:4:25Z</time></trkpt>
<trkpt lat="46.19117200" lon="7.18551900"><ele></ele><time>2014-7-5T1:4:28Z</time></trkpt>
<trkpt lat="46.19117100" lon="7.18551300"><ele></ele><time>2014-7-5T1:4:31Z</time></trkpt>
<trkpt lat="46.19117200" lon="7.18551100"><ele></ele><time>2014-7-5T1:4:34Z</time></trkpt>
<trkpt lat="46.19117400" lon="7.18551200"><ele></ele><time>2014-7-5T1:4:37Z</time></trkpt>
<trkpt lat="46.19121200" lon="7.18549100"><ele></ele><time>2014-7-5T1:4:40Z</time></trkpt>
<trkpt lat="46.19120200" lon="7.18548500"><ele></ele><time>2014-7-5T1:4:43Z</time></trkpt>
<trkpt lat="46.19119200" lon="7.18548000"><ele></ele><time>2014-7-5T1:4:46Z</time></trkpt>
<trkpt lat="46.19118400" lon="7.18547700"><ele></ele><time>2014-7-5T1:4:49Z</time></trkpt>
<trkpt lat="46.19117800" lon="7.18547500"><ele></ele><time>2014-7-5T1:4:52Z</time></trkpt>
<trkpt lat="46.19117300" lon="7.18547700"><ele></ele><time>2014-7-5T1:4:55Z</time></trkpt>
<trkpt lat="46.19117000" lon="7.18548100"><ele></ele><time>2014-7-5T1:4:58Z</time></trkpt>
<trkpt lat="46.19117100" lon="7.18548200"><ele></ele><time>2014-7-5T1:5:1Z</time></trkpt>
<trkpt lat="46.19110300" lon="7.18551900"><ele></ele><time>2014-7-5T1:5:4Z</time></trkpt>
<trkpt lat="46.19110000" lon="7.18551700"><ele></ele><time>2014-7-5T1:5:7Z</time></trkpt>
<trkpt lat="46.19107000" lon="7.18550600"><ele></ele><time>2014-7-5T1:5:10Z</time></trkpt>
<trkpt lat="46.19106500" lon="7.18550300"><ele></ele><time>2014-7-5T1:5:13Z</time></trkpt>
<trkpt lat="46.19105100" lon="7.18550400"><ele></ele><time>2014-7-5T1:5:16Z</time></trkpt>
<trkpt lat="46.19104700" lon="7.18550200"><ele></ele><time>2014-7-5T1:5:19Z</time></trkpt>
<trkpt lat="46.19104600" lon="7.18550300"><ele></ele><time>2014-7-5T1:5:22Z</time></trkpt>
<trkpt lat="46.19102100" lon="7.18550700"><ele></ele><time>2014-7-5T1:5:25Z</time></trkpt>
<trkpt lat="46.19101500" lon="7.18550900"><ele></ele><time>2014-7-5T1:5:28Z</time></trkpt>
<trkpt lat="46.19100700" lon="7.18551000"><ele></ele><time>2014-7-5T1:5:31Z</time></trkpt>
<trkpt lat="46.19100000" lon="7.18551100"><ele></ele><time>2014-7-5T1:5:34Z</time></trkpt>
<trkpt lat="46.19099300" lon="7.18551100"><ele></ele><time>2014-7-5T1:5:37Z</time></trkpt>
<trkpt lat="46.19098700" lon="7.18550900"><ele></ele><time>2014-7-5T1:5:40Z</time></trkpt>
<trkpt lat="46.19097900" lon="7.18551200"><ele></ele><time>2014-7-5T1:5:43Z</time></trkpt>
<trkpt lat="46.19097000" lon="7.18551500"><ele></ele><time>2014-7-5T1:5:46Z</time></trkpt>
<trkpt lat="46.19096200" lon="7.18551800"><ele></ele><time>2014-7-5T1:5:49Z</time></trkpt>
<trkpt lat="46.19095200" lon="7.18552200"><ele></ele><time>2014-7-5T1:5:52Z</time></trkpt>
<trkpt lat="46.19094400" lon="7.18552300"><ele></ele><time>2014-7-5T1:5:55Z</time></trkpt>
<trkpt lat="46.19093900" lon="7.18551900"><ele></ele><time>2014-7-5T1:5:58Z</time></trkpt>
<trkpt lat="46.19093400" lon="7.18551500"><ele></ele><time>2014-7-5T1:6:1Z</time></trkpt>
<trkpt lat="46.19093100" lon="7.18551600"><ele></ele><time>2014-7-5T1:6:4Z</time></trkpt>
<trkpt lat="46.19088700" lon="7.18553200"><ele></ele><time>2014-7-5T1:6:7Z</time></trkpt>
<trkpt lat="46.19087600" lon="7.18553800"><ele></ele><time>2014-7-5T1:6:10Z</time></trkpt>
<trkpt lat="46.19086200" lon="7.18554300"><ele></ele><time>2014-7-5T1:6:13Z</time></trkpt>
<trkpt lat="46.19083100" lon="7.18554800"><ele></ele><time>2014-7-5T1:6:16Z</time></trkpt>
<trkpt lat="46.19079100" lon="7.18555600"><ele></ele><time>2014-7-5T1:6:19Z</time></trkpt>
<trkpt lat="46.19075600" lon="7.18556300"><ele></ele><time>2014-7-5T1:6:22Z</time></trkpt>
<trkpt lat="46.19073200" lon="7.18556900"><ele></ele><time>2014-7-5T1:6:25Z</time></trkpt>
<trkpt lat="46.19071900" lon="7.18557300"><ele></ele><time>2014-7-5T1:6:28Z</time></trkpt>
<trkpt lat="46.19071200" lon="7.18557500"><ele></ele><time>2014-7-5T1:6:31Z</time></trkpt>
<trkpt lat="46.19070500" lon="7.18557700"><ele></ele><time>2014-7-5T1:6:34Z</time></trkpt>
<trkpt lat="46.19069200" lon="7.18558200"><ele></ele><time>2014-7-5T1:6:37Z</time></trkpt>
<trkpt lat="46.19067600" lon="7.18558400"><ele></ele><time>2014-7-5T1:6:40Z</time></trkpt>
<trkpt lat="46.19066000" lon="7.18558100"><ele></ele><time>2014-7-5T1:6:43Z</time></trkpt>
<trkpt lat="46.19064700" lon="7.18558300"><ele></ele><time>2014-7-5T1:6:46Z</time></trkpt>
<trkpt lat="46.19063800" lon="7.18558900"><ele></ele><time>2014-7-5T1:6:49Z</time></trkpt>
<trkpt lat="46.19063000" lon="7.18559300"><ele></ele><time>2014-7-5T1:6:52Z</time></trkpt>
<trkpt lat="46.19061600" lon="7.18559200"><ele></ele><time>2014-7-5T1:6:55Z</time></trkpt>
<trkpt lat="46.19060600" lon="7.18558600"><ele></ele><time>2014-7-5T1:6:58Z</time></trkpt>
<trkpt lat="46.19060200" lon="7.18558200"><ele></ele><time>2014-7-5T1:7:1Z</time></trkpt>
<trkpt lat="46.19059500" lon="7.18557900"><ele></ele><time>2014-7-5T1:7:4Z</time></trkpt>
<trkpt lat="46.19058900" lon="7.18557900"><ele></ele><time>2014-7-5T1:7:7Z</time></trkpt>
<trkpt lat="46.19058200" lon="7.18558000"><ele></ele><time>2014-7-5T1:7:10Z</time></trkpt>
<trkpt lat="46.19057600" lon="7.18557800"><ele></ele><time>2014-7-5T1:7:13Z</time></trkpt>
<trkpt lat="46.19057300" lon="7.18557700"><ele></ele><time>2014-7-5T1:7:16Z</time></trkpt>
<trkpt lat="46.19056700" lon="7.18557900"><ele></ele><time>2014-7-5T1:7:19Z</time></trkpt>
<trkpt lat="46.19054900" lon="7.18559800"><ele></ele><time>2014-7-5T1:7:22Z</time></trkpt>
<trkpt lat="46.19053900" lon="7.18560300"><ele></ele><time>2014-7-5T1:7:25Z</time></trkpt>
<trkpt lat="46.19051500" lon="7.18561400"><ele></ele><time>2014-7-5T1:7:28Z</time></trkpt>
<trkpt lat="46.19048800" lon="7.18562800"><ele></ele><time>2014-7-5T1:7:31Z</time></trkpt>
<trkpt lat="46.19046100" lon="7.18563900"><ele></ele><time>2014-7-5T1:7:34Z</time></trkpt>
<trkpt lat="46.19043300" lon="7.18564800"><ele></ele><time>2014-7-5T1:7:37Z</time></trkpt>
<trkpt lat="46.19041300" lon="7.18565500"><ele></ele><time>2014-7-5T1:7:40Z</time></trkpt>
<trkpt lat="46.19040100" lon="7.18566200"><ele></ele><time>2014-7-5T1:7:43Z</time></trkpt>
<trkpt lat="46.19039500" lon="7.18566800"><ele></ele><time>2014-7-5T1:7:46Z</time></trkpt>
<trkpt lat="46.19039000" lon="7.18567000"><ele></ele><time>2014-7-5T1:7:49Z</time></trkpt>
<trkpt lat="46.19037800" lon="7.18567100"><ele></ele><time>2014-7-5T1:7:52Z</time></trkpt>
<trkpt lat="46.19035100" lon="7.18567700"><ele></ele><time>2014-7-5T1:7:55Z</time></trkpt>
<trkpt lat="46.19030900" lon="7.18568700"><ele></ele><time>2014-7-5T1:7:58Z</time></trkpt>
<trkpt lat="46.19025200" lon="7.18571100"><ele></ele><time>2014-7-5T1:8:1Z</time></trkpt>
<trkpt lat="46.19018600" lon="7.18574300"><ele></ele><time>2014-7-5T1:8:4Z</time></trkpt>
<trkpt lat="46.19012700" lon="7.18576800"><ele></ele><time>2014-7-5T1:8:7Z</time></trkpt>
<trkpt lat="46.19007100" lon="7.18579400"><ele></ele><time>2014-7-5T1:8:10Z</time></trkpt>
<trkpt lat="46.19001400" lon="7.18581600"><ele></ele><time>2014-7-5T1:8:13Z</time></trkpt>
<trkpt lat="46.18995100" lon="7.18583400"><ele></ele><time>2014-7-5T1:8:16Z</time></trkpt>
<trkpt lat="46.18988300" lon="7.18584700"><ele></ele><time>2014-7-5T1:8:19Z</time></trkpt>
<trkpt lat="46.18981500" lon="7.18584400"><ele></ele><time>2014-7-5T1:8:22Z</time></trkpt>
<trkpt lat="46.18974900" lon="7.18583300"><ele></ele><time>2014-7-5T1:8:25Z</time></trkpt>
<trkpt lat="46.18969700" lon="7.18582500"><ele></ele><time>2014-7-5T1:8:28Z</time></trkpt>
<trkpt lat="46.18965400" lon="7.18581600"><ele></ele><time>2014-7-5T1:8:31Z</time></trkpt>
<trkpt lat="46.18961200" lon="7.18581600"><ele></ele><time>2014-7-5T1:8:34Z</time></trkpt>
<trkpt lat="46.18958500" lon="7.18583200"><ele></ele><time>2014-7-5T1:8:37Z</time></trkpt>
<trkpt lat="46.18956100" lon="7.18584600"><ele></ele><time>2014-7-5T1:8:40Z</time></trkpt>
<trkpt lat="46.18953900" lon="7.18586200"><ele></ele><time>2014-7-5T1:8:43Z</time></trkpt>
<trkpt lat="46.18953600" lon="7.18588200"><ele></ele><time>2014-7-5T1:8:46Z</time></trkpt>
<trkpt lat="46.18954200" lon="7.18590600"><ele></ele><time>2014-7-5T1:8:49Z</time></trkpt>
<trkpt lat="46.18954400" lon="7.18593000"><ele></ele><time>2014-7-5T1:8:52Z</time></trkpt>
<trkpt lat="46.18954200" lon="7.18595200"><ele></ele><time>2014-7-5T1:8:55Z</time></trkpt>
<trkpt lat="46.18952900" lon="7.18596500"><ele></ele><time>2014-7-5T1:8:58Z</time></trkpt>
<trkpt lat="46.18950400" lon="7.18596200"><ele></ele><time>2014-7-5T1:9:1Z</time></trkpt>
<trkpt lat="46.18947000" lon="7.18595700"><ele></ele><time>2014-7-5T1:9:4Z</time></trkpt>
<trkpt lat="46.18944200" lon="7.18596400"><ele></ele><time>2014-7-5T1:9:7Z</time></trkpt>
<trkpt lat="46.18940900" lon="7.18599000"><ele></ele><time>2014-7-5T1:9:10Z</time></trkpt>
<trkpt lat="46.18938000" lon="7.18602200"><ele></ele><time>2014-7-5T1:9:13Z</time></trkpt>
<trkpt lat="46.18935700" lon="7.18605600"><ele></ele><time>2014-7-5T1:9:16Z</time></trkpt>
<trkpt lat="46.18934100" lon="7.18608000"><ele></ele><time>2014-7-5T1:9:19Z</time></trkpt>
<trkpt lat="46.18932700" lon="7.18609600"><ele></ele><time>2014-7-5T1:9:22Z</time></trkpt>
<trkpt lat="46.18931500" lon="7.18610500"><ele></ele><time>2014-7-5T1:9:25Z</time></trkpt>
<trkpt lat="46.18930500" lon="7.18611800"><ele></ele><time>2014-7-5T1:9:28Z</time></trkpt>
<trkpt lat="46.18929100" lon="7.18613000"><ele></ele><time>2014-7-5T1:9:31Z</time></trkpt>
<trkpt lat="46.18927500" lon="7.18614300"><ele></ele><time>2014-7-5T1:9:34Z</time></trkpt>
<trkpt lat="46.18926200" lon="7.18615800"><ele></ele><time>2014-7-5T1:9:37Z</time></trkpt>
<trkpt lat="46.18925100" lon="7.18617900"><ele></ele><time>2014-7-5T1:9:40Z</time></trkpt>
<trkpt lat="46.18924100" lon="7.18619600"><ele></ele><time>2014-7-5T1:9:43Z</time></trkpt>
<trkpt lat="46.18923600" lon="7.18620700"><ele></ele><time>2014-7-5T1:9:46Z</time></trkpt>
<trkpt lat="46.18923100" lon="7.18621700"><ele></ele><time>2014-7-5T1:9:49Z</time></trkpt>
<trkpt lat="46.18922000" lon="7.18623500"><ele></ele><time>2014-7-5T1:9:52Z</time></trkpt>
<trkpt lat="46.18920800" lon="7.18625700"><ele></ele><time>2014-7-5T1:9:55Z</time></trkpt>
<trkpt lat="46.18919900" lon="7.18627900"><ele></ele><time>2014-7-5T1:9:58Z</time></trkpt>
<trkpt lat="46.18919100" lon="7.18629900"><ele></ele><time>2014-7-5T1:10:1Z</time></trkpt>
<trkpt lat="46.18918400" lon="7.18632300"><ele></ele><time>2014-7-5T1:10:4Z</time></trkpt>
<trkpt lat="46.18917700" lon="7.18634800"><ele></ele><time>2014-7-5T1:10:7Z</time></trkpt>
<trkpt lat="46.18917500" lon="7.18637700"><ele></ele><time>2014-7-5T1:10:10Z</time></trkpt>
<trkpt lat="46.18917700" lon="7.18641600"><ele></ele><time>2014-7-5T1:10:13Z</time></trkpt>
<trkpt lat="46.18917600" lon="7.18646100"><ele></ele><time>2014-7-5T1:10:16Z</time></trkpt>
<trkpt lat="46.18916700" lon="7.18652300"><ele></ele><time>2014-7-5T1:10:19Z</time></trkpt>
<trkpt lat="46.18914400" lon="7.18658100"><ele></ele><time>2014-7-5T1:10:22Z</time></trkpt>
<trkpt lat="46.18911800" lon="7.18663500"><ele></ele><time>2014-7-5T1:10:25Z</time></trkpt>
<trkpt lat="46.18909400" lon="7.18668300"><ele></ele><time>2014-7-5T1:10:28Z</time></trkpt>
<trkpt lat="46.18906700" lon="7.18671300"><ele></ele><time>2014-7-5T1:10:31Z</time></trkpt>
<trkpt lat="46.18903800" lon="7.18673400"><ele></ele><time>2014-7-5T1:10:34Z</time></trkpt>
<trkpt lat="46.18901600" lon="7.18675400"><ele></ele><time>2014-7-5T1:10:37Z</time></trkpt>
<trkpt lat="46.18901200" lon="7.18677700"><ele></ele><time>2014-7-5T1:10:40Z</time></trkpt>
<trkpt lat="46.18902400" lon="7.18679500"><ele></ele><time>2014-7-5T1:10:43Z</time></trkpt>
<trkpt lat="46.18904800" lon="7.18681800"><ele></ele><time>2014-7-5T1:10:46Z</time></trkpt>
<trkpt lat="46.18908500" lon="7.18684400"><ele></ele><time>2014-7-5T1:10:49Z</time></trkpt>
<trkpt lat="46.18912900" lon="7.18687900"><ele></ele><time>2014-7-5T1:10:52Z</time></trkpt>
<trkpt lat="46.18917100" lon="7.18691700"><ele></ele><time>2014-7-5T1:10:55Z</time></trkpt>
<trkpt lat="46.18921300" lon="7.18695200"><ele></ele><time>2014-7-5T1:10:58Z</time></trkpt>
<trkpt lat="46.18924900" lon="7.18698200"><ele></ele><time>2014-7-5T1:11:1Z</time></trkpt>
<trkpt lat="46.18928400" lon="7.18699600"><ele></ele><time>2014-7-5T1:11:4Z</time></trkpt>
<trkpt lat="46.18931700" lon="7.18701400"><ele></ele><time>2014-7-5T1:11:7Z</time></trkpt>
<trkpt lat="46.18934000" lon="7.18704900"><ele></ele><time>2014-7-5T1:11:10Z</time></trkpt>
<trkpt lat="46.18935700" lon="7.18707900"><ele></ele><time>2014-7-5T1:11:13Z</time></trkpt>
<trkpt lat="46.18936700" lon="7.18710200"><ele></ele><time>2014-7-5T1:11:16Z</time></trkpt>
<trkpt lat="46.18936900" lon="7.18711200"><ele></ele><time>2014-7-5T1:11:19Z</time></trkpt>
<trkpt lat="46.18936700" lon="7.18711100"><ele></ele><time>2014-7-5T1:11:22Z</time></trkpt>
<trkpt lat="46.18937500" lon="7.18711000"><ele></ele><time>2014-7-5T1:11:25Z</time></trkpt>
<trkpt lat="46.18937500" lon="7.18710900"><ele></ele><time>2014-7-5T1:11:28Z</time></trkpt>
<trkpt lat="46.18938300" lon="7.18713600"><ele></ele><time>2014-7-5T1:11:31Z</time></trkpt>
<trkpt lat="46.18939600" lon="7.18713400"><ele></ele><time>2014-7-5T1:11:34Z</time></trkpt>
<trkpt lat="46.18940800" lon="7.18712000"><ele></ele><time>2014-7-5T1:11:37Z</time></trkpt>
<trkpt lat="46.18941600" lon="7.18709800"><ele></ele><time>2014-7-5T1:11:40Z</time></trkpt>
<trkpt lat="46.18941600" lon="7.18707600"><ele></ele><time>2014-7-5T1:11:43Z</time></trkpt>
<trkpt lat="46.18940800" lon="7.18706300"><ele></ele><time>2014-7-5T1:11:46Z</time></trkpt>
<trkpt lat="46.18939600" lon="7.18706400"><ele></ele><time>2014-7-5T1:11:49Z</time></trkpt>
<trkpt lat="46.18938400" lon="7.18707000"><ele></ele><time>2014-7-5T1:11:52Z</time></trkpt>
<trkpt lat="46.18937300" lon="7.18707400"><ele></ele><time>2014-7-5T1:11:55Z</time></trkpt>
<trkpt lat="46.18936500" lon="7.18707900"><ele></ele><time>2014-7-5T1:11:58Z</time></trkpt>
<trkpt lat="46.18936200" lon="7.18708800"><ele></ele><time>2014-7-5T1:12:1Z</time></trkpt>
<trkpt lat="46.18935700" lon="7.18709600"><ele></ele><time>2014-7-5T1:12:4Z</time></trkpt>
<trkpt lat="46.18935400" lon="7.18710300"><ele></ele><time>2014-7-5T1:12:7Z</time></trkpt>
<trkpt lat="46.18935500" lon="7.18711200"><ele></ele><time>2014-7-5T1:12:10Z</time></trkpt>
<trkpt lat="46.18935600" lon="7.18712100"><ele></ele><time>2014-7-5T1:12:13Z</time></trkpt>
<trkpt lat="46.18935700" lon="7.18712500"><ele></ele><time>2014-7-5T1:12:16Z</time></trkpt>
<trkpt lat="46.18936200" lon="7.18712700"><ele></ele><time>2014-7-5T1:12:19Z</time></trkpt>
<trkpt lat="46.18936400" lon="7.18713300"><ele></ele><time>2014-7-5T1:12:22Z</time></trkpt>
<trkpt lat="46.18936500" lon="7.18713600"><ele></ele><time>2014-7-5T1:12:25Z</time></trkpt>
<trkpt lat="46.18937700" lon="7.18716700"><ele></ele><time>2014-7-5T1:12:28Z</time></trkpt>
<trkpt lat="46.18938100" lon="7.18717500"><ele></ele><time>2014-7-5T1:12:31Z</time></trkpt>
<trkpt lat="46.18938500" lon="7.18718200"><ele></ele><time>2014-7-5T1:12:34Z</time></trkpt>
<trkpt lat="46.18939000" lon="7.18719100"><ele></ele><time>2014-7-5T1:12:37Z</time></trkpt>
<trkpt lat="46.18939200" lon="7.18719600"><ele></ele><time>2014-7-5T1:12:40Z</time></trkpt>
<trkpt lat="46.18939500" lon="7.18720200"><ele></ele><time>2014-7-5T1:12:43Z</time></trkpt>
<trkpt lat="46.18939900" lon="7.18720700"><ele></ele><time>2014-7-5T1:12:46Z</time></trkpt>
<trkpt lat="46.18940200" lon="7.18721200"><ele></ele><time>2014-7-5T1:12:49Z</time></trkpt>
<trkpt lat="46.18940500" lon="7.18721700"><ele></ele><time>2014-7-5T1:12:52Z</time></trkpt>
<trkpt lat="46.18940700" lon="7.18722300"><ele></ele><time>2014-7-5T1:12:55Z</time></trkpt>
<trkpt lat="46.18941200" lon="7.18723100"><ele></ele><time>2014-7-5T1:12:58Z</time></trkpt>
<trkpt lat="46.18941600" lon="7.18723700"><ele></ele><time>2014-7-5T1:13:1Z</time></trkpt>
<trkpt lat="46.18942000" lon="7.18724200"><ele></ele><time>2014-7-5T1:13:4Z</time></trkpt>
<trkpt lat="46.18942400" lon="7.18724800"><ele></ele><time>2014-7-5T1:13:7Z</time></trkpt>
<trkpt lat="46.18942800" lon="7.18725500"><ele></ele><time>2014-7-5T1:13:10Z</time></trkpt>
<trkpt lat="46.18943300" lon="7.18726500"><ele></ele><time>2014-7-5T1:13:13Z</time></trkpt>
<trkpt lat="46.18943800" lon="7.18727200"><ele></ele><time>2014-7-5T1:13:16Z</time></trkpt>
<trkpt lat="46.18944200" lon="7.18727900"><ele></ele><time>2014-7-5T1:13:19Z</time></trkpt>
<trkpt lat="46.18944700" lon="7.18728700"><ele></ele><time>2014-7-5T1:13:22Z</time></trkpt>
<trkpt lat="46.18945200" lon="7.18729700"><ele></ele><time>2014-7-5T1:13:25Z</time></trkpt>
<trkpt lat="46.18945500" lon="7.18730200"><ele></ele><time>2014-7-5T1:13:28Z</time></trkpt>
<trkpt lat="46.18945700" lon="7.18730500"><ele></ele><time>2014-7-5T1:13:31Z</time></trkpt>
<trkpt lat="46.18949600" lon="7.18735600"><ele></ele><time>2014-7-5T1:13:34Z</time></trkpt>
<trkpt lat="46.18952400" lon="7.18738100"><ele></ele><time>2014-7-5T1:13:37Z</time></trkpt>
<trkpt lat="46.18955800" lon="7.18740100"><ele></ele><time>2014-7-5T1:13:40Z</time></trkpt>
<trkpt lat="46.18960900" lon="7.18741800"><ele></ele><time>2014-7-5T1:13:43Z</time></trkpt>
<trkpt lat="46.18966500" lon="7.18743700"><ele></ele><time>2014-7-5T1:13:46Z</time></trkpt>
<trkpt lat="46.18973100" lon="7.18745900"><ele></ele><time>2014-7-5T1:13:49Z</time></trkpt>
<trkpt lat="46.18980500" lon="7.18748200"><ele></ele><time>2014-7-5T1:13:52Z</time></trkpt>
<trkpt lat="46.18987000" lon="7.18751000"><ele></ele><time>2014-7-5T1:13:55Z</time></trkpt>
<trkpt lat="46.18993000" lon="7.18755000"><ele></ele><time>2014-7-5T1:13:58Z</time></trkpt>
<trkpt lat="46.18999100" lon="7.18759300"><ele></ele><time>2014-7-5T1:14:1Z</time></trkpt>
<trkpt lat="46.19006200" lon="7.18763100"><ele></ele><time>2014-7-5T1:14:4Z</time></trkpt>
<trkpt lat="46.19014100" lon="7.18766900"><ele></ele><time>2014-7-5T1:14:7Z</time></trkpt>
<trkpt lat="46.19021100" lon="7.18771000"><ele></ele><time>2014-7-5T1:14:10Z</time></trkpt>
<trkpt lat="46.19027800" lon="7.18774700"><ele></ele><time>2014-7-5T1:14:13Z</time></trkpt>
<trkpt lat="46.19034000" lon="7.18779900"><ele></ele><time>2014-7-5T1:14:16Z</time></trkpt>
<trkpt lat="46.19039600" lon="7.18786400"><ele></ele><time>2014-7-5T1:14:19Z</time></trkpt>
<trkpt lat="46.19048700" lon="7.18810200"><ele></ele><time>2014-7-5T1:14:22Z</time></trkpt>
<trkpt lat="46.19049600" lon="7.18813600"><ele></ele><time>2014-7-5T1:14:25Z</time></trkpt>
<trkpt lat="46.19051300" lon="7.18818000"><ele></ele><time>2014-7-5T1:14:28Z</time></trkpt>
<trkpt lat="46.19053200" lon="7.18822800"><ele></ele><time>2014-7-5T1:14:31Z</time></trkpt>
<trkpt lat="46.19054100" lon="7.18827800"><ele></ele><time>2014-7-5T1:14:34Z</time></trkpt>
<trkpt lat="46.19053900" lon="7.18830900"><ele></ele><time>2014-7-5T1:14:37Z</time></trkpt>
<trkpt lat="46.19052900" lon="7.18832800"><ele></ele><time>2014-7-5T1:14:40Z</time></trkpt>
<trkpt lat="46.19051400" lon="7.18834300"><ele></ele><time>2014-7-5T1:14:43Z</time></trkpt>
<trkpt lat="46.19050200" lon="7.18836100"><ele></ele><time>2014-7-5T1:14:46Z</time></trkpt>
<trkpt lat="46.19049300" lon="7.18838700"><ele></ele><time>2014-7-5T1:14:49Z</time></trkpt>
<trkpt lat="46.19049000" lon="7.18841500"><ele></ele><time>2014-7-5T1:14:52Z</time></trkpt>
<trkpt lat="46.19048800" lon="7.18842800"><ele></ele><time>2014-7-5T1:14:55Z</time></trkpt>
<trkpt lat="46.19048800" lon="7.18843000"><ele></ele><time>2014-7-5T1:14:58Z</time></trkpt>
<trkpt lat="46.19048600" lon="7.18843100"><ele></ele><time>2014-7-5T1:15:1Z</time></trkpt>
<trkpt lat="46.19052900" lon="7.18844100"><ele></ele><time>2014-7-5T1:15:4Z</time></trkpt>
<trkpt lat="46.19052900" lon="7.18847200"><ele></ele><time>2014-7-5T1:15:7Z</time></trkpt>
<trkpt lat="46.19053300" lon="7.18851100"><ele></ele><time>2014-7-5T1:15:10Z</time></trkpt>
<trkpt lat="46.19054500" lon="7.18854400"><ele></ele><time>2014-7-5T1:15:13Z</time></trkpt>
<trkpt lat="46.19056000" lon="7.18858100"><ele></ele><time>2014-7-5T1:15:16Z</time></trkpt>
<trkpt lat="46.19057700" lon="7.18862500"><ele></ele><time>2014-7-5T1:15:19Z</time></trkpt>
<trkpt lat="46.19060300" lon="7.18869000"><ele></ele><time>2014-7-5T1:15:22Z</time></trkpt>
<trkpt lat="46.19064300" lon="7.18876500"><ele></ele><time>2014-7-5T1:15:25Z</time></trkpt>
<trkpt lat="46.19068100" lon="7.18883000"><ele></ele><time>2014-7-5T1:15:28Z</time></trkpt>
<trkpt lat="46.19070900" lon="7.18888700"><ele></ele><time>2014-7-5T1:15:31Z</time></trkpt>
<trkpt lat="46.19072700" lon="7.18894100"><ele></ele><time>2014-7-5T1:15:34Z</time></trkpt>
<trkpt lat="46.19073900" lon="7.18899700"><ele></ele><time>2014-7-5T1:15:37Z</time></trkpt>
<trkpt lat="46.19074600" lon="7.18905500"><ele></ele><time>2014-7-5T1:15:40Z</time></trkpt>
<trkpt lat="46.19074800" lon="7.18910600"><ele></ele><time>2014-7-5T1:15:43Z</time></trkpt>
<trkpt lat="46.19074800" lon="7.18914500"><ele></ele><time>2014-7-5T1:15:46Z</time></trkpt>
<trkpt lat="46.19074400" lon="7.18917700"><ele></ele><time>2014-7-5T1:15:49Z</time></trkpt>
<trkpt lat="46.19074000" lon="7.18920900"><ele></ele><time>2014-7-5T1:15:52Z</time></trkpt>
<trkpt lat="46.19074200" lon="7.18924400"><ele></ele><time>2014-7-5T1:15:55Z</time></trkpt>
<trkpt lat="46.19074500" lon="7.18929100"><ele></ele><time>2014-7-5T1:15:58Z</time></trkpt>
<trkpt lat="46.19074900" lon="7.18934600"><ele></ele><time>2014-7-5T1:16:1Z</time></trkpt>
<trkpt lat="46.19074700" lon="7.18940200"><ele></ele><time>2014-7-5T1:16:4Z</time></trkpt>
<trkpt lat="46.19072900" lon="7.18944100"><ele></ele><time>2014-7-5T1:16:7Z</time></trkpt>
<trkpt lat="46.19070100" lon="7.18947900"><ele></ele><time>2014-7-5T1:16:10Z</time></trkpt>
<trkpt lat="46.19066200" lon="7.18953000"><ele></ele><time>2014-7-5T1:16:13Z</time></trkpt>
<trkpt lat="46.19062100" lon="7.18959300"><ele></ele><time>2014-7-5T1:16:16Z</time></trkpt>
<trkpt lat="46.19058900" lon="7.18965000"><ele></ele><time>2014-7-5T1:16:19Z</time></trkpt>
<trkpt lat="46.19056700" lon="7.18968800"><ele></ele><time>2014-7-5T1:16:22Z</time></trkpt>
<trkpt lat="46.19055600" lon="7.18971400"><ele></ele><time>2014-7-5T1:16:25Z</time></trkpt>
<trkpt lat="46.19055000" lon="7.18973700"><ele></ele><time>2014-7-5T1:16:28Z</time></trkpt>
<trkpt lat="46.19054200" lon="7.18975900"><ele></ele><time>2014-7-5T1:16:31Z</time></trkpt>
<trkpt lat="46.19053100" lon="7.18977900"><ele></ele><time>2014-7-5T1:16:34Z</time></trkpt>
<trkpt lat="46.19051600" lon="7.18980200"><ele></ele><time>2014-7-5T1:16:37Z</time></trkpt>
<trkpt lat="46.19050100" lon="7.18982700"><ele></ele><time>2014-7-5T1:16:40Z</time></trkpt>
<trkpt lat="46.19048900" lon="7.18985100"><ele></ele><time>2014-7-5T1:16:43Z</time></trkpt>
<trkpt lat="46.19047500" lon="7.18987700"><ele></ele><time>2014-7-5T1:16:46Z</time></trkpt>
<trkpt lat="46.19046700" lon="7.18989800"><ele></ele><time>2014-7-5T1:16:49Z</time></trkpt>
<trkpt lat="46.19045400" lon="7.18992100"><ele></ele><time>2014-7-5T1:16:52Z</time></trkpt>
<trkpt lat="46.19044600" lon="7.18993400"><ele></ele><time>2014-7-5T1:16:55Z</time></trkpt>
<trkpt lat="46.19043500" lon="7.18993600"><ele></ele><time>2014-7-5T1:16:58Z</time></trkpt>
<trkpt lat="46.19042900" lon="7.18994000"><ele></ele><time>2014-7-5T1:17:1Z</time></trkpt>
<trkpt lat="46.19042600" lon="7.18994600"><ele></ele><time>2014-7-5T1:17:4Z</time></trkpt>
<trkpt lat="46.19040700" lon="7.19003400"><ele></ele><time>2014-7-5T1:17:7Z</time></trkpt>
<trkpt lat="46.19038600" lon="7.19007700"><ele></ele><time>2014-7-5T1:17:10Z</time></trkpt>
<trkpt lat="46.19036000" lon="7.19012000"><ele></ele><time>2014-7-5T1:17:13Z</time></trkpt>
<trkpt lat="46.19032500" lon="7.19016700"><ele></ele><time>2014-7-5T1:17:16Z</time></trkpt>
<trkpt lat="46.19028200" lon="7.19021300"><ele></ele><time>2014-7-5T1:17:19Z</time></trkpt>
<trkpt lat="46.19023500" lon="7.19025800"><ele></ele><time>2014-7-5T1:17:22Z</time></trkpt>
<trkpt lat="46.19018500" lon="7.19030700"><ele></ele><time>2014-7-5T1:17:25Z</time></trkpt>
<trkpt lat="46.19013100" lon="7.19036700"><ele></ele><time>2014-7-5T1:17:28Z</time></trkpt>
<trkpt lat="46.19007000" lon="7.19046500"><ele></ele><time>2014-7-5T1:17:31Z</time></trkpt>
<trkpt lat="46.18999600" lon="7.19059300"><ele></ele><time>2014-7-5T1:17:34Z</time></trkpt>
<trkpt lat="46.18993200" lon="7.19070200"><ele></ele><time>2014-7-5T1:17:37Z</time></trkpt>
<trkpt lat="46.18987800" lon="7.19079400"><ele></ele><time>2014-7-5T1:17:40Z</time></trkpt>
<trkpt lat="46.18985200" lon="7.19083700"><ele></ele><time>2014-7-5T1:17:43Z</time></trkpt>
<trkpt lat="46.18986100" lon="7.19084300"><ele></ele><time>2014-7-5T1:17:46Z</time></trkpt>
<trkpt lat="46.18986600" lon="7.19085000"><ele></ele><time>2014-7-5T1:17:49Z</time></trkpt>
<trkpt lat="46.18986700" lon="7.19085000"><ele></ele><time>2014-7-5T1:17:52Z</time></trkpt>
<trkpt lat="46.18986900" lon="7.19084900"><ele></ele><time>2014-7-5T1:17:55Z</time></trkpt>
<trkpt lat="46.18986500" lon="7.19089400"><ele></ele><time>2014-7-5T1:17:58Z</time></trkpt>
<trkpt lat="46.18985500" lon="7.19091800"><ele></ele><time>2014-7-5T1:18:1Z</time></trkpt>
<trkpt lat="46.18984700" lon="7.19094100"><ele></ele><time>2014-7-5T1:18:4Z</time></trkpt>
<trkpt lat="46.18984000" lon="7.19095900"><ele></ele><time>2014-7-5T1:18:7Z</time></trkpt>
<trkpt lat="46.18982900" lon="7.19097700"><ele></ele><time>2014-7-5T1:18:10Z</time></trkpt>
<trkpt lat="46.18981900" lon="7.19099800"><ele></ele><time>2014-7-5T1:18:13Z</time></trkpt>
<trkpt lat="46.18981000" lon="7.19102400"><ele></ele><time>2014-7-5T1:18:16Z</time></trkpt>
<trkpt lat="46.18980700" lon="7.19105500"><ele></ele><time>2014-7-5T1:18:19Z</time></trkpt>
<trkpt lat="46.18980300" lon="7.19108700"><ele></ele><time>2014-7-5T1:18:22Z</time></trkpt>
<trkpt lat="46.18979200" lon="7.19111600"><ele></ele><time>2014-7-5T1:18:25Z</time></trkpt>
<trkpt lat="46.18978000" lon="7.19114400"><ele></ele><time>2014-7-5T1:18:28Z</time></trkpt>
<trkpt lat="46.18976900" lon="7.19117400"><ele></ele><time>2014-7-5T1:18:31Z</time></trkpt>
<trkpt lat="46.18975900" lon="7.19120500"><ele></ele><time>2014-7-5T1:18:34Z</time></trkpt>
<trkpt lat="46.18974800" lon="7.19123300"><ele></ele><time>2014-7-5T1:18:37Z</time></trkpt>
<trkpt lat="46.18973400" lon="7.19125700"><ele></ele><time>2014-7-5T1:18:40Z</time></trkpt>
<trkpt lat="46.18972400" lon="7.19128100"><ele></ele><time>2014-7-5T1:18:43Z</time></trkpt>
<trkpt lat="46.18971400" lon="7.19130600"><ele></ele><time>2014-7-5T1:18:46Z</time></trkpt>
<trkpt lat="46.18970400" lon="7.19133200"><ele></ele><time>2014-7-5T1:18:49Z</time></trkpt>
<trkpt lat="46.18969300" lon="7.19135900"><ele></ele><time>2014-7-5T1:18:52Z</time></trkpt>
<trkpt lat="46.18968200" lon="7.19138800"><ele></ele><time>2014-7-5T1:18:55Z</time></trkpt>
<trkpt lat="46.18967300" lon="7.19141900"><ele></ele><time>2014-7-5T1:18:58Z</time></trkpt>
<trkpt lat="46.18966700" lon="7.19145000"><ele></ele><time>2014-7-5T1:19:1Z</time></trkpt>
<trkpt lat="46.18966300" lon="7.19148300"><ele></ele><time>2014-7-5T1:19:4Z</time></trkpt>
<trkpt lat="46.18966000" lon="7.19151800"><ele></ele><time>2014-7-5T1:19:7Z</time></trkpt>
<trkpt lat="46.18965800" lon="7.19154900"><ele></ele><time>2014-7-5T1:19:10Z</time></trkpt>
<trkpt lat="46.18965400" lon="7.19157600"><ele></ele><time>2014-7-5T1:19:13Z</time></trkpt>
<trkpt lat="46.18965100" lon="7.19159700"><ele></ele><time>2014-7-5T1:19:16Z</time></trkpt>
<trkpt lat="46.18964700" lon="7.19162000"><ele></ele><time>2014-7-5T1:19:19Z</time></trkpt>
<trkpt lat="46.18964300" lon="7.19165100"><ele></ele><time>2014-7-5T1:19:22Z</time></trkpt>
<trkpt lat="46.18963700" lon="7.19169100"><ele></ele><time>2014-7-5T1:19:25Z</time></trkpt>
<trkpt lat="46.18963000" lon="7.19172900"><ele></ele><time>2014-7-5T1:19:28Z</time></trkpt>
<trkpt lat="46.18962700" lon="7.19175100"><ele></ele><time>2014-7-5T1:19:31Z</time></trkpt>
<trkpt lat="46.18962600" lon="7.19175800"><ele></ele><time>2014-7-5T1:19:34Z</time></trkpt>
<trkpt lat="46.18962500" lon="7.19175900"><ele></ele><time>2014-7-5T1:19:37Z</time></trkpt>
<trkpt lat="46.18961400" lon="7.19182700"><ele></ele><time>2014-7-5T1:19:40Z</time></trkpt>
<trkpt lat="46.18961000" lon="7.19186300"><ele></ele><time>2014-7-5T1:19:43Z</time></trkpt>
<trkpt lat="46.18960600" lon="7.19189900"><ele></ele><time>2014-7-5T1:19:46Z</time></trkpt>
<trkpt lat="46.18960200" lon="7.19194000"><ele></ele><time>2014-7-5T1:19:49Z</time></trkpt>
<trkpt lat="46.18959800" lon="7.19198900"><ele></ele><time>2014-7-5T1:19:52Z</time></trkpt>
<trkpt lat="46.18959200" lon="7.19204400"><ele></ele><time>2014-7-5T1:19:55Z</time></trkpt>
<trkpt lat="46.18958300" lon="7.19210200"><ele></ele><time>2014-7-5T1:19:58Z</time></trkpt>
<trkpt lat="46.18957500" lon="7.19216300"><ele></ele><time>2014-7-5T1:20:1Z</time></trkpt>
<trkpt lat="46.18957300" lon="7.19223200"><ele></ele><time>2014-7-5T1:20:4Z</time></trkpt>
<trkpt lat="46.18957800" lon="7.19230600"><ele></ele><time>2014-7-5T1:20:7Z</time></trkpt>
<trkpt lat="46.18958300" lon="7.19237900"><ele></ele><time>2014-7-5T1:20:10Z</time></trkpt>
<trkpt lat="46.18959200" lon="7.19244500"><ele></ele><time>2014-7-5T1:20:13Z</time></trkpt>
<trkpt lat="46.18960300" lon="7.19249700"><ele></ele><time>2014-7-5T1:20:16Z</time></trkpt>
<trkpt lat="46.18961100" lon="7.19253700"><ele></ele><time>2014-7-5T1:20:19Z</time></trkpt>
<trkpt lat="46.18961700" lon="7.19257400"><ele></ele><time>2014-7-5T1:20:22Z</time></trkpt>
<trkpt lat="46.18962100" lon="7.19261300"><ele></ele><time>2014-7-5T1:20:25Z</time></trkpt>
<trkpt lat="46.18962200" lon="7.19265900"><ele></ele><time>2014-7-5T1:20:28Z</time></trkpt>
<trkpt lat="46.18962600" lon="7.19270900"><ele></ele><time>2014-7-5T1:20:31Z</time></trkpt>
<trkpt lat="46.18963900" lon="7.19276300"><ele></ele><time>2014-7-5T1:20:34Z</time></trkpt>
<trkpt lat="46.18966400" lon="7.19281600"><ele></ele><time>2014-7-5T1:20:37Z</time></trkpt>
<trkpt lat="46.18969500" lon="7.19286600"><ele></ele><time>2014-7-5T1:20:40Z</time></trkpt>
<trkpt lat="46.18971400" lon="7.19291300"><ele></ele><time>2014-7-5T1:20:43Z</time></trkpt>
<trkpt lat="46.18970900" lon="7.19295400"><ele></ele><time>2014-7-5T1:20:46Z</time></trkpt>
<trkpt lat="46.18968500" lon="7.19296800"><ele></ele><time>2014-7-5T1:20:49Z</time></trkpt>
<trkpt lat="46.18965900" lon="7.19295500"><ele></ele><time>2014-7-5T1:20:52Z</time></trkpt>
<trkpt lat="46.18963300" lon="7.19292800"><ele></ele><time>2014-7-5T1:20:55Z</time></trkpt>
<trkpt lat="46.18960600" lon="7.19288600"><ele></ele><time>2014-7-5T1:20:58Z</time></trkpt>
<trkpt lat="46.18957800" lon="7.19283400"><ele></ele><time>2014-7-5T1:21:1Z</time></trkpt>
<trkpt lat="46.18954400" lon="7.19277800"><ele></ele><time>2014-7-5T1:21:4Z</time></trkpt>
<trkpt lat="46.18950000" lon="7.19272600"><ele></ele><time>2014-7-5T1:21:7Z</time></trkpt>
<trkpt lat="46.18944000" lon="7.19267400"><ele></ele><time>2014-7-5T1:21:10Z</time></trkpt>
<trkpt lat="46.18936600" lon="7.19261800"><ele></ele><time>2014-7-5T1:21:13Z</time></trkpt>
<trkpt lat="46.18928800" lon="7.19255800"><ele></ele><time>2014-7-5T1:21:16Z</time></trkpt>
<trkpt lat="46.18921600" lon="7.19250100"><ele></ele><time>2014-7-5T1:21:19Z</time></trkpt>
<trkpt lat="46.18914100" lon="7.19244300"><ele></ele><time>2014-7-5T1:21:22Z</time></trkpt>
<trkpt lat="46.18906300" lon="7.19238300"><ele></ele><time>2014-7-5T1:21:25Z</time></trkpt>
<trkpt lat="46.18899400" lon="7.19232500"><ele></ele><time>2014-7-5T1:21:28Z</time></trkpt>
<trkpt lat="46.18892600" lon="7.19226500"><ele></ele><time>2014-7-5T1:21:31Z</time></trkpt>
<trkpt lat="46.18886000" lon="7.19220900"><ele></ele><time>2014-7-5T1:21:34Z</time></trkpt>
<trkpt lat="46.18880300" lon="7.19215500"><ele></ele><time>2014-7-5T1:21:37Z</time></trkpt>
<trkpt lat="46.18875600" lon="7.19210500"><ele></ele><time>2014-7-5T1:21:40Z</time></trkpt>
<trkpt lat="46.18870800" lon="7.19206300"><ele></ele><time>2014-7-5T1:21:43Z</time></trkpt>
<trkpt lat="46.18865600" lon="7.19202900"><ele></ele><time>2014-7-5T1:21:46Z</time></trkpt>
<trkpt lat="46.18860000" lon="7.19201500"><ele></ele><time>2014-7-5T1:21:49Z</time></trkpt>
<trkpt lat="46.18854000" lon="7.19203700"><ele></ele><time>2014-7-5T1:21:52Z</time></trkpt>
<trkpt lat="46.18848300" lon="7.19209300"><ele></ele><time>2014-7-5T1:21:55Z</time></trkpt>
<trkpt lat="46.18842800" lon="7.19217700"><ele></ele><time>2014-7-5T1:21:58Z</time></trkpt>
<trkpt lat="46.18837400" lon="7.19227100"><ele></ele><time>2014-7-5T1:22:1Z</time></trkpt>
<trkpt lat="46.18832300" lon="7.19235100"><ele></ele><time>2014-7-5T1:22:4Z</time></trkpt>
<trkpt lat="46.18826900" lon="7.19239800"><ele></ele><time>2014-7-5T1:22:7Z</time></trkpt>
<trkpt lat="46.18819800" lon="7.19241100"><ele></ele><time>2014-7-5T1:22:10Z</time></trkpt>
<trkpt lat="46.18811600" lon="7.19239700"><ele></ele><time>2014-7-5T1:22:13Z</time></trkpt>
<trkpt lat="46.18804000" lon="7.19237800"><ele></ele><time>2014-7-5T1:22:16Z</time></trkpt>
<trkpt lat="46.18797900" lon="7.19237400"><ele></ele><time>2014-7-5T1:22:19Z</time></trkpt>
<trkpt lat="46.18793500" lon="7.19238700"><ele></ele><time>2014-7-5T1:22:22Z</time></trkpt>
<trkpt lat="46.18790200" lon="7.19241200"><ele></ele><time>2014-7-5T1:22:25Z</time></trkpt>
<trkpt lat="46.18786800" lon="7.19244200"><ele></ele><time>2014-7-5T1:22:28Z</time></trkpt>
<trkpt lat="46.18782900" lon="7.19247300"><ele></ele><time>2014-7-5T1:22:31Z</time></trkpt>
<trkpt lat="46.18778600" lon="7.19250500"><ele></ele><time>2014-7-5T1:22:34Z</time></trkpt>
<trkpt lat="46.18773200" lon="7.19254000"><ele></ele><time>2014-7-5T1:22:37Z</time></trkpt>
<trkpt lat="46.18766400" lon="7.19257000"><ele></ele><time>2014-7-5T1:22:40Z</time></trkpt>
<trkpt lat="46.18759300" lon="7.19259000"><ele></ele><time>2014-7-5T1:22:43Z</time></trkpt>
<trkpt lat="46.18752600" lon="7.19260600"><ele></ele><time>2014-7-5T1:22:46Z</time></trkpt>
<trkpt lat="46.18746200" lon="7.19261600"><ele></ele><time>2014-7-5T1:22:49Z</time></trkpt>
<trkpt lat="46.18740300" lon="7.19262300"><ele></ele><time>2014-7-5T1:22:52Z</time></trkpt>
<trkpt lat="46.18735300" lon="7.19262900"><ele></ele><time>2014-7-5T1:22:55Z</time></trkpt>
<trkpt lat="46.18731500" lon="7.19263300"><ele></ele><time>2014-7-5T1:22:58Z</time></trkpt>
<trkpt lat="46.18728800" lon="7.19264500"><ele></ele><time>2014-7-5T1:23:1Z</time></trkpt>
<trkpt lat="46.18726800" lon="7.19267600"><ele></ele><time>2014-7-5T1:23:4Z</time></trkpt>
<trkpt lat="46.18725900" lon="7.19272300"><ele></ele><time>2014-7-5T1:23:7Z</time></trkpt>
<trkpt lat="46.18725900" lon="7.19278700"><ele></ele><time>2014-7-5T1:23:10Z</time></trkpt>
<trkpt lat="46.18726200" lon="7.19286400"><ele></ele><time>2014-7-5T1:23:13Z</time></trkpt>
<trkpt lat="46.18726600" lon="7.19295100"><ele></ele><time>2014-7-5T1:23:16Z</time></trkpt>
<trkpt lat="46.18727300" lon="7.19306200"><ele></ele><time>2014-7-5T1:23:19Z</time></trkpt>
<trkpt lat="46.18728300" lon="7.19315100"><ele></ele><time>2014-7-5T1:23:22Z</time></trkpt>
<trkpt lat="46.18729600" lon="7.19320000"><ele></ele><time>2014-7-5T1:23:25Z</time></trkpt>
<trkpt lat="46.18730800" lon="7.19323100"><ele></ele><time>2014-7-5T1:23:28Z</time></trkpt>
<trkpt lat="46.18731200" lon="7.19326000"><ele></ele><time>2014-7-5T1:23:31Z</time></trkpt>
<trkpt lat="46.18730900" lon="7.19328400"><ele></ele><time>2014-7-5T1:23:34Z</time></trkpt>
<trkpt lat="46.18730500" lon="7.19329500"><ele></ele><time>2014-7-5T1:23:37Z</time></trkpt>
<trkpt lat="46.18730300" lon="7.19329600"><ele></ele><time>2014-7-5T1:23:40Z</time></trkpt>
<trkpt lat="46.18730000" lon="7.19329700"><ele></ele><time>2014-7-5T1:23:43Z</time></trkpt>
</trkseg></trk></gpx>